<?xml version='1.0' encoding='UTF-8'?><gpx version="1.1" creator="JPX - https://github.com/jenetics/jpx" xmlns="http://www.topografix.com/GPX/1/1"><trk><trkseg><trkpt lat="40.2191033" lon="15.2724083"><ele>472.0</ele><time>2026-05-03T13:46:07.982Z</time></trkpt><trkpt lat="40.219125" lon="15.2725183"><ele>472.00000000000006</ele><time>2026-05-03T13:46:10.984Z</time></trkpt><trkpt lat="40.219125" lon="15.2726067"><ele>472.00000000000006</ele><time>2026-05-03T13:46:12.983Z</time></trkpt><trkpt lat="40.2191083" lon="15.2727583"><ele>472.0</ele><time>2026-05-03T13:46:14.982Z</time></trkpt><trkpt lat="40.2190917" lon="15.27284"><ele>472.0</ele><time>2026-05-03T13:46:15.983Z</time></trkpt><trkpt lat="40.2190483" lon="15.2729833"><ele>472.00000000000006</ele><time>2026-05-03T13:46:17.983Z</time></trkpt><trkpt lat="40.21903" lon="15.2730867"><ele>472.0</ele><time>2026-05-03T13:46:19.982Z</time></trkpt><trkpt lat="40.2190883" lon="15.27314"><ele>472.0</ele><time>2026-05-03T13:46:25.985Z</time></trkpt><trkpt lat="40.2191567" lon="15.273125"><ele>472.0</ele><time>2026-05-03T13:46:26.984Z</time></trkpt><trkpt lat="40.219225" lon="15.2730983"><ele>472.00000000000006</ele><time>2026-05-03T13:46:27.984Z</time></trkpt><trkpt lat="40.2193067" lon="15.2730617"><ele>472.0</ele><time>2026-05-03T13:46:28.983Z</time></trkpt><trkpt lat="40.219405" lon="15.2730017"><ele>472.0</ele><time>2026-05-03T13:46:29.985Z</time></trkpt><trkpt lat="40.2195083" lon="15.27294"><ele>472.0</ele><time>2026-05-03T13:46:30.984Z</time></trkpt><trkpt lat="40.219615" lon="15.272875"><ele>472.0</ele><time>2026-05-03T13:46:31.983Z</time></trkpt><trkpt lat="40.21972" lon="15.2728133"><ele>472.0</ele><time>2026-05-03T13:46:32.984Z</time></trkpt><trkpt lat="40.21982" lon="15.2727533"><ele>471.6</ele><time>2026-05-03T13:46:33.984Z</time></trkpt><trkpt lat="40.2199217" lon="15.2726917"><ele>471.20000000000005</ele><time>2026-05-03T13:46:34.983Z</time></trkpt><trkpt lat="40.2200167" lon="15.2726367"><ele>470.8</ele><time>2026-05-03T13:46:35.986Z</time></trkpt><trkpt lat="40.22011" lon="15.2725867"><ele>470.4</ele><time>2026-05-03T13:46:36.984Z</time></trkpt><trkpt lat="40.2202017" lon="15.2725367"><ele>470.0</ele><time>2026-05-03T13:46:37.984Z</time></trkpt><trkpt lat="40.2202917" lon="15.2724867"><ele>470.0</ele><time>2026-05-03T13:46:38.985Z</time></trkpt><trkpt lat="40.2203783" lon="15.2724333"><ele>470.0</ele><time>2026-05-03T13:46:39.984Z</time></trkpt><trkpt lat="40.22047" lon="15.2723767"><ele>470.0</ele><time>2026-05-03T13:46:40.983Z</time></trkpt><trkpt lat="40.22057" lon="15.27232"><ele>470.0</ele><time>2026-05-03T13:46:41.984Z</time></trkpt><trkpt lat="40.22067" lon="15.2722667"><ele>470.0</ele><time>2026-05-03T13:46:42.985Z</time></trkpt><trkpt lat="40.220765" lon="15.272215"><ele>469.2</ele><time>2026-05-03T13:46:43.984Z</time></trkpt><trkpt lat="40.22086" lon="15.2721617"><ele>468.4</ele><time>2026-05-03T13:46:44.984Z</time></trkpt><trkpt lat="40.2209533" lon="15.2721083"><ele>467.6</ele><time>2026-05-03T13:46:45.985Z</time></trkpt><trkpt lat="40.2210483" lon="15.272055"><ele>466.8</ele><time>2026-05-03T13:46:46.983Z</time></trkpt><trkpt lat="40.2211433" lon="15.27202"><ele>466.0</ele><time>2026-05-03T13:46:47.988Z</time></trkpt><trkpt lat="40.2212333" lon="15.2719683"><ele>466.0</ele><time>2026-05-03T13:46:48.985Z</time></trkpt><trkpt lat="40.22133" lon="15.2719183"><ele>466.0</ele><time>2026-05-03T13:46:49.985Z</time></trkpt><trkpt lat="40.221435" lon="15.2718767"><ele>466.0</ele><time>2026-05-03T13:46:50.984Z</time></trkpt><trkpt lat="40.2215517" lon="15.2718617"><ele>466.0</ele><time>2026-05-03T13:46:51.983Z</time></trkpt><trkpt lat="40.221675" lon="15.2718583"><ele>465.5</ele><time>2026-05-03T13:46:52.983Z</time></trkpt><trkpt lat="40.2217967" lon="15.2718617"><ele>465.0</ele><time>2026-05-03T13:46:53.983Z</time></trkpt><trkpt lat="40.2219217" lon="15.27187"><ele>464.5</ele><time>2026-05-03T13:46:54.984Z</time></trkpt><trkpt lat="40.2220467" lon="15.2718867"><ele>464.0</ele><time>2026-05-03T13:46:55.984Z</time></trkpt><trkpt lat="40.22217" lon="15.2719"><ele>464.0</ele><time>2026-05-03T13:46:56.985Z</time></trkpt><trkpt lat="40.2222917" lon="15.2719117"><ele>464.0</ele><time>2026-05-03T13:46:57.984Z</time></trkpt><trkpt lat="40.2224167" lon="15.2719283"><ele>464.0</ele><time>2026-05-03T13:46:58.983Z</time></trkpt><trkpt lat="40.22254" lon="15.271945"><ele>464.0</ele><time>2026-05-03T13:46:59.984Z</time></trkpt><trkpt lat="40.222665" lon="15.271955"><ele>463.0</ele><time>2026-05-03T13:47:00.984Z</time></trkpt><trkpt lat="40.2227917" lon="15.271965"><ele>462.0</ele><time>2026-05-03T13:47:01.983Z</time></trkpt><trkpt lat="40.22292" lon="15.27198"><ele>461.0</ele><time>2026-05-03T13:47:02.984Z</time></trkpt><trkpt lat="40.22305" lon="15.2719917"><ele>460.0</ele><time>2026-05-03T13:47:03.984Z</time></trkpt><trkpt lat="40.22318" lon="15.2719967"><ele>458.75</ele><time>2026-05-03T13:47:04.984Z</time></trkpt><trkpt lat="40.22331" lon="15.2719783"><ele>457.5</ele><time>2026-05-03T13:47:05.984Z</time></trkpt><trkpt lat="40.223435" lon="15.271935"><ele>456.25</ele><time>2026-05-03T13:47:06.984Z</time></trkpt><trkpt lat="40.22356" lon="15.2718767"><ele>455.0</ele><time>2026-05-03T13:47:07.984Z</time></trkpt><trkpt lat="40.2236833" lon="15.271815"><ele>455.0</ele><time>2026-05-03T13:47:08.987Z</time></trkpt><trkpt lat="40.2238083" lon="15.27175"><ele>455.0</ele><time>2026-05-03T13:47:09.984Z</time></trkpt><trkpt lat="40.2239333" lon="15.2716867"><ele>455.0</ele><time>2026-05-03T13:47:10.984Z</time></trkpt><trkpt lat="40.22406" lon="15.2716267"><ele>455.0</ele><time>2026-05-03T13:47:11.983Z</time></trkpt><trkpt lat="40.2241883" lon="15.271565"><ele>454.75</ele><time>2026-05-03T13:47:12.983Z</time></trkpt><trkpt lat="40.2243167" lon="15.2715083"><ele>454.5</ele><time>2026-05-03T13:47:13.983Z</time></trkpt><trkpt lat="40.2244433" lon="15.271455"><ele>454.25</ele><time>2026-05-03T13:47:14.984Z</time></trkpt><trkpt lat="40.2245683" lon="15.2714067"><ele>454.0</ele><time>2026-05-03T13:47:15.984Z</time></trkpt><trkpt lat="40.2246933" lon="15.2713683"><ele>451.75</ele><time>2026-05-03T13:47:16.982Z</time></trkpt><trkpt lat="40.224815" lon="15.2713367"><ele>449.5</ele><time>2026-05-03T13:47:17.983Z</time></trkpt><trkpt lat="40.2249383" lon="15.2713133"><ele>447.25</ele><time>2026-05-03T13:47:18.983Z</time></trkpt><trkpt lat="40.2250567" lon="15.27129"><ele>445.0</ele><time>2026-05-03T13:47:19.983Z</time></trkpt><trkpt lat="40.2251767" lon="15.27127"><ele>445.0</ele><time>2026-05-03T13:47:20.983Z</time></trkpt><trkpt lat="40.2252917" lon="15.2712433"><ele>445.0</ele><time>2026-05-03T13:47:21.982Z</time></trkpt><trkpt lat="40.2254083" lon="15.2712183"><ele>445.0</ele><time>2026-05-03T13:47:22.982Z</time></trkpt><trkpt lat="40.2255283" lon="15.2711967"><ele>445.0</ele><time>2026-05-03T13:47:23.984Z</time></trkpt><trkpt lat="40.225645" lon="15.2711717"><ele>444.0</ele><time>2026-05-03T13:47:24.985Z</time></trkpt><trkpt lat="40.2257617" lon="15.2711517"><ele>443.0</ele><time>2026-05-03T13:47:25.983Z</time></trkpt><trkpt lat="40.2258783" lon="15.2711317"><ele>442.0</ele><time>2026-05-03T13:47:26.984Z</time></trkpt><trkpt lat="40.2259917" lon="15.2711067"><ele>441.0</ele><time>2026-05-03T13:47:27.983Z</time></trkpt><trkpt lat="40.2261083" lon="15.2710867"><ele>441.0</ele><time>2026-05-03T13:47:28.983Z</time></trkpt><trkpt lat="40.226225" lon="15.2710717"><ele>441.0</ele><time>2026-05-03T13:47:29.984Z</time></trkpt><trkpt lat="40.2263417" lon="15.2710733"><ele>441.0</ele><time>2026-05-03T13:47:30.985Z</time></trkpt><trkpt lat="40.2264567" lon="15.2710867"><ele>441.0</ele><time>2026-05-03T13:47:31.983Z</time></trkpt><trkpt lat="40.2265717" lon="15.271105"><ele>440.75</ele><time>2026-05-03T13:47:32.984Z</time></trkpt><trkpt lat="40.2266833" lon="15.2711233"><ele>440.5</ele><time>2026-05-03T13:47:33.983Z</time></trkpt><trkpt lat="40.2267983" lon="15.2711417"><ele>440.25</ele><time>2026-05-03T13:47:34.983Z</time></trkpt><trkpt lat="40.226915" lon="15.271165"><ele>440.0</ele><time>2026-05-03T13:47:35.984Z</time></trkpt><trkpt lat="40.2270317" lon="15.27119"><ele>440.0</ele><time>2026-05-03T13:47:36.984Z</time></trkpt><trkpt lat="40.2271517" lon="15.2712117"><ele>440.0</ele><time>2026-05-03T13:47:37.983Z</time></trkpt><trkpt lat="40.2272683" lon="15.2712317"><ele>440.0</ele><time>2026-05-03T13:47:38.984Z</time></trkpt><trkpt lat="40.2273867" lon="15.27125"><ele>440.0</ele><time>2026-05-03T13:47:39.983Z</time></trkpt><trkpt lat="40.2275033" lon="15.2712667"><ele>438.5</ele><time>2026-05-03T13:47:40.983Z</time></trkpt><trkpt lat="40.22762" lon="15.2712867"><ele>437.0</ele><time>2026-05-03T13:47:41.984Z</time></trkpt><trkpt lat="40.2277367" lon="15.27131"><ele>435.5</ele><time>2026-05-03T13:47:42.983Z</time></trkpt><trkpt lat="40.227855" lon="15.27133"><ele>434.0</ele><time>2026-05-03T13:47:43.984Z</time></trkpt><trkpt lat="40.227975" lon="15.2713533"><ele>434.0</ele><time>2026-05-03T13:47:44.984Z</time></trkpt><trkpt lat="40.22809" lon="15.2713683"><ele>434.0</ele><time>2026-05-03T13:47:45.984Z</time></trkpt><trkpt lat="40.2282" lon="15.2713783"><ele>434.0</ele><time>2026-05-03T13:47:46.984Z</time></trkpt><trkpt lat="40.2283133" lon="15.2713933"><ele>434.0</ele><time>2026-05-03T13:47:47.984Z</time></trkpt><trkpt lat="40.228425" lon="15.2714117"><ele>433.25</ele><time>2026-05-03T13:47:48.983Z</time></trkpt><trkpt lat="40.2285367" lon="15.2714333"><ele>432.5</ele><time>2026-05-03T13:47:49.987Z</time></trkpt><trkpt lat="40.2286467" lon="15.2714683"><ele>431.75</ele><time>2026-05-03T13:47:50.984Z</time></trkpt><trkpt lat="40.2287567" lon="15.2715283"><ele>431.0</ele><time>2026-05-03T13:47:51.985Z</time></trkpt><trkpt lat="40.22886" lon="15.2716133"><ele>431.0</ele><time>2026-05-03T13:47:52.984Z</time></trkpt><trkpt lat="40.2289533" lon="15.2717117"><ele>431.0</ele><time>2026-05-03T13:47:53.984Z</time></trkpt><trkpt lat="40.2290433" lon="15.2718133"><ele>431.0</ele><time>2026-05-03T13:47:54.984Z</time></trkpt><trkpt lat="40.2291333" lon="15.271915"><ele>431.0</ele><time>2026-05-03T13:47:55.985Z</time></trkpt><trkpt lat="40.2292233" lon="15.2720167"><ele>430.5</ele><time>2026-05-03T13:47:56.985Z</time></trkpt><trkpt lat="40.2293133" lon="15.2721183"><ele>430.0</ele><time>2026-05-03T13:47:57.984Z</time></trkpt><trkpt lat="40.2294083" lon="15.2722183"><ele>429.5</ele><time>2026-05-03T13:47:58.984Z</time></trkpt><trkpt lat="40.2295067" lon="15.2723067"><ele>429.0</ele><time>2026-05-03T13:47:59.984Z</time></trkpt><trkpt lat="40.2296083" lon="15.2723833"><ele>429.0</ele><time>2026-05-03T13:48:00.983Z</time></trkpt><trkpt lat="40.2297117" lon="15.272445"><ele>429.0</ele><time>2026-05-03T13:48:01.985Z</time></trkpt><trkpt lat="40.2298217" lon="15.2724933"><ele>429.0</ele><time>2026-05-03T13:48:02.985Z</time></trkpt><trkpt lat="40.2299367" lon="15.272535"><ele>429.0</ele><time>2026-05-03T13:48:03.984Z</time></trkpt><trkpt lat="40.230055" lon="15.2725717"><ele>428.0</ele><time>2026-05-03T13:48:04.984Z</time></trkpt><trkpt lat="40.230175" lon="15.2726083"><ele>427.0</ele><time>2026-05-03T13:48:05.985Z</time></trkpt><trkpt lat="40.2302983" lon="15.2726417"><ele>426.0</ele><time>2026-05-03T13:48:06.985Z</time></trkpt><trkpt lat="40.2304167" lon="15.2726733"><ele>425.0</ele><time>2026-05-03T13:48:07.983Z</time></trkpt><trkpt lat="40.23053" lon="15.2727033"><ele>423.75</ele><time>2026-05-03T13:48:08.985Z</time></trkpt><trkpt lat="40.2306433" lon="15.2727267"><ele>422.5</ele><time>2026-05-03T13:48:09.985Z</time></trkpt><trkpt lat="40.230755" lon="15.2727483"><ele>421.25</ele><time>2026-05-03T13:48:10.984Z</time></trkpt><trkpt lat="40.230865" lon="15.2727767"><ele>420.0</ele><time>2026-05-03T13:48:11.985Z</time></trkpt><trkpt lat="40.2309817" lon="15.2728033"><ele>420.0</ele><time>2026-05-03T13:48:12.985Z</time></trkpt><trkpt lat="40.23111" lon="15.2728433"><ele>420.0</ele><time>2026-05-03T13:48:13.984Z</time></trkpt><trkpt lat="40.2312467" lon="15.2728933"><ele>420.0</ele><time>2026-05-03T13:48:14.985Z</time></trkpt><trkpt lat="40.2313917" lon="15.2729533"><ele>420.0</ele><time>2026-05-03T13:48:15.984Z</time></trkpt><trkpt lat="40.2315367" lon="15.2730333"><ele>418.0</ele><time>2026-05-03T13:48:16.983Z</time></trkpt><trkpt lat="40.2316917" lon="15.273145"><ele>416.0</ele><time>2026-05-03T13:48:17.984Z</time></trkpt><trkpt lat="40.231845" lon="15.27327"><ele>414.0</ele><time>2026-05-03T13:48:18.984Z</time></trkpt><trkpt lat="40.232" lon="15.2733883"><ele>414.0</ele><time>2026-05-03T13:48:19.985Z</time></trkpt><trkpt lat="40.2321517" lon="15.2735033"><ele>414.0</ele><time>2026-05-03T13:48:20.984Z</time></trkpt><trkpt lat="40.2323117" lon="15.2735933"><ele>414.0</ele><time>2026-05-03T13:48:21.984Z</time></trkpt><trkpt lat="40.2324767" lon="15.2736517"><ele>411.33333333333337</ele><time>2026-05-03T13:48:22.984Z</time></trkpt><trkpt lat="40.232645" lon="15.2736817"><ele>408.6666666666667</ele><time>2026-05-03T13:48:23.982Z</time></trkpt><trkpt lat="40.2328133" lon="15.2736867"><ele>406.0</ele><time>2026-05-03T13:48:24.983Z</time></trkpt><trkpt lat="40.2329767" lon="15.2736617"><ele>406.0</ele><time>2026-05-03T13:48:25.984Z</time></trkpt><trkpt lat="40.2331333" lon="15.273615"><ele>406.0</ele><time>2026-05-03T13:48:26.985Z</time></trkpt><trkpt lat="40.2332867" lon="15.2735333"><ele>406.0</ele><time>2026-05-03T13:48:27.984Z</time></trkpt><trkpt lat="40.2334267" lon="15.2734233"><ele>403.6666666666667</ele><time>2026-05-03T13:48:28.985Z</time></trkpt><trkpt lat="40.2335533" lon="15.2732817"><ele>401.33333333333337</ele><time>2026-05-03T13:48:29.984Z</time></trkpt><trkpt lat="40.233665" lon="15.27312"><ele>399.0</ele><time>2026-05-03T13:48:30.983Z</time></trkpt><trkpt lat="40.23376" lon="15.2729417"><ele>399.0</ele><time>2026-05-03T13:48:31.984Z</time></trkpt><trkpt lat="40.2338333" lon="15.27275"><ele>399.0</ele><time>2026-05-03T13:48:32.984Z</time></trkpt><trkpt lat="40.2338883" lon="15.2725483"><ele>399.0</ele><time>2026-05-03T13:48:33.983Z</time></trkpt><trkpt lat="40.2339167" lon="15.2723417"><ele>399.66666666666663</ele><time>2026-05-03T13:48:34.982Z</time></trkpt><trkpt lat="40.2339217" lon="15.2721333"><ele>400.3333333333333</ele><time>2026-05-03T13:48:35.984Z</time></trkpt><trkpt lat="40.2339067" lon="15.2719317"><ele>401.0</ele><time>2026-05-03T13:48:36.984Z</time></trkpt><trkpt lat="40.2338733" lon="15.2717433"><ele>401.0</ele><time>2026-05-03T13:48:37.983Z</time></trkpt><trkpt lat="40.2338333" lon="15.2715633"><ele>401.0</ele><time>2026-05-03T13:48:38.982Z</time></trkpt><trkpt lat="40.2337933" lon="15.2713933"><ele>401.0</ele><time>2026-05-03T13:48:39.984Z</time></trkpt><trkpt lat="40.2337583" lon="15.271225"><ele>401.0</ele><time>2026-05-03T13:48:40.982Z</time></trkpt><trkpt lat="40.2337267" lon="15.2710567"><ele>400.0</ele><time>2026-05-03T13:48:41.982Z</time></trkpt><trkpt lat="40.2336967" lon="15.2708867"><ele>399.0</ele><time>2026-05-03T13:48:42.982Z</time></trkpt><trkpt lat="40.2336567" lon="15.2707183"><ele>398.0</ele><time>2026-05-03T13:48:43.983Z</time></trkpt><trkpt lat="40.2336067" lon="15.27054"><ele>397.0</ele><time>2026-05-03T13:48:44.983Z</time></trkpt><trkpt lat="40.2335617" lon="15.2703417"><ele>395.0</ele><time>2026-05-03T13:48:45.982Z</time></trkpt><trkpt lat="40.2335183" lon="15.2701267"><ele>393.0</ele><time>2026-05-03T13:48:46.981Z</time></trkpt><trkpt lat="40.2334717" lon="15.2698967"><ele>391.0</ele><time>2026-05-03T13:48:47.982Z</time></trkpt><trkpt lat="40.23342" lon="15.2696533"><ele>390.0</ele><time>2026-05-03T13:48:48.981Z</time></trkpt><trkpt lat="40.2333683" lon="15.26941"><ele>389.0</ele><time>2026-05-03T13:48:49.982Z</time></trkpt><trkpt lat="40.23332" lon="15.2691683"><ele>388.0</ele><time>2026-05-03T13:48:50.982Z</time></trkpt><trkpt lat="40.23327" lon="15.2689267"><ele>388.0</ele><time>2026-05-03T13:48:51.982Z</time></trkpt><trkpt lat="40.2332167" lon="15.2686867"><ele>388.0</ele><time>2026-05-03T13:48:52.983Z</time></trkpt><trkpt lat="40.233165" lon="15.2684433"><ele>388.0</ele><time>2026-05-03T13:48:53.982Z</time></trkpt><trkpt lat="40.2331167" lon="15.2681967"><ele>385.33333333333337</ele><time>2026-05-03T13:48:54.983Z</time></trkpt><trkpt lat="40.233065" lon="15.2679517"><ele>382.6666666666667</ele><time>2026-05-03T13:48:55.983Z</time></trkpt><trkpt lat="40.2330183" lon="15.2677083"><ele>380.0</ele><time>2026-05-03T13:48:56.984Z</time></trkpt><trkpt lat="40.2329717" lon="15.2674717"><ele>378.33333333333337</ele><time>2026-05-03T13:48:57.983Z</time></trkpt><trkpt lat="40.2329233" lon="15.2672467"><ele>376.6666666666667</ele><time>2026-05-03T13:48:58.982Z</time></trkpt><trkpt lat="40.2328683" lon="15.267035"><ele>375.0</ele><time>2026-05-03T13:48:59.983Z</time></trkpt><trkpt lat="40.232805" lon="15.266835"><ele>375.0</ele><time>2026-05-03T13:49:00.983Z</time></trkpt><trkpt lat="40.2327267" lon="15.2666517"><ele>375.0</ele><time>2026-05-03T13:49:01.982Z</time></trkpt><trkpt lat="40.2326217" lon="15.2664933"><ele>375.0</ele><time>2026-05-03T13:49:02.984Z</time></trkpt><trkpt lat="40.2324833" lon="15.266355"><ele>376.0</ele><time>2026-05-03T13:49:03.983Z</time></trkpt><trkpt lat="40.2323167" lon="15.26623"><ele>377.0</ele><time>2026-05-03T13:49:04.984Z</time></trkpt><trkpt lat="40.2321267" lon="15.2661183"><ele>378.0</ele><time>2026-05-03T13:49:05.983Z</time></trkpt><trkpt lat="40.2319283" lon="15.2660117"><ele>378.0</ele><time>2026-05-03T13:49:06.983Z</time></trkpt><trkpt lat="40.2317317" lon="15.26591"><ele>378.0</ele><time>2026-05-03T13:49:07.983Z</time></trkpt><trkpt lat="40.2315333" lon="15.2658083"><ele>378.0</ele><time>2026-05-03T13:49:08.982Z</time></trkpt><trkpt lat="40.23133" lon="15.2657033"><ele>377.0</ele><time>2026-05-03T13:49:09.983Z</time></trkpt><trkpt lat="40.231125" lon="15.2655933"><ele>376.0</ele><time>2026-05-03T13:49:10.984Z</time></trkpt><trkpt lat="40.230925" lon="15.2654867"><ele>375.0</ele><time>2026-05-03T13:49:11.982Z</time></trkpt><trkpt lat="40.2307333" lon="15.265385"><ele>376.6666666666667</ele><time>2026-05-03T13:49:12.983Z</time></trkpt><trkpt lat="40.2305533" lon="15.265285"><ele>378.33333333333337</ele><time>2026-05-03T13:49:13.984Z</time></trkpt><trkpt lat="40.2303817" lon="15.2651833"><ele>380.0</ele><time>2026-05-03T13:49:14.983Z</time></trkpt><trkpt lat="40.2302117" lon="15.2650783"><ele>380.0</ele><time>2026-05-03T13:49:15.983Z</time></trkpt><trkpt lat="40.2300467" lon="15.2649683"><ele>380.0</ele><time>2026-05-03T13:49:16.983Z</time></trkpt><trkpt lat="40.2298883" lon="15.264845"><ele>380.0</ele><time>2026-05-03T13:49:17.984Z</time></trkpt><trkpt lat="40.2297333" lon="15.264705"><ele>379.0</ele><time>2026-05-03T13:49:18.983Z</time></trkpt><trkpt lat="40.229585" lon="15.2645517"><ele>378.0</ele><time>2026-05-03T13:49:19.983Z</time></trkpt><trkpt lat="40.2294433" lon="15.2643983"><ele>377.0</ele><time>2026-05-03T13:49:20.983Z</time></trkpt><trkpt lat="40.2293067" lon="15.2642467"><ele>377.0</ele><time>2026-05-03T13:49:21.984Z</time></trkpt><trkpt lat="40.2291733" lon="15.2640933"><ele>377.0</ele><time>2026-05-03T13:49:22.983Z</time></trkpt><trkpt lat="40.22904" lon="15.26394"><ele>377.0</ele><time>2026-05-03T13:49:23.983Z</time></trkpt><trkpt lat="40.2289083" lon="15.2637917"><ele>376.6666666666667</ele><time>2026-05-03T13:49:24.982Z</time></trkpt><trkpt lat="40.2287767" lon="15.2636433"><ele>376.3333333333333</ele><time>2026-05-03T13:49:25.983Z</time></trkpt><trkpt lat="40.2286467" lon="15.2634917"><ele>376.0</ele><time>2026-05-03T13:49:26.984Z</time></trkpt><trkpt lat="40.22851" lon="15.2633383"><ele>376.0</ele><time>2026-05-03T13:49:27.983Z</time></trkpt><trkpt lat="40.2283733" lon="15.2631833"><ele>376.0</ele><time>2026-05-03T13:49:28.981Z</time></trkpt><trkpt lat="40.2282317" lon="15.2630283"><ele>376.0</ele><time>2026-05-03T13:49:29.981Z</time></trkpt><trkpt lat="40.22809" lon="15.2628617"><ele>375.0</ele><time>2026-05-03T13:49:30.981Z</time></trkpt><trkpt lat="40.2279483" lon="15.2626967"><ele>374.0</ele><time>2026-05-03T13:49:31.983Z</time></trkpt><trkpt lat="40.22781" lon="15.2625417"><ele>373.0</ele><time>2026-05-03T13:49:32.983Z</time></trkpt><trkpt lat="40.2276667" lon="15.2623817"><ele>373.0</ele><time>2026-05-03T13:49:33.984Z</time></trkpt><trkpt lat="40.2275317" lon="15.2622217"><ele>373.0</ele><time>2026-05-03T13:49:34.983Z</time></trkpt><trkpt lat="40.2274" lon="15.2620583"><ele>373.0</ele><time>2026-05-03T13:49:35.984Z</time></trkpt><trkpt lat="40.2272767" lon="15.26189"><ele>373.0</ele><time>2026-05-03T13:49:36.984Z</time></trkpt><trkpt lat="40.227165" lon="15.2617217"><ele>373.0</ele><time>2026-05-03T13:49:37.982Z</time></trkpt><trkpt lat="40.22707" lon="15.2615433"><ele>373.0</ele><time>2026-05-03T13:49:38.983Z</time></trkpt><trkpt lat="40.2269883" lon="15.2613533"><ele>370.3333333333333</ele><time>2026-05-03T13:49:39.983Z</time></trkpt><trkpt lat="40.2269283" lon="15.2611567"><ele>367.6666666666667</ele><time>2026-05-03T13:49:40.982Z</time></trkpt><trkpt lat="40.2268967" lon="15.2609517"><ele>365.0</ele><time>2026-05-03T13:49:41.984Z</time></trkpt><trkpt lat="40.2268917" lon="15.260745"><ele>362.33333333333337</ele><time>2026-05-03T13:49:42.983Z</time></trkpt><trkpt lat="40.22691" lon="15.2605417"><ele>359.6666666666667</ele><time>2026-05-03T13:49:43.983Z</time></trkpt><trkpt lat="40.22695" lon="15.2603433"><ele>357.0</ele><time>2026-05-03T13:49:44.984Z</time></trkpt><trkpt lat="40.227015" lon="15.2601533"><ele>357.0</ele><time>2026-05-03T13:49:45.983Z</time></trkpt><trkpt lat="40.2271083" lon="15.25997"><ele>357.0</ele><time>2026-05-03T13:49:46.982Z</time></trkpt><trkpt lat="40.2272183" lon="15.259805"><ele>357.0</ele><time>2026-05-03T13:49:47.983Z</time></trkpt><trkpt lat="40.227345" lon="15.2596583"><ele>355.3333333333333</ele><time>2026-05-03T13:49:48.983Z</time></trkpt><trkpt lat="40.22749" lon="15.2595367"><ele>353.66666666666663</ele><time>2026-05-03T13:49:49.983Z</time></trkpt><trkpt lat="40.2276467" lon="15.259445"><ele>352.0</ele><time>2026-05-03T13:49:50.982Z</time></trkpt><trkpt lat="40.2278083" lon="15.259375"><ele>352.0</ele><time>2026-05-03T13:49:51.982Z</time></trkpt><trkpt lat="40.2279767" lon="15.2593233"><ele>352.0</ele><time>2026-05-03T13:49:52.982Z</time></trkpt><trkpt lat="40.2281433" lon="15.2592833"><ele>352.0</ele><time>2026-05-03T13:49:53.983Z</time></trkpt><trkpt lat="40.22831" lon="15.25924"><ele>350.3333333333333</ele><time>2026-05-03T13:49:54.982Z</time></trkpt><trkpt lat="40.2284767" lon="15.2591883"><ele>348.6666666666667</ele><time>2026-05-03T13:49:55.982Z</time></trkpt><trkpt lat="40.228635" lon="15.2591367"><ele>347.0</ele><time>2026-05-03T13:49:56.984Z</time></trkpt><trkpt lat="40.2287833" lon="15.25908"><ele>347.0</ele><time>2026-05-03T13:49:57.981Z</time></trkpt><trkpt lat="40.2289317" lon="15.2590183"><ele>347.0</ele><time>2026-05-03T13:49:58.983Z</time></trkpt><trkpt lat="40.2290817" lon="15.2589683"><ele>347.0</ele><time>2026-05-03T13:49:59.985Z</time></trkpt><trkpt lat="40.2292233" lon="15.2589333"><ele>344.5</ele><time>2026-05-03T13:50:00.983Z</time></trkpt><trkpt lat="40.2293567" lon="15.2589067"><ele>342.0</ele><time>2026-05-03T13:50:01.984Z</time></trkpt><trkpt lat="40.2294917" lon="15.2588783"><ele>339.5</ele><time>2026-05-03T13:50:02.983Z</time></trkpt><trkpt lat="40.229645" lon="15.25884"><ele>337.0</ele><time>2026-05-03T13:50:03.981Z</time></trkpt><trkpt lat="40.22981" lon="15.2587917"><ele>337.0</ele><time>2026-05-03T13:50:04.982Z</time></trkpt><trkpt lat="40.22998" lon="15.2587383"><ele>337.0</ele><time>2026-05-03T13:50:05.983Z</time></trkpt><trkpt lat="40.2301483" lon="15.2586883"><ele>337.0</ele><time>2026-05-03T13:50:06.982Z</time></trkpt><trkpt lat="40.230315" lon="15.2586383"><ele>337.0</ele><time>2026-05-03T13:50:07.983Z</time></trkpt><trkpt lat="40.2304817" lon="15.2585917"><ele>337.0</ele><time>2026-05-03T13:50:08.984Z</time></trkpt><trkpt lat="40.23065" lon="15.2585417"><ele>337.0</ele><time>2026-05-03T13:50:09.982Z</time></trkpt><trkpt lat="40.2308133" lon="15.2584917"><ele>335.0</ele><time>2026-05-03T13:50:10.982Z</time></trkpt><trkpt lat="40.230975" lon="15.2584383"><ele>333.0</ele><time>2026-05-03T13:50:11.983Z</time></trkpt><trkpt lat="40.2311333" lon="15.258385"><ele>331.0</ele><time>2026-05-03T13:50:12.983Z</time></trkpt><trkpt lat="40.2312883" lon="15.2583417"><ele>331.0</ele><time>2026-05-03T13:50:13.983Z</time></trkpt><trkpt lat="40.2314417" lon="15.2582983"><ele>331.0</ele><time>2026-05-03T13:50:14.983Z</time></trkpt><trkpt lat="40.231595" lon="15.258255"><ele>331.0</ele><time>2026-05-03T13:50:15.982Z</time></trkpt><trkpt lat="40.23175" lon="15.2582117"><ele>330.3333333333333</ele><time>2026-05-03T13:50:16.982Z</time></trkpt><trkpt lat="40.2319083" lon="15.25817"><ele>329.6666666666667</ele><time>2026-05-03T13:50:17.983Z</time></trkpt><trkpt lat="40.232065" lon="15.2581283"><ele>329.0</ele><time>2026-05-03T13:50:18.983Z</time></trkpt><trkpt lat="40.2322183" lon="15.258085"><ele>327.0</ele><time>2026-05-03T13:50:19.981Z</time></trkpt><trkpt lat="40.23237" lon="15.2580433"><ele>325.0</ele><time>2026-05-03T13:50:20.984Z</time></trkpt><trkpt lat="40.2325183" lon="15.258"><ele>323.0</ele><time>2026-05-03T13:50:21.982Z</time></trkpt><trkpt lat="40.2326567" lon="15.25796"><ele>321.0</ele><time>2026-05-03T13:50:22.982Z</time></trkpt><trkpt lat="40.23279" lon="15.257925"><ele>321.0</ele><time>2026-05-03T13:50:23.981Z</time></trkpt><trkpt lat="40.2329183" lon="15.2578883"><ele>321.0</ele><time>2026-05-03T13:50:24.981Z</time></trkpt><trkpt lat="40.2330483" lon="15.257855"><ele>321.0</ele><time>2026-05-03T13:50:25.983Z</time></trkpt><trkpt lat="40.2331783" lon="15.2578133"><ele>321.0</ele><time>2026-05-03T13:50:26.984Z</time></trkpt><trkpt lat="40.2333033" lon="15.257765"><ele>320.5</ele><time>2026-05-03T13:50:27.983Z</time></trkpt><trkpt lat="40.233425" lon="15.2577033"><ele>320.0</ele><time>2026-05-03T13:50:28.983Z</time></trkpt><trkpt lat="40.233535" lon="15.2576"><ele>319.5</ele><time>2026-05-03T13:50:29.982Z</time></trkpt><trkpt lat="40.2336333" lon="15.2574567"><ele>319.0</ele><time>2026-05-03T13:50:30.982Z</time></trkpt><trkpt lat="40.2337" lon="15.2572817"><ele>317.0</ele><time>2026-05-03T13:50:31.982Z</time></trkpt><trkpt lat="40.2337333" lon="15.257085"><ele>315.0</ele><time>2026-05-03T13:50:32.984Z</time></trkpt><trkpt lat="40.2337383" lon="15.2568733"><ele>313.0</ele><time>2026-05-03T13:50:33.983Z</time></trkpt><trkpt lat="40.2337083" lon="15.2566583"><ele>311.0</ele><time>2026-05-03T13:50:34.983Z</time></trkpt><trkpt lat="40.2336383" lon="15.2564483"><ele>309.0</ele><time>2026-05-03T13:50:35.982Z</time></trkpt><trkpt lat="40.2335367" lon="15.2562367"><ele>307.0</ele><time>2026-05-03T13:50:36.983Z</time></trkpt><trkpt lat="40.2334083" lon="15.2560283"><ele>307.0</ele><time>2026-05-03T13:50:37.983Z</time></trkpt><trkpt lat="40.2332717" lon="15.25583"><ele>307.0</ele><time>2026-05-03T13:50:38.983Z</time></trkpt><trkpt lat="40.2331283" lon="15.2556567"><ele>307.0</ele><time>2026-05-03T13:50:39.982Z</time></trkpt><trkpt lat="40.2329817" lon="15.2555017"><ele>306.66666666666663</ele><time>2026-05-03T13:50:40.982Z</time></trkpt><trkpt lat="40.2328333" lon="15.255365"><ele>306.3333333333333</ele><time>2026-05-03T13:50:41.981Z</time></trkpt><trkpt lat="40.2326883" lon="15.2552367"><ele>306.0</ele><time>2026-05-03T13:50:42.983Z</time></trkpt><trkpt lat="40.2325467" lon="15.2551083"><ele>306.0</ele><time>2026-05-03T13:50:43.983Z</time></trkpt><trkpt lat="40.232405" lon="15.254975"><ele>306.0</ele><time>2026-05-03T13:50:44.983Z</time></trkpt><trkpt lat="40.2322717" lon="15.2548283"><ele>306.0</ele><time>2026-05-03T13:50:45.983Z</time></trkpt><trkpt lat="40.23215" lon="15.2546617"><ele>304.0</ele><time>2026-05-03T13:50:46.981Z</time></trkpt><trkpt lat="40.232025" lon="15.2544683"><ele>302.0</ele><time>2026-05-03T13:50:47.982Z</time></trkpt><trkpt lat="40.2318867" lon="15.25425"><ele>300.0</ele><time>2026-05-03T13:50:48.981Z</time></trkpt><trkpt lat="40.2317367" lon="15.254005"><ele>299.5</ele><time>2026-05-03T13:50:49.982Z</time></trkpt><trkpt lat="40.2315833" lon="15.25374"><ele>299.0</ele><time>2026-05-03T13:50:50.982Z</time></trkpt><trkpt lat="40.2314233" lon="15.2534667"><ele>299.0</ele><time>2026-05-03T13:50:51.981Z</time></trkpt><trkpt lat="40.2312617" lon="15.253195"><ele>299.0</ele><time>2026-05-03T13:50:52.982Z</time></trkpt><trkpt lat="40.231105" lon="15.2529333"><ele>298.0</ele><time>2026-05-03T13:50:53.982Z</time></trkpt><trkpt lat="40.230955" lon="15.2526817"><ele>297.0</ele><time>2026-05-03T13:50:54.983Z</time></trkpt><trkpt lat="40.2308083" lon="15.252435"><ele>294.5</ele><time>2026-05-03T13:50:55.985Z</time></trkpt><trkpt lat="40.2306717" lon="15.2521933"><ele>292.0</ele><time>2026-05-03T13:50:56.983Z</time></trkpt><trkpt lat="40.23054" lon="15.2519617"><ele>292.0</ele><time>2026-05-03T13:50:57.983Z</time></trkpt><trkpt lat="40.2304133" lon="15.2517433"><ele>292.0</ele><time>2026-05-03T13:50:58.982Z</time></trkpt><trkpt lat="40.2302917" lon="15.2515367"><ele>292.0</ele><time>2026-05-03T13:50:59.983Z</time></trkpt><trkpt lat="40.2301783" lon="15.2513383"><ele>290.0</ele><time>2026-05-03T13:51:00.982Z</time></trkpt><trkpt lat="40.230075" lon="15.2511433"><ele>288.0</ele><time>2026-05-03T13:51:01.983Z</time></trkpt><trkpt lat="40.2299983" lon="15.2509467"><ele>286.0</ele><time>2026-05-03T13:51:02.983Z</time></trkpt><trkpt lat="40.22996" lon="15.2507467"><ele>284.25</ele><time>2026-05-03T13:51:03.983Z</time></trkpt><trkpt lat="40.2299383" lon="15.25055"><ele>282.5</ele><time>2026-05-03T13:51:04.983Z</time></trkpt><trkpt lat="40.2299283" lon="15.25035"><ele>280.75</ele><time>2026-05-03T13:51:05.981Z</time></trkpt><trkpt lat="40.22992" lon="15.2501683"><ele>279.0</ele><time>2026-05-03T13:51:06.981Z</time></trkpt><trkpt lat="40.22993" lon="15.2499933"><ele>279.0</ele><time>2026-05-03T13:51:07.982Z</time></trkpt><trkpt lat="40.22996" lon="15.2498417"><ele>279.0</ele><time>2026-05-03T13:51:08.982Z</time></trkpt><trkpt lat="40.2300167" lon="15.2497183"><ele>279.0</ele><time>2026-05-03T13:51:09.982Z</time></trkpt><trkpt lat="40.2300933" lon="15.24962"><ele>279.0</ele><time>2026-05-03T13:51:10.981Z</time></trkpt><trkpt lat="40.2301717" lon="15.24953"><ele>279.0</ele><time>2026-05-03T13:51:11.982Z</time></trkpt><trkpt lat="40.230245" lon="15.24943"><ele>278.2</ele><time>2026-05-03T13:51:12.982Z</time></trkpt><trkpt lat="40.2303067" lon="15.2493183"><ele>277.4</ele><time>2026-05-03T13:51:13.983Z</time></trkpt><trkpt lat="40.2303533" lon="15.2491967"><ele>276.6</ele><time>2026-05-03T13:51:14.982Z</time></trkpt><trkpt lat="40.23039" lon="15.2490683"><ele>275.8</ele><time>2026-05-03T13:51:15.982Z</time></trkpt><trkpt lat="40.2304067" lon="15.2489383"><ele>275.0</ele><time>2026-05-03T13:51:16.982Z</time></trkpt><trkpt lat="40.2303933" lon="15.2488"><ele>273.75</ele><time>2026-05-03T13:51:17.982Z</time></trkpt><trkpt lat="40.2303517" lon="15.2486667"><ele>272.5</ele><time>2026-05-03T13:51:18.982Z</time></trkpt><trkpt lat="40.2303083" lon="15.248525"><ele>271.25</ele><time>2026-05-03T13:51:19.982Z</time></trkpt><trkpt lat="40.230275" lon="15.2483767"><ele>270.0</ele><time>2026-05-03T13:51:20.982Z</time></trkpt><trkpt lat="40.2302583" lon="15.2482267"><ele>268.5</ele><time>2026-05-03T13:51:21.981Z</time></trkpt><trkpt lat="40.23025" lon="15.2480683"><ele>267.0</ele><time>2026-05-03T13:51:22.983Z</time></trkpt><trkpt lat="40.230255" lon="15.24791"><ele>265.5</ele><time>2026-05-03T13:51:23.984Z</time></trkpt><trkpt lat="40.2302583" lon="15.24776"><ele>264.0</ele><time>2026-05-03T13:51:24.984Z</time></trkpt><trkpt lat="40.2302617" lon="15.2476183"><ele>264.0</ele><time>2026-05-03T13:51:25.986Z</time></trkpt><trkpt lat="40.2302767" lon="15.2474767"><ele>264.0</ele><time>2026-05-03T13:51:26.983Z</time></trkpt><trkpt lat="40.2303083" lon="15.2473433"><ele>264.0</ele><time>2026-05-03T13:51:27.982Z</time></trkpt><trkpt lat="40.2303567" lon="15.2472183"><ele>264.0</ele><time>2026-05-03T13:51:28.983Z</time></trkpt><trkpt lat="40.2304217" lon="15.2470933"><ele>264.0</ele><time>2026-05-03T13:51:29.983Z</time></trkpt><trkpt lat="40.230495" lon="15.2469683"><ele>262.5</ele><time>2026-05-03T13:51:30.983Z</time></trkpt><trkpt lat="40.23058" lon="15.2468383"><ele>261.0</ele><time>2026-05-03T13:51:31.983Z</time></trkpt><trkpt lat="40.2306667" lon="15.2467083"><ele>259.5</ele><time>2026-05-03T13:51:32.983Z</time></trkpt><trkpt lat="40.2307483" lon="15.2465833"><ele>258.0</ele><time>2026-05-03T13:51:33.983Z</time></trkpt><trkpt lat="40.2308217" lon="15.2464683"><ele>257.0</ele><time>2026-05-03T13:51:34.983Z</time></trkpt><trkpt lat="40.2308817" lon="15.246365"><ele>256.0</ele><time>2026-05-03T13:51:35.984Z</time></trkpt><trkpt lat="40.2309317" lon="15.2462683"><ele>255.0</ele><time>2026-05-03T13:51:36.984Z</time></trkpt><trkpt lat="40.2309733" lon="15.246175"><ele>254.0</ele><time>2026-05-03T13:51:37.983Z</time></trkpt><trkpt lat="40.231015" lon="15.2460733"><ele>253.0</ele><time>2026-05-03T13:51:38.984Z</time></trkpt><trkpt lat="40.2310667" lon="15.24595"><ele>253.0</ele><time>2026-05-03T13:51:39.983Z</time></trkpt><trkpt lat="40.231125" lon="15.24579"><ele>253.0</ele><time>2026-05-03T13:51:40.982Z</time></trkpt><trkpt lat="40.2311983" lon="15.245605"><ele>253.0</ele><time>2026-05-03T13:51:41.982Z</time></trkpt><trkpt lat="40.2312817" lon="15.245405"><ele>251.66666666666666</ele><time>2026-05-03T13:51:42.982Z</time></trkpt><trkpt lat="40.23137" lon="15.2451967"><ele>250.33333333333331</ele><time>2026-05-03T13:51:43.983Z</time></trkpt><trkpt lat="40.2314633" lon="15.24498"><ele>249.0</ele><time>2026-05-03T13:51:44.983Z</time></trkpt><trkpt lat="40.2315733" lon="15.2447733"><ele>247.0</ele><time>2026-05-03T13:51:45.983Z</time></trkpt><trkpt lat="40.2317133" lon="15.2445917"><ele>245.0</ele><time>2026-05-03T13:51:46.983Z</time></trkpt><trkpt lat="40.2318867" lon="15.244445"><ele>243.0</ele><time>2026-05-03T13:51:47.983Z</time></trkpt><trkpt lat="40.2320817" lon="15.2443183"><ele>243.0</ele><time>2026-05-03T13:51:48.982Z</time></trkpt><trkpt lat="40.2322783" lon="15.244215"><ele>243.0</ele><time>2026-05-03T13:51:49.982Z</time></trkpt><trkpt lat="40.232465" lon="15.2441183"><ele>243.0</ele><time>2026-05-03T13:51:50.982Z</time></trkpt><trkpt lat="40.2326433" lon="15.24402"><ele>240.33333333333331</ele><time>2026-05-03T13:51:51.982Z</time></trkpt><trkpt lat="40.23281" lon="15.2439117"><ele>237.66666666666666</ele><time>2026-05-03T13:51:52.983Z</time></trkpt><trkpt lat="40.23297" lon="15.2437917"><ele>235.0</ele><time>2026-05-03T13:51:53.984Z</time></trkpt><trkpt lat="40.23312" lon="15.24365"><ele>234.66666666666666</ele><time>2026-05-03T13:51:54.983Z</time></trkpt><trkpt lat="40.2332617" lon="15.243485"><ele>234.33333333333331</ele><time>2026-05-03T13:51:55.989Z</time></trkpt><trkpt lat="40.233385" lon="15.2432983"><ele>234.0</ele><time>2026-05-03T13:51:56.983Z</time></trkpt><trkpt lat="40.2334883" lon="15.2430967"><ele>232.0</ele><time>2026-05-03T13:51:57.984Z</time></trkpt><trkpt lat="40.2335817" lon="15.242885"><ele>230.0</ele><time>2026-05-03T13:51:58.982Z</time></trkpt><trkpt lat="40.233655" lon="15.2426633"><ele>228.0</ele><time>2026-05-03T13:51:59.982Z</time></trkpt><trkpt lat="40.2337033" lon="15.2424317"><ele>226.33333333333331</ele><time>2026-05-03T13:52:00.982Z</time></trkpt><trkpt lat="40.2337317" lon="15.24219"><ele>224.66666666666666</ele><time>2026-05-03T13:52:01.983Z</time></trkpt><trkpt lat="40.2337367" lon="15.2419317"><ele>223.0</ele><time>2026-05-03T13:52:02.984Z</time></trkpt><trkpt lat="40.2337217" lon="15.24167"><ele>220.33333333333331</ele><time>2026-05-03T13:52:03.983Z</time></trkpt><trkpt lat="40.23368" lon="15.2414083"><ele>217.66666666666669</ele><time>2026-05-03T13:52:04.982Z</time></trkpt><trkpt lat="40.233615" lon="15.2411517"><ele>215.0</ele><time>2026-05-03T13:52:05.983Z</time></trkpt><trkpt lat="40.2335217" lon="15.240905"><ele>215.0</ele><time>2026-05-03T13:52:06.984Z</time></trkpt><trkpt lat="40.23341" lon="15.240685"><ele>215.0</ele><time>2026-05-03T13:52:07.983Z</time></trkpt><trkpt lat="40.2332867" lon="15.2404983"><ele>215.0</ele><time>2026-05-03T13:52:08.983Z</time></trkpt><trkpt lat="40.2331383" lon="15.2403133"><ele>215.0</ele><time>2026-05-03T13:52:09.983Z</time></trkpt><trkpt lat="40.2329717" lon="15.240125"><ele>215.0</ele><time>2026-05-03T13:52:10.982Z</time></trkpt><trkpt lat="40.2327967" lon="15.23992"><ele>212.5</ele><time>2026-05-03T13:52:11.982Z</time></trkpt><trkpt lat="40.2326133" lon="15.2397067"><ele>210.0</ele><time>2026-05-03T13:52:12.983Z</time></trkpt><trkpt lat="40.2324217" lon="15.2394917"><ele>211.5</ele><time>2026-05-03T13:52:13.983Z</time></trkpt><trkpt lat="40.2322217" lon="15.2392633"><ele>213.0</ele><time>2026-05-03T13:52:14.983Z</time></trkpt><trkpt lat="40.2320183" lon="15.239035"><ele>211.0</ele><time>2026-05-03T13:52:15.982Z</time></trkpt><trkpt lat="40.2318117" lon="15.2387967"><ele>209.0</ele><time>2026-05-03T13:52:16.982Z</time></trkpt><trkpt lat="40.231605" lon="15.238555"><ele>209.0</ele><time>2026-05-03T13:52:17.984Z</time></trkpt><trkpt lat="40.2314" lon="15.2383183"><ele>209.0</ele><time>2026-05-03T13:52:18.982Z</time></trkpt><trkpt lat="40.2312" lon="15.2380917"><ele>206.5</ele><time>2026-05-03T13:52:19.982Z</time></trkpt><trkpt lat="40.2310033" lon="15.2378717"><ele>204.0</ele><time>2026-05-03T13:52:20.983Z</time></trkpt><trkpt lat="40.2308067" lon="15.23765"><ele>202.5</ele><time>2026-05-03T13:52:21.983Z</time></trkpt><trkpt lat="40.2306133" lon="15.23743"><ele>201.0</ele><time>2026-05-03T13:52:22.982Z</time></trkpt><trkpt lat="40.23042" lon="15.2372033"><ele>199.5</ele><time>2026-05-03T13:52:23.982Z</time></trkpt><trkpt lat="40.2302283" lon="15.236985"><ele>198.0</ele><time>2026-05-03T13:52:24.984Z</time></trkpt><trkpt lat="40.2300467" lon="15.2367767"><ele>198.0</ele><time>2026-05-03T13:52:25.983Z</time></trkpt><trkpt lat="40.229875" lon="15.2365733"><ele>198.0</ele><time>2026-05-03T13:52:26.983Z</time></trkpt><trkpt lat="40.2297083" lon="15.2363817"><ele>196.0</ele><time>2026-05-03T13:52:27.983Z</time></trkpt><trkpt lat="40.2295467" lon="15.2362017"><ele>194.0</ele><time>2026-05-03T13:52:28.983Z</time></trkpt><trkpt lat="40.229395" lon="15.23603"><ele>192.0</ele><time>2026-05-03T13:52:29.983Z</time></trkpt><trkpt lat="40.22925" lon="15.23587"><ele>192.0</ele><time>2026-05-03T13:52:30.986Z</time></trkpt><trkpt lat="40.229115" lon="15.2357117"><ele>192.0</ele><time>2026-05-03T13:52:31.984Z</time></trkpt><trkpt lat="40.2289933" lon="15.2355517"><ele>192.0</ele><time>2026-05-03T13:52:32.983Z</time></trkpt><trkpt lat="40.2288967" lon="15.2353633"><ele>190.33333333333334</ele><time>2026-05-03T13:52:33.983Z</time></trkpt><trkpt lat="40.2288083" lon="15.2351467"><ele>188.66666666666669</ele><time>2026-05-03T13:52:34.984Z</time></trkpt><trkpt lat="40.2287167" lon="15.234915"><ele>187.0</ele><time>2026-05-03T13:52:35.983Z</time></trkpt><trkpt lat="40.2286283" lon="15.2346817"><ele>185.66666666666669</ele><time>2026-05-03T13:52:36.983Z</time></trkpt><trkpt lat="40.2285467" lon="15.2344667"><ele>184.33333333333334</ele><time>2026-05-03T13:52:37.983Z</time></trkpt><trkpt lat="40.2284733" lon="15.23428"><ele>183.0</ele><time>2026-05-03T13:52:38.983Z</time></trkpt><trkpt lat="40.22841" lon="15.2341283"><ele>183.0</ele><time>2026-05-03T13:52:39.984Z</time></trkpt><trkpt lat="40.2283633" lon="15.2340183"><ele>183.0</ele><time>2026-05-03T13:52:40.983Z</time></trkpt><trkpt lat="40.2283283" lon="15.2339367"><ele>183.0</ele><time>2026-05-03T13:52:41.981Z</time></trkpt><trkpt lat="40.2283" lon="15.23385"><ele>183.0</ele><time>2026-05-03T13:52:42.981Z</time></trkpt><trkpt lat="40.228275" lon="15.23375"><ele>183.0</ele><time>2026-05-03T13:52:43.982Z</time></trkpt><trkpt lat="40.2282383" lon="15.233635"><ele>183.0</ele><time>2026-05-03T13:52:44.983Z</time></trkpt><trkpt lat="40.2281817" lon="15.2334883"><ele>181.0</ele><time>2026-05-03T13:52:45.983Z</time></trkpt><trkpt lat="40.228115" lon="15.2333117"><ele>179.0</ele><time>2026-05-03T13:52:46.983Z</time></trkpt><trkpt lat="40.22804" lon="15.2331217"><ele>177.0</ele><time>2026-05-03T13:52:47.983Z</time></trkpt><trkpt lat="40.2279683" lon="15.2329333"><ele>175.0</ele><time>2026-05-03T13:52:48.983Z</time></trkpt><trkpt lat="40.2279" lon="15.2327467"><ele>173.0</ele><time>2026-05-03T13:52:49.983Z</time></trkpt><trkpt lat="40.2278333" lon="15.2325667"><ele>171.0</ele><time>2026-05-03T13:52:50.982Z</time></trkpt><trkpt lat="40.2277683" lon="15.2323917"><ele>169.5</ele><time>2026-05-03T13:52:51.983Z</time></trkpt><trkpt lat="40.2277067" lon="15.2322233"><ele>168.0</ele><time>2026-05-03T13:52:52.982Z</time></trkpt><trkpt lat="40.2276483" lon="15.2320617"><ele>166.5</ele><time>2026-05-03T13:52:53.982Z</time></trkpt><trkpt lat="40.22759" lon="15.2319067"><ele>165.0</ele><time>2026-05-03T13:52:54.983Z</time></trkpt><trkpt lat="40.2275317" lon="15.2317633"><ele>165.0</ele><time>2026-05-03T13:52:55.984Z</time></trkpt><trkpt lat="40.227465" lon="15.231635"><ele>165.0</ele><time>2026-05-03T13:52:56.983Z</time></trkpt><trkpt lat="40.2273917" lon="15.231525"><ele>165.0</ele><time>2026-05-03T13:52:57.984Z</time></trkpt><trkpt lat="40.2273083" lon="15.2314317"><ele>165.0</ele><time>2026-05-03T13:52:58.982Z</time></trkpt><trkpt lat="40.2272217" lon="15.2313617"><ele>165.0</ele><time>2026-05-03T13:52:59.982Z</time></trkpt><trkpt lat="40.227125" lon="15.2313217"><ele>164.5</ele><time>2026-05-03T13:53:00.983Z</time></trkpt><trkpt lat="40.2270333" lon="15.2312967"><ele>164.0</ele><time>2026-05-03T13:53:01.982Z</time></trkpt><trkpt lat="40.2269483" lon="15.2312767"><ele>163.5</ele><time>2026-05-03T13:53:02.983Z</time></trkpt><trkpt lat="40.2268567" lon="15.2312733"><ele>163.0</ele><time>2026-05-03T13:53:03.983Z</time></trkpt><trkpt lat="40.2267717" lon="15.23127"><ele>162.5</ele><time>2026-05-03T13:53:04.983Z</time></trkpt><trkpt lat="40.22668" lon="15.23126"><ele>162.0</ele><time>2026-05-03T13:53:05.984Z</time></trkpt><trkpt lat="40.2265833" lon="15.2312367"><ele>161.25</ele><time>2026-05-03T13:53:06.984Z</time></trkpt><trkpt lat="40.22647" lon="15.2312217"><ele>160.5</ele><time>2026-05-03T13:53:07.984Z</time></trkpt><trkpt lat="40.2263367" lon="15.231205"><ele>159.75</ele><time>2026-05-03T13:53:08.984Z</time></trkpt><trkpt lat="40.22619" lon="15.231195"><ele>159.0</ele><time>2026-05-03T13:53:09.983Z</time></trkpt><trkpt lat="40.226035" lon="15.2311717"><ele>159.0</ele><time>2026-05-03T13:53:10.982Z</time></trkpt><trkpt lat="40.225875" lon="15.2311383"><ele>159.0</ele><time>2026-05-03T13:53:11.982Z</time></trkpt><trkpt lat="40.2257083" lon="15.231105"><ele>159.0</ele><time>2026-05-03T13:53:12.984Z</time></trkpt><trkpt lat="40.2255467" lon="15.231075"><ele>157.75</ele><time>2026-05-03T13:53:13.984Z</time></trkpt><trkpt lat="40.22539" lon="15.2310467"><ele>156.5</ele><time>2026-05-03T13:53:14.985Z</time></trkpt><trkpt lat="40.2252467" lon="15.2310117"><ele>155.25</ele><time>2026-05-03T13:53:15.984Z</time></trkpt><trkpt lat="40.225115" lon="15.2309633"><ele>154.0</ele><time>2026-05-03T13:53:16.982Z</time></trkpt><trkpt lat="40.224995" lon="15.2308883"><ele>154.0</ele><time>2026-05-03T13:53:17.983Z</time></trkpt><trkpt lat="40.224875" lon="15.2307817"><ele>154.0</ele><time>2026-05-03T13:53:18.983Z</time></trkpt><trkpt lat="40.2247633" lon="15.2306333"><ele>154.0</ele><time>2026-05-03T13:53:19.983Z</time></trkpt><trkpt lat="40.2246567" lon="15.2304683"><ele>152.0</ele><time>2026-05-03T13:53:20.984Z</time></trkpt><trkpt lat="40.2245567" lon="15.2303067"><ele>150.0</ele><time>2026-05-03T13:53:21.983Z</time></trkpt><trkpt lat="40.2244617" lon="15.230155"><ele>148.0</ele><time>2026-05-03T13:53:22.982Z</time></trkpt><trkpt lat="40.2243717" lon="15.23001"><ele>148.0</ele><time>2026-05-03T13:53:23.983Z</time></trkpt><trkpt lat="40.2242883" lon="15.2298533"><ele>148.0</ele><time>2026-05-03T13:53:24.983Z</time></trkpt><trkpt lat="40.2242183" lon="15.2296783"><ele>148.0</ele><time>2026-05-03T13:53:25.983Z</time></trkpt><trkpt lat="40.2241633" lon="15.2294883"><ele>146.75</ele><time>2026-05-03T13:53:26.984Z</time></trkpt><trkpt lat="40.224125" lon="15.2293017"><ele>145.5</ele><time>2026-05-03T13:53:27.983Z</time></trkpt><trkpt lat="40.2241033" lon="15.22911"><ele>144.25</ele><time>2026-05-03T13:53:28.982Z</time></trkpt><trkpt lat="40.224105" lon="15.2289217"><ele>143.0</ele><time>2026-05-03T13:53:29.984Z</time></trkpt><trkpt lat="40.224135" lon="15.2287467"><ele>142.25</ele><time>2026-05-03T13:53:30.982Z</time></trkpt><trkpt lat="40.2241983" lon="15.2285883"><ele>141.5</ele><time>2026-05-03T13:53:31.982Z</time></trkpt><trkpt lat="40.224285" lon="15.2284417"><ele>140.75</ele><time>2026-05-03T13:53:32.984Z</time></trkpt><trkpt lat="40.2243783" lon="15.228295"><ele>140.0</ele><time>2026-05-03T13:53:33.981Z</time></trkpt><trkpt lat="40.224465" lon="15.2281533"><ele>137.75</ele><time>2026-05-03T13:53:34.982Z</time></trkpt><trkpt lat="40.2245317" lon="15.227995"><ele>135.5</ele><time>2026-05-03T13:53:35.983Z</time></trkpt><trkpt lat="40.2245717" lon="15.2278217"><ele>133.25</ele><time>2026-05-03T13:53:36.983Z</time></trkpt><trkpt lat="40.2245917" lon="15.2276267"><ele>131.0</ele><time>2026-05-03T13:53:37.982Z</time></trkpt><trkpt lat="40.2246033" lon="15.22742"><ele>129.0</ele><time>2026-05-03T13:53:38.982Z</time></trkpt><trkpt lat="40.2246167" lon="15.2272067"><ele>127.0</ele><time>2026-05-03T13:53:39.982Z</time></trkpt><trkpt lat="40.2246283" lon="15.2269917"><ele>125.0</ele><time>2026-05-03T13:53:40.982Z</time></trkpt><trkpt lat="40.2246417" lon="15.2267767"><ele>125.0</ele><time>2026-05-03T13:53:41.982Z</time></trkpt><trkpt lat="40.224655" lon="15.22657"><ele>125.0</ele><time>2026-05-03T13:53:42.981Z</time></trkpt><trkpt lat="40.2246683" lon="15.2263683"><ele>125.0</ele><time>2026-05-03T13:53:43.985Z</time></trkpt><trkpt lat="40.2246783" lon="15.2261717"><ele>126.33333333333333</ele><time>2026-05-03T13:53:44.983Z</time></trkpt><trkpt lat="40.2246767" lon="15.2259767"><ele>127.66666666666666</ele><time>2026-05-03T13:53:45.982Z</time></trkpt><trkpt lat="40.2246517" lon="15.2257833"><ele>129.0</ele><time>2026-05-03T13:53:46.982Z</time></trkpt><trkpt lat="40.2246017" lon="15.22559"><ele>132.0</ele><time>2026-05-03T13:53:47.981Z</time></trkpt><trkpt lat="40.224545" lon="15.22539"><ele>135.0</ele><time>2026-05-03T13:53:48.983Z</time></trkpt><trkpt lat="40.2244933" lon="15.225185"><ele>138.0</ele><time>2026-05-03T13:53:49.983Z</time></trkpt><trkpt lat="40.2244617" lon="15.2249683"><ele>139.33333333333334</ele><time>2026-05-03T13:53:50.984Z</time></trkpt><trkpt lat="40.224435" lon="15.2247533"><ele>140.66666666666669</ele><time>2026-05-03T13:53:51.983Z</time></trkpt><trkpt lat="40.2244133" lon="15.2245483"><ele>142.0</ele><time>2026-05-03T13:53:52.983Z</time></trkpt><trkpt lat="40.2244033" lon="15.224335"><ele>142.0</ele><time>2026-05-03T13:53:53.983Z</time></trkpt><trkpt lat="40.224395" lon="15.2241317"><ele>142.0</ele><time>2026-05-03T13:53:54.982Z</time></trkpt><trkpt lat="40.22439" lon="15.2239517"><ele>142.0</ele><time>2026-05-03T13:53:55.981Z</time></trkpt><trkpt lat="40.22438" lon="15.22379"><ele>142.0</ele><time>2026-05-03T13:53:56.982Z</time></trkpt><trkpt lat="40.224365" lon="15.2236517"><ele>143.4</ele><time>2026-05-03T13:53:57.981Z</time></trkpt><trkpt lat="40.224335" lon="15.22353"><ele>144.79999999999998</ele><time>2026-05-03T13:53:58.982Z</time></trkpt><trkpt lat="40.2242783" lon="15.2234433"><ele>146.2</ele><time>2026-05-03T13:53:59.983Z</time></trkpt><trkpt lat="40.2242317" lon="15.2233617"><ele>147.6</ele><time>2026-05-03T13:54:01.187Z</time></trkpt><trkpt lat="40.2240817" lon="15.223265"><ele>149.0</ele><time>2026-05-03T13:54:02.483Z</time></trkpt><trkpt lat="40.223955" lon="15.2230617"><ele>150.75</ele><time>2026-05-03T13:54:03.982Z</time></trkpt><trkpt lat="40.2238633" lon="15.2229167"><ele>152.5</ele><time>2026-05-03T13:54:04.983Z</time></trkpt><trkpt lat="40.2237767" lon="15.2227883"><ele>154.25</ele><time>2026-05-03T13:54:05.984Z</time></trkpt><trkpt lat="40.22368" lon="15.2227"><ele>156.0</ele><time>2026-05-03T13:54:06.983Z</time></trkpt><trkpt lat="40.22357" lon="15.2226417"><ele>156.0</ele><time>2026-05-03T13:54:07.983Z</time></trkpt><trkpt lat="40.2234333" lon="15.222625"><ele>156.0</ele><time>2026-05-03T13:54:08.983Z</time></trkpt><trkpt lat="40.223295" lon="15.2226067"><ele>156.0</ele><time>2026-05-03T13:54:09.984Z</time></trkpt><trkpt lat="40.2231633" lon="15.2225667"><ele>156.0</ele><time>2026-05-03T13:54:10.982Z</time></trkpt><trkpt lat="40.2230417" lon="15.2225117"><ele>157.5</ele><time>2026-05-03T13:54:11.983Z</time></trkpt><trkpt lat="40.2229317" lon="15.2224267"><ele>159.0</ele><time>2026-05-03T13:54:12.983Z</time></trkpt><trkpt lat="40.2228367" lon="15.222305"><ele>160.5</ele><time>2026-05-03T13:54:13.983Z</time></trkpt><trkpt lat="40.2227567" lon="15.22216"><ele>162.0</ele><time>2026-05-03T13:54:14.982Z</time></trkpt><trkpt lat="40.2226933" lon="15.222"><ele>162.0</ele><time>2026-05-03T13:54:15.984Z</time></trkpt><trkpt lat="40.2226183" lon="15.2218533"><ele>162.0</ele><time>2026-05-03T13:54:16.982Z</time></trkpt><trkpt lat="40.2225333" lon="15.2217233"><ele>162.0</ele><time>2026-05-03T13:54:17.982Z</time></trkpt><trkpt lat="40.222445" lon="15.2216217"><ele>162.0</ele><time>2026-05-03T13:54:18.984Z</time></trkpt><trkpt lat="40.22235" lon="15.2215433"><ele>159.79999999999998</ele><time>2026-05-03T13:54:19.986Z</time></trkpt><trkpt lat="40.22226" lon="15.2214667"><ele>157.6</ele><time>2026-05-03T13:54:20.984Z</time></trkpt><trkpt lat="40.22218" lon="15.22138"><ele>155.39999999999998</ele><time>2026-05-03T13:54:21.982Z</time></trkpt><trkpt lat="40.2221133" lon="15.2212717"><ele>153.2</ele><time>2026-05-03T13:54:22.984Z</time></trkpt><trkpt lat="40.222055" lon="15.2211467"><ele>151.0</ele><time>2026-05-03T13:54:23.982Z</time></trkpt><trkpt lat="40.222005" lon="15.22101"><ele>151.0</ele><time>2026-05-03T13:54:24.983Z</time></trkpt><trkpt lat="40.221965" lon="15.2208767"><ele>151.0</ele><time>2026-05-03T13:54:25.983Z</time></trkpt><trkpt lat="40.2219467" lon="15.2207267"><ele>151.0</ele><time>2026-05-03T13:54:26.983Z</time></trkpt><trkpt lat="40.22195" lon="15.2205633"><ele>151.0</ele><time>2026-05-03T13:54:27.983Z</time></trkpt><trkpt lat="40.22197" lon="15.2203933"><ele>151.8</ele><time>2026-05-03T13:54:28.982Z</time></trkpt><trkpt lat="40.2219733" lon="15.2202467"><ele>152.6</ele><time>2026-05-03T13:54:29.985Z</time></trkpt><trkpt lat="40.2219417" lon="15.2201117"><ele>153.4</ele><time>2026-05-03T13:54:30.982Z</time></trkpt><trkpt lat="40.2219033" lon="15.21998"><ele>154.2</ele><time>2026-05-03T13:54:31.982Z</time></trkpt><trkpt lat="40.221885" lon="15.2198467"><ele>155.0</ele><time>2026-05-03T13:54:32.986Z</time></trkpt><trkpt lat="40.2219" lon="15.2197233"><ele>155.4</ele><time>2026-05-03T13:54:33.981Z</time></trkpt><trkpt lat="40.221945" lon="15.2196117"><ele>155.8</ele><time>2026-05-03T13:54:34.984Z</time></trkpt><trkpt lat="40.2220217" lon="15.2195133"><ele>156.2</ele><time>2026-05-03T13:54:35.982Z</time></trkpt><trkpt lat="40.222085" lon="15.2194"><ele>156.6</ele><time>2026-05-03T13:54:36.982Z</time></trkpt><trkpt lat="40.2221217" lon="15.2192767"><ele>157.0</ele><time>2026-05-03T13:54:37.983Z</time></trkpt><trkpt lat="40.2221183" lon="15.2191467"><ele>157.0</ele><time>2026-05-03T13:54:38.984Z</time></trkpt><trkpt lat="40.2220717" lon="15.219"><ele>157.0</ele><time>2026-05-03T13:54:39.982Z</time></trkpt><trkpt lat="40.2220133" lon="15.2188317"><ele>157.0</ele><time>2026-05-03T13:54:40.983Z</time></trkpt><trkpt lat="40.2219633" lon="15.2186433"><ele>157.0</ele><time>2026-05-03T13:54:41.984Z</time></trkpt><trkpt lat="40.2219283" lon="15.218455"><ele>159.5</ele><time>2026-05-03T13:54:42.982Z</time></trkpt><trkpt lat="40.221885" lon="15.2182883"><ele>162.0</ele><time>2026-05-03T13:54:43.982Z</time></trkpt><trkpt lat="40.2218133" lon="15.218145"><ele>164.5</ele><time>2026-05-03T13:54:44.984Z</time></trkpt><trkpt lat="40.221695" lon="15.2180367"><ele>167.0</ele><time>2026-05-03T13:54:45.983Z</time></trkpt><trkpt lat="40.22156" lon="15.2179533"><ele>169.25</ele><time>2026-05-03T13:54:46.985Z</time></trkpt><trkpt lat="40.22141" lon="15.2179"><ele>171.5</ele><time>2026-05-03T13:54:47.982Z</time></trkpt><trkpt lat="40.2212667" lon="15.2178633"><ele>173.75</ele><time>2026-05-03T13:54:48.982Z</time></trkpt><trkpt lat="40.2211233" lon="15.2178317"><ele>176.0</ele><time>2026-05-03T13:54:49.982Z</time></trkpt><trkpt lat="40.2209883" lon="15.2177717"><ele>176.0</ele><time>2026-05-03T13:54:50.984Z</time></trkpt><trkpt lat="40.2208667" lon="15.21767"><ele>176.0</ele><time>2026-05-03T13:54:51.983Z</time></trkpt><trkpt lat="40.2207567" lon="15.2175517"><ele>176.0</ele><time>2026-05-03T13:54:52.984Z</time></trkpt><trkpt lat="40.220655" lon="15.2174167"><ele>176.0</ele><time>2026-05-03T13:54:53.983Z</time></trkpt><trkpt lat="40.220565" lon="15.2172717"><ele>173.0</ele><time>2026-05-03T13:54:54.987Z</time></trkpt><trkpt lat="40.2204917" lon="15.217105"><ele>170.0</ele><time>2026-05-03T13:54:55.983Z</time></trkpt><trkpt lat="40.2204367" lon="15.2169367"><ele>167.0</ele><time>2026-05-03T13:54:56.985Z</time></trkpt><trkpt lat="40.2203933" lon="15.2167733"><ele>164.0</ele><time>2026-05-03T13:54:57.982Z</time></trkpt><trkpt lat="40.2203517" lon="15.2166217"><ele>164.25</ele><time>2026-05-03T13:54:58.984Z</time></trkpt><trkpt lat="40.220315" lon="15.2164733"><ele>164.5</ele><time>2026-05-03T13:54:59.984Z</time></trkpt><trkpt lat="40.220295" lon="15.2163233"><ele>164.75</ele><time>2026-05-03T13:55:00.983Z</time></trkpt><trkpt lat="40.2203067" lon="15.21617"><ele>165.0</ele><time>2026-05-03T13:55:01.984Z</time></trkpt><trkpt lat="40.2203483" lon="15.21602"><ele>165.0</ele><time>2026-05-03T13:55:02.983Z</time></trkpt><trkpt lat="40.22043" lon="15.215855"><ele>165.0</ele><time>2026-05-03T13:55:03.983Z</time></trkpt><trkpt lat="40.2205233" lon="15.2156983"><ele>165.0</ele><time>2026-05-03T13:55:04.984Z</time></trkpt><trkpt lat="40.2206133" lon="15.2155483"><ele>165.0</ele><time>2026-05-03T13:55:05.985Z</time></trkpt><trkpt lat="40.2206917" lon="15.215405"><ele>172.25</ele><time>2026-05-03T13:55:06.982Z</time></trkpt><trkpt lat="40.2207533" lon="15.2152667"><ele>179.5</ele><time>2026-05-03T13:55:07.982Z</time></trkpt><trkpt lat="40.220795" lon="15.2151267"><ele>186.75</ele><time>2026-05-03T13:55:08.984Z</time></trkpt><trkpt lat="40.2208017" lon="15.2149733"><ele>194.0</ele><time>2026-05-03T13:55:09.984Z</time></trkpt><trkpt lat="40.2207683" lon="15.214815"><ele>192.25</ele><time>2026-05-03T13:55:10.982Z</time></trkpt><trkpt lat="40.2207033" lon="15.214665"><ele>190.5</ele><time>2026-05-03T13:55:11.983Z</time></trkpt><trkpt lat="40.2206133" lon="15.2145433"><ele>188.75</ele><time>2026-05-03T13:55:12.982Z</time></trkpt><trkpt lat="40.2205" lon="15.214455"><ele>187.0</ele><time>2026-05-03T13:55:13.982Z</time></trkpt><trkpt lat="40.220365" lon="15.21441"><ele>187.0</ele><time>2026-05-03T13:55:14.984Z</time></trkpt><trkpt lat="40.2202267" lon="15.2143817"><ele>187.0</ele><time>2026-05-03T13:55:15.982Z</time></trkpt><trkpt lat="40.220095" lon="15.2143533"><ele>187.0</ele><time>2026-05-03T13:55:16.983Z</time></trkpt><trkpt lat="40.21998" lon="15.21432"><ele>187.0</ele><time>2026-05-03T13:55:17.982Z</time></trkpt><trkpt lat="40.2198817" lon="15.2142733"><ele>184.2</ele><time>2026-05-03T13:55:18.982Z</time></trkpt><trkpt lat="40.2198117" lon="15.2141883"><ele>181.39999999999998</ele><time>2026-05-03T13:55:19.983Z</time></trkpt><trkpt lat="40.21977" lon="15.2140983"><ele>178.60000000000002</ele><time>2026-05-03T13:55:20.984Z</time></trkpt><trkpt lat="40.21975" lon="15.2140183"><ele>175.8</ele><time>2026-05-03T13:55:21.982Z</time></trkpt><trkpt lat="40.2198267" lon="15.213935"><ele>173.0</ele><time>2026-05-03T13:55:22.983Z</time></trkpt><trkpt lat="40.2199167" lon="15.2138467"><ele>173.0</ele><time>2026-05-03T13:55:23.982Z</time></trkpt><trkpt lat="40.2200383" lon="15.21377"><ele>173.0</ele><time>2026-05-03T13:55:24.982Z</time></trkpt><trkpt lat="40.2201833" lon="15.2136867"><ele>173.0</ele><time>2026-05-03T13:55:25.983Z</time></trkpt><trkpt lat="40.22034" lon="15.2135933"><ele>173.0</ele><time>2026-05-03T13:55:26.983Z</time></trkpt><trkpt lat="40.2204933" lon="15.213485"><ele>173.0</ele><time>2026-05-03T13:55:27.983Z</time></trkpt><trkpt lat="40.220645" lon="15.2133733"><ele>173.0</ele><time>2026-05-03T13:55:28.983Z</time></trkpt><trkpt lat="40.220785" lon="15.2132617"><ele>174.5</ele><time>2026-05-03T13:55:29.982Z</time></trkpt><trkpt lat="40.2209217" lon="15.213175"><ele>176.0</ele><time>2026-05-03T13:55:30.982Z</time></trkpt><trkpt lat="40.2210633" lon="15.2131333"><ele>177.5</ele><time>2026-05-03T13:55:31.982Z</time></trkpt><trkpt lat="40.2212083" lon="15.21314"><ele>179.0</ele><time>2026-05-03T13:55:32.982Z</time></trkpt><trkpt lat="40.221345" lon="15.2131883"><ele>182.39999999999998</ele><time>2026-05-03T13:55:33.985Z</time></trkpt><trkpt lat="40.221465" lon="15.213255"><ele>185.8</ele><time>2026-05-03T13:55:34.983Z</time></trkpt><trkpt lat="40.2215733" lon="15.2132967"><ele>189.2</ele><time>2026-05-03T13:55:35.983Z</time></trkpt><trkpt lat="40.2216767" lon="15.2132983"><ele>192.60000000000002</ele><time>2026-05-03T13:55:36.983Z</time></trkpt><trkpt lat="40.221765" lon="15.2132483"><ele>196.0</ele><time>2026-05-03T13:55:37.984Z</time></trkpt><trkpt lat="40.221845" lon="15.21314"><ele>198.0</ele><time>2026-05-03T13:55:38.983Z</time></trkpt><trkpt lat="40.2219167" lon="15.2129917"><ele>200.0</ele><time>2026-05-03T13:55:39.983Z</time></trkpt><trkpt lat="40.22197" lon="15.2128"><ele>202.0</ele><time>2026-05-03T13:55:40.984Z</time></trkpt><trkpt lat="40.222005" lon="15.2125933"><ele>202.0</ele><time>2026-05-03T13:55:41.983Z</time></trkpt><trkpt lat="40.2220283" lon="15.2123883"><ele>202.0</ele><time>2026-05-03T13:55:42.983Z</time></trkpt><trkpt lat="40.222055" lon="15.2121983"><ele>202.0</ele><time>2026-05-03T13:55:43.983Z</time></trkpt><trkpt lat="40.2221117" lon="15.2120133"><ele>200.0</ele><time>2026-05-03T13:55:44.983Z</time></trkpt><trkpt lat="40.2222017" lon="15.2118217"><ele>198.0</ele><time>2026-05-03T13:55:45.983Z</time></trkpt><trkpt lat="40.2223117" lon="15.2116217"><ele>196.0</ele><time>2026-05-03T13:55:46.984Z</time></trkpt><trkpt lat="40.2224233" lon="15.2114267"><ele>201.33333333333331</ele><time>2026-05-03T13:55:47.983Z</time></trkpt><trkpt lat="40.222535" lon="15.2112433"><ele>206.66666666666669</ele><time>2026-05-03T13:55:48.984Z</time></trkpt><trkpt lat="40.222645" lon="15.2110667"><ele>212.0</ele><time>2026-05-03T13:55:49.983Z</time></trkpt><trkpt lat="40.22275" lon="15.2108983"><ele>212.0</ele><time>2026-05-03T13:55:50.983Z</time></trkpt><trkpt lat="40.2228567" lon="15.2107483"><ele>212.0</ele><time>2026-05-03T13:55:51.983Z</time></trkpt><trkpt lat="40.2229667" lon="15.2106267"><ele>212.0</ele><time>2026-05-03T13:55:52.982Z</time></trkpt><trkpt lat="40.2230817" lon="15.2105383"><ele>212.0</ele><time>2026-05-03T13:55:53.983Z</time></trkpt><trkpt lat="40.223205" lon="15.2104833"><ele>214.25</ele><time>2026-05-03T13:55:54.983Z</time></trkpt><trkpt lat="40.223315" lon="15.2104217"><ele>216.5</ele><time>2026-05-03T13:55:55.983Z</time></trkpt><trkpt lat="40.223405" lon="15.2103283"><ele>218.75</ele><time>2026-05-03T13:55:56.983Z</time></trkpt><trkpt lat="40.223475" lon="15.2101983"><ele>221.0</ele><time>2026-05-03T13:55:57.983Z</time></trkpt><trkpt lat="40.2235233" lon="15.2100367"><ele>221.0</ele><time>2026-05-03T13:55:58.983Z</time></trkpt><trkpt lat="40.2235467" lon="15.2098517"><ele>221.0</ele><time>2026-05-03T13:55:59.984Z</time></trkpt><trkpt lat="40.2235633" lon="15.2096683"><ele>221.0</ele><time>2026-05-03T13:56:00.983Z</time></trkpt><trkpt lat="40.2235783" lon="15.2094817"><ele>221.0</ele><time>2026-05-03T13:56:01.983Z</time></trkpt><trkpt lat="40.2236017" lon="15.2092867"><ele>221.75</ele><time>2026-05-03T13:56:02.983Z</time></trkpt><trkpt lat="40.22362" lon="15.2090967"><ele>222.5</ele><time>2026-05-03T13:56:03.984Z</time></trkpt><trkpt lat="40.223635" lon="15.2089083"><ele>223.25</ele><time>2026-05-03T13:56:04.982Z</time></trkpt><trkpt lat="40.2236483" lon="15.2087317"><ele>224.0</ele><time>2026-05-03T13:56:05.983Z</time></trkpt><trkpt lat="40.2236633" lon="15.2085517"><ele>224.0</ele><time>2026-05-03T13:56:06.983Z</time></trkpt><trkpt lat="40.2236783" lon="15.208375"><ele>224.0</ele><time>2026-05-03T13:56:07.984Z</time></trkpt><trkpt lat="40.2236967" lon="15.2082017"><ele>224.0</ele><time>2026-05-03T13:56:08.984Z</time></trkpt><trkpt lat="40.2237133" lon="15.2080333"><ele>224.0</ele><time>2026-05-03T13:56:09.983Z</time></trkpt><trkpt lat="40.2237267" lon="15.207875"><ele>223.5</ele><time>2026-05-03T13:56:10.983Z</time></trkpt><trkpt lat="40.2237317" lon="15.2077183"><ele>223.0</ele><time>2026-05-03T13:56:11.984Z</time></trkpt><trkpt lat="40.2237167" lon="15.207565"><ele>222.5</ele><time>2026-05-03T13:56:12.983Z</time></trkpt><trkpt lat="40.2236733" lon="15.20741"><ele>222.0</ele><time>2026-05-03T13:56:13.983Z</time></trkpt><trkpt lat="40.2236133" lon="15.2072717"><ele>222.0</ele><time>2026-05-03T13:56:14.984Z</time></trkpt><trkpt lat="40.22356" lon="15.207145"><ele>222.0</ele><time>2026-05-03T13:56:15.983Z</time></trkpt><trkpt lat="40.2235333" lon="15.2070183"><ele>222.0</ele><time>2026-05-03T13:56:16.983Z</time></trkpt><trkpt lat="40.2235383" lon="15.20689"><ele>222.0</ele><time>2026-05-03T13:56:17.984Z</time></trkpt><trkpt lat="40.2235717" lon="15.2067717"><ele>222.0</ele><time>2026-05-03T13:56:18.983Z</time></trkpt><trkpt lat="40.2236383" lon="15.2066717"><ele>222.0</ele><time>2026-05-03T13:56:19.983Z</time></trkpt><trkpt lat="40.2237283" lon="15.2065717"><ele>222.0</ele><time>2026-05-03T13:56:20.984Z</time></trkpt><trkpt lat="40.2238417" lon="15.2064933"><ele>222.0</ele><time>2026-05-03T13:56:21.984Z</time></trkpt><trkpt lat="40.2239517" lon="15.206415"><ele>222.0</ele><time>2026-05-03T13:56:22.982Z</time></trkpt><trkpt lat="40.2240533" lon="15.2063467"><ele>219.6</ele><time>2026-05-03T13:56:23.982Z</time></trkpt><trkpt lat="40.2241267" lon="15.2062517"><ele>217.2</ele><time>2026-05-03T13:56:24.984Z</time></trkpt><trkpt lat="40.2241667" lon="15.20615"><ele>214.8</ele><time>2026-05-03T13:56:25.983Z</time></trkpt><trkpt lat="40.224185" lon="15.2060367"><ele>212.4</ele><time>2026-05-03T13:56:26.984Z</time></trkpt><trkpt lat="40.2241467" lon="15.2059083"><ele>210.0</ele><time>2026-05-03T13:56:27.983Z</time></trkpt><trkpt lat="40.224095" lon="15.2057533"><ele>208.25</ele><time>2026-05-03T13:56:28.984Z</time></trkpt><trkpt lat="40.224035" lon="15.2055983"><ele>206.5</ele><time>2026-05-03T13:56:29.985Z</time></trkpt><trkpt lat="40.22398" lon="15.2054433"><ele>204.75</ele><time>2026-05-03T13:56:30.984Z</time></trkpt><trkpt lat="40.223925" lon="15.2052967"><ele>203.0</ele><time>2026-05-03T13:56:31.985Z</time></trkpt><trkpt lat="40.223875" lon="15.20516"><ele>207.75</ele><time>2026-05-03T13:56:32.985Z</time></trkpt><trkpt lat="40.223835" lon="15.2050167"><ele>212.5</ele><time>2026-05-03T13:56:33.984Z</time></trkpt><trkpt lat="40.2237983" lon="15.20487"><ele>217.25</ele><time>2026-05-03T13:56:34.983Z</time></trkpt><trkpt lat="40.223775" lon="15.2047183"><ele>222.0</ele><time>2026-05-03T13:56:35.985Z</time></trkpt><trkpt lat="40.2237767" lon="15.20457"><ele>222.0</ele><time>2026-05-03T13:56:36.983Z</time></trkpt><trkpt lat="40.223785" lon="15.2044267"><ele>222.0</ele><time>2026-05-03T13:56:37.985Z</time></trkpt><trkpt lat="40.223785" lon="15.2043"><ele>222.0</ele><time>2026-05-03T13:56:38.985Z</time></trkpt><trkpt lat="40.22377" lon="15.2041867"><ele>222.0</ele><time>2026-05-03T13:56:39.984Z</time></trkpt><trkpt lat="40.2237383" lon="15.2040767"><ele>222.0</ele><time>2026-05-03T13:56:40.988Z</time></trkpt><trkpt lat="40.22367" lon="15.2039783"><ele>217.25</ele><time>2026-05-03T13:56:41.984Z</time></trkpt><trkpt lat="40.2235783" lon="15.203895"><ele>212.5</ele><time>2026-05-03T13:56:42.985Z</time></trkpt><trkpt lat="40.223495" lon="15.2037933"><ele>207.75</ele><time>2026-05-03T13:56:43.985Z</time></trkpt><trkpt lat="40.2234283" lon="15.203675"><ele>203.0</ele><time>2026-05-03T13:56:44.984Z</time></trkpt><trkpt lat="40.2233833" lon="15.20353"><ele>203.0</ele><time>2026-05-03T13:56:45.984Z</time></trkpt><trkpt lat="40.2233567" lon="15.2033483"><ele>203.0</ele><time>2026-05-03T13:56:46.985Z</time></trkpt><trkpt lat="40.223335" lon="15.20315"><ele>203.0</ele><time>2026-05-03T13:56:47.984Z</time></trkpt><trkpt lat="40.2233083" lon="15.2029633"><ele>203.0</ele><time>2026-05-03T13:56:48.983Z</time></trkpt><trkpt lat="40.2232883" lon="15.2027783"><ele>200.25</ele><time>2026-05-03T13:56:49.985Z</time></trkpt><trkpt lat="40.2232767" lon="15.2025917"><ele>197.5</ele><time>2026-05-03T13:56:50.985Z</time></trkpt><trkpt lat="40.22326" lon="15.2024267"><ele>194.75</ele><time>2026-05-03T13:56:51.984Z</time></trkpt><trkpt lat="40.223245" lon="15.2022717"><ele>192.0</ele><time>2026-05-03T13:56:52.984Z</time></trkpt><trkpt lat="40.22321" lon="15.20213"><ele>194.0</ele><time>2026-05-03T13:56:53.984Z</time></trkpt><trkpt lat="40.2231517" lon="15.2020017"><ele>196.0</ele><time>2026-05-03T13:56:54.983Z</time></trkpt><trkpt lat="40.22306" lon="15.20191"><ele>198.0</ele><time>2026-05-03T13:56:55.984Z</time></trkpt><trkpt lat="40.2229533" lon="15.2018417"><ele>200.0</ele><time>2026-05-03T13:56:56.986Z</time></trkpt><trkpt lat="40.2228483" lon="15.201765"><ele>200.0</ele><time>2026-05-03T13:56:57.984Z</time></trkpt><trkpt lat="40.2227517" lon="15.2016633"><ele>200.0</ele><time>2026-05-03T13:56:58.983Z</time></trkpt><trkpt lat="40.222665" lon="15.20154"><ele>200.0</ele><time>2026-05-03T13:56:59.984Z</time></trkpt><trkpt lat="40.2226083" lon="15.2013917"><ele>200.0</ele><time>2026-05-03T13:57:00.984Z</time></trkpt><trkpt lat="40.2225783" lon="15.20123"><ele>200.25</ele><time>2026-05-03T13:57:01.984Z</time></trkpt><trkpt lat="40.2225683" lon="15.201085"><ele>200.5</ele><time>2026-05-03T13:57:02.985Z</time></trkpt><trkpt lat="40.2226033" lon="15.2009033"><ele>200.75</ele><time>2026-05-03T13:57:03.983Z</time></trkpt><trkpt lat="40.2226917" lon="15.2006967"><ele>201.0</ele><time>2026-05-03T13:57:04.984Z</time></trkpt><trkpt lat="40.2228267" lon="15.200465"><ele>201.33333333333331</ele><time>2026-05-03T13:57:05.983Z</time></trkpt><trkpt lat="40.2229383" lon="15.2002817"><ele>201.66666666666666</ele><time>2026-05-03T13:57:06.983Z</time></trkpt><trkpt lat="40.2230633" lon="15.2000933"><ele>202.0</ele><time>2026-05-03T13:57:07.983Z</time></trkpt><trkpt lat="40.22317" lon="15.19993"><ele>195.25</ele><time>2026-05-03T13:57:08.984Z</time></trkpt><trkpt lat="40.2232617" lon="15.1997683"><ele>188.5</ele><time>2026-05-03T13:57:09.984Z</time></trkpt><trkpt lat="40.2233167" lon="15.1996117"><ele>181.75</ele><time>2026-05-03T13:57:10.983Z</time></trkpt><trkpt lat="40.22333" lon="15.1994567"><ele>175.0</ele><time>2026-05-03T13:57:11.983Z</time></trkpt><trkpt lat="40.2233017" lon="15.1993133"><ele>175.0</ele><time>2026-05-03T13:57:12.983Z</time></trkpt><trkpt lat="40.2232267" lon="15.1991683"><ele>175.0</ele><time>2026-05-03T13:57:13.984Z</time></trkpt><trkpt lat="40.2231167" lon="15.199045"><ele>175.0</ele><time>2026-05-03T13:57:14.985Z</time></trkpt><trkpt lat="40.223015" lon="15.1988917"><ele>175.0</ele><time>2026-05-03T13:57:15.983Z</time></trkpt><trkpt lat="40.2229317" lon="15.198705"><ele>178.66666666666669</ele><time>2026-05-03T13:57:16.983Z</time></trkpt><trkpt lat="40.2228567" lon="15.19851"><ele>182.33333333333334</ele><time>2026-05-03T13:57:17.982Z</time></trkpt><trkpt lat="40.2227933" lon="15.1983217"><ele>186.0</ele><time>2026-05-03T13:57:18.983Z</time></trkpt><trkpt lat="40.2227417" lon="15.1981383"><ele>186.0</ele><time>2026-05-03T13:57:19.982Z</time></trkpt><trkpt lat="40.2227133" lon="15.19794"><ele>186.0</ele><time>2026-05-03T13:57:20.982Z</time></trkpt><trkpt lat="40.2227117" lon="15.1977183"><ele>186.0</ele><time>2026-05-03T13:57:21.982Z</time></trkpt><trkpt lat="40.2227267" lon="15.1974733"><ele>186.0</ele><time>2026-05-03T13:57:22.982Z</time></trkpt><trkpt lat="40.2227417" lon="15.1972233"><ele>186.0</ele><time>2026-05-03T13:57:23.982Z</time></trkpt><trkpt lat="40.2227583" lon="15.1969633"><ele>186.0</ele><time>2026-05-03T13:57:24.983Z</time></trkpt><trkpt lat="40.2227767" lon="15.1967117"><ele>186.0</ele><time>2026-05-03T13:57:25.984Z</time></trkpt><trkpt lat="40.2227933" lon="15.1964683"><ele>186.0</ele><time>2026-05-03T13:57:26.984Z</time></trkpt><trkpt lat="40.2228083" lon="15.1962333"><ele>186.0</ele><time>2026-05-03T13:57:27.985Z</time></trkpt><trkpt lat="40.2228217" lon="15.19601"><ele>186.0</ele><time>2026-05-03T13:57:28.983Z</time></trkpt><trkpt lat="40.222835" lon="15.195795"><ele>186.0</ele><time>2026-05-03T13:57:29.984Z</time></trkpt><trkpt lat="40.222855" lon="15.1955817"><ele>186.0</ele><time>2026-05-03T13:57:30.984Z</time></trkpt><trkpt lat="40.22287" lon="15.195365"><ele>185.66666666666666</ele><time>2026-05-03T13:57:31.982Z</time></trkpt><trkpt lat="40.2228783" lon="15.1951433"><ele>185.33333333333331</ele><time>2026-05-03T13:57:32.983Z</time></trkpt><trkpt lat="40.2228683" lon="15.1949167"><ele>185.0</ele><time>2026-05-03T13:57:33.984Z</time></trkpt><trkpt lat="40.22284" lon="15.1946817"><ele>184.33333333333331</ele><time>2026-05-03T13:57:34.984Z</time></trkpt><trkpt lat="40.2228133" lon="15.1944467"><ele>183.66666666666666</ele><time>2026-05-03T13:57:35.984Z</time></trkpt><trkpt lat="40.222805" lon="15.1942117"><ele>183.0</ele><time>2026-05-03T13:57:36.983Z</time></trkpt><trkpt lat="40.2228083" lon="15.1939683"><ele>182.33333333333334</ele><time>2026-05-03T13:57:37.985Z</time></trkpt><trkpt lat="40.22282" lon="15.1937317"><ele>181.66666666666669</ele><time>2026-05-03T13:57:38.984Z</time></trkpt><trkpt lat="40.222835" lon="15.1935017"><ele>181.0</ele><time>2026-05-03T13:57:39.984Z</time></trkpt><trkpt lat="40.2228583" lon="15.1932783"><ele>184.0</ele><time>2026-05-03T13:57:40.985Z</time></trkpt><trkpt lat="40.2228767" lon="15.193075"><ele>187.0</ele><time>2026-05-03T13:57:41.984Z</time></trkpt><trkpt lat="40.2229017" lon="15.192895"><ele>190.0</ele><time>2026-05-03T13:57:42.984Z</time></trkpt><trkpt lat="40.222945" lon="15.192735"><ele>193.0</ele><time>2026-05-03T13:57:43.981Z</time></trkpt><trkpt lat="40.2230067" lon="15.1926"><ele>193.0</ele><time>2026-05-03T13:57:44.982Z</time></trkpt><trkpt lat="40.2231" lon="15.19251"><ele>193.0</ele><time>2026-05-03T13:57:45.983Z</time></trkpt><trkpt lat="40.2232183" lon="15.192445"><ele>193.0</ele><time>2026-05-03T13:57:46.982Z</time></trkpt><trkpt lat="40.2233867" lon="15.1924167"><ele>193.0</ele><time>2026-05-03T13:57:47.983Z</time></trkpt><trkpt lat="40.2235667" lon="15.1923967"><ele>180.33333333333331</ele><time>2026-05-03T13:57:48.983Z</time></trkpt><trkpt lat="40.2237467" lon="15.1923717"><ele>167.66666666666666</ele><time>2026-05-03T13:57:49.984Z</time></trkpt><trkpt lat="40.2239167" lon="15.1923433"><ele>155.0</ele><time>2026-05-03T13:57:50.982Z</time></trkpt><trkpt lat="40.2240783" lon="15.1923117"><ele>154.75</ele><time>2026-05-03T13:57:51.982Z</time></trkpt><trkpt lat="40.224235" lon="15.19227"><ele>154.5</ele><time>2026-05-03T13:57:52.984Z</time></trkpt><trkpt lat="40.2243783" lon="15.1922167"><ele>154.25</ele><time>2026-05-03T13:57:53.982Z</time></trkpt><trkpt lat="40.2245067" lon="15.19216"><ele>154.0</ele><time>2026-05-03T13:57:54.982Z</time></trkpt><trkpt lat="40.2246167" lon="15.1920883"><ele>154.0</ele><time>2026-05-03T13:57:55.983Z</time></trkpt><trkpt lat="40.2247067" lon="15.1919967"><ele>154.0</ele><time>2026-05-03T13:57:56.984Z</time></trkpt><trkpt lat="40.2247633" lon="15.1918733"><ele>154.0</ele><time>2026-05-03T13:57:57.984Z</time></trkpt><trkpt lat="40.2247917" lon="15.1917283"><ele>154.0</ele><time>2026-05-03T13:57:58.983Z</time></trkpt><trkpt lat="40.22479" lon="15.1915667"><ele>150.25</ele><time>2026-05-03T13:57:59.988Z</time></trkpt><trkpt lat="40.224755" lon="15.191405"><ele>146.5</ele><time>2026-05-03T13:58:00.984Z</time></trkpt><trkpt lat="40.2246867" lon="15.1912433"><ele>142.75</ele><time>2026-05-03T13:58:01.985Z</time></trkpt><trkpt lat="40.2245933" lon="15.1911167"><ele>139.0</ele><time>2026-05-03T13:58:02.984Z</time></trkpt><trkpt lat="40.2244683" lon="15.191035"><ele>139.0</ele><time>2026-05-03T13:58:03.984Z</time></trkpt><trkpt lat="40.2243183" lon="15.1909933"><ele>139.0</ele><time>2026-05-03T13:58:04.984Z</time></trkpt><trkpt lat="40.2241767" lon="15.1909367"><ele>139.0</ele><time>2026-05-03T13:58:05.984Z</time></trkpt><trkpt lat="40.2240417" lon="15.1908383"><ele>143.0</ele><time>2026-05-03T13:58:06.984Z</time></trkpt><trkpt lat="40.2239167" lon="15.1906967"><ele>147.0</ele><time>2026-05-03T13:58:07.983Z</time></trkpt><trkpt lat="40.22381" lon="15.190515"><ele>151.0</ele><time>2026-05-03T13:58:08.984Z</time></trkpt><trkpt lat="40.223715" lon="15.1903417"><ele>151.0</ele><time>2026-05-03T13:58:09.984Z</time></trkpt><trkpt lat="40.22364" lon="15.190165"><ele>151.0</ele><time>2026-05-03T13:58:10.984Z</time></trkpt><trkpt lat="40.22359" lon="15.189985"><ele>151.0</ele><time>2026-05-03T13:58:11.983Z</time></trkpt><trkpt lat="40.2235733" lon="15.1898"><ele>151.0</ele><time>2026-05-03T13:58:12.983Z</time></trkpt><trkpt lat="40.2235783" lon="15.189615"><ele>149.75</ele><time>2026-05-03T13:58:13.985Z</time></trkpt><trkpt lat="40.2236017" lon="15.189425"><ele>148.5</ele><time>2026-05-03T13:58:14.985Z</time></trkpt><trkpt lat="40.2236217" lon="15.189235"><ele>147.25</ele><time>2026-05-03T13:58:15.983Z</time></trkpt><trkpt lat="40.22363" lon="15.1890433"><ele>146.0</ele><time>2026-05-03T13:58:16.984Z</time></trkpt><trkpt lat="40.223615" lon="15.1888617"><ele>142.75</ele><time>2026-05-03T13:58:17.984Z</time></trkpt><trkpt lat="40.22357" lon="15.1886933"><ele>139.5</ele><time>2026-05-03T13:58:18.985Z</time></trkpt><trkpt lat="40.2234983" lon="15.1885433"><ele>136.25</ele><time>2026-05-03T13:58:19.984Z</time></trkpt><trkpt lat="40.2234067" lon="15.1884183"><ele>133.0</ele><time>2026-05-03T13:58:20.984Z</time></trkpt><trkpt lat="40.2233233" lon="15.1883067"><ele>132.5</ele><time>2026-05-03T13:58:21.983Z</time></trkpt><trkpt lat="40.223275" lon="15.1881717"><ele>132.0</ele><time>2026-05-03T13:58:22.984Z</time></trkpt><trkpt lat="40.2232683" lon="15.1880433"><ele>131.5</ele><time>2026-05-03T13:58:23.984Z</time></trkpt><trkpt lat="40.223325" lon="15.1879167"><ele>131.0</ele><time>2026-05-03T13:58:24.983Z</time></trkpt><trkpt lat="40.2234267" lon="15.1877983"><ele>131.0</ele><time>2026-05-03T13:58:25.984Z</time></trkpt><trkpt lat="40.2235267" lon="15.18769"><ele>131.0</ele><time>2026-05-03T13:58:26.985Z</time></trkpt><trkpt lat="40.223625" lon="15.1875733"><ele>131.0</ele><time>2026-05-03T13:58:27.983Z</time></trkpt><trkpt lat="40.2236983" lon="15.1874383"><ele>131.0</ele><time>2026-05-03T13:58:28.984Z</time></trkpt><trkpt lat="40.2237283" lon="15.1872833"><ele>130.25</ele><time>2026-05-03T13:58:29.983Z</time></trkpt><trkpt lat="40.2237117" lon="15.18712"><ele>129.5</ele><time>2026-05-03T13:58:30.985Z</time></trkpt><trkpt lat="40.2236517" lon="15.1869583"><ele>128.75</ele><time>2026-05-03T13:58:31.984Z</time></trkpt><trkpt lat="40.2235683" lon="15.1868017"><ele>128.0</ele><time>2026-05-03T13:58:32.985Z</time></trkpt><trkpt lat="40.2234933" lon="15.1866333"><ele>127.66666666666666</ele><time>2026-05-03T13:58:33.983Z</time></trkpt><trkpt lat="40.223445" lon="15.1864433"><ele>127.33333333333334</ele><time>2026-05-03T13:58:34.984Z</time></trkpt><trkpt lat="40.2234233" lon="15.1862417"><ele>127.0</ele><time>2026-05-03T13:58:35.983Z</time></trkpt><trkpt lat="40.22342" lon="15.186045"><ele>127.0</ele><time>2026-05-03T13:58:36.983Z</time></trkpt><trkpt lat="40.2234383" lon="15.1858683"><ele>127.0</ele><time>2026-05-03T13:58:37.984Z</time></trkpt><trkpt lat="40.2234833" lon="15.18569"><ele>127.0</ele><time>2026-05-03T13:58:38.984Z</time></trkpt><trkpt lat="40.2235583" lon="15.1854933"><ele>127.0</ele><time>2026-05-03T13:58:39.984Z</time></trkpt><trkpt lat="40.22365" lon="15.185285"><ele>126.33333333333334</ele><time>2026-05-03T13:58:40.983Z</time></trkpt><trkpt lat="40.2237583" lon="15.185085"><ele>125.66666666666666</ele><time>2026-05-03T13:58:41.985Z</time></trkpt><trkpt lat="40.22388" lon="15.18491"><ele>125.0</ele><time>2026-05-03T13:58:42.983Z</time></trkpt><trkpt lat="40.2239983" lon="15.184735"><ele>125.0</ele><time>2026-05-03T13:58:43.983Z</time></trkpt><trkpt lat="40.22413" lon="15.18458"><ele>125.0</ele><time>2026-05-03T13:58:44.984Z</time></trkpt><trkpt lat="40.2242683" lon="15.1844417"><ele>125.0</ele><time>2026-05-03T13:58:45.983Z</time></trkpt><trkpt lat="40.2244" lon="15.18431"><ele>125.0</ele><time>2026-05-03T13:58:46.983Z</time></trkpt><trkpt lat="40.2245333" lon="15.1841967"><ele>125.0</ele><time>2026-05-03T13:58:47.984Z</time></trkpt><trkpt lat="40.224665" lon="15.1841133"><ele>125.0</ele><time>2026-05-03T13:58:48.983Z</time></trkpt><trkpt lat="40.2247967" lon="15.18406"><ele>125.0</ele><time>2026-05-03T13:58:49.985Z</time></trkpt><trkpt lat="40.2249233" lon="15.184025"><ele>120.0</ele><time>2026-05-03T13:58:50.985Z</time></trkpt><trkpt lat="40.2250317" lon="15.18399"><ele>115.0</ele><time>2026-05-03T13:58:51.983Z</time></trkpt><trkpt lat="40.2251217" lon="15.1839333"><ele>110.0</ele><time>2026-05-03T13:58:52.985Z</time></trkpt><trkpt lat="40.225195" lon="15.1838583"><ele>105.0</ele><time>2026-05-03T13:58:53.984Z</time></trkpt><trkpt lat="40.22524" lon="15.1837633"><ele>100.0</ele><time>2026-05-03T13:58:54.983Z</time></trkpt><trkpt lat="40.2252733" lon="15.1836733"><ele>100.0</ele><time>2026-05-03T13:58:55.983Z</time></trkpt><trkpt lat="40.2252383" lon="15.18354"><ele>100.0</ele><time>2026-05-03T13:58:56.984Z</time></trkpt><trkpt lat="40.2251083" lon="15.1834117"><ele>100.0</ele><time>2026-05-03T13:58:57.984Z</time></trkpt><trkpt lat="40.2249917" lon="15.1832917"><ele>100.0</ele><time>2026-05-03T13:58:58.984Z</time></trkpt><trkpt lat="40.2249083" lon="15.1831717"><ele>101.0</ele><time>2026-05-03T13:58:59.984Z</time></trkpt><trkpt lat="40.2248817" lon="15.183055"><ele>102.0</ele><time>2026-05-03T13:59:00.984Z</time></trkpt><trkpt lat="40.2248983" lon="15.182935"><ele>103.0</ele><time>2026-05-03T13:59:01.984Z</time></trkpt><trkpt lat="40.2249583" lon="15.18282"><ele>104.0</ele><time>2026-05-03T13:59:02.985Z</time></trkpt><trkpt lat="40.22506" lon="15.182715"><ele>105.0</ele><time>2026-05-03T13:59:03.984Z</time></trkpt><trkpt lat="40.2251833" lon="15.182625"><ele>105.0</ele><time>2026-05-03T13:59:04.983Z</time></trkpt><trkpt lat="40.225305" lon="15.1825383"><ele>105.0</ele><time>2026-05-03T13:59:05.985Z</time></trkpt><trkpt lat="40.225425" lon="15.1824583"><ele>105.0</ele><time>2026-05-03T13:59:06.983Z</time></trkpt><trkpt lat="40.2255367" lon="15.1823867"><ele>105.0</ele><time>2026-05-03T13:59:07.985Z</time></trkpt><trkpt lat="40.2256467" lon="15.182325"><ele>104.2</ele><time>2026-05-03T13:59:08.987Z</time></trkpt><trkpt lat="40.22575" lon="15.18227"><ele>103.4</ele><time>2026-05-03T13:59:09.983Z</time></trkpt><trkpt lat="40.2258467" lon="15.1822067"><ele>102.6</ele><time>2026-05-03T13:59:10.985Z</time></trkpt><trkpt lat="40.2259317" lon="15.1821283"><ele>101.8</ele><time>2026-05-03T13:59:11.984Z</time></trkpt><trkpt lat="40.22601" lon="15.1820233"><ele>101.0</ele><time>2026-05-03T13:59:12.984Z</time></trkpt><trkpt lat="40.22607" lon="15.1818967"><ele>101.0</ele><time>2026-05-03T13:59:13.984Z</time></trkpt><trkpt lat="40.2261133" lon="15.1817517"><ele>101.0</ele><time>2026-05-03T13:59:14.985Z</time></trkpt><trkpt lat="40.2261433" lon="15.1816067"><ele>101.0</ele><time>2026-05-03T13:59:15.983Z</time></trkpt><trkpt lat="40.2261483" lon="15.1814683"><ele>101.0</ele><time>2026-05-03T13:59:16.983Z</time></trkpt><trkpt lat="40.22613" lon="15.1813267"><ele>101.0</ele><time>2026-05-03T13:59:17.984Z</time></trkpt><trkpt lat="40.2260817" lon="15.181195"><ele>100.75</ele><time>2026-05-03T13:59:18.984Z</time></trkpt><trkpt lat="40.22602" lon="15.181055"><ele>100.5</ele><time>2026-05-03T13:59:19.985Z</time></trkpt><trkpt lat="40.2259683" lon="15.1808983"><ele>100.25</ele><time>2026-05-03T13:59:20.984Z</time></trkpt><trkpt lat="40.2259383" lon="15.1807283"><ele>100.0</ele><time>2026-05-03T13:59:21.984Z</time></trkpt><trkpt lat="40.2259283" lon="15.180545"><ele>96.0</ele><time>2026-05-03T13:59:22.984Z</time></trkpt><trkpt lat="40.225925" lon="15.1803467"><ele>92.0</ele><time>2026-05-03T13:59:23.983Z</time></trkpt><trkpt lat="40.2259217" lon="15.18014"><ele>88.0</ele><time>2026-05-03T13:59:24.985Z</time></trkpt><trkpt lat="40.2259183" lon="15.1799383"><ele>88.5</ele><time>2026-05-03T13:59:25.984Z</time></trkpt><trkpt lat="40.22592" lon="15.17974"><ele>89.0</ele><time>2026-05-03T13:59:26.984Z</time></trkpt><trkpt lat="40.2259367" lon="15.1795517"><ele>89.5</ele><time>2026-05-03T13:59:27.984Z</time></trkpt><trkpt lat="40.22597" lon="15.1793817"><ele>90.0</ele><time>2026-05-03T13:59:28.984Z</time></trkpt><trkpt lat="40.2260317" lon="15.1792217"><ele>90.0</ele><time>2026-05-03T13:59:29.984Z</time></trkpt><trkpt lat="40.2261133" lon="15.1790767"><ele>90.0</ele><time>2026-05-03T13:59:30.983Z</time></trkpt><trkpt lat="40.226215" lon="15.178965"><ele>90.0</ele><time>2026-05-03T13:59:31.983Z</time></trkpt><trkpt lat="40.2263233" lon="15.1788783"><ele>90.0</ele><time>2026-05-03T13:59:32.984Z</time></trkpt><trkpt lat="40.2264333" lon="15.178795"><ele>85.25</ele><time>2026-05-03T13:59:33.984Z</time></trkpt><trkpt lat="40.2265283" lon="15.1787067"><ele>80.5</ele><time>2026-05-03T13:59:34.983Z</time></trkpt><trkpt lat="40.2266033" lon="15.1785967"><ele>75.75</ele><time>2026-05-03T13:59:35.985Z</time></trkpt><trkpt lat="40.2266333" lon="15.17846"><ele>71.0</ele><time>2026-05-03T13:59:36.984Z</time></trkpt><trkpt lat="40.226635" lon="15.178305"><ele>69.33333333333334</ele><time>2026-05-03T13:59:37.986Z</time></trkpt><trkpt lat="40.2266133" lon="15.1781117"><ele>67.66666666666667</ele><time>2026-05-03T13:59:38.984Z</time></trkpt><trkpt lat="40.22658" lon="15.1778967"><ele>66.0</ele><time>2026-05-03T13:59:39.983Z</time></trkpt><trkpt lat="40.226555" lon="15.1776683"><ele>66.0</ele><time>2026-05-03T13:59:40.983Z</time></trkpt><trkpt lat="40.2265417" lon="15.1774467"><ele>66.0</ele><time>2026-05-03T13:59:41.984Z</time></trkpt><trkpt lat="40.2265467" lon="15.1772333"><ele>66.0</ele><time>2026-05-03T13:59:42.983Z</time></trkpt><trkpt lat="40.22658" lon="15.17704"><ele>66.66666666666667</ele><time>2026-05-03T13:59:43.984Z</time></trkpt><trkpt lat="40.2266483" lon="15.176855"><ele>67.33333333333334</ele><time>2026-05-03T13:59:44.984Z</time></trkpt><trkpt lat="40.2267283" lon="15.17667"><ele>68.0</ele><time>2026-05-03T13:59:45.983Z</time></trkpt><trkpt lat="40.2268083" lon="15.1764817"><ele>68.33333333333334</ele><time>2026-05-03T13:59:46.983Z</time></trkpt><trkpt lat="40.2268783" lon="15.1762817"><ele>68.66666666666667</ele><time>2026-05-03T13:59:47.985Z</time></trkpt><trkpt lat="40.2269333" lon="15.1760617"><ele>69.0</ele><time>2026-05-03T13:59:48.984Z</time></trkpt><trkpt lat="40.22698" lon="15.1758317"><ele>68.33333333333333</ele><time>2026-05-03T13:59:49.983Z</time></trkpt><trkpt lat="40.2270283" lon="15.1756117"><ele>67.66666666666666</ele><time>2026-05-03T13:59:50.984Z</time></trkpt><trkpt lat="40.2270733" lon="15.1754017"><ele>67.0</ele><time>2026-05-03T13:59:51.983Z</time></trkpt><trkpt lat="40.2271133" lon="15.1751967"><ele>67.0</ele><time>2026-05-03T13:59:52.983Z</time></trkpt><trkpt lat="40.22715" lon="15.1750067"><ele>67.0</ele><time>2026-05-03T13:59:53.985Z</time></trkpt><trkpt lat="40.22719" lon="15.174825"><ele>67.0</ele><time>2026-05-03T13:59:54.983Z</time></trkpt><trkpt lat="40.22723" lon="15.1746583"><ele>67.0</ele><time>2026-05-03T13:59:55.986Z</time></trkpt><trkpt lat="40.2272867" lon="15.1745083"><ele>63.0</ele><time>2026-05-03T13:59:56.984Z</time></trkpt><trkpt lat="40.2273783" lon="15.174365"><ele>59.0</ele><time>2026-05-03T13:59:57.984Z</time></trkpt><trkpt lat="40.227505" lon="15.1742567"><ele>55.0</ele><time>2026-05-03T13:59:58.985Z</time></trkpt><trkpt lat="40.2276417" lon="15.174185"><ele>51.0</ele><time>2026-05-03T13:59:59.985Z</time></trkpt><trkpt lat="40.2277683" lon="15.17412"><ele>51.0</ele><time>2026-05-03T14:00:00.984Z</time></trkpt><trkpt lat="40.22789" lon="15.1740433"><ele>51.0</ele><time>2026-05-03T14:00:01.986Z</time></trkpt><trkpt lat="40.2280033" lon="15.1739417"><ele>51.0</ele><time>2026-05-03T14:00:02.985Z</time></trkpt><trkpt lat="40.228095" lon="15.173805"><ele>51.0</ele><time>2026-05-03T14:00:03.983Z</time></trkpt><trkpt lat="40.228165" lon="15.173625"><ele>48.333333333333336</ele><time>2026-05-03T14:00:04.984Z</time></trkpt><trkpt lat="40.2282167" lon="15.173415"><ele>45.66666666666667</ele><time>2026-05-03T14:00:05.983Z</time></trkpt><trkpt lat="40.2282417" lon="15.173195"><ele>43.0</ele><time>2026-05-03T14:00:06.983Z</time></trkpt><trkpt lat="40.2282683" lon="15.17299"><ele>42.5</ele><time>2026-05-03T14:00:07.985Z</time></trkpt><trkpt lat="40.2282933" lon="15.1727967"><ele>42.0</ele><time>2026-05-03T14:00:08.987Z</time></trkpt><trkpt lat="40.228315" lon="15.1726133"><ele>41.5</ele><time>2026-05-03T14:00:09.984Z</time></trkpt><trkpt lat="40.2283233" lon="15.1724433"><ele>41.0</ele><time>2026-05-03T14:00:10.984Z</time></trkpt><trkpt lat="40.2283067" lon="15.1722767"><ele>41.666666666666664</ele><time>2026-05-03T14:00:11.985Z</time></trkpt><trkpt lat="40.2282567" lon="15.1721067"><ele>42.333333333333336</ele><time>2026-05-03T14:00:12.985Z</time></trkpt><trkpt lat="40.2281767" lon="15.1719433"><ele>43.0</ele><time>2026-05-03T14:00:13.985Z</time></trkpt><trkpt lat="40.22807" lon="15.17178"><ele>43.0</ele><time>2026-05-03T14:00:14.984Z</time></trkpt><trkpt lat="40.227955" lon="15.1716133"><ele>43.0</ele><time>2026-05-03T14:00:15.984Z</time></trkpt><trkpt lat="40.2278433" lon="15.1714517"><ele>43.0</ele><time>2026-05-03T14:00:16.984Z</time></trkpt><trkpt lat="40.227735" lon="15.1712983"><ele>40.0</ele><time>2026-05-03T14:00:17.983Z</time></trkpt><trkpt lat="40.227625" lon="15.1711567"><ele>37.0</ele><time>2026-05-03T14:00:18.985Z</time></trkpt><trkpt lat="40.227505" lon="15.1710217"><ele>34.0</ele><time>2026-05-03T14:00:19.984Z</time></trkpt><trkpt lat="40.2273633" lon="15.1708967"><ele>34.5</ele><time>2026-05-03T14:00:20.984Z</time></trkpt><trkpt lat="40.2272017" lon="15.1707867"><ele>35.0</ele><time>2026-05-03T14:00:21.983Z</time></trkpt><trkpt lat="40.2269133" lon="15.17056"><ele>33.0</ele><time>2026-05-03T14:00:23.984Z</time></trkpt><trkpt lat="40.226785" lon="15.170425"><ele>31.0</ele><time>2026-05-03T14:00:24.984Z</time></trkpt><trkpt lat="40.2266683" lon="15.1702617"><ele>29.0</ele><time>2026-05-03T14:00:25.984Z</time></trkpt><trkpt lat="40.2265533" lon="15.1700767"><ele>30.333333333333332</ele><time>2026-05-03T14:00:26.984Z</time></trkpt><trkpt lat="40.22644" lon="15.1698867"><ele>31.666666666666664</ele><time>2026-05-03T14:00:27.984Z</time></trkpt><trkpt lat="40.22633" lon="15.1696833"><ele>33.0</ele><time>2026-05-03T14:00:28.984Z</time></trkpt><trkpt lat="40.2262233" lon="15.169475"><ele>33.0</ele><time>2026-05-03T14:00:29.984Z</time></trkpt><trkpt lat="40.2261117" lon="15.1692617"><ele>33.0</ele><time>2026-05-03T14:00:30.984Z</time></trkpt><trkpt lat="40.225995" lon="15.16905"><ele>33.0</ele><time>2026-05-03T14:00:31.984Z</time></trkpt><trkpt lat="40.22588" lon="15.16884"><ele>33.0</ele><time>2026-05-03T14:00:32.985Z</time></trkpt><trkpt lat="40.2257667" lon="15.1686383"><ele>33.0</ele><time>2026-05-03T14:00:33.983Z</time></trkpt><trkpt lat="40.2256533" lon="15.1684383"><ele>33.0</ele><time>2026-05-03T14:00:34.983Z</time></trkpt><trkpt lat="40.225545" lon="15.16824"><ele>32.0</ele><time>2026-05-03T14:00:35.985Z</time></trkpt><trkpt lat="40.2254383" lon="15.1680417"><ele>31.0</ele><time>2026-05-03T14:00:36.983Z</time></trkpt><trkpt lat="40.2253367" lon="15.1678467"><ele>30.0</ele><time>2026-05-03T14:00:37.985Z</time></trkpt><trkpt lat="40.2252333" lon="15.1676533"><ele>30.0</ele><time>2026-05-03T14:00:38.985Z</time></trkpt><trkpt lat="40.22513" lon="15.16747"><ele>30.0</ele><time>2026-05-03T14:00:39.983Z</time></trkpt><trkpt lat="40.225035" lon="15.1672933"><ele>30.0</ele><time>2026-05-03T14:00:40.984Z</time></trkpt><trkpt lat="40.2249483" lon="15.1671217"><ele>29.25</ele><time>2026-05-03T14:00:41.983Z</time></trkpt><trkpt lat="40.2248733" lon="15.1669567"><ele>28.5</ele><time>2026-05-03T14:00:42.985Z</time></trkpt><trkpt lat="40.2248167" lon="15.1667917"><ele>27.75</ele><time>2026-05-03T14:00:43.985Z</time></trkpt><trkpt lat="40.2247867" lon="15.166625"><ele>27.0</ele><time>2026-05-03T14:00:44.984Z</time></trkpt><trkpt lat="40.2247833" lon="15.1664567"><ele>27.0</ele><time>2026-05-03T14:00:45.983Z</time></trkpt><trkpt lat="40.224805" lon="15.1662817"><ele>27.0</ele><time>2026-05-03T14:00:46.984Z</time></trkpt><trkpt lat="40.2248383" lon="15.1660967"><ele>27.0</ele><time>2026-05-03T14:00:47.984Z</time></trkpt><trkpt lat="40.22488" lon="15.1659067"><ele>27.0</ele><time>2026-05-03T14:00:48.984Z</time></trkpt><trkpt lat="40.2249233" lon="15.1657217"><ele>26.666666666666664</ele><time>2026-05-03T14:00:49.983Z</time></trkpt><trkpt lat="40.2249717" lon="15.1655333"><ele>26.333333333333332</ele><time>2026-05-03T14:00:50.984Z</time></trkpt><trkpt lat="40.225025" lon="15.165345"><ele>26.0</ele><time>2026-05-03T14:00:51.984Z</time></trkpt><trkpt lat="40.2250767" lon="15.1651683"><ele>26.0</ele><time>2026-05-03T14:00:52.984Z</time></trkpt><trkpt lat="40.2251217" lon="15.1650033"><ele>26.0</ele><time>2026-05-03T14:00:53.984Z</time></trkpt><trkpt lat="40.2251633" lon="15.16484"><ele>26.0</ele><time>2026-05-03T14:00:54.984Z</time></trkpt><trkpt lat="40.2252067" lon="15.16468"><ele>26.0</ele><time>2026-05-03T14:00:55.985Z</time></trkpt><trkpt lat="40.22525" lon="15.1645217"><ele>25.75</ele><time>2026-05-03T14:00:56.985Z</time></trkpt><trkpt lat="40.2253017" lon="15.1643683"><ele>25.5</ele><time>2026-05-03T14:00:57.983Z</time></trkpt><trkpt lat="40.2253633" lon="15.1642233"><ele>25.25</ele><time>2026-05-03T14:00:58.984Z</time></trkpt><trkpt lat="40.225435" lon="15.1640867"><ele>25.0</ele><time>2026-05-03T14:00:59.986Z</time></trkpt><trkpt lat="40.2255217" lon="15.1639567"><ele>24.5</ele><time>2026-05-03T14:01:00.984Z</time></trkpt><trkpt lat="40.2256133" lon="15.1638333"><ele>24.0</ele><time>2026-05-03T14:01:01.985Z</time></trkpt><trkpt lat="40.22571" lon="15.163715"><ele>23.5</ele><time>2026-05-03T14:01:02.984Z</time></trkpt><trkpt lat="40.225805" lon="15.163595"><ele>23.0</ele><time>2026-05-03T14:01:03.983Z</time></trkpt><trkpt lat="40.2259067" lon="15.1634683"><ele>24.333333333333336</ele><time>2026-05-03T14:01:04.983Z</time></trkpt><trkpt lat="40.226025" lon="15.163325"><ele>25.666666666666668</ele><time>2026-05-03T14:01:05.985Z</time></trkpt><trkpt lat="40.2261567" lon="15.1631683"><ele>27.0</ele><time>2026-05-03T14:01:06.983Z</time></trkpt><trkpt lat="40.22629" lon="15.1630017"><ele>27.0</ele><time>2026-05-03T14:01:07.983Z</time></trkpt><trkpt lat="40.2264283" lon="15.1628333"><ele>27.0</ele><time>2026-05-03T14:01:08.983Z</time></trkpt><trkpt lat="40.2265667" lon="15.1626467"><ele>27.0</ele><time>2026-05-03T14:01:09.983Z</time></trkpt><trkpt lat="40.2267" lon="15.1624433"><ele>26.666666666666664</ele><time>2026-05-03T14:01:10.983Z</time></trkpt><trkpt lat="40.22683" lon="15.1622367"><ele>26.333333333333332</ele><time>2026-05-03T14:01:11.985Z</time></trkpt><trkpt lat="40.2269633" lon="15.1620467"><ele>26.0</ele><time>2026-05-03T14:01:12.984Z</time></trkpt><trkpt lat="40.2271" lon="15.1618667"><ele>26.0</ele><time>2026-05-03T14:01:13.984Z</time></trkpt><trkpt lat="40.22724" lon="15.16169"><ele>26.0</ele><time>2026-05-03T14:01:14.984Z</time></trkpt><trkpt lat="40.2273817" lon="15.1615183"><ele>26.0</ele><time>2026-05-03T14:01:15.982Z</time></trkpt><trkpt lat="40.2275217" lon="15.1613483"><ele>26.666666666666664</ele><time>2026-05-03T14:01:16.983Z</time></trkpt><trkpt lat="40.2276617" lon="15.161185"><ele>27.333333333333336</ele><time>2026-05-03T14:01:17.983Z</time></trkpt><trkpt lat="40.2277933" lon="15.1610233"><ele>28.0</ele><time>2026-05-03T14:01:18.983Z</time></trkpt><trkpt lat="40.2279217" lon="15.1608667"><ele>28.0</ele><time>2026-05-03T14:01:19.983Z</time></trkpt><trkpt lat="40.2280433" lon="15.16072"><ele>28.0</ele><time>2026-05-03T14:01:20.984Z</time></trkpt><trkpt lat="40.228165" lon="15.1605817"><ele>28.0</ele><time>2026-05-03T14:01:21.983Z</time></trkpt><trkpt lat="40.2282983" lon="15.160465"><ele>28.333333333333336</ele><time>2026-05-03T14:01:22.983Z</time></trkpt><trkpt lat="40.22845" lon="15.1603767"><ele>28.666666666666664</ele><time>2026-05-03T14:01:23.983Z</time></trkpt><trkpt lat="40.2286083" lon="15.1603133"><ele>29.0</ele><time>2026-05-03T14:01:24.984Z</time></trkpt><trkpt lat="40.2287633" lon="15.1602783"><ele>29.0</ele><time>2026-05-03T14:01:25.984Z</time></trkpt><trkpt lat="40.2289083" lon="15.16027"><ele>29.0</ele><time>2026-05-03T14:01:26.983Z</time></trkpt><trkpt lat="40.229045" lon="15.160275"><ele>29.0</ele><time>2026-05-03T14:01:27.982Z</time></trkpt><trkpt lat="40.229175" lon="15.1602817"><ele>29.0</ele><time>2026-05-03T14:01:28.982Z</time></trkpt><trkpt lat="40.2292983" lon="15.1602833"><ele>28.25</ele><time>2026-05-03T14:01:29.983Z</time></trkpt><trkpt lat="40.229415" lon="15.160265"><ele>27.5</ele><time>2026-05-03T14:01:30.982Z</time></trkpt><trkpt lat="40.2295283" lon="15.16022"><ele>26.75</ele><time>2026-05-03T14:01:31.983Z</time></trkpt><trkpt lat="40.229645" lon="15.160155"><ele>26.0</ele><time>2026-05-03T14:01:32.984Z</time></trkpt><trkpt lat="40.2297683" lon="15.1600533"><ele>25.666666666666664</ele><time>2026-05-03T14:01:33.984Z</time></trkpt><trkpt lat="40.2299067" lon="15.1599267"><ele>25.333333333333336</ele><time>2026-05-03T14:01:34.984Z</time></trkpt><trkpt lat="40.2300567" lon="15.159795"><ele>25.0</ele><time>2026-05-03T14:01:35.984Z</time></trkpt><trkpt lat="40.2302133" lon="15.159655"><ele>25.0</ele><time>2026-05-03T14:01:36.983Z</time></trkpt><trkpt lat="40.23038" lon="15.1595017"><ele>25.0</ele><time>2026-05-03T14:01:37.985Z</time></trkpt><trkpt lat="40.230565" lon="15.1593417"><ele>25.0</ele><time>2026-05-03T14:01:38.985Z</time></trkpt><trkpt lat="40.2307683" lon="15.1591733"><ele>23.0</ele><time>2026-05-03T14:01:39.983Z</time></trkpt><trkpt lat="40.2309733" lon="15.1589983"><ele>21.0</ele><time>2026-05-03T14:01:40.984Z</time></trkpt><trkpt lat="40.23117" lon="15.1588133"><ele>21.0</ele><time>2026-05-03T14:01:41.982Z</time></trkpt><trkpt lat="40.2313583" lon="15.15862"><ele>21.0</ele><time>2026-05-03T14:01:42.983Z</time></trkpt><trkpt lat="40.23154" lon="15.1584267"><ele>21.0</ele><time>2026-05-03T14:01:43.982Z</time></trkpt><trkpt lat="40.2317133" lon="15.1582217"><ele>21.0</ele><time>2026-05-03T14:01:44.982Z</time></trkpt><trkpt lat="40.2318867" lon="15.1580083"><ele>21.0</ele><time>2026-05-03T14:01:45.982Z</time></trkpt><trkpt lat="40.2320633" lon="15.1577917"><ele>21.0</ele><time>2026-05-03T14:01:46.982Z</time></trkpt><trkpt lat="40.232245" lon="15.157575"><ele>22.0</ele><time>2026-05-03T14:01:47.982Z</time></trkpt><trkpt lat="40.2324333" lon="15.15735"><ele>23.0</ele><time>2026-05-03T14:01:48.982Z</time></trkpt><trkpt lat="40.2326283" lon="15.1571283"><ele>23.0</ele><time>2026-05-03T14:01:49.982Z</time></trkpt><trkpt lat="40.23282" lon="15.1569167"><ele>23.0</ele><time>2026-05-03T14:01:50.982Z</time></trkpt><trkpt lat="40.23301" lon="15.1567017"><ele>23.5</ele><time>2026-05-03T14:01:51.984Z</time></trkpt><trkpt lat="40.2331917" lon="15.156475"><ele>24.0</ele><time>2026-05-03T14:01:52.982Z</time></trkpt><trkpt lat="40.2333667" lon="15.1562417"><ele>24.0</ele><time>2026-05-03T14:01:53.983Z</time></trkpt><trkpt lat="40.2335333" lon="15.15601"><ele>24.0</ele><time>2026-05-03T14:01:54.982Z</time></trkpt><trkpt lat="40.2336833" lon="15.1557883"><ele>24.333333333333336</ele><time>2026-05-03T14:01:55.983Z</time></trkpt><trkpt lat="40.23382" lon="15.15558"><ele>24.666666666666668</ele><time>2026-05-03T14:01:56.983Z</time></trkpt><trkpt lat="40.2339467" lon="15.1553833"><ele>25.0</ele><time>2026-05-03T14:01:57.982Z</time></trkpt><trkpt lat="40.2340633" lon="15.1551983"><ele>25.333333333333336</ele><time>2026-05-03T14:01:58.982Z</time></trkpt><trkpt lat="40.2341767" lon="15.15502"><ele>25.666666666666664</ele><time>2026-05-03T14:01:59.982Z</time></trkpt><trkpt lat="40.2342817" lon="15.1548533"><ele>26.0</ele><time>2026-05-03T14:02:00.984Z</time></trkpt><trkpt lat="40.2343817" lon="15.1546833"><ele>26.333333333333332</ele><time>2026-05-03T14:02:01.982Z</time></trkpt><trkpt lat="40.2344583" lon="15.15449"><ele>26.666666666666664</ele><time>2026-05-03T14:02:02.988Z</time></trkpt><trkpt lat="40.23451" lon="15.1542617"><ele>27.0</ele><time>2026-05-03T14:02:03.982Z</time></trkpt><trkpt lat="40.2345467" lon="15.1540033"><ele>26.333333333333336</ele><time>2026-05-03T14:02:04.982Z</time></trkpt><trkpt lat="40.234575" lon="15.1537283"><ele>25.666666666666668</ele><time>2026-05-03T14:02:05.984Z</time></trkpt><trkpt lat="40.2346033" lon="15.1534533"><ele>25.0</ele><time>2026-05-03T14:02:06.985Z</time></trkpt><trkpt lat="40.2346283" lon="15.1531983"><ele>24.666666666666668</ele><time>2026-05-03T14:02:07.982Z</time></trkpt><trkpt lat="40.2346483" lon="15.1529583"><ele>24.333333333333336</ele><time>2026-05-03T14:02:08.983Z</time></trkpt><trkpt lat="40.2346867" lon="15.1527383"><ele>24.0</ele><time>2026-05-03T14:02:09.982Z</time></trkpt><trkpt lat="40.2347417" lon="15.1525283"><ele>23.666666666666668</ele><time>2026-05-03T14:02:10.983Z</time></trkpt><trkpt lat="40.2348283" lon="15.1523217"><ele>23.333333333333336</ele><time>2026-05-03T14:02:11.982Z</time></trkpt><trkpt lat="40.2349517" lon="15.152115"><ele>23.0</ele><time>2026-05-03T14:02:12.983Z</time></trkpt><trkpt lat="40.235105" lon="15.151905"><ele>23.0</ele><time>2026-05-03T14:02:13.982Z</time></trkpt><trkpt lat="40.23527" lon="15.151695"><ele>23.0</ele><time>2026-05-03T14:02:14.983Z</time></trkpt><trkpt lat="40.235435" lon="15.15148"><ele>22.5</ele><time>2026-05-03T14:02:15.982Z</time></trkpt><trkpt lat="40.235605" lon="15.151265"><ele>22.0</ele><time>2026-05-03T14:02:16.983Z</time></trkpt><trkpt lat="40.2357767" lon="15.1510467"><ele>22.0</ele><time>2026-05-03T14:02:17.982Z</time></trkpt><trkpt lat="40.2359483" lon="15.1508317"><ele>22.0</ele><time>2026-05-03T14:02:18.983Z</time></trkpt><trkpt lat="40.2361233" lon="15.1506183"><ele>22.0</ele><time>2026-05-03T14:02:19.984Z</time></trkpt><trkpt lat="40.2363067" lon="15.1504133"><ele>22.0</ele><time>2026-05-03T14:02:20.982Z</time></trkpt><trkpt lat="40.2364933" lon="15.1502117"><ele>22.0</ele><time>2026-05-03T14:02:21.982Z</time></trkpt><trkpt lat="40.23668" lon="15.1500117"><ele>22.0</ele><time>2026-05-03T14:02:22.982Z</time></trkpt><trkpt lat="40.2368683" lon="15.14981"><ele>22.0</ele><time>2026-05-03T14:02:23.984Z</time></trkpt><trkpt lat="40.23706" lon="15.1496117"><ele>22.0</ele><time>2026-05-03T14:02:24.982Z</time></trkpt><trkpt lat="40.237255" lon="15.1494167"><ele>22.0</ele><time>2026-05-03T14:02:25.982Z</time></trkpt><trkpt lat="40.237445" lon="15.1492167"><ele>22.0</ele><time>2026-05-03T14:02:26.984Z</time></trkpt><trkpt lat="40.2376333" lon="15.1490217"><ele>22.0</ele><time>2026-05-03T14:02:27.983Z</time></trkpt><trkpt lat="40.2378217" lon="15.1488333"><ele>22.0</ele><time>2026-05-03T14:02:28.983Z</time></trkpt><trkpt lat="40.2380033" lon="15.148645"><ele>24.0</ele><time>2026-05-03T14:02:29.983Z</time></trkpt><trkpt lat="40.2381783" lon="15.14846"><ele>26.0</ele><time>2026-05-03T14:02:30.983Z</time></trkpt><trkpt lat="40.2383583" lon="15.1482833"><ele>24.666666666666664</ele><time>2026-05-03T14:02:31.982Z</time></trkpt><trkpt lat="40.2385317" lon="15.148105"><ele>23.333333333333332</ele><time>2026-05-03T14:02:32.983Z</time></trkpt><trkpt lat="40.2387083" lon="15.147925"><ele>22.0</ele><time>2026-05-03T14:02:33.982Z</time></trkpt><trkpt lat="40.2388783" lon="15.14775"><ele>22.333333333333332</ele><time>2026-05-03T14:02:34.983Z</time></trkpt><trkpt lat="40.2390367" lon="15.147585"><ele>22.666666666666668</ele><time>2026-05-03T14:02:35.983Z</time></trkpt><trkpt lat="40.2391783" lon="15.147425"><ele>23.0</ele><time>2026-05-03T14:02:36.983Z</time></trkpt><trkpt lat="40.2393067" lon="15.1472633"><ele>23.0</ele><time>2026-05-03T14:02:37.982Z</time></trkpt><trkpt lat="40.239425" lon="15.147075"><ele>23.0</ele><time>2026-05-03T14:02:38.982Z</time></trkpt><trkpt lat="40.2395267" lon="15.1468517"><ele>23.0</ele><time>2026-05-03T14:02:39.983Z</time></trkpt><trkpt lat="40.2396133" lon="15.1466"><ele>23.0</ele><time>2026-05-03T14:02:40.988Z</time></trkpt><trkpt lat="40.2397017" lon="15.14635"><ele>23.0</ele><time>2026-05-03T14:02:41.982Z</time></trkpt><trkpt lat="40.2398" lon="15.1461183"><ele>23.0</ele><time>2026-05-03T14:02:42.982Z</time></trkpt><trkpt lat="40.23992" lon="15.1458967"><ele>24.0</ele><time>2026-05-03T14:02:43.982Z</time></trkpt><trkpt lat="40.240055" lon="15.1456733"><ele>25.0</ele><time>2026-05-03T14:02:44.983Z</time></trkpt><trkpt lat="40.2402033" lon="15.1454467"><ele>26.0</ele><time>2026-05-03T14:02:45.982Z</time></trkpt><trkpt lat="40.240355" lon="15.1452183"><ele>26.0</ele><time>2026-05-03T14:02:46.982Z</time></trkpt><trkpt lat="40.240515" lon="15.144985"><ele>26.0</ele><time>2026-05-03T14:02:47.982Z</time></trkpt><trkpt lat="40.24068" lon="15.1447533"><ele>26.5</ele><time>2026-05-03T14:02:48.982Z</time></trkpt><trkpt lat="40.24086" lon="15.1445267"><ele>27.0</ele><time>2026-05-03T14:02:49.983Z</time></trkpt><trkpt lat="40.2410467" lon="15.1443"><ele>27.0</ele><time>2026-05-03T14:02:50.983Z</time></trkpt><trkpt lat="40.241225" lon="15.14408"><ele>27.0</ele><time>2026-05-03T14:02:51.982Z</time></trkpt><trkpt lat="40.2413883" lon="15.1438717"><ele>28.0</ele><time>2026-05-03T14:02:52.983Z</time></trkpt><trkpt lat="40.241545" lon="15.143675"><ele>29.0</ele><time>2026-05-03T14:02:53.982Z</time></trkpt><trkpt lat="40.2417033" lon="15.143485"><ele>30.0</ele><time>2026-05-03T14:02:54.982Z</time></trkpt><trkpt lat="40.2418633" lon="15.143295"><ele>30.0</ele><time>2026-05-03T14:02:55.982Z</time></trkpt><trkpt lat="40.2420233" lon="15.143105"><ele>30.0</ele><time>2026-05-03T14:02:56.983Z</time></trkpt><trkpt lat="40.2421883" lon="15.1429117"><ele>30.0</ele><time>2026-05-03T14:02:57.983Z</time></trkpt><trkpt lat="40.2423583" lon="15.142715"><ele>30.0</ele><time>2026-05-03T14:02:58.982Z</time></trkpt><trkpt lat="40.242535" lon="15.1425267"><ele>30.0</ele><time>2026-05-03T14:02:59.982Z</time></trkpt><trkpt lat="40.24271" lon="15.14235"><ele>30.0</ele><time>2026-05-03T14:03:00.982Z</time></trkpt><trkpt lat="40.2428833" lon="15.14218"><ele>29.333333333333336</ele><time>2026-05-03T14:03:01.982Z</time></trkpt><trkpt lat="40.2430567" lon="15.1420167"><ele>28.666666666666668</ele><time>2026-05-03T14:03:02.984Z</time></trkpt><trkpt lat="40.243235" lon="15.141855"><ele>28.0</ele><time>2026-05-03T14:03:03.983Z</time></trkpt><trkpt lat="40.2434167" lon="15.1416933"><ele>28.0</ele><time>2026-05-03T14:03:04.982Z</time></trkpt><trkpt lat="40.243605" lon="15.1415417"><ele>28.0</ele><time>2026-05-03T14:03:05.982Z</time></trkpt><trkpt lat="40.2438" lon="15.1413983"><ele>28.0</ele><time>2026-05-03T14:03:06.983Z</time></trkpt><trkpt lat="40.2439967" lon="15.1412567"><ele>28.0</ele><time>2026-05-03T14:03:07.983Z</time></trkpt><trkpt lat="40.2441967" lon="15.1411133"><ele>28.0</ele><time>2026-05-03T14:03:08.982Z</time></trkpt><trkpt lat="40.24439" lon="15.1409733"><ele>28.0</ele><time>2026-05-03T14:03:09.984Z</time></trkpt><trkpt lat="40.244585" lon="15.1408417"><ele>28.0</ele><time>2026-05-03T14:03:10.983Z</time></trkpt><trkpt lat="40.2447817" lon="15.1407083"><ele>28.0</ele><time>2026-05-03T14:03:11.984Z</time></trkpt><trkpt lat="40.24497" lon="15.140575"><ele>28.0</ele><time>2026-05-03T14:03:12.986Z</time></trkpt><trkpt lat="40.2451583" lon="15.1404433"><ele>28.0</ele><time>2026-05-03T14:03:13.984Z</time></trkpt><trkpt lat="40.2453433" lon="15.140315"><ele>28.0</ele><time>2026-05-03T14:03:14.984Z</time></trkpt><trkpt lat="40.2455233" lon="15.1401967"><ele>28.0</ele><time>2026-05-03T14:03:15.983Z</time></trkpt><trkpt lat="40.245705" lon="15.1400817"><ele>28.333333333333336</ele><time>2026-05-03T14:03:16.984Z</time></trkpt><trkpt lat="40.2458917" lon="15.1399783"><ele>28.666666666666664</ele><time>2026-05-03T14:03:17.985Z</time></trkpt><trkpt lat="40.2460917" lon="15.1398867"><ele>29.0</ele><time>2026-05-03T14:03:18.984Z</time></trkpt><trkpt lat="40.246305" lon="15.1398067"><ele>30.5</ele><time>2026-05-03T14:03:19.985Z</time></trkpt><trkpt lat="40.246525" lon="15.1397283"><ele>32.0</ele><time>2026-05-03T14:03:20.984Z</time></trkpt><trkpt lat="40.2467433" lon="15.13965"><ele>32.0</ele><time>2026-05-03T14:03:21.983Z</time></trkpt><trkpt lat="40.24696" lon="15.1395717"><ele>32.0</ele><time>2026-05-03T14:03:22.984Z</time></trkpt><trkpt lat="40.247165" lon="15.1394983"><ele>32.0</ele><time>2026-05-03T14:03:23.984Z</time></trkpt><trkpt lat="40.2473583" lon="15.13943"><ele>35.0</ele><time>2026-05-03T14:03:24.984Z</time></trkpt><trkpt lat="40.2475333" lon="15.139365"><ele>38.0</ele><time>2026-05-03T14:03:25.984Z</time></trkpt><trkpt lat="40.247705" lon="15.1393067"><ele>41.0</ele><time>2026-05-03T14:03:26.984Z</time></trkpt><trkpt lat="40.2478683" lon="15.1392367"><ele>41.0</ele><time>2026-05-03T14:03:27.983Z</time></trkpt><trkpt lat="40.248035" lon="15.1391683"><ele>41.0</ele><time>2026-05-03T14:03:28.983Z</time></trkpt><trkpt lat="40.2481983" lon="15.1391033"><ele>41.0</ele><time>2026-05-03T14:03:29.986Z</time></trkpt><trkpt lat="40.2483533" lon="15.139035"><ele>40.25</ele><time>2026-05-03T14:03:30.983Z</time></trkpt><trkpt lat="40.2484933" lon="15.13897"><ele>39.5</ele><time>2026-05-03T14:03:31.985Z</time></trkpt><trkpt lat="40.2486283" lon="15.1389133"><ele>38.75</ele><time>2026-05-03T14:03:32.984Z</time></trkpt><trkpt lat="40.2487567" lon="15.13886"><ele>38.0</ele><time>2026-05-03T14:03:33.984Z</time></trkpt><trkpt lat="40.24888" lon="15.1388117"><ele>39.0</ele><time>2026-05-03T14:03:34.985Z</time></trkpt><trkpt lat="40.2490017" lon="15.1387633"><ele>40.0</ele><time>2026-05-03T14:03:35.984Z</time></trkpt><trkpt lat="40.24913" lon="15.1387083"><ele>41.0</ele><time>2026-05-03T14:03:36.985Z</time></trkpt><trkpt lat="40.249265" lon="15.1386383"><ele>42.0</ele><time>2026-05-03T14:03:37.984Z</time></trkpt><trkpt lat="40.2494067" lon="15.138555"><ele>42.0</ele><time>2026-05-03T14:03:38.984Z</time></trkpt><trkpt lat="40.2495583" lon="15.1384567"><ele>42.0</ele><time>2026-05-03T14:03:39.984Z</time></trkpt><trkpt lat="40.2497217" lon="15.138355"><ele>42.0</ele><time>2026-05-03T14:03:40.983Z</time></trkpt><trkpt lat="40.249885" lon="15.13825"><ele>44.0</ele><time>2026-05-03T14:03:41.984Z</time></trkpt><trkpt lat="40.250045" lon="15.1381383"><ele>46.0</ele><time>2026-05-03T14:03:42.983Z</time></trkpt><trkpt lat="40.250195" lon="15.1380317"><ele>48.0</ele><time>2026-05-03T14:03:43.984Z</time></trkpt><trkpt lat="40.2503333" lon="15.1379317"><ele>48.0</ele><time>2026-05-03T14:03:44.985Z</time></trkpt><trkpt lat="40.25047" lon="15.13784"><ele>48.0</ele><time>2026-05-03T14:03:45.987Z</time></trkpt><trkpt lat="40.2506083" lon="15.137745"><ele>48.0</ele><time>2026-05-03T14:03:46.985Z</time></trkpt><trkpt lat="40.25075" lon="15.1376417"><ele>49.0</ele><time>2026-05-03T14:03:47.985Z</time></trkpt><trkpt lat="40.2509017" lon="15.137535"><ele>50.0</ele><time>2026-05-03T14:03:48.985Z</time></trkpt><trkpt lat="40.2510617" lon="15.1374283"><ele>51.0</ele><time>2026-05-03T14:03:49.984Z</time></trkpt><trkpt lat="40.251225" lon="15.137315"><ele>50.33333333333333</ele><time>2026-05-03T14:03:50.984Z</time></trkpt><trkpt lat="40.2513883" lon="15.137185"><ele>49.666666666666664</ele><time>2026-05-03T14:03:51.984Z</time></trkpt><trkpt lat="40.251555" lon="15.1370533"><ele>49.0</ele><time>2026-05-03T14:03:52.984Z</time></trkpt><trkpt lat="40.251725" lon="15.1369217"><ele>49.0</ele><time>2026-05-03T14:03:53.985Z</time></trkpt><trkpt lat="40.2518933" lon="15.136785"><ele>49.0</ele><time>2026-05-03T14:03:54.984Z</time></trkpt><trkpt lat="40.2520567" lon="15.13665"><ele>49.0</ele><time>2026-05-03T14:03:55.985Z</time></trkpt><trkpt lat="40.2522067" lon="15.1365267"><ele>50.0</ele><time>2026-05-03T14:03:56.984Z</time></trkpt><trkpt lat="40.2523467" lon="15.13641"><ele>51.0</ele><time>2026-05-03T14:03:57.984Z</time></trkpt><trkpt lat="40.25248" lon="15.1363033"><ele>52.0</ele><time>2026-05-03T14:03:58.983Z</time></trkpt><trkpt lat="40.252605" lon="15.1361983"><ele>52.0</ele><time>2026-05-03T14:03:59.983Z</time></trkpt><trkpt lat="40.2527267" lon="15.136095"><ele>52.0</ele><time>2026-05-03T14:04:00.983Z</time></trkpt><trkpt lat="40.2528517" lon="15.136"><ele>52.0</ele><time>2026-05-03T14:04:01.982Z</time></trkpt><trkpt lat="40.2529817" lon="15.1359133"><ele>52.0</ele><time>2026-05-03T14:04:02.984Z</time></trkpt><trkpt lat="40.2531167" lon="15.1358217"><ele>51.666666666666664</ele><time>2026-05-03T14:04:03.983Z</time></trkpt><trkpt lat="40.253255" lon="15.135725"><ele>51.33333333333333</ele><time>2026-05-03T14:04:04.982Z</time></trkpt><trkpt lat="40.253395" lon="15.1356283"><ele>51.0</ele><time>2026-05-03T14:04:05.985Z</time></trkpt><trkpt lat="40.2535283" lon="15.135545"><ele>51.0</ele><time>2026-05-03T14:04:06.982Z</time></trkpt><trkpt lat="40.25366" lon="15.1354717"><ele>51.0</ele><time>2026-05-03T14:04:07.983Z</time></trkpt><trkpt lat="40.25379" lon="15.1354"><ele>51.0</ele><time>2026-05-03T14:04:08.984Z</time></trkpt><trkpt lat="40.253915" lon="15.135325"><ele>51.0</ele><time>2026-05-03T14:04:09.982Z</time></trkpt><trkpt lat="40.254045" lon="15.1352533"><ele>52.0</ele><time>2026-05-03T14:04:10.983Z</time></trkpt><trkpt lat="40.2541817" lon="15.1351883"><ele>53.0</ele><time>2026-05-03T14:04:11.984Z</time></trkpt><trkpt lat="40.2543233" lon="15.1351283"><ele>54.0</ele><time>2026-05-03T14:04:12.982Z</time></trkpt><trkpt lat="40.2544633" lon="15.1350717"><ele>55.0</ele><time>2026-05-03T14:04:13.983Z</time></trkpt><trkpt lat="40.2546017" lon="15.1350233"><ele>55.0</ele><time>2026-05-03T14:04:14.983Z</time></trkpt><trkpt lat="40.2547383" lon="15.1349667"><ele>55.0</ele><time>2026-05-03T14:04:15.982Z</time></trkpt><trkpt lat="40.2548717" lon="15.1349083"><ele>55.0</ele><time>2026-05-03T14:04:16.982Z</time></trkpt><trkpt lat="40.2550067" lon="15.1348567"><ele>55.0</ele><time>2026-05-03T14:04:17.983Z</time></trkpt><trkpt lat="40.255145" lon="15.134805"><ele>53.75</ele><time>2026-05-03T14:04:18.984Z</time></trkpt><trkpt lat="40.2552833" lon="15.134755"><ele>52.5</ele><time>2026-05-03T14:04:19.984Z</time></trkpt><trkpt lat="40.2554217" lon="15.1347067"><ele>51.25</ele><time>2026-05-03T14:04:20.984Z</time></trkpt><trkpt lat="40.2555583" lon="15.1346567"><ele>50.0</ele><time>2026-05-03T14:04:21.982Z</time></trkpt><trkpt lat="40.25569" lon="15.1346083"><ele>50.0</ele><time>2026-05-03T14:04:22.984Z</time></trkpt><trkpt lat="40.2558133" lon="15.1345617"><ele>50.0</ele><time>2026-05-03T14:04:23.983Z</time></trkpt><trkpt lat="40.255925" lon="15.1345117"><ele>50.0</ele><time>2026-05-03T14:04:24.982Z</time></trkpt><trkpt lat="40.2560317" lon="15.1344833"><ele>50.0</ele><time>2026-05-03T14:04:25.984Z</time></trkpt><trkpt lat="40.256135" lon="15.1344567"><ele>50.0</ele><time>2026-05-03T14:04:26.983Z</time></trkpt><trkpt lat="40.2562383" lon="15.134425"><ele>50.0</ele><time>2026-05-03T14:04:27.983Z</time></trkpt><trkpt lat="40.256345" lon="15.1343833"><ele>50.0</ele><time>2026-05-03T14:04:28.983Z</time></trkpt><trkpt lat="40.2564533" lon="15.1343267"><ele>50.0</ele><time>2026-05-03T14:04:29.984Z</time></trkpt><trkpt lat="40.256565" lon="15.1342667"><ele>49.6</ele><time>2026-05-03T14:04:30.983Z</time></trkpt><trkpt lat="40.2566717" lon="15.1341967"><ele>49.2</ele><time>2026-05-03T14:04:31.983Z</time></trkpt><trkpt lat="40.25677" lon="15.1341233"><ele>48.8</ele><time>2026-05-03T14:04:32.983Z</time></trkpt><trkpt lat="40.256865" lon="15.134055"><ele>48.4</ele><time>2026-05-03T14:04:33.982Z</time></trkpt><trkpt lat="40.256955" lon="15.1339967"><ele>48.0</ele><time>2026-05-03T14:04:34.983Z</time></trkpt><trkpt lat="40.2570417" lon="15.1339317"><ele>46.8</ele><time>2026-05-03T14:04:35.984Z</time></trkpt><trkpt lat="40.2571283" lon="15.133875"><ele>45.599999999999994</ele><time>2026-05-03T14:04:36.985Z</time></trkpt><trkpt lat="40.2572083" lon="15.1338183"><ele>44.400000000000006</ele><time>2026-05-03T14:04:37.984Z</time></trkpt><trkpt lat="40.257285" lon="15.1337583"><ele>43.2</ele><time>2026-05-03T14:04:38.984Z</time></trkpt><trkpt lat="40.2573683" lon="15.1336933"><ele>42.0</ele><time>2026-05-03T14:04:39.984Z</time></trkpt><trkpt lat="40.2574533" lon="15.1336233"><ele>42.0</ele><time>2026-05-03T14:04:40.983Z</time></trkpt><trkpt lat="40.2575417" lon="15.133535"><ele>42.0</ele><time>2026-05-03T14:04:41.982Z</time></trkpt><trkpt lat="40.25761" lon="15.133425"><ele>42.0</ele><time>2026-05-03T14:04:42.982Z</time></trkpt><trkpt lat="40.2576633" lon="15.1332983"><ele>42.0</ele><time>2026-05-03T14:04:43.982Z</time></trkpt><trkpt lat="40.25768" lon="15.13315"><ele>42.0</ele><time>2026-05-03T14:04:44.983Z</time></trkpt><trkpt lat="40.2576833" lon="15.1329967"><ele>40.75</ele><time>2026-05-03T14:04:45.983Z</time></trkpt><trkpt lat="40.2576767" lon="15.1328333"><ele>39.5</ele><time>2026-05-03T14:04:46.984Z</time></trkpt><trkpt lat="40.2576683" lon="15.1326417"><ele>38.25</ele><time>2026-05-03T14:04:47.984Z</time></trkpt><trkpt lat="40.2576617" lon="15.1324233"><ele>37.0</ele><time>2026-05-03T14:04:48.984Z</time></trkpt><trkpt lat="40.257665" lon="15.1321717"><ele>35.66666666666667</ele><time>2026-05-03T14:04:49.984Z</time></trkpt><trkpt lat="40.257675" lon="15.1319033"><ele>34.333333333333336</ele><time>2026-05-03T14:04:50.986Z</time></trkpt><trkpt lat="40.2576833" lon="15.1316267"><ele>33.0</ele><time>2026-05-03T14:04:51.983Z</time></trkpt><trkpt lat="40.257695" lon="15.1313417"><ele>32.666666666666664</ele><time>2026-05-03T14:04:52.984Z</time></trkpt><trkpt lat="40.257705" lon="15.1310517"><ele>32.33333333333333</ele><time>2026-05-03T14:04:53.987Z</time></trkpt><trkpt lat="40.257715" lon="15.1307667"><ele>32.0</ele><time>2026-05-03T14:04:54.984Z</time></trkpt><trkpt lat="40.2577217" lon="15.130485"><ele>32.0</ele><time>2026-05-03T14:04:55.985Z</time></trkpt><trkpt lat="40.25773" lon="15.1302033"><ele>32.0</ele><time>2026-05-03T14:04:56.984Z</time></trkpt><trkpt lat="40.2577367" lon="15.129925"><ele>32.0</ele><time>2026-05-03T14:04:57.983Z</time></trkpt><trkpt lat="40.2577417" lon="15.1296583"><ele>32.666666666666664</ele><time>2026-05-03T14:04:58.986Z</time></trkpt><trkpt lat="40.2577467" lon="15.1294083"><ele>33.333333333333336</ele><time>2026-05-03T14:04:59.983Z</time></trkpt><trkpt lat="40.2577533" lon="15.12918"><ele>34.0</ele><time>2026-05-03T14:05:00.983Z</time></trkpt><trkpt lat="40.2577683" lon="15.1289783"><ele>34.5</ele><time>2026-05-03T14:05:01.986Z</time></trkpt><trkpt lat="40.257805" lon="15.12879"><ele>35.0</ele><time>2026-05-03T14:05:02.982Z</time></trkpt><trkpt lat="40.257865" lon="15.1286117"><ele>35.5</ele><time>2026-05-03T14:05:03.983Z</time></trkpt><trkpt lat="40.2579483" lon="15.128445"><ele>36.0</ele><time>2026-05-03T14:05:04.983Z</time></trkpt><trkpt lat="40.2580433" lon="15.1282867"><ele>37.0</ele><time>2026-05-03T14:05:05.983Z</time></trkpt><trkpt lat="40.2581417" lon="15.12815"><ele>38.0</ele><time>2026-05-03T14:05:06.982Z</time></trkpt><trkpt lat="40.2582433" lon="15.1280267"><ele>39.0</ele><time>2026-05-03T14:05:07.982Z</time></trkpt><trkpt lat="40.2583467" lon="15.127915"><ele>40.0</ele><time>2026-05-03T14:05:08.982Z</time></trkpt><trkpt lat="40.2584483" lon="15.127825"><ele>40.0</ele><time>2026-05-03T14:05:09.987Z</time></trkpt><trkpt lat="40.25854" lon="15.1277433"><ele>40.0</ele><time>2026-05-03T14:05:10.983Z</time></trkpt><trkpt lat="40.2586067" lon="15.1276667"><ele>40.0</ele><time>2026-05-03T14:05:11.983Z</time></trkpt><trkpt lat="40.2586533" lon="15.1276017"><ele>40.0</ele><time>2026-05-03T14:05:12.982Z</time></trkpt><trkpt lat="40.2586717" lon="15.12746"><ele>40.0</ele><time>2026-05-03T14:05:14.983Z</time></trkpt><trkpt lat="40.2586183" lon="15.12729"><ele>39.8</ele><time>2026-05-03T14:05:16.984Z</time></trkpt><trkpt lat="40.2585367" lon="15.12718"><ele>39.6</ele><time>2026-05-03T14:05:17.983Z</time></trkpt><trkpt lat="40.2584333" lon="15.1270833"><ele>39.4</ele><time>2026-05-03T14:05:18.982Z</time></trkpt><trkpt lat="40.2583583" lon="15.12699"><ele>39.2</ele><time>2026-05-03T14:05:19.982Z</time></trkpt><trkpt lat="40.258295" lon="15.1269017"><ele>39.0</ele><time>2026-05-03T14:05:20.983Z</time></trkpt><trkpt lat="40.2582383" lon="15.1268183"><ele>39.0</ele><time>2026-05-03T14:05:21.982Z</time></trkpt><trkpt lat="40.2581883" lon="15.12674"><ele>39.0</ele><time>2026-05-03T14:05:22.982Z</time></trkpt><trkpt lat="40.2581417" lon="15.12667"><ele>39.0</ele><time>2026-05-03T14:05:23.984Z</time></trkpt><trkpt lat="40.2581017" lon="15.126605"><ele>39.0</ele><time>2026-05-03T14:05:24.983Z</time></trkpt><trkpt lat="40.2580283" lon="15.12649"><ele>39.0</ele><time>2026-05-03T14:05:26.982Z</time></trkpt><trkpt lat="40.2579783" lon="15.1263633"><ele>39.0</ele><time>2026-05-03T14:05:28.983Z</time></trkpt><trkpt lat="40.2579517" lon="15.1262233"><ele>39.166666666666664</ele><time>2026-05-03T14:05:30.982Z</time></trkpt><trkpt lat="40.25791" lon="15.1260983"><ele>39.333333333333336</ele><time>2026-05-03T14:05:32.984Z</time></trkpt><trkpt lat="40.25786" lon="15.12604"><ele>39.5</ele><time>2026-05-03T14:05:33.983Z</time></trkpt><trkpt lat="40.2577933" lon="15.1259833"><ele>39.66666666666667</ele><time>2026-05-03T14:05:34.984Z</time></trkpt><trkpt lat="40.257715" lon="15.12592"><ele>39.833333333333336</ele><time>2026-05-03T14:05:35.984Z</time></trkpt><trkpt lat="40.2576333" lon="15.125845"><ele>40.0</ele><time>2026-05-03T14:05:36.984Z</time></trkpt><trkpt lat="40.2575667" lon="15.1257567"><ele>40.66666666666667</ele><time>2026-05-03T14:05:37.984Z</time></trkpt><trkpt lat="40.2575133" lon="15.1256617"><ele>41.333333333333336</ele><time>2026-05-03T14:05:38.983Z</time></trkpt><trkpt lat="40.2574617" lon="15.12557"><ele>42.0</ele><time>2026-05-03T14:05:39.982Z</time></trkpt><trkpt lat="40.257425" lon="15.125475"><ele>42.666666666666664</ele><time>2026-05-03T14:05:40.982Z</time></trkpt><trkpt lat="40.2574017" lon="15.1253633"><ele>43.33333333333333</ele><time>2026-05-03T14:05:41.982Z</time></trkpt><trkpt lat="40.2573983" lon="15.12524"><ele>44.0</ele><time>2026-05-03T14:05:42.982Z</time></trkpt><trkpt lat="40.2574067" lon="15.12512"><ele>44.0</ele><time>2026-05-03T14:05:43.983Z</time></trkpt><trkpt lat="40.2574217" lon="15.125005"><ele>44.0</ele><time>2026-05-03T14:05:44.986Z</time></trkpt><trkpt lat="40.2574467" lon="15.1249"><ele>44.0</ele><time>2026-05-03T14:05:45.982Z</time></trkpt><trkpt lat="40.25749" lon="15.1247933"><ele>44.0</ele><time>2026-05-03T14:05:46.983Z</time></trkpt><trkpt lat="40.257545" lon="15.1246833"><ele>44.0</ele><time>2026-05-03T14:05:47.986Z</time></trkpt><trkpt lat="40.25761" lon="15.124575"><ele>43.400000000000006</ele><time>2026-05-03T14:05:48.984Z</time></trkpt><trkpt lat="40.2576683" lon="15.124475"><ele>42.8</ele><time>2026-05-03T14:05:49.985Z</time></trkpt><trkpt lat="40.25773" lon="15.1243733"><ele>42.2</ele><time>2026-05-03T14:05:50.984Z</time></trkpt><trkpt lat="40.257785" lon="15.1242783"><ele>41.599999999999994</ele><time>2026-05-03T14:05:51.985Z</time></trkpt><trkpt lat="40.2578317" lon="15.1241783"><ele>41.0</ele><time>2026-05-03T14:05:52.984Z</time></trkpt><trkpt lat="40.2578767" lon="15.1240717"><ele>40.166666666666664</ele><time>2026-05-03T14:05:53.985Z</time></trkpt><trkpt lat="40.257915" lon="15.1239633"><ele>39.33333333333333</ele><time>2026-05-03T14:05:54.984Z</time></trkpt><trkpt lat="40.257955" lon="15.1238617"><ele>38.5</ele><time>2026-05-03T14:05:55.984Z</time></trkpt><trkpt lat="40.258" lon="15.1237667"><ele>37.666666666666664</ele><time>2026-05-03T14:05:56.985Z</time></trkpt><trkpt lat="40.2580483" lon="15.12367"><ele>36.833333333333336</ele><time>2026-05-03T14:05:57.983Z</time></trkpt><trkpt lat="40.2581033" lon="15.1235783"><ele>36.0</ele><time>2026-05-03T14:05:58.984Z</time></trkpt><trkpt lat="40.2581617" lon="15.1234917"><ele>37.42857142857143</ele><time>2026-05-03T14:05:59.982Z</time></trkpt><trkpt lat="40.2582267" lon="15.1234183"><ele>38.85714285714286</ele><time>2026-05-03T14:06:00.983Z</time></trkpt><trkpt lat="40.2582933" lon="15.1233583"><ele>40.28571428571429</ele><time>2026-05-03T14:06:01.985Z</time></trkpt><trkpt lat="40.2583567" lon="15.1233083"><ele>41.714285714285715</ele><time>2026-05-03T14:06:02.983Z</time></trkpt><trkpt lat="40.2584133" lon="15.12326"><ele>43.14285714285714</ele><time>2026-05-03T14:06:03.984Z</time></trkpt><trkpt lat="40.258455" lon="15.1231967"><ele>44.57142857142858</ele><time>2026-05-03T14:06:04.984Z</time></trkpt><trkpt lat="40.2584767" lon="15.12311"><ele>46.0</ele><time>2026-05-03T14:06:05.983Z</time></trkpt><trkpt lat="40.2584633" lon="15.123"><ele>46.0</ele><time>2026-05-03T14:06:06.984Z</time></trkpt><trkpt lat="40.25844" lon="15.1228967"><ele>46.0</ele><time>2026-05-03T14:06:07.984Z</time></trkpt><trkpt lat="40.25842" lon="15.1227867"><ele>46.0</ele><time>2026-05-03T14:06:08.983Z</time></trkpt><trkpt lat="40.258415" lon="15.1226733"><ele>46.0</ele><time>2026-05-03T14:06:09.984Z</time></trkpt><trkpt lat="40.2584283" lon="15.1225567"><ele>46.0</ele><time>2026-05-03T14:06:10.983Z</time></trkpt><trkpt lat="40.2584617" lon="15.122435"><ele>46.0</ele><time>2026-05-03T14:06:11.985Z</time></trkpt><trkpt lat="40.25852" lon="15.1223033"><ele>44.0</ele><time>2026-05-03T14:06:12.984Z</time></trkpt><trkpt lat="40.2585967" lon="15.1221617"><ele>42.0</ele><time>2026-05-03T14:06:13.984Z</time></trkpt><trkpt lat="40.2586917" lon="15.1220067"><ele>40.0</ele><time>2026-05-03T14:06:14.985Z</time></trkpt><trkpt lat="40.2587967" lon="15.121845"><ele>38.0</ele><time>2026-05-03T14:06:15.983Z</time></trkpt><trkpt lat="40.2589" lon="15.12168"><ele>42.33333333333333</ele><time>2026-05-03T14:06:16.982Z</time></trkpt><trkpt lat="40.2589933" lon="15.1214983"><ele>46.666666666666664</ele><time>2026-05-03T14:06:17.983Z</time></trkpt><trkpt lat="40.2590683" lon="15.1213017"><ele>51.0</ele><time>2026-05-03T14:06:18.982Z</time></trkpt><trkpt lat="40.259135" lon="15.1211167"><ele>51.0</ele><time>2026-05-03T14:06:19.983Z</time></trkpt><trkpt lat="40.259195" lon="15.1209483"><ele>51.0</ele><time>2026-05-03T14:06:20.987Z</time></trkpt><trkpt lat="40.25926" lon="15.1207983"><ele>51.0</ele><time>2026-05-03T14:06:21.983Z</time></trkpt><trkpt lat="40.259325" lon="15.1206667"><ele>51.0</ele><time>2026-05-03T14:06:22.984Z</time></trkpt><trkpt lat="40.259405" lon="15.1205617"><ele>48.599999999999994</ele><time>2026-05-03T14:06:23.983Z</time></trkpt><trkpt lat="40.2594817" lon="15.1204867"><ele>46.199999999999996</ele><time>2026-05-03T14:06:24.982Z</time></trkpt><trkpt lat="40.2595367" lon="15.1204017"><ele>43.8</ele><time>2026-05-03T14:06:25.983Z</time></trkpt><trkpt lat="40.2595767" lon="15.1203067"><ele>41.4</ele><time>2026-05-03T14:06:26.985Z</time></trkpt><trkpt lat="40.259575" lon="15.1201583"><ele>39.0</ele><time>2026-05-03T14:06:27.983Z</time></trkpt><trkpt lat="40.2595633" lon="15.1199883"><ele>39.0</ele><time>2026-05-03T14:06:28.983Z</time></trkpt><trkpt lat="40.25954" lon="15.1197917"><ele>39.0</ele><time>2026-05-03T14:06:29.982Z</time></trkpt><trkpt lat="40.2595167" lon="15.11959"><ele>39.0</ele><time>2026-05-03T14:06:30.984Z</time></trkpt><trkpt lat="40.2594967" lon="15.1193983"><ele>39.0</ele><time>2026-05-03T14:06:31.984Z</time></trkpt><trkpt lat="40.259475" lon="15.119225"><ele>39.0</ele><time>2026-05-03T14:06:32.982Z</time></trkpt><trkpt lat="40.2594583" lon="15.1190683"><ele>39.0</ele><time>2026-05-03T14:06:33.982Z</time></trkpt><trkpt lat="40.25944" lon="15.11892"><ele>39.0</ele><time>2026-05-03T14:06:34.983Z</time></trkpt><trkpt lat="40.259425" lon="15.1187983"><ele>40.333333333333336</ele><time>2026-05-03T14:06:35.983Z</time></trkpt><trkpt lat="40.2594133" lon="15.1187033"><ele>41.666666666666664</ele><time>2026-05-03T14:06:36.983Z</time></trkpt><trkpt lat="40.2593683" lon="15.1186217"><ele>43.0</ele><time>2026-05-03T14:06:38.983Z</time></trkpt><trkpt lat="40.259305" lon="15.1186533"><ele>44.33333333333333</ele><time>2026-05-03T14:06:40.983Z</time></trkpt><trkpt lat="40.2592617" lon="15.1187983"><ele>45.666666666666664</ele><time>2026-05-03T14:06:42.982Z</time></trkpt><trkpt lat="40.2592533" lon="15.1188967"><ele>47.0</ele><time>2026-05-03T14:06:43.985Z</time></trkpt><trkpt lat="40.2592383" lon="15.1190183"><ele>45.4</ele><time>2026-05-03T14:06:44.984Z</time></trkpt><trkpt lat="40.25921" lon="15.1191467"><ele>43.800000000000004</ele><time>2026-05-03T14:06:45.984Z</time></trkpt><trkpt lat="40.259165" lon="15.1192767"><ele>42.2</ele><time>2026-05-03T14:06:46.985Z</time></trkpt><trkpt lat="40.2591083" lon="15.1194083"><ele>40.6</ele><time>2026-05-03T14:06:47.984Z</time></trkpt><trkpt lat="40.2590583" lon="15.1195083"><ele>39.0</ele><time>2026-05-03T14:06:48.984Z</time></trkpt><trkpt lat="40.2590017" lon="15.11958"><ele>38.833333333333336</ele><time>2026-05-03T14:06:49.984Z</time></trkpt><trkpt lat="40.25895" lon="15.1196283"><ele>38.666666666666664</ele><time>2026-05-03T14:06:50.984Z</time></trkpt><trkpt lat="40.2588683" lon="15.1196017"><ele>38.5</ele><time>2026-05-03T14:06:51.982Z</time></trkpt><trkpt lat="40.2587933" lon="15.1195417"><ele>38.33333333333333</ele><time>2026-05-03T14:06:52.982Z</time></trkpt><trkpt lat="40.2587217" lon="15.11947"><ele>38.166666666666664</ele><time>2026-05-03T14:06:53.983Z</time></trkpt><trkpt lat="40.2586583" lon="15.1193883"><ele>38.0</ele><time>2026-05-03T14:06:54.984Z</time></trkpt><trkpt lat="40.2586083" lon="15.1192983"><ele>38.0</ele><time>2026-05-03T14:06:55.985Z</time></trkpt><trkpt lat="40.258575" lon="15.11919"><ele>38.0</ele><time>2026-05-03T14:06:56.983Z</time></trkpt><trkpt lat="40.2585383" lon="15.1190717"><ele>38.0</ele><time>2026-05-03T14:06:57.982Z</time></trkpt><trkpt lat="40.2585" lon="15.1189433"><ele>38.0</ele><time>2026-05-03T14:06:58.983Z</time></trkpt><trkpt lat="40.25846" lon="15.1188233"><ele>38.0</ele><time>2026-05-03T14:06:59.984Z</time></trkpt><trkpt lat="40.2584167" lon="15.11872"><ele>39.0</ele><time>2026-05-03T14:07:00.984Z</time></trkpt><trkpt lat="40.25837" lon="15.1186367"><ele>40.0</ele><time>2026-05-03T14:07:01.983Z</time></trkpt><trkpt lat="40.2583183" lon="15.1185583"><ele>41.0</ele><time>2026-05-03T14:07:02.984Z</time></trkpt><trkpt lat="40.2582467" lon="15.1184967"><ele>42.0</ele><time>2026-05-03T14:07:03.983Z</time></trkpt><trkpt lat="40.25818" lon="15.1184233"><ele>43.0</ele><time>2026-05-03T14:07:04.981Z</time></trkpt><trkpt lat="40.258115" lon="15.11834"><ele>44.0</ele><time>2026-05-03T14:07:05.981Z</time></trkpt><trkpt lat="40.25805" lon="15.11826"><ele>46.2</ele><time>2026-05-03T14:07:06.983Z</time></trkpt><trkpt lat="40.2579883" lon="15.1181683"><ele>48.400000000000006</ele><time>2026-05-03T14:07:07.983Z</time></trkpt><trkpt lat="40.2579283" lon="15.1180617"><ele>50.6</ele><time>2026-05-03T14:07:08.982Z</time></trkpt><trkpt lat="40.2578667" lon="15.11793"><ele>52.8</ele><time>2026-05-03T14:07:09.981Z</time></trkpt><trkpt lat="40.257805" lon="15.117785"><ele>55.0</ele><time>2026-05-03T14:07:10.984Z</time></trkpt><trkpt lat="40.257745" lon="15.1176367"><ele>55.0</ele><time>2026-05-03T14:07:11.982Z</time></trkpt><trkpt lat="40.2576967" lon="15.117485"><ele>55.0</ele><time>2026-05-03T14:07:12.982Z</time></trkpt><trkpt lat="40.25765" lon="15.1173367"><ele>55.0</ele><time>2026-05-03T14:07:13.981Z</time></trkpt><trkpt lat="40.2576033" lon="15.117185"><ele>55.0</ele><time>2026-05-03T14:07:14.982Z</time></trkpt><trkpt lat="40.2575533" lon="15.1170417"><ele>55.8</ele><time>2026-05-03T14:07:15.981Z</time></trkpt><trkpt lat="40.2575133" lon="15.1169083"><ele>56.6</ele><time>2026-05-03T14:07:16.982Z</time></trkpt><trkpt lat="40.2574833" lon="15.1167833"><ele>57.400000000000006</ele><time>2026-05-03T14:07:17.982Z</time></trkpt><trkpt lat="40.2574467" lon="15.1166617"><ele>58.2</ele><time>2026-05-03T14:07:18.981Z</time></trkpt><trkpt lat="40.2573917" lon="15.1165383"><ele>59.0</ele><time>2026-05-03T14:07:19.981Z</time></trkpt><trkpt lat="40.2573283" lon="15.1164117"><ele>61.2</ele><time>2026-05-03T14:07:20.983Z</time></trkpt><trkpt lat="40.25727" lon="15.1162933"><ele>63.400000000000006</ele><time>2026-05-03T14:07:21.981Z</time></trkpt><trkpt lat="40.2572217" lon="15.11618"><ele>65.6</ele><time>2026-05-03T14:07:22.982Z</time></trkpt><trkpt lat="40.25718" lon="15.1160767"><ele>67.8</ele><time>2026-05-03T14:07:23.982Z</time></trkpt><trkpt lat="40.25714" lon="15.1159667"><ele>70.0</ele><time>2026-05-03T14:07:24.983Z</time></trkpt><trkpt lat="40.2570983" lon="15.1158567"><ele>70.0</ele><time>2026-05-03T14:07:25.982Z</time></trkpt><trkpt lat="40.257055" lon="15.1157433"><ele>70.0</ele><time>2026-05-03T14:07:26.984Z</time></trkpt><trkpt lat="40.2570017" lon="15.1156217"><ele>70.0</ele><time>2026-05-03T14:07:27.982Z</time></trkpt><trkpt lat="40.25695" lon="15.1155067"><ele>70.0</ele><time>2026-05-03T14:07:28.981Z</time></trkpt><trkpt lat="40.25689" lon="15.115385"><ele>70.0</ele><time>2026-05-03T14:07:29.982Z</time></trkpt><trkpt lat="40.2568367" lon="15.11527"><ele>71.8</ele><time>2026-05-03T14:07:30.981Z</time></trkpt><trkpt lat="40.25679" lon="15.1151633"><ele>73.6</ele><time>2026-05-03T14:07:31.984Z</time></trkpt><trkpt lat="40.2567517" lon="15.1150467"><ele>75.4</ele><time>2026-05-03T14:07:32.983Z</time></trkpt><trkpt lat="40.2567233" lon="15.1149217"><ele>77.2</ele><time>2026-05-03T14:07:33.983Z</time></trkpt><trkpt lat="40.2566967" lon="15.1148067"><ele>79.0</ele><time>2026-05-03T14:07:34.981Z</time></trkpt><trkpt lat="40.2566733" lon="15.1146917"><ele>79.33333333333333</ele><time>2026-05-03T14:07:35.983Z</time></trkpt><trkpt lat="40.2566483" lon="15.114585"><ele>79.66666666666666</ele><time>2026-05-03T14:07:36.982Z</time></trkpt><trkpt lat="40.25661" lon="15.11447"><ele>80.0</ele><time>2026-05-03T14:07:37.983Z</time></trkpt><trkpt lat="40.2565683" lon="15.1143633"><ele>80.33333333333333</ele><time>2026-05-03T14:07:38.982Z</time></trkpt><trkpt lat="40.256525" lon="15.11427"><ele>80.66666666666667</ele><time>2026-05-03T14:07:39.982Z</time></trkpt><trkpt lat="40.256475" lon="15.1141767"><ele>81.0</ele><time>2026-05-03T14:07:40.983Z</time></trkpt><trkpt lat="40.2564367" lon="15.114075"><ele>83.0</ele><time>2026-05-03T14:07:41.983Z</time></trkpt><trkpt lat="40.2564067" lon="15.1139567"><ele>85.0</ele><time>2026-05-03T14:07:42.982Z</time></trkpt><trkpt lat="40.2563833" lon="15.113825"><ele>87.0</ele><time>2026-05-03T14:07:43.983Z</time></trkpt><trkpt lat="40.2563667" lon="15.1136833"><ele>89.0</ele><time>2026-05-03T14:07:44.982Z</time></trkpt><trkpt lat="40.2563517" lon="15.113535"><ele>91.0</ele><time>2026-05-03T14:07:45.981Z</time></trkpt><trkpt lat="40.2563417" lon="15.11339"><ele>91.0</ele><time>2026-05-03T14:07:46.983Z</time></trkpt><trkpt lat="40.2563383" lon="15.113245"><ele>91.0</ele><time>2026-05-03T14:07:47.982Z</time></trkpt><trkpt lat="40.2563367" lon="15.1131017"><ele>91.0</ele><time>2026-05-03T14:07:48.982Z</time></trkpt><trkpt lat="40.25634" lon="15.1129533"><ele>91.0</ele><time>2026-05-03T14:07:49.981Z</time></trkpt><trkpt lat="40.25635" lon="15.11281"><ele>91.0</ele><time>2026-05-03T14:07:50.982Z</time></trkpt><trkpt lat="40.2563717" lon="15.1126833"><ele>92.83333333333333</ele><time>2026-05-03T14:07:51.981Z</time></trkpt><trkpt lat="40.256395" lon="15.112575"><ele>94.66666666666666</ele><time>2026-05-03T14:07:52.981Z</time></trkpt><trkpt lat="40.2564217" lon="15.1124883"><ele>96.5</ele><time>2026-05-03T14:07:53.981Z</time></trkpt><trkpt lat="40.2564333" lon="15.1124"><ele>98.33333333333333</ele><time>2026-05-03T14:07:54.983Z</time></trkpt><trkpt lat="40.2563917" lon="15.1122633"><ele>100.16666666666667</ele><time>2026-05-03T14:07:56.983Z</time></trkpt><trkpt lat="40.2563217" lon="15.1122117"><ele>102.0</ele><time>2026-05-03T14:07:57.982Z</time></trkpt><trkpt lat="40.2562433" lon="15.1121533"><ele>104.33333333333333</ele><time>2026-05-03T14:07:58.983Z</time></trkpt><trkpt lat="40.25616" lon="15.112115"><ele>106.66666666666666</ele><time>2026-05-03T14:07:59.983Z</time></trkpt><trkpt lat="40.2561117" lon="15.112055"><ele>109.0</ele><time>2026-05-03T14:08:00.983Z</time></trkpt><trkpt lat="40.2560917" lon="15.1119617"><ele>111.33333333333333</ele><time>2026-05-03T14:08:01.982Z</time></trkpt><trkpt lat="40.25608" lon="15.1118583"><ele>113.66666666666666</ele><time>2026-05-03T14:08:02.982Z</time></trkpt><trkpt lat="40.2560683" lon="15.1117333"><ele>116.0</ele><time>2026-05-03T14:08:03.981Z</time></trkpt><trkpt lat="40.2560567" lon="15.1115917"><ele>118.4</ele><time>2026-05-03T14:08:04.982Z</time></trkpt><trkpt lat="40.2560367" lon="15.11145"><ele>120.8</ele><time>2026-05-03T14:08:05.983Z</time></trkpt><trkpt lat="40.2560117" lon="15.11131"><ele>123.20000000000002</ele><time>2026-05-03T14:08:06.982Z</time></trkpt><trkpt lat="40.2559867" lon="15.1111833"><ele>125.60000000000001</ele><time>2026-05-03T14:08:07.982Z</time></trkpt><trkpt lat="40.255965" lon="15.1110467"><ele>128.0</ele><time>2026-05-03T14:08:08.984Z</time></trkpt><trkpt lat="40.2559583" lon="15.1109117"><ele>128.0</ele><time>2026-05-03T14:08:09.981Z</time></trkpt><trkpt lat="40.25594" lon="15.1107867"><ele>128.0</ele><time>2026-05-03T14:08:10.983Z</time></trkpt><trkpt lat="40.2559083" lon="15.110665"><ele>128.0</ele><time>2026-05-03T14:08:11.982Z</time></trkpt><trkpt lat="40.255865" lon="15.1105383"><ele>128.0</ele><time>2026-05-03T14:08:12.983Z</time></trkpt><trkpt lat="40.255815" lon="15.1104067"><ele>128.0</ele><time>2026-05-03T14:08:13.983Z</time></trkpt><trkpt lat="40.2557667" lon="15.11027"><ele>130.0</ele><time>2026-05-03T14:08:14.983Z</time></trkpt><trkpt lat="40.2557083" lon="15.1101367"><ele>132.0</ele><time>2026-05-03T14:08:15.984Z</time></trkpt><trkpt lat="40.2556483" lon="15.1100017"><ele>134.0</ele><time>2026-05-03T14:08:16.984Z</time></trkpt><trkpt lat="40.2555817" lon="15.1098767"><ele>136.0</ele><time>2026-05-03T14:08:17.983Z</time></trkpt><trkpt lat="40.2555167" lon="15.109755"><ele>141.6</ele><time>2026-05-03T14:08:18.984Z</time></trkpt><trkpt lat="40.255455" lon="15.1096383"><ele>147.2</ele><time>2026-05-03T14:08:19.982Z</time></trkpt><trkpt lat="40.2553817" lon="15.1095467"><ele>152.79999999999998</ele><time>2026-05-03T14:08:20.982Z</time></trkpt><trkpt lat="40.2553017" lon="15.1094533"><ele>158.39999999999998</ele><time>2026-05-03T14:08:21.984Z</time></trkpt><trkpt lat="40.2552133" lon="15.109385"><ele>164.0</ele><time>2026-05-03T14:08:22.982Z</time></trkpt><trkpt lat="40.2551233" lon="15.10932"><ele>164.0</ele><time>2026-05-03T14:08:23.983Z</time></trkpt><trkpt lat="40.2550417" lon="15.109235"><ele>164.0</ele><time>2026-05-03T14:08:24.984Z</time></trkpt><trkpt lat="40.2549517" lon="15.1091533"><ele>164.0</ele><time>2026-05-03T14:08:25.982Z</time></trkpt><trkpt lat="40.2548817" lon="15.1090633"><ele>164.0</ele><time>2026-05-03T14:08:26.983Z</time></trkpt><trkpt lat="40.2548233" lon="15.1090017"><ele>164.0</ele><time>2026-05-03T14:08:27.983Z</time></trkpt><trkpt lat="40.2547683" lon="15.108915"><ele>165.66666666666666</ele><time>2026-05-03T14:08:29.984Z</time></trkpt><trkpt lat="40.254815" lon="15.1088467"><ele>167.33333333333331</ele><time>2026-05-03T14:08:31.982Z</time></trkpt><trkpt lat="40.2548983" lon="15.1088067"><ele>169.0</ele><time>2026-05-03T14:08:32.984Z</time></trkpt><trkpt lat="40.2549617" lon="15.1087783"><ele>170.66666666666666</ele><time>2026-05-03T14:08:33.983Z</time></trkpt><trkpt lat="40.2550283" lon="15.108755"><ele>172.33333333333334</ele><time>2026-05-03T14:08:34.982Z</time></trkpt><trkpt lat="40.255105" lon="15.108665"><ele>174.0</ele><time>2026-05-03T14:08:36.984Z</time></trkpt><trkpt lat="40.25504" lon="15.1085683"><ele>174.0</ele><time>2026-05-03T14:08:39.983Z</time></trkpt><trkpt lat="40.254965" lon="15.108565"><ele>174.0</ele><time>2026-05-03T14:08:40.983Z</time></trkpt><trkpt lat="40.254895" lon="15.1085467"><ele>174.0</ele><time>2026-05-03T14:08:41.983Z</time></trkpt><trkpt lat="40.2548117" lon="15.1085067"><ele>174.0</ele><time>2026-05-03T14:08:42.983Z</time></trkpt><trkpt lat="40.2547317" lon="15.1084383"><ele>174.0</ele><time>2026-05-03T14:08:43.982Z</time></trkpt><trkpt lat="40.2546567" lon="15.1083667"><ele>174.0</ele><time>2026-05-03T14:08:44.982Z</time></trkpt><trkpt lat="40.2545933" lon="15.1082917"><ele>179.16666666666666</ele><time>2026-05-03T14:08:45.983Z</time></trkpt><trkpt lat="40.2545483" lon="15.1082133"><ele>184.33333333333331</ele><time>2026-05-03T14:08:46.981Z</time></trkpt><trkpt lat="40.2545217" lon="15.1081383"><ele>189.5</ele><time>2026-05-03T14:08:47.982Z</time></trkpt><trkpt lat="40.254475" lon="15.1079817"><ele>194.66666666666666</ele><time>2026-05-03T14:08:49.981Z</time></trkpt><trkpt lat="40.2544333" lon="15.1079033"><ele>199.83333333333331</ele><time>2026-05-03T14:08:50.982Z</time></trkpt><trkpt lat="40.2543817" lon="15.1078333"><ele>205.0</ele><time>2026-05-03T14:08:51.982Z</time></trkpt><trkpt lat="40.2543283" lon="15.1077617"><ele>204.99999999999997</ele><time>2026-05-03T14:08:52.981Z</time></trkpt><trkpt lat="40.2542817" lon="15.1076817"><ele>205.0</ele><time>2026-05-03T14:08:53.982Z</time></trkpt><trkpt lat="40.254245" lon="15.10759"><ele>205.0</ele><time>2026-05-03T14:08:54.982Z</time></trkpt><trkpt lat="40.254215" lon="15.10748"><ele>205.0</ele><time>2026-05-03T14:08:55.983Z</time></trkpt><trkpt lat="40.2541833" lon="15.1073533"><ele>204.99999999999997</ele><time>2026-05-03T14:08:56.983Z</time></trkpt><trkpt lat="40.254135" lon="15.1072383"><ele>205.0</ele><time>2026-05-03T14:08:57.982Z</time></trkpt><trkpt lat="40.2540783" lon="15.107125"><ele>206.2</ele><time>2026-05-03T14:08:58.982Z</time></trkpt><trkpt lat="40.2540183" lon="15.1070183"><ele>207.4</ele><time>2026-05-03T14:08:59.982Z</time></trkpt><trkpt lat="40.2539467" lon="15.1069283"><ele>208.60000000000002</ele><time>2026-05-03T14:09:00.981Z</time></trkpt><trkpt lat="40.2538617" lon="15.106855"><ele>209.8</ele><time>2026-05-03T14:09:01.983Z</time></trkpt><trkpt lat="40.2537767" lon="15.106785"><ele>211.0</ele><time>2026-05-03T14:09:02.982Z</time></trkpt><trkpt lat="40.2536933" lon="15.10672"><ele>211.0</ele><time>2026-05-03T14:09:03.981Z</time></trkpt><trkpt lat="40.2536067" lon="15.1066733"><ele>211.0</ele><time>2026-05-03T14:09:04.982Z</time></trkpt><trkpt lat="40.253505" lon="15.1066517"><ele>211.0</ele><time>2026-05-03T14:09:05.982Z</time></trkpt><trkpt lat="40.2533833" lon="15.1066483"><ele>211.0</ele><time>2026-05-03T14:09:06.985Z</time></trkpt><trkpt lat="40.2532633" lon="15.10665"><ele>211.0</ele><time>2026-05-03T14:09:07.983Z</time></trkpt><trkpt lat="40.2531567" lon="15.1066517"><ele>210.4</ele><time>2026-05-03T14:09:08.983Z</time></trkpt><trkpt lat="40.2530583" lon="15.1066633"><ele>209.8</ele><time>2026-05-03T14:09:09.983Z</time></trkpt><trkpt lat="40.252975" lon="15.1067083"><ele>209.20000000000002</ele><time>2026-05-03T14:09:10.985Z</time></trkpt><trkpt lat="40.2528967" lon="15.1068017"><ele>208.60000000000002</ele><time>2026-05-03T14:09:11.983Z</time></trkpt><trkpt lat="40.2528167" lon="15.106895"><ele>208.0</ele><time>2026-05-03T14:09:12.982Z</time></trkpt><trkpt lat="40.252745" lon="15.1069733"><ele>207.99999999999997</ele><time>2026-05-03T14:09:13.982Z</time></trkpt><trkpt lat="40.2526783" lon="15.1070367"><ele>208.0</ele><time>2026-05-03T14:09:14.983Z</time></trkpt><trkpt lat="40.2526033" lon="15.10705"><ele>208.0</ele><time>2026-05-03T14:09:15.982Z</time></trkpt><trkpt lat="40.2525283" lon="15.107045"><ele>208.0</ele><time>2026-05-03T14:09:16.982Z</time></trkpt><trkpt lat="40.2524433" lon="15.1069883"><ele>207.99999999999997</ele><time>2026-05-03T14:09:17.983Z</time></trkpt><trkpt lat="40.2523517" lon="15.1069133"><ele>208.0</ele><time>2026-05-03T14:09:18.982Z</time></trkpt><trkpt lat="40.25226" lon="15.1068433"><ele>207.60000000000002</ele><time>2026-05-03T14:09:19.983Z</time></trkpt><trkpt lat="40.252165" lon="15.106775"><ele>207.20000000000002</ele><time>2026-05-03T14:09:20.983Z</time></trkpt><trkpt lat="40.2520733" lon="15.1067133"><ele>206.8</ele><time>2026-05-03T14:09:21.982Z</time></trkpt><trkpt lat="40.2519767" lon="15.1066283"><ele>206.4</ele><time>2026-05-03T14:09:22.983Z</time></trkpt><trkpt lat="40.251895" lon="15.1065217"><ele>206.0</ele><time>2026-05-03T14:09:23.982Z</time></trkpt><trkpt lat="40.2518233" lon="15.106415"><ele>206.0</ele><time>2026-05-03T14:09:24.983Z</time></trkpt><trkpt lat="40.251765" lon="15.1063033"><ele>206.0</ele><time>2026-05-03T14:09:25.982Z</time></trkpt><trkpt lat="40.2517117" lon="15.1062133"><ele>206.0</ele><time>2026-05-03T14:09:26.986Z</time></trkpt><trkpt lat="40.2516683" lon="15.1061383"><ele>206.0</ele><time>2026-05-03T14:09:27.982Z</time></trkpt><trkpt lat="40.251595" lon="15.1060433"><ele>206.0</ele><time>2026-05-03T14:09:29.982Z</time></trkpt><trkpt lat="40.2515283" lon="15.1059233"><ele>206.00000000000003</ele><time>2026-05-03T14:09:31.984Z</time></trkpt><trkpt lat="40.2514983" lon="15.10584"><ele>206.0</ele><time>2026-05-03T14:09:32.983Z</time></trkpt><trkpt lat="40.2514717" lon="15.105735"><ele>206.0</ele><time>2026-05-03T14:09:33.983Z</time></trkpt><trkpt lat="40.2514433" lon="15.1056367"><ele>206.0</ele><time>2026-05-03T14:09:34.983Z</time></trkpt><trkpt lat="40.25141" lon="15.1055467"><ele>206.00000000000003</ele><time>2026-05-03T14:09:35.982Z</time></trkpt><trkpt lat="40.2513733" lon="15.1054617"><ele>206.0</ele><time>2026-05-03T14:09:36.983Z</time></trkpt><trkpt lat="40.2513367" lon="15.1053717"><ele>203.50000000000003</ele><time>2026-05-03T14:09:37.982Z</time></trkpt><trkpt lat="40.2513033" lon="15.105285"><ele>201.0</ele><time>2026-05-03T14:09:38.983Z</time></trkpt><trkpt lat="40.25127" lon="15.1052"><ele>198.5</ele><time>2026-05-03T14:09:39.982Z</time></trkpt><trkpt lat="40.251235" lon="15.1051133"><ele>196.0</ele><time>2026-05-03T14:09:40.982Z</time></trkpt><trkpt lat="40.2512" lon="15.105025"><ele>193.5</ele><time>2026-05-03T14:09:41.983Z</time></trkpt><trkpt lat="40.2511717" lon="15.1049283"><ele>191.0</ele><time>2026-05-03T14:09:42.983Z</time></trkpt><trkpt lat="40.2511417" lon="15.10483"><ele>189.83333333333331</ele><time>2026-05-03T14:09:43.982Z</time></trkpt><trkpt lat="40.251125" lon="15.104725"><ele>188.66666666666666</ele><time>2026-05-03T14:09:44.983Z</time></trkpt><trkpt lat="40.25112" lon="15.1046133"><ele>187.5</ele><time>2026-05-03T14:09:45.982Z</time></trkpt><trkpt lat="40.2511183" lon="15.1045017"><ele>186.33333333333334</ele><time>2026-05-03T14:09:46.982Z</time></trkpt><trkpt lat="40.251115" lon="15.1043933"><ele>185.16666666666669</ele><time>2026-05-03T14:09:47.984Z</time></trkpt><trkpt lat="40.2511083" lon="15.1042833"><ele>184.0</ele><time>2026-05-03T14:09:48.982Z</time></trkpt><trkpt lat="40.2510983" lon="15.1041683"><ele>183.5</ele><time>2026-05-03T14:09:49.982Z</time></trkpt><trkpt lat="40.2510867" lon="15.1040567"><ele>183.0</ele><time>2026-05-03T14:09:50.984Z</time></trkpt><trkpt lat="40.2510733" lon="15.1039483"><ele>182.5</ele><time>2026-05-03T14:09:51.982Z</time></trkpt><trkpt lat="40.2510617" lon="15.1038433"><ele>182.0</ele><time>2026-05-03T14:09:52.983Z</time></trkpt><trkpt lat="40.2510467" lon="15.1037383"><ele>181.5</ele><time>2026-05-03T14:09:53.982Z</time></trkpt><trkpt lat="40.251035" lon="15.1036333"><ele>181.0</ele><time>2026-05-03T14:09:54.983Z</time></trkpt><trkpt lat="40.25103" lon="15.10352"><ele>181.0</ele><time>2026-05-03T14:09:55.982Z</time></trkpt><trkpt lat="40.251025" lon="15.1034067"><ele>181.0</ele><time>2026-05-03T14:09:56.983Z</time></trkpt><trkpt lat="40.2510167" lon="15.1032867"><ele>181.0</ele><time>2026-05-03T14:09:57.982Z</time></trkpt><trkpt lat="40.2509983" lon="15.1031517"><ele>181.0</ele><time>2026-05-03T14:09:58.981Z</time></trkpt><trkpt lat="40.2509683" lon="15.1029983"><ele>181.0</ele><time>2026-05-03T14:09:59.981Z</time></trkpt><trkpt lat="40.2509383" lon="15.1028383"><ele>179.75</ele><time>2026-05-03T14:10:00.981Z</time></trkpt><trkpt lat="40.2509117" lon="15.1026733"><ele>178.5</ele><time>2026-05-03T14:10:01.983Z</time></trkpt><trkpt lat="40.2508883" lon="15.10251"><ele>177.25</ele><time>2026-05-03T14:10:02.982Z</time></trkpt><trkpt lat="40.2508667" lon="15.1023433"><ele>176.0</ele><time>2026-05-03T14:10:03.983Z</time></trkpt><trkpt lat="40.2508483" lon="15.10218"><ele>175.8</ele><time>2026-05-03T14:10:04.982Z</time></trkpt><trkpt lat="40.2508233" lon="15.102025"><ele>175.60000000000002</ele><time>2026-05-03T14:10:05.982Z</time></trkpt><trkpt lat="40.2508" lon="15.1018783"><ele>175.4</ele><time>2026-05-03T14:10:06.983Z</time></trkpt><trkpt lat="40.2507817" lon="15.1017383"><ele>175.2</ele><time>2026-05-03T14:10:07.982Z</time></trkpt><trkpt lat="40.250765" lon="15.1016067"><ele>175.0</ele><time>2026-05-03T14:10:08.982Z</time></trkpt><trkpt lat="40.25075" lon="15.10149"><ele>173.83333333333334</ele><time>2026-05-03T14:10:09.982Z</time></trkpt><trkpt lat="40.2507367" lon="15.1013817"><ele>172.66666666666669</ele><time>2026-05-03T14:10:10.986Z</time></trkpt><trkpt lat="40.2507267" lon="15.1012817"><ele>171.5</ele><time>2026-05-03T14:10:11.984Z</time></trkpt><trkpt lat="40.25071" lon="15.1011933"><ele>170.33333333333334</ele><time>2026-05-03T14:10:12.982Z</time></trkpt><trkpt lat="40.250695" lon="15.1011083"><ele>169.16666666666666</ele><time>2026-05-03T14:10:13.982Z</time></trkpt><trkpt lat="40.2506683" lon="15.101015"><ele>168.0</ele><time>2026-05-03T14:10:14.983Z</time></trkpt><trkpt lat="40.2506217" lon="15.100905"><ele>167.4</ele><time>2026-05-03T14:10:15.982Z</time></trkpt><trkpt lat="40.2505683" lon="15.1007917"><ele>166.8</ele><time>2026-05-03T14:10:16.982Z</time></trkpt><trkpt lat="40.2505183" lon="15.1006783"><ele>166.2</ele><time>2026-05-03T14:10:17.982Z</time></trkpt><trkpt lat="40.2504817" lon="15.1005467"><ele>165.6</ele><time>2026-05-03T14:10:18.983Z</time></trkpt><trkpt lat="40.2504633" lon="15.1004033"><ele>165.0</ele><time>2026-05-03T14:10:19.983Z</time></trkpt><trkpt lat="40.25046" lon="15.1002583"><ele>165.0</ele><time>2026-05-03T14:10:20.983Z</time></trkpt><trkpt lat="40.2504617" lon="15.1001167"><ele>165.0</ele><time>2026-05-03T14:10:21.982Z</time></trkpt><trkpt lat="40.2504767" lon="15.0999783"><ele>165.0</ele><time>2026-05-03T14:10:22.982Z</time></trkpt><trkpt lat="40.2504983" lon="15.09985"><ele>165.0</ele><time>2026-05-03T14:10:23.984Z</time></trkpt><trkpt lat="40.25053" lon="15.0997267"><ele>165.0</ele><time>2026-05-03T14:10:24.983Z</time></trkpt><trkpt lat="40.2505867" lon="15.0996117"><ele>169.5</ele><time>2026-05-03T14:10:25.982Z</time></trkpt><trkpt lat="40.2506433" lon="15.099515"><ele>174.0</ele><time>2026-05-03T14:10:26.983Z</time></trkpt><trkpt lat="40.2506917" lon="15.0994317"><ele>178.5</ele><time>2026-05-03T14:10:27.983Z</time></trkpt><trkpt lat="40.2507317" lon="15.0993533"><ele>183.0</ele><time>2026-05-03T14:10:28.983Z</time></trkpt><trkpt lat="40.2507667" lon="15.09927"><ele>187.5</ele><time>2026-05-03T14:10:29.982Z</time></trkpt><trkpt lat="40.2508033" lon="15.0991733"><ele>192.0</ele><time>2026-05-03T14:10:30.982Z</time></trkpt><trkpt lat="40.2508367" lon="15.099075"><ele>196.5</ele><time>2026-05-03T14:10:31.982Z</time></trkpt><trkpt lat="40.2508667" lon="15.0989833"><ele>201.0</ele><time>2026-05-03T14:10:32.983Z</time></trkpt><trkpt lat="40.2509" lon="15.0989033"><ele>205.5</ele><time>2026-05-03T14:10:33.983Z</time></trkpt><trkpt lat="40.2510017" lon="15.0988083"><ele>210.0</ele><time>2026-05-03T14:10:35.983Z</time></trkpt><trkpt lat="40.2510833" lon="15.098815"><ele>214.5</ele><time>2026-05-03T14:10:36.983Z</time></trkpt><trkpt lat="40.2511717" lon="15.0988467"><ele>219.0</ele><time>2026-05-03T14:10:37.983Z</time></trkpt><trkpt lat="40.2512667" lon="15.0989083"><ele>219.0</ele><time>2026-05-03T14:10:38.983Z</time></trkpt><trkpt lat="40.251365" lon="15.0990233"><ele>219.0</ele><time>2026-05-03T14:10:39.982Z</time></trkpt><trkpt lat="40.251455" lon="15.099145"><ele>219.0</ele><time>2026-05-03T14:10:40.983Z</time></trkpt><trkpt lat="40.2515433" lon="15.09927"><ele>219.0</ele><time>2026-05-03T14:10:41.982Z</time></trkpt><trkpt lat="40.2516183" lon="15.099375"><ele>215.6</ele><time>2026-05-03T14:10:42.983Z</time></trkpt><trkpt lat="40.251685" lon="15.0994433"><ele>212.2</ele><time>2026-05-03T14:10:43.983Z</time></trkpt><trkpt lat="40.25174" lon="15.09949"><ele>208.79999999999998</ele><time>2026-05-03T14:10:44.984Z</time></trkpt><trkpt lat="40.25179" lon="15.09942"><ele>205.39999999999998</ele><time>2026-05-03T14:10:47.982Z</time></trkpt><trkpt lat="40.2517033" lon="15.099265"><ele>202.0</ele><time>2026-05-03T14:10:49.982Z</time></trkpt><trkpt lat="40.2516267" lon="15.099145"><ele>205.39999999999998</ele><time>2026-05-03T14:10:50.983Z</time></trkpt><trkpt lat="40.2515517" lon="15.0990367"><ele>208.79999999999998</ele><time>2026-05-03T14:10:51.983Z</time></trkpt><trkpt lat="40.2514867" lon="15.098945"><ele>212.2</ele><time>2026-05-03T14:10:52.982Z</time></trkpt><trkpt lat="40.2514167" lon="15.0988683"><ele>215.6</ele><time>2026-05-03T14:10:53.985Z</time></trkpt><trkpt lat="40.2513267" lon="15.0988083"><ele>219.0</ele><time>2026-05-03T14:10:54.983Z</time></trkpt><trkpt lat="40.25123" lon="15.0987583"><ele>219.0</ele><time>2026-05-03T14:10:55.981Z</time></trkpt><trkpt lat="40.251145" lon="15.0987117"><ele>219.0</ele><time>2026-05-03T14:10:56.983Z</time></trkpt><trkpt lat="40.2510683" lon="15.09867"><ele>219.0</ele><time>2026-05-03T14:10:57.984Z</time></trkpt><trkpt lat="40.2509967" lon="15.0986617"><ele>219.0</ele><time>2026-05-03T14:10:58.983Z</time></trkpt><trkpt lat="40.250925" lon="15.09867"><ele>219.0</ele><time>2026-05-03T14:10:59.983Z</time></trkpt><trkpt lat="40.2508567" lon="15.0987017"><ele>219.0</ele><time>2026-05-03T14:11:00.983Z</time></trkpt><trkpt lat="40.2507933" lon="15.098775"><ele>219.0</ele><time>2026-05-03T14:11:01.984Z</time></trkpt><trkpt lat="40.2507217" lon="15.0988567"><ele>219.0</ele><time>2026-05-03T14:11:02.983Z</time></trkpt><trkpt lat="40.2506633" lon="15.098915"><ele>219.0</ele><time>2026-05-03T14:11:03.983Z</time></trkpt><trkpt lat="40.2505817" lon="15.098915"><ele>219.0</ele><time>2026-05-03T14:11:05.982Z</time></trkpt><trkpt lat="40.25058" lon="15.0988167"><ele>219.0</ele><time>2026-05-03T14:11:07.983Z</time></trkpt><trkpt lat="40.2506433" lon="15.0987333"><ele>219.0</ele><time>2026-05-03T14:11:08.983Z</time></trkpt><trkpt lat="40.2507217" lon="15.0986367"><ele>219.0</ele><time>2026-05-03T14:11:09.981Z</time></trkpt><trkpt lat="40.2507883" lon="15.09854"><ele>218.99999999999997</ele><time>2026-05-03T14:11:10.982Z</time></trkpt><trkpt lat="40.2508483" lon="15.0984483"><ele>218.99999999999997</ele><time>2026-05-03T14:11:11.982Z</time></trkpt><trkpt lat="40.2509083" lon="15.0983883"><ele>219.0</ele><time>2026-05-03T14:11:12.983Z</time></trkpt><trkpt lat="40.2510383" lon="15.098365"><ele>219.0</ele><time>2026-05-03T14:11:14.983Z</time></trkpt><trkpt lat="40.2511317" lon="15.09842"><ele>219.0</ele><time>2026-05-03T14:11:15.983Z</time></trkpt><trkpt lat="40.251245" lon="15.0984933"><ele>219.0</ele><time>2026-05-03T14:11:16.983Z</time></trkpt><trkpt lat="40.2513633" lon="15.09857"><ele>219.0</ele><time>2026-05-03T14:11:17.982Z</time></trkpt><trkpt lat="40.2514733" lon="15.0986483"><ele>219.0</ele><time>2026-05-03T14:11:18.982Z</time></trkpt><trkpt lat="40.2515617" lon="15.0987417"><ele>220.39999999999998</ele><time>2026-05-03T14:11:19.982Z</time></trkpt><trkpt lat="40.2516433" lon="15.0988467"><ele>221.79999999999998</ele><time>2026-05-03T14:11:20.983Z</time></trkpt><trkpt lat="40.251715" lon="15.0989383"><ele>223.20000000000002</ele><time>2026-05-03T14:11:21.983Z</time></trkpt><trkpt lat="40.251795" lon="15.09901"><ele>224.60000000000002</ele><time>2026-05-03T14:11:22.982Z</time></trkpt><trkpt lat="40.2518967" lon="15.0990533"><ele>226.0</ele><time>2026-05-03T14:11:23.983Z</time></trkpt><trkpt lat="40.2520033" lon="15.0990783"><ele>225.99999999999997</ele><time>2026-05-03T14:11:24.984Z</time></trkpt><trkpt lat="40.2520983" lon="15.0990717"><ele>226.0</ele><time>2026-05-03T14:11:25.982Z</time></trkpt><trkpt lat="40.252175" lon="15.0990533"><ele>226.0</ele><time>2026-05-03T14:11:26.984Z</time></trkpt><trkpt lat="40.2522367" lon="15.0990183"><ele>226.0</ele><time>2026-05-03T14:11:27.984Z</time></trkpt><trkpt lat="40.252275" lon="15.0989483"><ele>225.99999999999997</ele><time>2026-05-03T14:11:28.984Z</time></trkpt><trkpt lat="40.252305" lon="15.0988683"><ele>226.0</ele><time>2026-05-03T14:11:29.983Z</time></trkpt><trkpt lat="40.2523117" lon="15.0987617"><ele>226.0</ele><time>2026-05-03T14:11:30.984Z</time></trkpt><trkpt lat="40.2523" lon="15.0986367"><ele>226.0</ele><time>2026-05-03T14:11:31.983Z</time></trkpt><trkpt lat="40.2522617" lon="15.09848"><ele>226.0</ele><time>2026-05-03T14:11:32.984Z</time></trkpt><trkpt lat="40.2521967" lon="15.0982767"><ele>226.0</ele><time>2026-05-03T14:11:33.983Z</time></trkpt><trkpt lat="40.2521483" lon="15.0980967"><ele>229.4</ele><time>2026-05-03T14:11:34.984Z</time></trkpt><trkpt lat="40.2521" lon="15.09794"><ele>232.8</ele><time>2026-05-03T14:11:35.984Z</time></trkpt><trkpt lat="40.2520583" lon="15.0978217"><ele>236.20000000000002</ele><time>2026-05-03T14:11:36.984Z</time></trkpt><trkpt lat="40.2520117" lon="15.097725"><ele>239.60000000000002</ele><time>2026-05-03T14:11:37.984Z</time></trkpt><trkpt lat="40.25191" lon="15.0976517"><ele>243.0</ele><time>2026-05-03T14:11:39.983Z</time></trkpt><trkpt lat="40.251855" lon="15.0977983"><ele>243.0</ele><time>2026-05-03T14:11:41.983Z</time></trkpt><trkpt lat="40.251825" lon="15.0979"><ele>243.0</ele><time>2026-05-03T14:11:42.984Z</time></trkpt><trkpt lat="40.2517783" lon="15.098005"><ele>243.0</ele><time>2026-05-03T14:11:43.984Z</time></trkpt><trkpt lat="40.2517217" lon="15.0980783"><ele>243.0</ele><time>2026-05-03T14:11:44.983Z</time></trkpt><trkpt lat="40.25165" lon="15.098115"><ele>243.0</ele><time>2026-05-03T14:11:45.983Z</time></trkpt><trkpt lat="40.2515433" lon="15.0980783"><ele>243.0</ele><time>2026-05-03T14:11:46.981Z</time></trkpt><trkpt lat="40.251445" lon="15.0980117"><ele>242.8</ele><time>2026-05-03T14:11:47.983Z</time></trkpt><trkpt lat="40.251365" lon="15.0979317"><ele>242.60000000000002</ele><time>2026-05-03T14:11:48.982Z</time></trkpt><trkpt lat="40.251275" lon="15.09786"><ele>242.39999999999998</ele><time>2026-05-03T14:11:49.982Z</time></trkpt><trkpt lat="40.2511733" lon="15.09781"><ele>242.2</ele><time>2026-05-03T14:11:50.982Z</time></trkpt><trkpt lat="40.2510667" lon="15.0977833"><ele>242.0</ele><time>2026-05-03T14:11:51.982Z</time></trkpt><trkpt lat="40.2509733" lon="15.0977517"><ele>242.00000000000003</ele><time>2026-05-03T14:11:52.982Z</time></trkpt><trkpt lat="40.2509083" lon="15.0977183"><ele>242.0</ele><time>2026-05-03T14:11:53.981Z</time></trkpt><trkpt lat="40.2508733" lon="15.0976483"><ele>242.0</ele><time>2026-05-03T14:11:55.983Z</time></trkpt><trkpt lat="40.2509517" lon="15.0976067"><ele>242.0</ele><time>2026-05-03T14:11:57.982Z</time></trkpt><trkpt lat="40.2510767" lon="15.09763"><ele>242.00000000000003</ele><time>2026-05-03T14:11:59.984Z</time></trkpt><trkpt lat="40.2511617" lon="15.097625"><ele>242.0</ele><time>2026-05-03T14:12:00.983Z</time></trkpt><trkpt lat="40.2512483" lon="15.0975967"><ele>242.0</ele><time>2026-05-03T14:12:01.982Z</time></trkpt><trkpt lat="40.25133" lon="15.09754"><ele>242.0</ele><time>2026-05-03T14:12:02.982Z</time></trkpt><trkpt lat="40.2513867" lon="15.0974267"><ele>242.0</ele><time>2026-05-03T14:12:03.982Z</time></trkpt><trkpt lat="40.2514267" lon="15.097285"><ele>242.0</ele><time>2026-05-03T14:12:04.989Z</time></trkpt><trkpt lat="40.2514567" lon="15.0971217"><ele>242.0</ele><time>2026-05-03T14:12:05.983Z</time></trkpt><trkpt lat="40.2514683" lon="15.0969483"><ele>247.25</ele><time>2026-05-03T14:12:06.982Z</time></trkpt><trkpt lat="40.251455" lon="15.0967683"><ele>252.5</ele><time>2026-05-03T14:12:07.983Z</time></trkpt><trkpt lat="40.2514283" lon="15.0965917"><ele>257.75</ele><time>2026-05-03T14:12:08.983Z</time></trkpt><trkpt lat="40.2513883" lon="15.096405"><ele>263.0</ele><time>2026-05-03T14:12:09.983Z</time></trkpt><trkpt lat="40.2513417" lon="15.09621"><ele>267.25</ele><time>2026-05-03T14:12:10.983Z</time></trkpt><trkpt lat="40.251295" lon="15.09602"><ele>271.5</ele><time>2026-05-03T14:12:11.983Z</time></trkpt><trkpt lat="40.251245" lon="15.09584"><ele>275.75</ele><time>2026-05-03T14:12:12.984Z</time></trkpt><trkpt lat="40.2511967" lon="15.0956583"><ele>280.0</ele><time>2026-05-03T14:12:13.985Z</time></trkpt><trkpt lat="40.251155" lon="15.0954783"><ele>285.0</ele><time>2026-05-03T14:12:14.985Z</time></trkpt><trkpt lat="40.2511183" lon="15.09532"><ele>290.0</ele><time>2026-05-03T14:12:15.986Z</time></trkpt><trkpt lat="40.2510867" lon="15.0951633"><ele>295.0</ele><time>2026-05-03T14:12:16.985Z</time></trkpt><trkpt lat="40.2510767" lon="15.095"><ele>300.0</ele><time>2026-05-03T14:12:17.982Z</time></trkpt><trkpt lat="40.25108" lon="15.094835"><ele>306.5</ele><time>2026-05-03T14:12:18.981Z</time></trkpt><trkpt lat="40.2511" lon="15.0946533"><ele>313.0</ele><time>2026-05-03T14:12:19.982Z</time></trkpt><trkpt lat="40.25114" lon="15.0944717"><ele>319.5</ele><time>2026-05-03T14:12:20.985Z</time></trkpt><trkpt lat="40.25119" lon="15.094275"><ele>326.0</ele><time>2026-05-03T14:12:21.982Z</time></trkpt><trkpt lat="40.251245" lon="15.0940733"><ele>325.6666666666667</ele><time>2026-05-03T14:12:22.983Z</time></trkpt><trkpt lat="40.2513117" lon="15.0938767"><ele>325.3333333333333</ele><time>2026-05-03T14:12:23.982Z</time></trkpt><trkpt lat="40.2513917" lon="15.0936833"><ele>325.0</ele><time>2026-05-03T14:12:24.982Z</time></trkpt><trkpt lat="40.251495" lon="15.093495"><ele>325.0</ele><time>2026-05-03T14:12:25.982Z</time></trkpt><trkpt lat="40.2515967" lon="15.09332"><ele>325.0</ele><time>2026-05-03T14:12:26.983Z</time></trkpt><trkpt lat="40.2516917" lon="15.09318"><ele>325.0</ele><time>2026-05-03T14:12:27.983Z</time></trkpt><trkpt lat="40.251765" lon="15.0930533"><ele>325.0</ele><time>2026-05-03T14:12:28.983Z</time></trkpt><trkpt lat="40.2518183" lon="15.0929417"><ele>329.25</ele><time>2026-05-03T14:12:29.982Z</time></trkpt><trkpt lat="40.2518517" lon="15.09282"><ele>333.5</ele><time>2026-05-03T14:12:30.983Z</time></trkpt><trkpt lat="40.2518733" lon="15.0926717"><ele>337.75</ele><time>2026-05-03T14:12:31.983Z</time></trkpt><trkpt lat="40.2518783" lon="15.09249"><ele>342.0</ele><time>2026-05-03T14:12:32.982Z</time></trkpt><trkpt lat="40.2518733" lon="15.092295"><ele>345.5</ele><time>2026-05-03T14:12:33.982Z</time></trkpt><trkpt lat="40.2518617" lon="15.092095"><ele>349.0</ele><time>2026-05-03T14:12:34.983Z</time></trkpt><trkpt lat="40.2518567" lon="15.0919"><ele>352.5</ele><time>2026-05-03T14:12:35.982Z</time></trkpt><trkpt lat="40.2518533" lon="15.0917283"><ele>356.0</ele><time>2026-05-03T14:12:36.984Z</time></trkpt><trkpt lat="40.251855" lon="15.0915717"><ele>359.20000000000005</ele><time>2026-05-03T14:12:37.982Z</time></trkpt><trkpt lat="40.25185" lon="15.0914233"><ele>362.40000000000003</ele><time>2026-05-03T14:12:38.983Z</time></trkpt><trkpt lat="40.25185" lon="15.091285"><ele>365.6</ele><time>2026-05-03T14:12:39.982Z</time></trkpt><trkpt lat="40.2518533" lon="15.0911583"><ele>368.8</ele><time>2026-05-03T14:12:40.982Z</time></trkpt><trkpt lat="40.2518633" lon="15.091045"><ele>372.0</ele><time>2026-05-03T14:12:41.983Z</time></trkpt><trkpt lat="40.25188" lon="15.0909383"><ele>372.0</ele><time>2026-05-03T14:12:42.982Z</time></trkpt><trkpt lat="40.2519067" lon="15.09085"><ele>372.0</ele><time>2026-05-03T14:12:43.983Z</time></trkpt><trkpt lat="40.2519567" lon="15.090745"><ele>372.0</ele><time>2026-05-03T14:12:44.984Z</time></trkpt><trkpt lat="40.2520467" lon="15.090635"><ele>372.0</ele><time>2026-05-03T14:12:45.984Z</time></trkpt><trkpt lat="40.2521483" lon="15.090535"><ele>372.0</ele><time>2026-05-03T14:12:46.982Z</time></trkpt><trkpt lat="40.25227" lon="15.0904467"><ele>373.6666666666667</ele><time>2026-05-03T14:12:47.983Z</time></trkpt><trkpt lat="40.2524083" lon="15.0903667"><ele>375.33333333333337</ele><time>2026-05-03T14:12:48.984Z</time></trkpt><trkpt lat="40.2525617" lon="15.090295"><ele>377.0</ele><time>2026-05-03T14:12:49.985Z</time></trkpt><trkpt lat="40.2527233" lon="15.0902217"><ele>377.0</ele><time>2026-05-03T14:12:50.984Z</time></trkpt><trkpt lat="40.2528783" lon="15.09015"><ele>377.0</ele><time>2026-05-03T14:12:51.983Z</time></trkpt><trkpt lat="40.2530217" lon="15.09008"><ele>377.0</ele><time>2026-05-03T14:12:52.985Z</time></trkpt><trkpt lat="40.2531467" lon="15.0900117"><ele>374.40000000000003</ele><time>2026-05-03T14:12:53.983Z</time></trkpt><trkpt lat="40.253265" lon="15.0899533"><ele>371.8</ele><time>2026-05-03T14:12:54.985Z</time></trkpt><trkpt lat="40.2533733" lon="15.0899183"><ele>369.2</ele><time>2026-05-03T14:12:55.983Z</time></trkpt><trkpt lat="40.2534683" lon="15.089905"><ele>366.6</ele><time>2026-05-03T14:12:56.984Z</time></trkpt><trkpt lat="40.25355" lon="15.0898867"><ele>364.0</ele><time>2026-05-03T14:12:57.984Z</time></trkpt><trkpt lat="40.2536133" lon="15.0898533"><ele>364.0</ele><time>2026-05-03T14:12:58.983Z</time></trkpt><trkpt lat="40.25366" lon="15.0896817"><ele>364.0</ele><time>2026-05-03T14:13:00.984Z</time></trkpt><trkpt lat="40.2536533" lon="15.0895517"><ele>364.0</ele><time>2026-05-03T14:13:01.984Z</time></trkpt><trkpt lat="40.2536333" lon="15.0894367"><ele>364.0</ele><time>2026-05-03T14:13:02.984Z</time></trkpt><trkpt lat="40.25362" lon="15.0893383"><ele>364.0</ele><time>2026-05-03T14:13:03.983Z</time></trkpt><trkpt lat="40.2535767" lon="15.0892683"><ele>364.0</ele><time>2026-05-03T14:13:04.983Z</time></trkpt><trkpt lat="40.2535167" lon="15.0892317"><ele>364.0</ele><time>2026-05-03T14:13:05.983Z</time></trkpt><trkpt lat="40.2534167" lon="15.0892517"><ele>364.0</ele><time>2026-05-03T14:13:06.983Z</time></trkpt><trkpt lat="40.2533333" lon="15.0892467"><ele>364.0</ele><time>2026-05-03T14:13:07.984Z</time></trkpt><trkpt lat="40.2532517" lon="15.089215"><ele>364.0</ele><time>2026-05-03T14:13:08.984Z</time></trkpt><trkpt lat="40.2531667" lon="15.0891567"><ele>364.0</ele><time>2026-05-03T14:13:09.983Z</time></trkpt><trkpt lat="40.2531033" lon="15.089055"><ele>369.0</ele><time>2026-05-03T14:13:10.984Z</time></trkpt><trkpt lat="40.2530583" lon="15.08894"><ele>374.0</ele><time>2026-05-03T14:13:11.983Z</time></trkpt><trkpt lat="40.2530117" lon="15.0888317"><ele>379.0</ele><time>2026-05-03T14:13:12.983Z</time></trkpt><trkpt lat="40.25295" lon="15.08872"><ele>384.0</ele><time>2026-05-03T14:13:13.983Z</time></trkpt><trkpt lat="40.25287" lon="15.0886083"><ele>389.0</ele><time>2026-05-03T14:13:14.986Z</time></trkpt><trkpt lat="40.252765" lon="15.0885017"><ele>389.0</ele><time>2026-05-03T14:13:15.984Z</time></trkpt><trkpt lat="40.252645" lon="15.0884"><ele>389.0</ele><time>2026-05-03T14:13:16.983Z</time></trkpt><trkpt lat="40.252535" lon="15.0883033"><ele>389.0</ele><time>2026-05-03T14:13:17.983Z</time></trkpt><trkpt lat="40.25244" lon="15.088205"><ele>389.0</ele><time>2026-05-03T14:13:18.983Z</time></trkpt><trkpt lat="40.25237" lon="15.0881017"><ele>388.49999999999994</ele><time>2026-05-03T14:13:19.983Z</time></trkpt><trkpt lat="40.2523267" lon="15.0879833"><ele>388.0</ele><time>2026-05-03T14:13:20.984Z</time></trkpt><trkpt lat="40.2523083" lon="15.0878483"><ele>387.5</ele><time>2026-05-03T14:13:21.982Z</time></trkpt><trkpt lat="40.252295" lon="15.0877317"><ele>387.0</ele><time>2026-05-03T14:13:22.983Z</time></trkpt><trkpt lat="40.2522783" lon="15.0876317"><ele>386.49999999999994</ele><time>2026-05-03T14:13:23.983Z</time></trkpt><trkpt lat="40.2522433" lon="15.0875617"><ele>386.0</ele><time>2026-05-03T14:13:24.982Z</time></trkpt><trkpt lat="40.25218" lon="15.0875633"><ele>392.8</ele><time>2026-05-03T14:13:25.982Z</time></trkpt><trkpt lat="40.2521167" lon="15.0875683"><ele>399.6</ele><time>2026-05-03T14:13:26.984Z</time></trkpt><trkpt lat="40.25206" lon="15.0876117"><ele>406.4</ele><time>2026-05-03T14:13:27.982Z</time></trkpt><trkpt lat="40.2520233" lon="15.0877317"><ele>413.2</ele><time>2026-05-03T14:13:28.983Z</time></trkpt><trkpt lat="40.252045" lon="15.087885"><ele>420.0</ele><time>2026-05-03T14:13:29.983Z</time></trkpt><trkpt lat="40.2520733" lon="15.08803"><ele>420.0</ele><time>2026-05-03T14:13:30.982Z</time></trkpt><trkpt lat="40.2521167" lon="15.088195"><ele>420.0</ele><time>2026-05-03T14:13:31.983Z</time></trkpt><trkpt lat="40.252175" lon="15.0883533"><ele>420.0</ele><time>2026-05-03T14:13:32.984Z</time></trkpt><trkpt lat="40.2522467" lon="15.0885017"><ele>420.0</ele><time>2026-05-03T14:13:33.982Z</time></trkpt><trkpt lat="40.2523333" lon="15.0886283"><ele>415.4</ele><time>2026-05-03T14:13:34.982Z</time></trkpt><trkpt lat="40.2524267" lon="15.08873"><ele>410.8</ele><time>2026-05-03T14:13:35.982Z</time></trkpt><trkpt lat="40.2525117" lon="15.0888217"><ele>406.20000000000005</ele><time>2026-05-03T14:13:36.982Z</time></trkpt><trkpt lat="40.2525733" lon="15.08891"><ele>401.6</ele><time>2026-05-03T14:13:37.982Z</time></trkpt><trkpt lat="40.2526067" lon="15.0890083"><ele>397.0</ele><time>2026-05-03T14:13:38.983Z</time></trkpt><trkpt lat="40.2526167" lon="15.0891083"><ele>397.00000000000006</ele><time>2026-05-03T14:13:39.982Z</time></trkpt><trkpt lat="40.2525767" lon="15.089195"><ele>397.0</ele><time>2026-05-03T14:13:40.982Z</time></trkpt><trkpt lat="40.25252" lon="15.0892367"><ele>397.0</ele><time>2026-05-03T14:13:41.982Z</time></trkpt><trkpt lat="40.252455" lon="15.089205"><ele>397.0</ele><time>2026-05-03T14:13:42.982Z</time></trkpt><trkpt lat="40.2524067" lon="15.08913"><ele>397.00000000000006</ele><time>2026-05-03T14:13:43.982Z</time></trkpt><trkpt lat="40.2523533" lon="15.0890333"><ele>397.0</ele><time>2026-05-03T14:13:44.983Z</time></trkpt><trkpt lat="40.25229" lon="15.088925"><ele>404.75</ele><time>2026-05-03T14:13:45.982Z</time></trkpt><trkpt lat="40.25221" lon="15.0887917"><ele>412.5</ele><time>2026-05-03T14:13:46.982Z</time></trkpt><trkpt lat="40.2521317" lon="15.0886467"><ele>420.25</ele><time>2026-05-03T14:13:47.983Z</time></trkpt><trkpt lat="40.2520583" lon="15.088515"><ele>428.0</ele><time>2026-05-03T14:13:48.983Z</time></trkpt><trkpt lat="40.2519617" lon="15.08838"><ele>426.0</ele><time>2026-05-03T14:13:49.983Z</time></trkpt><trkpt lat="40.251845" lon="15.0882567"><ele>424.0</ele><time>2026-05-03T14:13:50.985Z</time></trkpt><trkpt lat="40.251725" lon="15.088145"><ele>422.0</ele><time>2026-05-03T14:13:51.984Z</time></trkpt><trkpt lat="40.251625" lon="15.0880567"><ele>420.0</ele><time>2026-05-03T14:13:52.988Z</time></trkpt><trkpt lat="40.2515367" lon="15.08797"><ele>420.0</ele><time>2026-05-03T14:13:53.984Z</time></trkpt><trkpt lat="40.251465" lon="15.087865"><ele>420.0</ele><time>2026-05-03T14:13:54.985Z</time></trkpt><trkpt lat="40.2514067" lon="15.087735"><ele>420.0</ele><time>2026-05-03T14:13:55.984Z</time></trkpt><trkpt lat="40.2513567" lon="15.0875767"><ele>420.0</ele><time>2026-05-03T14:13:56.984Z</time></trkpt><trkpt lat="40.2513317" lon="15.0873983"><ele>430.25</ele><time>2026-05-03T14:13:57.984Z</time></trkpt><trkpt lat="40.25132" lon="15.0872117"><ele>440.5</ele><time>2026-05-03T14:13:58.984Z</time></trkpt><trkpt lat="40.251325" lon="15.08704"><ele>450.75</ele><time>2026-05-03T14:13:59.985Z</time></trkpt><trkpt lat="40.2513433" lon="15.08688"><ele>461.0</ele><time>2026-05-03T14:14:00.983Z</time></trkpt><trkpt lat="40.2513567" lon="15.0867367"><ele>460.99999999999994</ele><time>2026-05-03T14:14:01.986Z</time></trkpt><trkpt lat="40.2513583" lon="15.0866133"><ele>461.0</ele><time>2026-05-03T14:14:02.984Z</time></trkpt><trkpt lat="40.2513467" lon="15.0865"><ele>461.0</ele><time>2026-05-03T14:14:03.983Z</time></trkpt><trkpt lat="40.2513267" lon="15.0863967"><ele>461.0</ele><time>2026-05-03T14:14:04.983Z</time></trkpt><trkpt lat="40.2512833" lon="15.0863033"><ele>460.99999999999994</ele><time>2026-05-03T14:14:05.984Z</time></trkpt><trkpt lat="40.2512467" lon="15.0862233"><ele>461.0</ele><time>2026-05-03T14:14:06.983Z</time></trkpt><trkpt lat="40.2512267" lon="15.086145"><ele>460.4</ele><time>2026-05-03T14:14:07.983Z</time></trkpt><trkpt lat="40.2512433" lon="15.08606"><ele>459.8</ele><time>2026-05-03T14:14:08.985Z</time></trkpt><trkpt lat="40.2512767" lon="15.0859883"><ele>459.19999999999993</ele><time>2026-05-03T14:14:09.983Z</time></trkpt><trkpt lat="40.2514033" lon="15.0859617"><ele>458.59999999999997</ele><time>2026-05-03T14:14:10.984Z</time></trkpt><trkpt lat="40.2515433" lon="15.0859283"><ele>458.0</ele><time>2026-05-03T14:14:11.984Z</time></trkpt><trkpt lat="40.2516817" lon="15.085895"><ele>458.0</ele><time>2026-05-03T14:14:12.983Z</time></trkpt><trkpt lat="40.25182" lon="15.085875"><ele>458.0</ele><time>2026-05-03T14:14:13.984Z</time></trkpt><trkpt lat="40.2519617" lon="15.0858667"><ele>458.0</ele><time>2026-05-03T14:14:14.982Z</time></trkpt><trkpt lat="40.2520933" lon="15.0858267"><ele>458.0</ele><time>2026-05-03T14:14:15.983Z</time></trkpt><trkpt lat="40.2522033" lon="15.08577"><ele>460.25</ele><time>2026-05-03T14:14:16.984Z</time></trkpt><trkpt lat="40.2523017" lon="15.0856783"><ele>462.5</ele><time>2026-05-03T14:14:17.983Z</time></trkpt><trkpt lat="40.2523783" lon="15.0855483"><ele>464.75</ele><time>2026-05-03T14:14:18.983Z</time></trkpt><trkpt lat="40.2524383" lon="15.0853917"><ele>467.0</ele><time>2026-05-03T14:14:19.984Z</time></trkpt><trkpt lat="40.2524883" lon="15.0852133"><ele>467.0</ele><time>2026-05-03T14:14:20.984Z</time></trkpt><trkpt lat="40.2525283" lon="15.0850183"><ele>467.0</ele><time>2026-05-03T14:14:21.983Z</time></trkpt><trkpt lat="40.2525533" lon="15.08482"><ele>467.0</ele><time>2026-05-03T14:14:22.984Z</time></trkpt><trkpt lat="40.25257" lon="15.0846433"><ele>467.0</ele><time>2026-05-03T14:14:23.987Z</time></trkpt><trkpt lat="40.25257" lon="15.084475"><ele>469.5</ele><time>2026-05-03T14:14:24.984Z</time></trkpt><trkpt lat="40.2525517" lon="15.0843033"><ele>472.0</ele><time>2026-05-03T14:14:25.985Z</time></trkpt><trkpt lat="40.2525117" lon="15.0841267"><ele>474.5</ele><time>2026-05-03T14:14:26.986Z</time></trkpt><trkpt lat="40.252465" lon="15.0839583"><ele>477.0</ele><time>2026-05-03T14:14:27.983Z</time></trkpt><trkpt lat="40.2524133" lon="15.0838183"><ele>477.40000000000003</ele><time>2026-05-03T14:14:28.985Z</time></trkpt><trkpt lat="40.2523517" lon="15.0837233"><ele>477.80000000000007</ele><time>2026-05-03T14:14:29.984Z</time></trkpt><trkpt lat="40.252285" lon="15.0836633"><ele>478.2</ele><time>2026-05-03T14:14:30.984Z</time></trkpt><trkpt lat="40.2522267" lon="15.0836067"><ele>478.6</ele><time>2026-05-03T14:14:31.985Z</time></trkpt><trkpt lat="40.2521983" lon="15.08345"><ele>479.0</ele><time>2026-05-03T14:14:33.983Z</time></trkpt><trkpt lat="40.252225" lon="15.0833467"><ele>481.5</ele><time>2026-05-03T14:14:34.985Z</time></trkpt><trkpt lat="40.2522683" lon="15.083225"><ele>484.0</ele><time>2026-05-03T14:14:35.982Z</time></trkpt><trkpt lat="40.2523333" lon="15.0830633"><ele>486.5</ele><time>2026-05-03T14:14:36.982Z</time></trkpt><trkpt lat="40.2523933" lon="15.0828933"><ele>489.0</ele><time>2026-05-03T14:14:37.983Z</time></trkpt><trkpt lat="40.2524467" lon="15.0827183"><ele>489.0</ele><time>2026-05-03T14:14:38.985Z</time></trkpt><trkpt lat="40.252495" lon="15.08256"><ele>489.0</ele><time>2026-05-03T14:14:39.986Z</time></trkpt><trkpt lat="40.2525417" lon="15.0824133"><ele>489.0</ele><time>2026-05-03T14:14:40.984Z</time></trkpt><trkpt lat="40.252585" lon="15.0822767"><ele>489.0</ele><time>2026-05-03T14:14:41.983Z</time></trkpt><trkpt lat="40.2526133" lon="15.0821383"><ele>489.75</ele><time>2026-05-03T14:14:42.984Z</time></trkpt><trkpt lat="40.252635" lon="15.081985"><ele>490.5</ele><time>2026-05-03T14:14:43.984Z</time></trkpt><trkpt lat="40.2526467" lon="15.081815"><ele>491.25</ele><time>2026-05-03T14:14:44.985Z</time></trkpt><trkpt lat="40.25265" lon="15.081625"><ele>492.0</ele><time>2026-05-03T14:14:45.983Z</time></trkpt><trkpt lat="40.2526567" lon="15.0814283"><ele>492.0</ele><time>2026-05-03T14:14:46.983Z</time></trkpt><trkpt lat="40.25267" lon="15.08125"><ele>492.0</ele><time>2026-05-03T14:14:47.982Z</time></trkpt><trkpt lat="40.2526817" lon="15.0810883"><ele>492.0</ele><time>2026-05-03T14:14:48.981Z</time></trkpt><trkpt lat="40.2526833" lon="15.080935"><ele>492.0</ele><time>2026-05-03T14:14:49.982Z</time></trkpt><trkpt lat="40.2526683" lon="15.0808133"><ele>491.8</ele><time>2026-05-03T14:14:50.983Z</time></trkpt><trkpt lat="40.2526517" lon="15.080725"><ele>491.6</ele><time>2026-05-03T14:14:51.982Z</time></trkpt><trkpt lat="40.25261" lon="15.0805883"><ele>491.40000000000003</ele><time>2026-05-03T14:14:53.983Z</time></trkpt><trkpt lat="40.2525817" lon="15.080485"><ele>491.20000000000005</ele><time>2026-05-03T14:14:54.982Z</time></trkpt><trkpt lat="40.2525517" lon="15.08036"><ele>491.0</ele><time>2026-05-03T14:14:55.983Z</time></trkpt><trkpt lat="40.25252" lon="15.0802267"><ele>490.99999999999994</ele><time>2026-05-03T14:14:56.984Z</time></trkpt><trkpt lat="40.2524833" lon="15.0800967"><ele>491.0</ele><time>2026-05-03T14:14:57.982Z</time></trkpt><trkpt lat="40.2524417" lon="15.0799867"><ele>491.0</ele><time>2026-05-03T14:14:58.984Z</time></trkpt><trkpt lat="40.252395" lon="15.0798967"><ele>491.0</ele><time>2026-05-03T14:14:59.984Z</time></trkpt><trkpt lat="40.2523383" lon="15.0798233"><ele>490.99999999999994</ele><time>2026-05-03T14:15:00.984Z</time></trkpt><trkpt lat="40.2522617" lon="15.07978"><ele>491.0</ele><time>2026-05-03T14:15:01.986Z</time></trkpt><trkpt lat="40.2521633" lon="15.0797933"><ele>494.5</ele><time>2026-05-03T14:15:02.985Z</time></trkpt><trkpt lat="40.2520683" lon="15.0798117"><ele>498.0</ele><time>2026-05-03T14:15:03.984Z</time></trkpt><trkpt lat="40.2519717" lon="15.0799283"><ele>501.5</ele><time>2026-05-03T14:15:04.983Z</time></trkpt><trkpt lat="40.25189" lon="15.0800317"><ele>505.0</ele><time>2026-05-03T14:15:05.984Z</time></trkpt><trkpt lat="40.2518117" lon="15.0801317"><ele>505.0</ele><time>2026-05-03T14:15:06.984Z</time></trkpt><trkpt lat="40.2517267" lon="15.0802067"><ele>505.0</ele><time>2026-05-03T14:15:07.985Z</time></trkpt><trkpt lat="40.2516283" lon="15.0802717"><ele>505.0</ele><time>2026-05-03T14:15:08.984Z</time></trkpt><trkpt lat="40.2515267" lon="15.08033"><ele>505.0</ele><time>2026-05-03T14:15:09.985Z</time></trkpt><trkpt lat="40.2514433" lon="15.0804083"><ele>505.0</ele><time>2026-05-03T14:15:10.985Z</time></trkpt><trkpt lat="40.251365" lon="15.080525"><ele>508.6</ele><time>2026-05-03T14:15:11.984Z</time></trkpt><trkpt lat="40.2512933" lon="15.080655"><ele>512.2</ele><time>2026-05-03T14:15:12.984Z</time></trkpt><trkpt lat="40.251225" lon="15.080785"><ele>515.8</ele><time>2026-05-03T14:15:13.982Z</time></trkpt><trkpt lat="40.25117" lon="15.080885"><ele>519.4</ele><time>2026-05-03T14:15:14.983Z</time></trkpt><trkpt lat="40.251125" lon="15.0809517"><ele>523.0</ele><time>2026-05-03T14:15:15.982Z</time></trkpt><trkpt lat="40.25106" lon="15.0808567"><ele>523.1666666666667</ele><time>2026-05-03T14:15:23.985Z</time></trkpt><trkpt lat="40.251075" lon="15.0807633"><ele>523.3333333333334</ele><time>2026-05-03T14:15:24.985Z</time></trkpt><trkpt lat="40.251095" lon="15.080655"><ele>523.5</ele><time>2026-05-03T14:15:25.983Z</time></trkpt><trkpt lat="40.2511167" lon="15.0805417"><ele>523.6666666666666</ele><time>2026-05-03T14:15:26.984Z</time></trkpt><trkpt lat="40.25113" lon="15.0804283"><ele>523.8333333333333</ele><time>2026-05-03T14:15:27.983Z</time></trkpt><trkpt lat="40.251145" lon="15.08031"><ele>524.0</ele><time>2026-05-03T14:15:28.983Z</time></trkpt><trkpt lat="40.2511633" lon="15.0801917"><ele>524.0</ele><time>2026-05-03T14:15:29.983Z</time></trkpt><trkpt lat="40.25118" lon="15.0800867"><ele>524.0</ele><time>2026-05-03T14:15:30.982Z</time></trkpt><trkpt lat="40.2511917" lon="15.0800033"><ele>524.0</ele><time>2026-05-03T14:15:31.983Z</time></trkpt><trkpt lat="40.2511967" lon="15.0799183"><ele>524.0</ele><time>2026-05-03T14:15:33.982Z</time></trkpt><trkpt lat="40.251145" lon="15.0797833"><ele>524.0</ele><time>2026-05-03T14:15:59.983Z</time></trkpt><trkpt lat="40.251135" lon="15.0796917"><ele>524.0</ele><time>2026-05-03T14:16:00.982Z</time></trkpt><trkpt lat="40.2511467" lon="15.0796067"><ele>525.1666666666666</ele><time>2026-05-03T14:16:01.982Z</time></trkpt><trkpt lat="40.251175" lon="15.07953"><ele>526.3333333333333</ele><time>2026-05-03T14:16:02.983Z</time></trkpt><trkpt lat="40.2512383" lon="15.0794883"><ele>527.5</ele><time>2026-05-03T14:16:03.982Z</time></trkpt><trkpt lat="40.2513133" lon="15.0794517"><ele>528.6666666666666</ele><time>2026-05-03T14:16:04.982Z</time></trkpt><trkpt lat="40.2513883" lon="15.0794017"><ele>529.8333333333334</ele><time>2026-05-03T14:16:05.983Z</time></trkpt><trkpt lat="40.2514567" lon="15.07933"><ele>531.0</ele><time>2026-05-03T14:16:06.983Z</time></trkpt><trkpt lat="40.25148" lon="15.0792117"><ele>529.1666666666666</ele><time>2026-05-03T14:16:07.983Z</time></trkpt><trkpt lat="40.25148" lon="15.0790933"><ele>527.3333333333334</ele><time>2026-05-03T14:16:08.983Z</time></trkpt><trkpt lat="40.2514867" lon="15.078985"><ele>525.5</ele><time>2026-05-03T14:16:09.982Z</time></trkpt><trkpt lat="40.2515133" lon="15.078885"><ele>523.6666666666667</ele><time>2026-05-03T14:16:10.982Z</time></trkpt><trkpt lat="40.2515567" lon="15.0788017"><ele>521.8333333333334</ele><time>2026-05-03T14:16:11.985Z</time></trkpt><trkpt lat="40.2516167" lon="15.0787533"><ele>520.0</ele><time>2026-05-03T14:16:12.984Z</time></trkpt><trkpt lat="40.2516983" lon="15.0787483"><ele>520.0</ele><time>2026-05-03T14:16:13.984Z</time></trkpt><trkpt lat="40.251785" lon="15.078755"><ele>520.0</ele><time>2026-05-03T14:16:14.985Z</time></trkpt><trkpt lat="40.251875" lon="15.07875"><ele>520.0</ele><time>2026-05-03T14:16:15.984Z</time></trkpt><trkpt lat="40.251965" lon="15.07874"><ele>520.0</ele><time>2026-05-03T14:16:16.982Z</time></trkpt><trkpt lat="40.2520517" lon="15.0787333"><ele>520.0</ele><time>2026-05-03T14:16:17.983Z</time></trkpt><trkpt lat="40.25214" lon="15.078725"><ele>520.0</ele><time>2026-05-03T14:16:18.982Z</time></trkpt><trkpt lat="40.2522217" lon="15.0787"><ele>516.5</ele><time>2026-05-03T14:16:19.983Z</time></trkpt><trkpt lat="40.2522967" lon="15.0786683"><ele>513.0</ele><time>2026-05-03T14:16:20.983Z</time></trkpt><trkpt lat="40.2523633" lon="15.0786217"><ele>509.5</ele><time>2026-05-03T14:16:21.983Z</time></trkpt><trkpt lat="40.252415" lon="15.0785533"><ele>506.0</ele><time>2026-05-03T14:16:22.982Z</time></trkpt><trkpt lat="40.2524467" lon="15.07845"><ele>502.50000000000006</ele><time>2026-05-03T14:16:23.984Z</time></trkpt><trkpt lat="40.2524567" lon="15.0783167"><ele>499.0</ele><time>2026-05-03T14:16:24.982Z</time></trkpt><trkpt lat="40.25246" lon="15.0781733"><ele>497.79999999999995</ele><time>2026-05-03T14:16:25.983Z</time></trkpt><trkpt lat="40.25246" lon="15.0780383"><ele>496.59999999999997</ele><time>2026-05-03T14:16:26.983Z</time></trkpt><trkpt lat="40.252445" lon="15.07791"><ele>495.4</ele><time>2026-05-03T14:16:27.986Z</time></trkpt><trkpt lat="40.252405" lon="15.0777883"><ele>494.2</ele><time>2026-05-03T14:16:28.982Z</time></trkpt><trkpt lat="40.252345" lon="15.07768"><ele>493.0</ele><time>2026-05-03T14:16:29.982Z</time></trkpt><trkpt lat="40.2522883" lon="15.0775667"><ele>497.4</ele><time>2026-05-03T14:16:30.982Z</time></trkpt><trkpt lat="40.2522417" lon="15.0774317"><ele>501.79999999999995</ele><time>2026-05-03T14:16:31.986Z</time></trkpt><trkpt lat="40.2522167" lon="15.0772933"><ele>506.2</ele><time>2026-05-03T14:16:32.982Z</time></trkpt><trkpt lat="40.25221" lon="15.0771483"><ele>510.6</ele><time>2026-05-03T14:16:33.983Z</time></trkpt><trkpt lat="40.2522017" lon="15.0770067"><ele>515.0</ele><time>2026-05-03T14:16:34.985Z</time></trkpt><trkpt lat="40.2521783" lon="15.0768717"><ele>515.0</ele><time>2026-05-03T14:16:35.983Z</time></trkpt><trkpt lat="40.252135" lon="15.0767567"><ele>515.0</ele><time>2026-05-03T14:16:36.983Z</time></trkpt><trkpt lat="40.2520833" lon="15.076655"><ele>515.0</ele><time>2026-05-03T14:16:37.983Z</time></trkpt><trkpt lat="40.2520117" lon="15.0765667"><ele>515.0</ele><time>2026-05-03T14:16:38.983Z</time></trkpt><trkpt lat="40.2519417" lon="15.076485"><ele>515.0</ele><time>2026-05-03T14:16:39.982Z</time></trkpt><trkpt lat="40.2518833" lon="15.07639"><ele>515.5</ele><time>2026-05-03T14:16:40.982Z</time></trkpt><trkpt lat="40.2518517" lon="15.0762983"><ele>516.0</ele><time>2026-05-03T14:16:41.982Z</time></trkpt><trkpt lat="40.2518483" lon="15.0761917"><ele>516.5</ele><time>2026-05-03T14:16:42.982Z</time></trkpt><trkpt lat="40.2518733" lon="15.0760733"><ele>517.0</ele><time>2026-05-03T14:16:43.983Z</time></trkpt><trkpt lat="40.25192" lon="15.07596"><ele>517.5</ele><time>2026-05-03T14:16:44.983Z</time></trkpt><trkpt lat="40.2519783" lon="15.0758783"><ele>518.0</ele><time>2026-05-03T14:16:45.982Z</time></trkpt><trkpt lat="40.25205" lon="15.0758217"><ele>518.0</ele><time>2026-05-03T14:16:46.983Z</time></trkpt><trkpt lat="40.2521417" lon="15.0757833"><ele>518.0</ele><time>2026-05-03T14:16:47.982Z</time></trkpt><trkpt lat="40.2522567" lon="15.0757633"><ele>518.0</ele><time>2026-05-03T14:16:48.983Z</time></trkpt><trkpt lat="40.2523817" lon="15.0757283"><ele>518.0</ele><time>2026-05-03T14:16:49.982Z</time></trkpt><trkpt lat="40.252505" lon="15.07569"><ele>523.5</ele><time>2026-05-03T14:16:50.985Z</time></trkpt><trkpt lat="40.252635" lon="15.0756633"><ele>529.0</ele><time>2026-05-03T14:16:51.983Z</time></trkpt><trkpt lat="40.2527633" lon="15.0756383"><ele>534.5</ele><time>2026-05-03T14:16:52.983Z</time></trkpt><trkpt lat="40.25289" lon="15.0756117"><ele>540.0</ele><time>2026-05-03T14:16:53.985Z</time></trkpt><trkpt lat="40.2530117" lon="15.0755717"><ele>536.5</ele><time>2026-05-03T14:16:54.984Z</time></trkpt><trkpt lat="40.2531317" lon="15.0755283"><ele>533.0</ele><time>2026-05-03T14:16:55.983Z</time></trkpt><trkpt lat="40.25325" lon="15.0754883"><ele>529.5</ele><time>2026-05-03T14:16:56.983Z</time></trkpt><trkpt lat="40.253365" lon="15.0754517"><ele>526.0</ele><time>2026-05-03T14:16:57.984Z</time></trkpt><trkpt lat="40.2534767" lon="15.075415"><ele>526.0</ele><time>2026-05-03T14:16:58.984Z</time></trkpt><trkpt lat="40.2535867" lon="15.07538"><ele>526.0</ele><time>2026-05-03T14:16:59.985Z</time></trkpt><trkpt lat="40.253695" lon="15.075345"><ele>526.0</ele><time>2026-05-03T14:17:00.984Z</time></trkpt><trkpt lat="40.2538" lon="15.075305"><ele>526.0</ele><time>2026-05-03T14:17:01.985Z</time></trkpt><trkpt lat="40.2539" lon="15.0752783"><ele>526.0</ele><time>2026-05-03T14:17:02.985Z</time></trkpt><trkpt lat="40.2540067" lon="15.0752417"><ele>525.2</ele><time>2026-05-03T14:17:03.985Z</time></trkpt><trkpt lat="40.2541167" lon="15.075205"><ele>524.4000000000001</ele><time>2026-05-03T14:17:04.984Z</time></trkpt><trkpt lat="40.2542217" lon="15.075175"><ele>523.6</ele><time>2026-05-03T14:17:05.985Z</time></trkpt><trkpt lat="40.2543283" lon="15.0751533"><ele>522.8000000000001</ele><time>2026-05-03T14:17:06.984Z</time></trkpt><trkpt lat="40.2544417" lon="15.0751383"><ele>522.0</ele><time>2026-05-03T14:17:07.982Z</time></trkpt><trkpt lat="40.2545583" lon="15.0751233"><ele>522.0</ele><time>2026-05-03T14:17:08.983Z</time></trkpt><trkpt lat="40.2546817" lon="15.0751167"><ele>522.0</ele><time>2026-05-03T14:17:09.983Z</time></trkpt><trkpt lat="40.254815" lon="15.0750933"><ele>522.0</ele><time>2026-05-03T14:17:10.983Z</time></trkpt><trkpt lat="40.254955" lon="15.0750583"><ele>522.0</ele><time>2026-05-03T14:17:11.986Z</time></trkpt><trkpt lat="40.2551033" lon="15.0750167"><ele>518.3333333333334</ele><time>2026-05-03T14:17:12.984Z</time></trkpt><trkpt lat="40.25526" lon="15.0749733"><ele>514.6666666666667</ele><time>2026-05-03T14:17:13.982Z</time></trkpt><trkpt lat="40.25542" lon="15.0749367"><ele>511.0</ele><time>2026-05-03T14:17:14.982Z</time></trkpt><trkpt lat="40.2555783" lon="15.074905"><ele>524.3333333333334</ele><time>2026-05-03T14:17:15.983Z</time></trkpt><trkpt lat="40.25574" lon="15.0748933"><ele>537.6666666666666</ele><time>2026-05-03T14:17:16.982Z</time></trkpt><trkpt lat="40.2558933" lon="15.0749033"><ele>551.0</ele><time>2026-05-03T14:17:17.982Z</time></trkpt><trkpt lat="40.25604" lon="15.0749217"><ele>542.5</ele><time>2026-05-03T14:17:18.982Z</time></trkpt><trkpt lat="40.2561817" lon="15.0749483"><ele>534.0</ele><time>2026-05-03T14:17:19.982Z</time></trkpt><trkpt lat="40.2563217" lon="15.074975"><ele>525.5</ele><time>2026-05-03T14:17:20.983Z</time></trkpt><trkpt lat="40.256455" lon="15.0749967"><ele>517.0</ele><time>2026-05-03T14:17:21.985Z</time></trkpt><trkpt lat="40.2565783" lon="15.0750017"><ele>517.0</ele><time>2026-05-03T14:17:22.983Z</time></trkpt><trkpt lat="40.2566917" lon="15.0749933"><ele>517.0</ele><time>2026-05-03T14:17:23.983Z</time></trkpt><trkpt lat="40.2567983" lon="15.07498"><ele>517.0</ele><time>2026-05-03T14:17:24.982Z</time></trkpt><trkpt lat="40.2568933" lon="15.0749567"><ele>517.0</ele><time>2026-05-03T14:17:25.983Z</time></trkpt><trkpt lat="40.2569817" lon="15.07492"><ele>517.0</ele><time>2026-05-03T14:17:26.984Z</time></trkpt><trkpt lat="40.25707" lon="15.0748783"><ele>522.4</ele><time>2026-05-03T14:17:27.983Z</time></trkpt><trkpt lat="40.2571517" lon="15.0748517"><ele>527.8000000000001</ele><time>2026-05-03T14:17:28.984Z</time></trkpt><trkpt lat="40.2572417" lon="15.07485"><ele>533.2</ele><time>2026-05-03T14:17:29.987Z</time></trkpt><trkpt lat="40.2573333" lon="15.0748733"><ele>538.6</ele><time>2026-05-03T14:17:30.983Z</time></trkpt><trkpt lat="40.2574267" lon="15.0749017"><ele>544.0</ele><time>2026-05-03T14:17:31.983Z</time></trkpt><trkpt lat="40.2575167" lon="15.074925"><ele>538.6</ele><time>2026-05-03T14:17:32.984Z</time></trkpt><trkpt lat="40.2576083" lon="15.07495"><ele>533.2</ele><time>2026-05-03T14:17:33.982Z</time></trkpt><trkpt lat="40.2577" lon="15.07497"><ele>527.8000000000001</ele><time>2026-05-03T14:17:34.983Z</time></trkpt><trkpt lat="40.2577967" lon="15.0749733"><ele>522.4</ele><time>2026-05-03T14:17:35.983Z</time></trkpt><trkpt lat="40.2578967" lon="15.0749683"><ele>517.0</ele><time>2026-05-03T14:17:36.983Z</time></trkpt><trkpt lat="40.257995" lon="15.07496"><ele>517.0</ele><time>2026-05-03T14:17:37.982Z</time></trkpt><trkpt lat="40.25809" lon="15.074945"><ele>517.0</ele><time>2026-05-03T14:17:38.984Z</time></trkpt><trkpt lat="40.2581833" lon="15.0749267"><ele>517.0</ele><time>2026-05-03T14:17:39.982Z</time></trkpt><trkpt lat="40.25828" lon="15.0749117"><ele>517.0</ele><time>2026-05-03T14:17:40.984Z</time></trkpt><trkpt lat="40.2583783" lon="15.074905"><ele>517.0</ele><time>2026-05-03T14:17:41.982Z</time></trkpt><trkpt lat="40.25847" lon="15.074895"><ele>518.3333333333334</ele><time>2026-05-03T14:17:42.982Z</time></trkpt><trkpt lat="40.2585633" lon="15.0749067"><ele>519.6666666666667</ele><time>2026-05-03T14:17:43.982Z</time></trkpt><trkpt lat="40.25865" lon="15.0749133"><ele>521.0</ele><time>2026-05-03T14:17:44.984Z</time></trkpt><trkpt lat="40.2587383" lon="15.0749483"><ele>522.3333333333334</ele><time>2026-05-03T14:17:45.982Z</time></trkpt><trkpt lat="40.2588083" lon="15.0749817"><ele>523.6666666666666</ele><time>2026-05-03T14:17:46.984Z</time></trkpt><trkpt lat="40.2588717" lon="15.07501"><ele>525.0</ele><time>2026-05-03T14:17:47.983Z</time></trkpt><trkpt lat="40.2589383" lon="15.0750567"><ele>526.1666666666666</ele><time>2026-05-03T14:17:48.982Z</time></trkpt><trkpt lat="40.2590267" lon="15.075155"><ele>527.3333333333334</ele><time>2026-05-03T14:17:50.985Z</time></trkpt><trkpt lat="40.2590717" lon="15.0752383"><ele>528.5</ele><time>2026-05-03T14:17:52.984Z</time></trkpt><trkpt lat="40.259105" lon="15.0753367"><ele>529.6666666666667</ele><time>2026-05-03T14:17:54.984Z</time></trkpt><trkpt lat="40.2591283" lon="15.0754183"><ele>530.8333333333334</ele><time>2026-05-03T14:17:55.985Z</time></trkpt><trkpt lat="40.25916" lon="15.0754933"><ele>532.0</ele><time>2026-05-03T14:17:56.986Z</time></trkpt><trkpt lat="40.2591933" lon="15.075565"><ele>532.0</ele><time>2026-05-03T14:17:57.984Z</time></trkpt><trkpt lat="40.2592283" lon="15.0756417"><ele>532.0</ele><time>2026-05-03T14:17:58.983Z</time></trkpt><trkpt lat="40.25926" lon="15.0757167"><ele>532.0</ele><time>2026-05-03T14:17:59.984Z</time></trkpt><trkpt lat="40.2593467" lon="15.0758283"><ele>532.0</ele><time>2026-05-03T14:18:01.984Z</time></trkpt><trkpt lat="40.25947" lon="15.0758717"><ele>532.0</ele><time>2026-05-03T14:18:03.984Z</time></trkpt><trkpt lat="40.2595333" lon="15.075855"><ele>532.0</ele><time>2026-05-03T14:18:04.984Z</time></trkpt><trkpt lat="40.2595867" lon="15.0757967"><ele>532.0</ele><time>2026-05-03T14:18:05.985Z</time></trkpt><trkpt lat="40.25964" lon="15.0757267"><ele>532.0</ele><time>2026-05-03T14:18:06.984Z</time></trkpt><trkpt lat="40.2597033" lon="15.075655"><ele>532.0</ele><time>2026-05-03T14:18:07.984Z</time></trkpt><trkpt lat="40.25976" lon="15.07557"><ele>532.0</ele><time>2026-05-03T14:18:08.985Z</time></trkpt><trkpt lat="40.259825" lon="15.0754983"><ele>532.0</ele><time>2026-05-03T14:18:09.984Z</time></trkpt><trkpt lat="40.2598967" lon="15.075435"><ele>532.0</ele><time>2026-05-03T14:18:10.983Z</time></trkpt><trkpt lat="40.2599667" lon="15.0753767"><ele>531.3333333333334</ele><time>2026-05-03T14:18:11.985Z</time></trkpt><trkpt lat="40.2600317" lon="15.0753167"><ele>530.6666666666667</ele><time>2026-05-03T14:18:12.988Z</time></trkpt><trkpt lat="40.260095" lon="15.07526"><ele>530.0</ele><time>2026-05-03T14:18:13.985Z</time></trkpt><trkpt lat="40.2601567" lon="15.0752017"><ele>529.3333333333334</ele><time>2026-05-03T14:18:14.985Z</time></trkpt><trkpt lat="40.2602067" lon="15.0751283"><ele>528.6666666666666</ele><time>2026-05-03T14:18:15.984Z</time></trkpt><trkpt lat="40.2602633" lon="15.0750483"><ele>528.0</ele><time>2026-05-03T14:18:16.984Z</time></trkpt><trkpt lat="40.260305" lon="15.0749567"><ele>529.6</ele><time>2026-05-03T14:18:17.984Z</time></trkpt><trkpt lat="40.2603317" lon="15.0748517"><ele>531.1999999999999</ele><time>2026-05-03T14:18:18.984Z</time></trkpt><trkpt lat="40.2603417" lon="15.0747283"><ele>532.8</ele><time>2026-05-03T14:18:19.985Z</time></trkpt><trkpt lat="40.2603367" lon="15.0745967"><ele>534.4</ele><time>2026-05-03T14:18:20.986Z</time></trkpt><trkpt lat="40.2603183" lon="15.0744733"><ele>536.0</ele><time>2026-05-03T14:18:21.985Z</time></trkpt><trkpt lat="40.2602967" lon="15.07435"><ele>536.0</ele><time>2026-05-03T14:18:22.985Z</time></trkpt><trkpt lat="40.260275" lon="15.0742283"><ele>536.0</ele><time>2026-05-03T14:18:23.984Z</time></trkpt><trkpt lat="40.2602633" lon="15.07411"><ele>536.0</ele><time>2026-05-03T14:18:24.984Z</time></trkpt><trkpt lat="40.2602617" lon="15.0739933"><ele>536.0</ele><time>2026-05-03T14:18:25.985Z</time></trkpt><trkpt lat="40.2602767" lon="15.0738767"><ele>536.0</ele><time>2026-05-03T14:18:26.983Z</time></trkpt><trkpt lat="40.260315" lon="15.07377"><ele>533.8</ele><time>2026-05-03T14:18:27.982Z</time></trkpt><trkpt lat="40.2603733" lon="15.073665"><ele>531.6</ele><time>2026-05-03T14:18:28.982Z</time></trkpt><trkpt lat="40.26044" lon="15.0735733"><ele>529.4</ele><time>2026-05-03T14:18:29.982Z</time></trkpt><trkpt lat="40.26051" lon="15.07349"><ele>527.2</ele><time>2026-05-03T14:18:30.982Z</time></trkpt><trkpt lat="40.26058" lon="15.0734067"><ele>525.0</ele><time>2026-05-03T14:18:31.983Z</time></trkpt><trkpt lat="40.260645" lon="15.0733167"><ele>525.8333333333334</ele><time>2026-05-03T14:18:32.984Z</time></trkpt><trkpt lat="40.2607" lon="15.0732283"><ele>526.6666666666666</ele><time>2026-05-03T14:18:33.985Z</time></trkpt><trkpt lat="40.2607483" lon="15.07314"><ele>527.5</ele><time>2026-05-03T14:18:34.983Z</time></trkpt><trkpt lat="40.2607783" lon="15.073045"><ele>528.3333333333333</ele><time>2026-05-03T14:18:35.983Z</time></trkpt><trkpt lat="40.260795" lon="15.07295"><ele>529.1666666666666</ele><time>2026-05-03T14:18:36.982Z</time></trkpt><trkpt lat="40.260785" lon="15.0728517"><ele>530.0</ele><time>2026-05-03T14:18:37.984Z</time></trkpt><trkpt lat="40.260745" lon="15.0727467"><ele>530.0</ele><time>2026-05-03T14:18:38.983Z</time></trkpt><trkpt lat="40.2606767" lon="15.0726367"><ele>530.0</ele><time>2026-05-03T14:18:39.983Z</time></trkpt><trkpt lat="40.2606217" lon="15.0725083"><ele>530.0</ele><time>2026-05-03T14:18:40.982Z</time></trkpt><trkpt lat="40.2605883" lon="15.0723817"><ele>530.0</ele><time>2026-05-03T14:18:41.983Z</time></trkpt><trkpt lat="40.26058" lon="15.07227"><ele>530.0</ele><time>2026-05-03T14:18:42.982Z</time></trkpt><trkpt lat="40.2605933" lon="15.07217"><ele>532.75</ele><time>2026-05-03T14:18:43.983Z</time></trkpt><trkpt lat="40.2606183" lon="15.0720717"><ele>535.5</ele><time>2026-05-03T14:18:44.984Z</time></trkpt><trkpt lat="40.2606567" lon="15.0719483"><ele>538.25</ele><time>2026-05-03T14:18:45.982Z</time></trkpt><trkpt lat="40.2607333" lon="15.0717833"><ele>541.0</ele><time>2026-05-03T14:18:46.984Z</time></trkpt><trkpt lat="40.2608333" lon="15.07162"><ele>549.0</ele><time>2026-05-03T14:18:47.983Z</time></trkpt><trkpt lat="40.2609283" lon="15.071455"><ele>557.0</ele><time>2026-05-03T14:18:48.983Z</time></trkpt><trkpt lat="40.2610233" lon="15.0713017"><ele>565.0</ele><time>2026-05-03T14:18:49.983Z</time></trkpt><trkpt lat="40.26111" lon="15.0711517"><ele>565.0</ele><time>2026-05-03T14:18:50.983Z</time></trkpt><trkpt lat="40.2611733" lon="15.07099"><ele>565.0</ele><time>2026-05-03T14:18:51.983Z</time></trkpt><trkpt lat="40.2612217" lon="15.0708217"><ele>565.0</ele><time>2026-05-03T14:18:52.982Z</time></trkpt><trkpt lat="40.2612783" lon="15.0706533"><ele>565.0</ele><time>2026-05-03T14:18:53.984Z</time></trkpt><trkpt lat="40.26134" lon="15.0704767"><ele>562.75</ele><time>2026-05-03T14:18:54.982Z</time></trkpt><trkpt lat="40.26141" lon="15.0703067"><ele>560.5</ele><time>2026-05-03T14:18:55.983Z</time></trkpt><trkpt lat="40.2614867" lon="15.07016"><ele>558.25</ele><time>2026-05-03T14:18:56.983Z</time></trkpt><trkpt lat="40.261565" lon="15.0700333"><ele>556.0</ele><time>2026-05-03T14:18:57.983Z</time></trkpt><trkpt lat="40.2616333" lon="15.0699083"><ele>556.0</ele><time>2026-05-03T14:18:58.982Z</time></trkpt><trkpt lat="40.2616883" lon="15.0697733"><ele>556.0</ele><time>2026-05-03T14:18:59.983Z</time></trkpt><trkpt lat="40.2617317" lon="15.0696217"><ele>556.0</ele><time>2026-05-03T14:19:00.983Z</time></trkpt><trkpt lat="40.26177" lon="15.069455"><ele>556.0</ele><time>2026-05-03T14:19:01.983Z</time></trkpt><trkpt lat="40.2617983" lon="15.0692717"><ele>560.0</ele><time>2026-05-03T14:19:02.983Z</time></trkpt><trkpt lat="40.261835" lon="15.069075"><ele>564.0</ele><time>2026-05-03T14:19:03.982Z</time></trkpt><trkpt lat="40.2618833" lon="15.0688833"><ele>568.0</ele><time>2026-05-03T14:19:04.982Z</time></trkpt><trkpt lat="40.26194" lon="15.0687117"><ele>568.0</ele><time>2026-05-03T14:19:05.982Z</time></trkpt><trkpt lat="40.2620133" lon="15.0685683"><ele>568.0</ele><time>2026-05-03T14:19:06.983Z</time></trkpt><trkpt lat="40.262105" lon="15.0684467"><ele>568.0</ele><time>2026-05-03T14:19:07.985Z</time></trkpt><trkpt lat="40.262195" lon="15.0683333"><ele>568.0</ele><time>2026-05-03T14:19:08.984Z</time></trkpt><trkpt lat="40.2622667" lon="15.0682183"><ele>563.25</ele><time>2026-05-03T14:19:09.983Z</time></trkpt><trkpt lat="40.2623167" lon="15.0680917"><ele>558.5</ele><time>2026-05-03T14:19:10.984Z</time></trkpt><trkpt lat="40.2623383" lon="15.0679417"><ele>553.75</ele><time>2026-05-03T14:19:11.984Z</time></trkpt><trkpt lat="40.26233" lon="15.0677667"><ele>549.0</ele><time>2026-05-03T14:19:12.984Z</time></trkpt><trkpt lat="40.2623" lon="15.0675683"><ele>551.3333333333334</ele><time>2026-05-03T14:19:13.985Z</time></trkpt><trkpt lat="40.2622717" lon="15.067365"><ele>553.6666666666667</ele><time>2026-05-03T14:19:14.982Z</time></trkpt><trkpt lat="40.2622617" lon="15.06715"><ele>556.0</ele><time>2026-05-03T14:19:15.982Z</time></trkpt><trkpt lat="40.26229" lon="15.0669267"><ele>556.0</ele><time>2026-05-03T14:19:16.982Z</time></trkpt><trkpt lat="40.262335" lon="15.0666933"><ele>556.0</ele><time>2026-05-03T14:19:17.982Z</time></trkpt><trkpt lat="40.262385" lon="15.066465"><ele>556.0</ele><time>2026-05-03T14:19:18.982Z</time></trkpt><trkpt lat="40.2624383" lon="15.0662483"><ele>559.0</ele><time>2026-05-03T14:19:19.983Z</time></trkpt><trkpt lat="40.2624883" lon="15.066035"><ele>562.0</ele><time>2026-05-03T14:19:20.984Z</time></trkpt><trkpt lat="40.2625317" lon="15.0658233"><ele>565.0</ele><time>2026-05-03T14:19:21.982Z</time></trkpt><trkpt lat="40.2625717" lon="15.06563"><ele>567.25</ele><time>2026-05-03T14:19:22.984Z</time></trkpt><trkpt lat="40.262605" lon="15.06545"><ele>569.5</ele><time>2026-05-03T14:19:23.983Z</time></trkpt><trkpt lat="40.2626233" lon="15.0652817"><ele>571.75</ele><time>2026-05-03T14:19:24.983Z</time></trkpt><trkpt lat="40.2626317" lon="15.0651233"><ele>574.0</ele><time>2026-05-03T14:19:25.983Z</time></trkpt><trkpt lat="40.2626267" lon="15.0649783"><ele>573.5</ele><time>2026-05-03T14:19:26.983Z</time></trkpt><trkpt lat="40.2626083" lon="15.0648383"><ele>573.0</ele><time>2026-05-03T14:19:27.984Z</time></trkpt><trkpt lat="40.262575" lon="15.0647"><ele>572.5</ele><time>2026-05-03T14:19:28.983Z</time></trkpt><trkpt lat="40.2625433" lon="15.0645417"><ele>572.0</ele><time>2026-05-03T14:19:29.983Z</time></trkpt><trkpt lat="40.262525" lon="15.064375"><ele>572.0</ele><time>2026-05-03T14:19:30.982Z</time></trkpt><trkpt lat="40.2625067" lon="15.064215"><ele>572.0</ele><time>2026-05-03T14:19:31.984Z</time></trkpt><trkpt lat="40.26249" lon="15.06406"><ele>572.0</ele><time>2026-05-03T14:19:32.983Z</time></trkpt><trkpt lat="40.262475" lon="15.0638967"><ele>572.0</ele><time>2026-05-03T14:19:33.982Z</time></trkpt><trkpt lat="40.2624517" lon="15.063735"><ele>573.25</ele><time>2026-05-03T14:19:34.982Z</time></trkpt><trkpt lat="40.2624083" lon="15.0635867"><ele>574.5</ele><time>2026-05-03T14:19:35.982Z</time></trkpt><trkpt lat="40.2623517" lon="15.0634467"><ele>575.75</ele><time>2026-05-03T14:19:36.982Z</time></trkpt><trkpt lat="40.2622767" lon="15.0633217"><ele>577.0</ele><time>2026-05-03T14:19:37.983Z</time></trkpt><trkpt lat="40.2621883" lon="15.0632067"><ele>577.0</ele><time>2026-05-03T14:19:38.983Z</time></trkpt><trkpt lat="40.262095" lon="15.0631133"><ele>577.0</ele><time>2026-05-03T14:19:39.983Z</time></trkpt><trkpt lat="40.261995" lon="15.0630333"><ele>577.0</ele><time>2026-05-03T14:19:40.982Z</time></trkpt><trkpt lat="40.2619" lon="15.06296"><ele>577.0</ele><time>2026-05-03T14:19:41.985Z</time></trkpt><trkpt lat="40.2618167" lon="15.0628883"><ele>577.0</ele><time>2026-05-03T14:19:42.984Z</time></trkpt><trkpt lat="40.2617517" lon="15.0628183"><ele>577.0</ele><time>2026-05-03T14:19:43.986Z</time></trkpt><trkpt lat="40.2617017" lon="15.0627383"><ele>577.0</ele><time>2026-05-03T14:19:44.984Z</time></trkpt><trkpt lat="40.2616833" lon="15.0626517"><ele>577.0</ele><time>2026-05-03T14:19:45.983Z</time></trkpt><trkpt lat="40.2617183" lon="15.0625017"><ele>577.0</ele><time>2026-05-03T14:19:47.983Z</time></trkpt><trkpt lat="40.2617717" lon="15.0624333"><ele>577.0</ele><time>2026-05-03T14:19:48.983Z</time></trkpt><trkpt lat="40.26187" lon="15.06239"><ele>577.0</ele><time>2026-05-03T14:19:49.984Z</time></trkpt><trkpt lat="40.2620017" lon="15.0623633"><ele>578.25</ele><time>2026-05-03T14:19:50.984Z</time></trkpt><trkpt lat="40.2621383" lon="15.062335"><ele>579.5</ele><time>2026-05-03T14:19:51.983Z</time></trkpt><trkpt lat="40.2622633" lon="15.0623017"><ele>580.75</ele><time>2026-05-03T14:19:52.982Z</time></trkpt><trkpt lat="40.26238" lon="15.0622617"><ele>582.0</ele><time>2026-05-03T14:19:53.982Z</time></trkpt><trkpt lat="40.26249" lon="15.06222"><ele>582.0</ele><time>2026-05-03T14:19:54.982Z</time></trkpt><trkpt lat="40.262595" lon="15.06216"><ele>582.0</ele><time>2026-05-03T14:19:55.984Z</time></trkpt><trkpt lat="40.2626867" lon="15.0620617"><ele>582.0</ele><time>2026-05-03T14:19:56.984Z</time></trkpt><trkpt lat="40.2627767" lon="15.0619517"><ele>582.0</ele><time>2026-05-03T14:19:57.983Z</time></trkpt><trkpt lat="40.262865" lon="15.0618533"><ele>582.0</ele><time>2026-05-03T14:19:58.982Z</time></trkpt><trkpt lat="40.2629617" lon="15.061775"><ele>582.0</ele><time>2026-05-03T14:19:59.982Z</time></trkpt><trkpt lat="40.2630617" lon="15.06171"><ele>582.0</ele><time>2026-05-03T14:20:00.983Z</time></trkpt><trkpt lat="40.2631583" lon="15.0616533"><ele>582.0</ele><time>2026-05-03T14:20:01.984Z</time></trkpt><trkpt lat="40.26325" lon="15.0616017"><ele>582.0</ele><time>2026-05-03T14:20:02.984Z</time></trkpt><trkpt lat="40.263325" lon="15.0615433"><ele>580.3333333333334</ele><time>2026-05-03T14:20:03.983Z</time></trkpt><trkpt lat="40.2633917" lon="15.06148"><ele>578.6666666666666</ele><time>2026-05-03T14:20:04.984Z</time></trkpt><trkpt lat="40.26345" lon="15.061415"><ele>577.0</ele><time>2026-05-03T14:20:05.983Z</time></trkpt><trkpt lat="40.2635" lon="15.0613517"><ele>575.3333333333333</ele><time>2026-05-03T14:20:06.983Z</time></trkpt><trkpt lat="40.2635817" lon="15.06124"><ele>573.6666666666666</ele><time>2026-05-03T14:20:08.983Z</time></trkpt><trkpt lat="40.2636483" lon="15.0611417"><ele>572.0</ele><time>2026-05-03T14:20:10.983Z</time></trkpt><trkpt lat="40.2637067" lon="15.06105"><ele>572.0</ele><time>2026-05-03T14:20:12.983Z</time></trkpt><trkpt lat="40.2637683" lon="15.0609683"><ele>572.0</ele><time>2026-05-03T14:20:14.983Z</time></trkpt><trkpt lat="40.2638267" lon="15.0608783"><ele>572.0</ele><time>2026-05-03T14:20:16.983Z</time></trkpt><trkpt lat="40.2638817" lon="15.060785"><ele>572.0</ele><time>2026-05-03T14:20:18.984Z</time></trkpt><trkpt lat="40.2639483" lon="15.0606867"><ele>572.0</ele><time>2026-05-03T14:20:20.983Z</time></trkpt><trkpt lat="40.2640333" lon="15.060595"><ele>570.3333333333333</ele><time>2026-05-03T14:20:22.984Z</time></trkpt><trkpt lat="40.2641067" lon="15.0604667"><ele>568.6666666666666</ele><time>2026-05-03T14:20:24.984Z</time></trkpt><trkpt lat="40.2641683" lon="15.06033"><ele>567.0</ele><time>2026-05-03T14:20:26.983Z</time></trkpt><trkpt lat="40.2641983" lon="15.0602533"><ele>565.3333333333334</ele><time>2026-05-03T14:20:27.982Z</time></trkpt><trkpt lat="40.2642283" lon="15.0601767"><ele>563.6666666666667</ele><time>2026-05-03T14:20:28.982Z</time></trkpt><trkpt lat="40.2642667" lon="15.060105"><ele>562.0</ele><time>2026-05-03T14:20:29.983Z</time></trkpt><trkpt lat="40.2643083" lon="15.060035"><ele>562.0000000000001</ele><time>2026-05-03T14:20:30.983Z</time></trkpt><trkpt lat="40.2643567" lon="15.0599667"><ele>562.0</ele><time>2026-05-03T14:20:31.983Z</time></trkpt><trkpt lat="40.26441" lon="15.0599033"><ele>562.0</ele><time>2026-05-03T14:20:32.983Z</time></trkpt><trkpt lat="40.2644667" lon="15.05984"><ele>562.0</ele><time>2026-05-03T14:20:33.982Z</time></trkpt><trkpt lat="40.2645083" lon="15.0597717"><ele>562.0</ele><time>2026-05-03T14:20:34.983Z</time></trkpt><trkpt lat="40.2645433" lon="15.059695"><ele>562.0000000000001</ele><time>2026-05-03T14:20:35.984Z</time></trkpt><trkpt lat="40.264565" lon="15.059615"><ele>562.0</ele><time>2026-05-03T14:20:36.983Z</time></trkpt><trkpt lat="40.2645983" lon="15.059485"><ele>562.8000000000001</ele><time>2026-05-03T14:20:38.983Z</time></trkpt><trkpt lat="40.2646317" lon="15.0593667"><ele>563.6</ele><time>2026-05-03T14:20:40.983Z</time></trkpt><trkpt lat="40.2646567" lon="15.059205"><ele>564.4000000000001</ele><time>2026-05-03T14:20:42.983Z</time></trkpt><trkpt lat="40.2646733" lon="15.0591083"><ele>565.2</ele><time>2026-05-03T14:20:43.983Z</time></trkpt><trkpt lat="40.2646917" lon="15.0590017"><ele>566.0</ele><time>2026-05-03T14:20:44.985Z</time></trkpt><trkpt lat="40.2647083" lon="15.0588917"><ele>564.8</ele><time>2026-05-03T14:20:45.983Z</time></trkpt><trkpt lat="40.2647283" lon="15.0587817"><ele>563.6</ele><time>2026-05-03T14:20:46.984Z</time></trkpt><trkpt lat="40.26477" lon="15.058685"><ele>562.4</ele><time>2026-05-03T14:20:47.983Z</time></trkpt><trkpt lat="40.2648667" lon="15.0586083"><ele>561.2</ele><time>2026-05-03T14:20:48.982Z</time></trkpt><trkpt lat="40.2649867" lon="15.0585333"><ele>560.0</ele><time>2026-05-03T14:20:49.984Z</time></trkpt><trkpt lat="40.265115" lon="15.058455"><ele>560.0</ele><time>2026-05-03T14:20:50.983Z</time></trkpt><trkpt lat="40.26525" lon="15.05837"><ele>560.0</ele><time>2026-05-03T14:20:51.982Z</time></trkpt><trkpt lat="40.2653883" lon="15.058275"><ele>560.0</ele><time>2026-05-03T14:20:52.983Z</time></trkpt><trkpt lat="40.2655333" lon="15.05818"><ele>567.0</ele><time>2026-05-03T14:20:53.983Z</time></trkpt><trkpt lat="40.2656733" lon="15.0580917"><ele>574.0</ele><time>2026-05-03T14:20:54.983Z</time></trkpt><trkpt lat="40.26581" lon="15.05801"><ele>581.0</ele><time>2026-05-03T14:20:55.982Z</time></trkpt><trkpt lat="40.2659517" lon="15.0579467"><ele>581.0</ele><time>2026-05-03T14:20:56.983Z</time></trkpt><trkpt lat="40.266095" lon="15.0578883"><ele>581.0</ele><time>2026-05-03T14:20:57.982Z</time></trkpt><trkpt lat="40.2662467" lon="15.0578317"><ele>581.0</ele><time>2026-05-03T14:20:58.983Z</time></trkpt><trkpt lat="40.2663967" lon="15.0577817"><ele>578.3333333333333</ele><time>2026-05-03T14:20:59.983Z</time></trkpt><trkpt lat="40.2665483" lon="15.05774"><ele>575.6666666666666</ele><time>2026-05-03T14:21:00.983Z</time></trkpt><trkpt lat="40.266695" lon="15.057695"><ele>573.0</ele><time>2026-05-03T14:21:01.983Z</time></trkpt><trkpt lat="40.26684" lon="15.057655"><ele>573.0</ele><time>2026-05-03T14:21:02.983Z</time></trkpt><trkpt lat="40.2669683" lon="15.0576367"><ele>573.0</ele><time>2026-05-03T14:21:03.984Z</time></trkpt><trkpt lat="40.26709" lon="15.0576217"><ele>573.0</ele><time>2026-05-03T14:21:04.983Z</time></trkpt><trkpt lat="40.2672167" lon="15.0575967"><ele>573.0</ele><time>2026-05-03T14:21:05.984Z</time></trkpt><trkpt lat="40.267345" lon="15.0575483"><ele>571.75</ele><time>2026-05-03T14:21:06.983Z</time></trkpt><trkpt lat="40.26748" lon="15.057475"><ele>570.5</ele><time>2026-05-03T14:21:07.983Z</time></trkpt><trkpt lat="40.2676167" lon="15.0574067"><ele>569.25</ele><time>2026-05-03T14:21:08.983Z</time></trkpt><trkpt lat="40.267745" lon="15.0573417"><ele>568.0</ele><time>2026-05-03T14:21:09.982Z</time></trkpt><trkpt lat="40.2678683" lon="15.0572833"><ele>570.0</ele><time>2026-05-03T14:21:10.983Z</time></trkpt><trkpt lat="40.2679817" lon="15.0572133"><ele>572.0</ele><time>2026-05-03T14:21:11.983Z</time></trkpt><trkpt lat="40.2680933" lon="15.0571083"><ele>574.0</ele><time>2026-05-03T14:21:12.983Z</time></trkpt><trkpt lat="40.2682" lon="15.0569717"><ele>576.0</ele><time>2026-05-03T14:21:13.983Z</time></trkpt><trkpt lat="40.268305" lon="15.0568167"><ele>576.0</ele><time>2026-05-03T14:21:14.983Z</time></trkpt><trkpt lat="40.2684133" lon="15.0566617"><ele>576.0</ele><time>2026-05-03T14:21:15.983Z</time></trkpt><trkpt lat="40.268525" lon="15.056505"><ele>576.0</ele><time>2026-05-03T14:21:16.983Z</time></trkpt><trkpt lat="40.2686317" lon="15.0563283"><ele>585.0</ele><time>2026-05-03T14:21:17.983Z</time></trkpt><trkpt lat="40.2687333" lon="15.0561417"><ele>594.0</ele><time>2026-05-03T14:21:18.982Z</time></trkpt><trkpt lat="40.2688283" lon="15.0559533"><ele>603.0</ele><time>2026-05-03T14:21:19.983Z</time></trkpt><trkpt lat="40.2689083" lon="15.05577"><ele>597.0</ele><time>2026-05-03T14:21:20.983Z</time></trkpt><trkpt lat="40.2689783" lon="15.0556017"><ele>591.0</ele><time>2026-05-03T14:21:21.983Z</time></trkpt><trkpt lat="40.269025" lon="15.0554417"><ele>585.0</ele><time>2026-05-03T14:21:22.983Z</time></trkpt><trkpt lat="40.26905" lon="15.055295"><ele>579.0</ele><time>2026-05-03T14:21:23.983Z</time></trkpt><trkpt lat="40.2690533" lon="15.0551417"><ele>579.0</ele><time>2026-05-03T14:21:24.983Z</time></trkpt><trkpt lat="40.2690417" lon="15.054985"><ele>579.0</ele><time>2026-05-03T14:21:25.983Z</time></trkpt><trkpt lat="40.2690417" lon="15.0548433"><ele>579.0</ele><time>2026-05-03T14:21:26.983Z</time></trkpt><trkpt lat="40.2690567" lon="15.0547083"><ele>579.0</ele><time>2026-05-03T14:21:27.984Z</time></trkpt><trkpt lat="40.2691067" lon="15.0545683"><ele>581.5</ele><time>2026-05-03T14:21:28.986Z</time></trkpt><trkpt lat="40.2691833" lon="15.0544217"><ele>584.0</ele><time>2026-05-03T14:21:29.984Z</time></trkpt><trkpt lat="40.26926" lon="15.054265"><ele>586.5</ele><time>2026-05-03T14:21:30.983Z</time></trkpt><trkpt lat="40.2693233" lon="15.0541183"><ele>589.0</ele><time>2026-05-03T14:21:31.983Z</time></trkpt><trkpt lat="40.2693617" lon="15.0539483"><ele>591.75</ele><time>2026-05-03T14:21:32.983Z</time></trkpt><trkpt lat="40.2693783" lon="15.0537617"><ele>594.5</ele><time>2026-05-03T14:21:33.982Z</time></trkpt><trkpt lat="40.2693983" lon="15.0535767"><ele>597.25</ele><time>2026-05-03T14:21:34.983Z</time></trkpt><trkpt lat="40.2694233" lon="15.0533917"><ele>600.0</ele><time>2026-05-03T14:21:35.984Z</time></trkpt><trkpt lat="40.2694317" lon="15.05321"><ele>600.0</ele><time>2026-05-03T14:21:36.984Z</time></trkpt><trkpt lat="40.2694183" lon="15.0530283"><ele>600.0</ele><time>2026-05-03T14:21:37.983Z</time></trkpt><trkpt lat="40.2693833" lon="15.0528667"><ele>600.0</ele><time>2026-05-03T14:21:38.984Z</time></trkpt><trkpt lat="40.269345" lon="15.052715"><ele>600.0</ele><time>2026-05-03T14:21:39.983Z</time></trkpt><trkpt lat="40.2693083" lon="15.0525733"><ele>603.75</ele><time>2026-05-03T14:21:40.983Z</time></trkpt><trkpt lat="40.269295" lon="15.0524417"><ele>607.5</ele><time>2026-05-03T14:21:41.988Z</time></trkpt><trkpt lat="40.269315" lon="15.052305"><ele>611.25</ele><time>2026-05-03T14:21:42.982Z</time></trkpt><trkpt lat="40.2693733" lon="15.0521617"><ele>615.0</ele><time>2026-05-03T14:21:43.984Z</time></trkpt><trkpt lat="40.2694567" lon="15.0520217"><ele>615.0</ele><time>2026-05-03T14:21:44.983Z</time></trkpt><trkpt lat="40.269575" lon="15.05189"><ele>615.0</ele><time>2026-05-03T14:21:45.985Z</time></trkpt><trkpt lat="40.2697083" lon="15.0517633"><ele>615.0</ele><time>2026-05-03T14:21:46.984Z</time></trkpt><trkpt lat="40.2698417" lon="15.051615"><ele>614.0</ele><time>2026-05-03T14:21:47.985Z</time></trkpt><trkpt lat="40.269965" lon="15.0514367"><ele>613.0</ele><time>2026-05-03T14:21:48.984Z</time></trkpt><trkpt lat="40.2700783" lon="15.0512617"><ele>612.0</ele><time>2026-05-03T14:21:49.985Z</time></trkpt><trkpt lat="40.270185" lon="15.0511083"><ele>612.0</ele><time>2026-05-03T14:21:50.985Z</time></trkpt><trkpt lat="40.2702883" lon="15.05097"><ele>612.0</ele><time>2026-05-03T14:21:51.985Z</time></trkpt><trkpt lat="40.2703867" lon="15.05083"><ele>612.0</ele><time>2026-05-03T14:21:52.984Z</time></trkpt><trkpt lat="40.2704733" lon="15.0506767"><ele>612.0</ele><time>2026-05-03T14:21:53.985Z</time></trkpt><trkpt lat="40.2705583" lon="15.0505017"><ele>608.6666666666666</ele><time>2026-05-03T14:21:54.984Z</time></trkpt><trkpt lat="40.2706483" lon="15.05033"><ele>605.3333333333333</ele><time>2026-05-03T14:21:55.984Z</time></trkpt><trkpt lat="40.2707383" lon="15.0501617"><ele>602.0</ele><time>2026-05-03T14:21:56.985Z</time></trkpt><trkpt lat="40.2708267" lon="15.0500067"><ele>604.75</ele><time>2026-05-03T14:21:57.986Z</time></trkpt><trkpt lat="40.270915" lon="15.04987"><ele>607.5</ele><time>2026-05-03T14:21:58.985Z</time></trkpt><trkpt lat="40.27099" lon="15.04975"><ele>610.25</ele><time>2026-05-03T14:21:59.985Z</time></trkpt><trkpt lat="40.2710517" lon="15.0496417"><ele>613.0</ele><time>2026-05-03T14:22:00.984Z</time></trkpt><trkpt lat="40.2711017" lon="15.049525"><ele>613.0</ele><time>2026-05-03T14:22:01.985Z</time></trkpt><trkpt lat="40.2711383" lon="15.049395"><ele>613.0</ele><time>2026-05-03T14:22:02.986Z</time></trkpt><trkpt lat="40.2711517" lon="15.0492367"><ele>613.0</ele><time>2026-05-03T14:22:03.984Z</time></trkpt><trkpt lat="40.2711483" lon="15.04906"><ele>613.0</ele><time>2026-05-03T14:22:04.984Z</time></trkpt><trkpt lat="40.271135" lon="15.0488667"><ele>615.3333333333334</ele><time>2026-05-03T14:22:05.984Z</time></trkpt><trkpt lat="40.2711267" lon="15.0486617"><ele>617.6666666666666</ele><time>2026-05-03T14:22:06.985Z</time></trkpt><trkpt lat="40.2711283" lon="15.0484533"><ele>620.0</ele><time>2026-05-03T14:22:07.986Z</time></trkpt><trkpt lat="40.2711317" lon="15.048245"><ele>620.0</ele><time>2026-05-03T14:22:08.985Z</time></trkpt><trkpt lat="40.2711433" lon="15.0480367"><ele>620.0</ele><time>2026-05-03T14:22:09.984Z</time></trkpt><trkpt lat="40.2711567" lon="15.0478317"><ele>620.0</ele><time>2026-05-03T14:22:10.985Z</time></trkpt><trkpt lat="40.271165" lon="15.0476283"><ele>617.6666666666666</ele><time>2026-05-03T14:22:11.985Z</time></trkpt><trkpt lat="40.2711683" lon="15.0474233"><ele>615.3333333333334</ele><time>2026-05-03T14:22:12.986Z</time></trkpt><trkpt lat="40.271155" lon="15.0472283"><ele>613.0</ele><time>2026-05-03T14:22:13.987Z</time></trkpt><trkpt lat="40.2711283" lon="15.0470417"><ele>613.0</ele><time>2026-05-03T14:22:14.986Z</time></trkpt><trkpt lat="40.2711083" lon="15.0468717"><ele>613.0</ele><time>2026-05-03T14:22:15.985Z</time></trkpt><trkpt lat="40.2710883" lon="15.0467133"><ele>613.0</ele><time>2026-05-03T14:22:16.985Z</time></trkpt><trkpt lat="40.271065" lon="15.0465733"><ele>613.0</ele><time>2026-05-03T14:22:17.985Z</time></trkpt><trkpt lat="40.271035" lon="15.046445"><ele>609.8</ele><time>2026-05-03T14:22:18.985Z</time></trkpt><trkpt lat="40.270995" lon="15.0463333"><ele>606.5999999999999</ele><time>2026-05-03T14:22:19.985Z</time></trkpt><trkpt lat="40.2709383" lon="15.0462367"><ele>603.4000000000001</ele><time>2026-05-03T14:22:20.985Z</time></trkpt><trkpt lat="40.2708817" lon="15.0461567"><ele>600.2</ele><time>2026-05-03T14:22:21.984Z</time></trkpt><trkpt lat="40.270775" lon="15.0461233"><ele>597.0</ele><time>2026-05-03T14:22:22.984Z</time></trkpt><trkpt lat="40.2706483" lon="15.0461033"><ele>601.0</ele><time>2026-05-03T14:22:23.984Z</time></trkpt><trkpt lat="40.2705117" lon="15.0460917"><ele>605.0</ele><time>2026-05-03T14:22:24.985Z</time></trkpt><trkpt lat="40.2703767" lon="15.04608"><ele>609.0</ele><time>2026-05-03T14:22:25.982Z</time></trkpt><trkpt lat="40.27025" lon="15.04605"><ele>613.0</ele><time>2026-05-03T14:22:26.984Z</time></trkpt><trkpt lat="40.27013" lon="15.0459933"><ele>613.0</ele><time>2026-05-03T14:22:27.983Z</time></trkpt><trkpt lat="40.2700283" lon="15.045905"><ele>613.0</ele><time>2026-05-03T14:22:28.983Z</time></trkpt><trkpt lat="40.2699483" lon="15.0458033"><ele>613.0</ele><time>2026-05-03T14:22:29.983Z</time></trkpt><trkpt lat="40.26987" lon="15.045725"><ele>613.0</ele><time>2026-05-03T14:22:30.983Z</time></trkpt><trkpt lat="40.269785" lon="15.0456733"><ele>613.0</ele><time>2026-05-03T14:22:31.983Z</time></trkpt><trkpt lat="40.2696833" lon="15.04568"><ele>614.25</ele><time>2026-05-03T14:22:32.983Z</time></trkpt><trkpt lat="40.2695733" lon="15.0457267"><ele>615.5</ele><time>2026-05-03T14:22:33.982Z</time></trkpt><trkpt lat="40.26945" lon="15.0457883"><ele>616.75</ele><time>2026-05-03T14:22:34.983Z</time></trkpt><trkpt lat="40.2693167" lon="15.045855"><ele>618.0</ele><time>2026-05-03T14:22:35.984Z</time></trkpt><trkpt lat="40.2691833" lon="15.0459133"><ele>619.1999999999999</ele><time>2026-05-03T14:22:36.983Z</time></trkpt><trkpt lat="40.269055" lon="15.0459617"><ele>620.4</ele><time>2026-05-03T14:22:37.983Z</time></trkpt><trkpt lat="40.26894" lon="15.045995"><ele>621.5999999999999</ele><time>2026-05-03T14:22:38.985Z</time></trkpt><trkpt lat="40.2688383" lon="15.04601"><ele>622.8</ele><time>2026-05-03T14:22:39.983Z</time></trkpt><trkpt lat="40.2687517" lon="15.0459933"><ele>624.0</ele><time>2026-05-03T14:22:40.984Z</time></trkpt><trkpt lat="40.2686933" lon="15.0459433"><ele>624.0</ele><time>2026-05-03T14:22:41.985Z</time></trkpt><trkpt lat="40.2686917" lon="15.0458383"><ele>624.0</ele><time>2026-05-03T14:22:42.983Z</time></trkpt><trkpt lat="40.26871" lon="15.0457217"><ele>624.0</ele><time>2026-05-03T14:22:43.983Z</time></trkpt><trkpt lat="40.26878" lon="15.045605"><ele>624.0</ele><time>2026-05-03T14:22:44.983Z</time></trkpt><trkpt lat="40.2688817" lon="15.0455217"><ele>624.0</ele><time>2026-05-03T14:22:45.982Z</time></trkpt><trkpt lat="40.2689667" lon="15.0454517"><ele>624.0</ele><time>2026-05-03T14:22:46.982Z</time></trkpt><trkpt lat="40.2690317" lon="15.0453867"><ele>624.0</ele><time>2026-05-03T14:22:47.983Z</time></trkpt><trkpt lat="40.2690817" lon="15.0453167"><ele>624.0</ele><time>2026-05-03T14:22:48.982Z</time></trkpt><trkpt lat="40.2690333" lon="15.0451917"><ele>624.0</ele><time>2026-05-03T14:22:50.984Z</time></trkpt><trkpt lat="40.2689383" lon="15.0452117"><ele>624.0</ele><time>2026-05-03T14:22:51.983Z</time></trkpt><trkpt lat="40.2688283" lon="15.04523"><ele>624.0</ele><time>2026-05-03T14:22:52.983Z</time></trkpt><trkpt lat="40.268695" lon="15.0452967"><ele>624.0</ele><time>2026-05-03T14:22:53.987Z</time></trkpt><trkpt lat="40.2685483" lon="15.0453733"><ele>624.0</ele><time>2026-05-03T14:22:54.983Z</time></trkpt><trkpt lat="40.268395" lon="15.0454617"><ele>624.0</ele><time>2026-05-03T14:22:55.983Z</time></trkpt><trkpt lat="40.2682367" lon="15.045545"><ele>624.0</ele><time>2026-05-03T14:22:56.984Z</time></trkpt><trkpt lat="40.2680833" lon="15.0456267"><ele>624.0</ele><time>2026-05-03T14:22:57.983Z</time></trkpt><trkpt lat="40.2679417" lon="15.0457033"><ele>626.0</ele><time>2026-05-03T14:22:58.982Z</time></trkpt><trkpt lat="40.2678133" lon="15.04579"><ele>628.0</ele><time>2026-05-03T14:22:59.984Z</time></trkpt><trkpt lat="40.2676983" lon="15.0458917"><ele>630.0</ele><time>2026-05-03T14:23:00.983Z</time></trkpt><trkpt lat="40.2676033" lon="15.046005"><ele>632.0</ele><time>2026-05-03T14:23:01.983Z</time></trkpt><trkpt lat="40.2675267" lon="15.046115"><ele>632.3333333333333</ele><time>2026-05-03T14:23:02.984Z</time></trkpt><trkpt lat="40.2674583" lon="15.0461967"><ele>632.6666666666666</ele><time>2026-05-03T14:23:03.983Z</time></trkpt><trkpt lat="40.2673917" lon="15.046245"><ele>633.0</ele><time>2026-05-03T14:23:04.982Z</time></trkpt><trkpt lat="40.2673283" lon="15.04622"><ele>633.3333333333334</ele><time>2026-05-03T14:23:05.984Z</time></trkpt><trkpt lat="40.26729" lon="15.0461533"><ele>633.6666666666667</ele><time>2026-05-03T14:23:06.983Z</time></trkpt><trkpt lat="40.26728" lon="15.04606"><ele>634.0</ele><time>2026-05-03T14:23:07.982Z</time></trkpt><trkpt lat="40.26729" lon="15.0459467"><ele>634.0</ele><time>2026-05-03T14:23:08.983Z</time></trkpt><trkpt lat="40.2673083" lon="15.0458167"><ele>634.0</ele><time>2026-05-03T14:23:09.982Z</time></trkpt><trkpt lat="40.26733" lon="15.045665"><ele>634.0</ele><time>2026-05-03T14:23:10.983Z</time></trkpt><trkpt lat="40.267365" lon="15.0455083"><ele>634.0</ele><time>2026-05-03T14:23:11.983Z</time></trkpt><trkpt lat="40.26742" lon="15.0453633"><ele>633.6666666666667</ele><time>2026-05-03T14:23:12.983Z</time></trkpt><trkpt lat="40.2674983" lon="15.04525"><ele>633.3333333333334</ele><time>2026-05-03T14:23:13.984Z</time></trkpt><trkpt lat="40.26758" lon="15.04516"><ele>633.0</ele><time>2026-05-03T14:23:14.983Z</time></trkpt><trkpt lat="40.2676467" lon="15.0450967"><ele>632.6666666666666</ele><time>2026-05-03T14:23:15.982Z</time></trkpt><trkpt lat="40.2676617" lon="15.0450133"><ele>632.3333333333333</ele><time>2026-05-03T14:23:16.982Z</time></trkpt><trkpt lat="40.2676583" lon="15.0449283"><ele>632.0</ele><time>2026-05-03T14:23:17.983Z</time></trkpt><trkpt lat="40.267595" lon="15.0448683"><ele>631.0</ele><time>2026-05-03T14:23:18.983Z</time></trkpt><trkpt lat="40.2675067" lon="15.0448633"><ele>630.0</ele><time>2026-05-03T14:23:19.983Z</time></trkpt><trkpt lat="40.2673933" lon="15.0448967"><ele>629.0</ele><time>2026-05-03T14:23:20.984Z</time></trkpt><trkpt lat="40.267255" lon="15.0449517"><ele>628.0</ele><time>2026-05-03T14:23:21.984Z</time></trkpt><trkpt lat="40.267115" lon="15.0450033"><ele>630.6666666666667</ele><time>2026-05-03T14:23:22.983Z</time></trkpt><trkpt lat="40.2669683" lon="15.0450133"><ele>633.3333333333334</ele><time>2026-05-03T14:23:23.983Z</time></trkpt><trkpt lat="40.2668033" lon="15.0450083"><ele>636.0</ele><time>2026-05-03T14:23:24.983Z</time></trkpt><trkpt lat="40.2666367" lon="15.044985"><ele>633.3333333333334</ele><time>2026-05-03T14:23:25.983Z</time></trkpt><trkpt lat="40.2664667" lon="15.0449517"><ele>630.6666666666667</ele><time>2026-05-03T14:23:26.985Z</time></trkpt><trkpt lat="40.2662983" lon="15.044925"><ele>628.0</ele><time>2026-05-03T14:23:27.982Z</time></trkpt><trkpt lat="40.2661383" lon="15.044915"><ele>627.5</ele><time>2026-05-03T14:23:28.983Z</time></trkpt><trkpt lat="40.2659867" lon="15.044905"><ele>627.0</ele><time>2026-05-03T14:23:29.983Z</time></trkpt><trkpt lat="40.2658433" lon="15.0448933"><ele>626.5</ele><time>2026-05-03T14:23:30.983Z</time></trkpt><trkpt lat="40.2657083" lon="15.0448833"><ele>626.0</ele><time>2026-05-03T14:23:31.983Z</time></trkpt><trkpt lat="40.2655767" lon="15.0448817"><ele>627.6</ele><time>2026-05-03T14:23:32.983Z</time></trkpt><trkpt lat="40.2654533" lon="15.0448933"><ele>629.2</ele><time>2026-05-03T14:23:33.983Z</time></trkpt><trkpt lat="40.2653483" lon="15.0449417"><ele>630.8</ele><time>2026-05-03T14:23:34.984Z</time></trkpt><trkpt lat="40.2652533" lon="15.0449983"><ele>632.4</ele><time>2026-05-03T14:23:35.983Z</time></trkpt><trkpt lat="40.2651617" lon="15.0450333"><ele>634.0</ele><time>2026-05-03T14:23:36.983Z</time></trkpt><trkpt lat="40.2650767" lon="15.04501"><ele>634.8</ele><time>2026-05-03T14:23:37.983Z</time></trkpt><trkpt lat="40.2650133" lon="15.0449417"><ele>635.5999999999999</ele><time>2026-05-03T14:23:38.984Z</time></trkpt><trkpt lat="40.264965" lon="15.0448533"><ele>636.4</ele><time>2026-05-03T14:23:39.983Z</time></trkpt><trkpt lat="40.2649283" lon="15.0447383"><ele>637.1999999999999</ele><time>2026-05-03T14:23:40.983Z</time></trkpt><trkpt lat="40.26492" lon="15.0446067"><ele>638.0</ele><time>2026-05-03T14:23:41.983Z</time></trkpt><trkpt lat="40.26495" lon="15.0444833"><ele>638.0</ele><time>2026-05-03T14:23:42.983Z</time></trkpt><trkpt lat="40.2650083" lon="15.0443683"><ele>638.0</ele><time>2026-05-03T14:23:43.982Z</time></trkpt><trkpt lat="40.2650933" lon="15.044275"><ele>638.0</ele><time>2026-05-03T14:23:44.983Z</time></trkpt><trkpt lat="40.26521" lon="15.0441917"><ele>638.0</ele><time>2026-05-03T14:23:45.984Z</time></trkpt><trkpt lat="40.265315" lon="15.0440867"><ele>640.75</ele><time>2026-05-03T14:23:46.984Z</time></trkpt><trkpt lat="40.2654" lon="15.0439567"><ele>643.5</ele><time>2026-05-03T14:23:47.984Z</time></trkpt><trkpt lat="40.26546" lon="15.043775"><ele>646.25</ele><time>2026-05-03T14:23:48.984Z</time></trkpt><trkpt lat="40.26552" lon="15.043575"><ele>649.0</ele><time>2026-05-03T14:23:49.985Z</time></trkpt><trkpt lat="40.2655883" lon="15.0433783"><ele>643.75</ele><time>2026-05-03T14:23:50.984Z</time></trkpt><trkpt lat="40.2656567" lon="15.043195"><ele>638.5</ele><time>2026-05-03T14:23:51.983Z</time></trkpt><trkpt lat="40.2657167" lon="15.0430183"><ele>633.25</ele><time>2026-05-03T14:23:52.984Z</time></trkpt><trkpt lat="40.265775" lon="15.0428567"><ele>628.0</ele><time>2026-05-03T14:23:53.983Z</time></trkpt><trkpt lat="40.2658233" lon="15.04272"><ele>628.0</ele><time>2026-05-03T14:23:54.984Z</time></trkpt><trkpt lat="40.2658833" lon="15.0426117"><ele>628.0</ele><time>2026-05-03T14:23:55.984Z</time></trkpt><trkpt lat="40.2659583" lon="15.042525"><ele>628.0</ele><time>2026-05-03T14:23:56.983Z</time></trkpt><trkpt lat="40.2660583" lon="15.0424633"><ele>628.0</ele><time>2026-05-03T14:23:57.983Z</time></trkpt><trkpt lat="40.2661783" lon="15.0424133"><ele>628.0</ele><time>2026-05-03T14:23:58.982Z</time></trkpt><trkpt lat="40.2663033" lon="15.04237"><ele>626.25</ele><time>2026-05-03T14:23:59.984Z</time></trkpt><trkpt lat="40.2664283" lon="15.042325"><ele>624.5</ele><time>2026-05-03T14:24:00.983Z</time></trkpt><trkpt lat="40.2665433" lon="15.0422867"><ele>622.75</ele><time>2026-05-03T14:24:01.983Z</time></trkpt><trkpt lat="40.2666533" lon="15.0422567"><ele>621.0</ele><time>2026-05-03T14:24:02.983Z</time></trkpt><trkpt lat="40.2667617" lon="15.0422417"><ele>620.0</ele><time>2026-05-03T14:24:03.984Z</time></trkpt><trkpt lat="40.2668667" lon="15.0422317"><ele>619.0</ele><time>2026-05-03T14:24:04.984Z</time></trkpt><trkpt lat="40.2669683" lon="15.0422283"><ele>618.0</ele><time>2026-05-03T14:24:05.983Z</time></trkpt><trkpt lat="40.2670717" lon="15.04223"><ele>617.0</ele><time>2026-05-03T14:24:06.983Z</time></trkpt><trkpt lat="40.2671767" lon="15.0422283"><ele>616.0</ele><time>2026-05-03T14:24:07.983Z</time></trkpt><trkpt lat="40.2672867" lon="15.0422267"><ele>616.0</ele><time>2026-05-03T14:24:08.984Z</time></trkpt><trkpt lat="40.267395" lon="15.0422283"><ele>616.0</ele><time>2026-05-03T14:24:09.983Z</time></trkpt><trkpt lat="40.2675017" lon="15.042225"><ele>616.0</ele><time>2026-05-03T14:24:10.984Z</time></trkpt><trkpt lat="40.2676083" lon="15.0422183"><ele>616.0</ele><time>2026-05-03T14:24:11.983Z</time></trkpt><trkpt lat="40.2677133" lon="15.0422033"><ele>616.0</ele><time>2026-05-03T14:24:12.983Z</time></trkpt><trkpt lat="40.2678083" lon="15.0421817"><ele>616.0</ele><time>2026-05-03T14:24:13.985Z</time></trkpt><trkpt lat="40.2679017" lon="15.0421617"><ele>616.0</ele><time>2026-05-03T14:24:14.983Z</time></trkpt><trkpt lat="40.26799" lon="15.0421417"><ele>616.0</ele><time>2026-05-03T14:24:15.984Z</time></trkpt><trkpt lat="40.268075" lon="15.0421233"><ele>616.0</ele><time>2026-05-03T14:24:16.983Z</time></trkpt><trkpt lat="40.2681567" lon="15.042105"><ele>616.0</ele><time>2026-05-03T14:24:17.983Z</time></trkpt><trkpt lat="40.268235" lon="15.04209"><ele>616.0</ele><time>2026-05-03T14:24:18.983Z</time></trkpt><trkpt lat="40.268315" lon="15.0420767"><ele>615.1666666666667</ele><time>2026-05-03T14:24:19.984Z</time></trkpt><trkpt lat="40.2683933" lon="15.0420633"><ele>614.3333333333334</ele><time>2026-05-03T14:24:20.983Z</time></trkpt><trkpt lat="40.2684717" lon="15.042045"><ele>613.5</ele><time>2026-05-03T14:24:21.982Z</time></trkpt><trkpt lat="40.2685483" lon="15.0420317"><ele>612.6666666666666</ele><time>2026-05-03T14:24:22.983Z</time></trkpt><trkpt lat="40.268625" lon="15.042025"><ele>611.8333333333333</ele><time>2026-05-03T14:24:23.983Z</time></trkpt><trkpt lat="40.2687" lon="15.0420217"><ele>611.0</ele><time>2026-05-03T14:24:24.984Z</time></trkpt><trkpt lat="40.2687767" lon="15.0420267"><ele>611.0</ele><time>2026-05-03T14:24:25.984Z</time></trkpt><trkpt lat="40.2688533" lon="15.0420333"><ele>611.0</ele><time>2026-05-03T14:24:26.983Z</time></trkpt><trkpt lat="40.268925" lon="15.0420267"><ele>611.0</ele><time>2026-05-03T14:24:27.983Z</time></trkpt><trkpt lat="40.2689933" lon="15.0420117"><ele>611.0</ele><time>2026-05-03T14:24:28.983Z</time></trkpt><trkpt lat="40.269055" lon="15.0419833"><ele>611.0</ele><time>2026-05-03T14:24:29.983Z</time></trkpt><trkpt lat="40.2691533" lon="15.0419133"><ele>611.0</ele><time>2026-05-03T14:24:31.983Z</time></trkpt><trkpt lat="40.26926" lon="15.0418433"><ele>610.6</ele><time>2026-05-03T14:24:33.982Z</time></trkpt><trkpt lat="40.2693283" lon="15.0418033"><ele>610.2</ele><time>2026-05-03T14:24:34.983Z</time></trkpt><trkpt lat="40.2694067" lon="15.0417533"><ele>609.8</ele><time>2026-05-03T14:24:35.983Z</time></trkpt><trkpt lat="40.2694933" lon="15.0416983"><ele>609.4</ele><time>2026-05-03T14:24:36.983Z</time></trkpt><trkpt lat="40.269585" lon="15.0416533"><ele>609.0</ele><time>2026-05-03T14:24:37.984Z</time></trkpt><trkpt lat="40.2696767" lon="15.04162"><ele>607.0</ele><time>2026-05-03T14:24:38.983Z</time></trkpt><trkpt lat="40.2697683" lon="15.0415867"><ele>605.0</ele><time>2026-05-03T14:24:39.982Z</time></trkpt><trkpt lat="40.26986" lon="15.041535"><ele>603.0</ele><time>2026-05-03T14:24:40.983Z</time></trkpt><trkpt lat="40.26994" lon="15.0414533"><ele>601.0</ele><time>2026-05-03T14:24:41.983Z</time></trkpt><trkpt lat="40.2700017" lon="15.0413567"><ele>599.0</ele><time>2026-05-03T14:24:42.983Z</time></trkpt><trkpt lat="40.2700467" lon="15.0412567"><ele>599.0</ele><time>2026-05-03T14:24:43.984Z</time></trkpt><trkpt lat="40.2700967" lon="15.04116"><ele>599.0</ele><time>2026-05-03T14:24:44.983Z</time></trkpt><trkpt lat="40.2701567" lon="15.0410817"><ele>599.0</ele><time>2026-05-03T14:24:45.982Z</time></trkpt><trkpt lat="40.2702233" lon="15.04103"><ele>599.0</ele><time>2026-05-03T14:24:46.982Z</time></trkpt><trkpt lat="40.2702967" lon="15.0410033"><ele>599.0</ele><time>2026-05-03T14:24:47.984Z</time></trkpt><trkpt lat="40.27037" lon="15.0410117"><ele>599.0</ele><time>2026-05-03T14:24:48.982Z</time></trkpt><trkpt lat="40.2704517" lon="15.0410667"><ele>599.0</ele><time>2026-05-03T14:24:49.982Z</time></trkpt><trkpt lat="40.2705383" lon="15.0411217"><ele>599.0</ele><time>2026-05-03T14:24:50.983Z</time></trkpt><trkpt lat="40.2706367" lon="15.0411567"><ele>599.0</ele><time>2026-05-03T14:24:51.983Z</time></trkpt><trkpt lat="40.27074" lon="15.0411867"><ele>599.0</ele><time>2026-05-03T14:24:52.983Z</time></trkpt><trkpt lat="40.2708367" lon="15.0412183"><ele>599.0</ele><time>2026-05-03T14:24:53.984Z</time></trkpt><trkpt lat="40.270925" lon="15.0412717"><ele>598.8</ele><time>2026-05-03T14:24:54.983Z</time></trkpt><trkpt lat="40.2710017" lon="15.0413433"><ele>598.5999999999999</ele><time>2026-05-03T14:24:55.983Z</time></trkpt><trkpt lat="40.2710833" lon="15.0414117"><ele>598.4</ele><time>2026-05-03T14:24:56.983Z</time></trkpt><trkpt lat="40.2711733" lon="15.0414767"><ele>598.1999999999999</ele><time>2026-05-03T14:24:57.982Z</time></trkpt><trkpt lat="40.2712717" lon="15.0415183"><ele>598.0</ele><time>2026-05-03T14:24:58.983Z</time></trkpt><trkpt lat="40.2713767" lon="15.0415283"><ele>597.3333333333334</ele><time>2026-05-03T14:24:59.984Z</time></trkpt><trkpt lat="40.2714717" lon="15.04152"><ele>596.6666666666667</ele><time>2026-05-03T14:25:00.984Z</time></trkpt><trkpt lat="40.27156" lon="15.0415033"><ele>596.0</ele><time>2026-05-03T14:25:01.984Z</time></trkpt><trkpt lat="40.2716417" lon="15.04149"><ele>595.3333333333334</ele><time>2026-05-03T14:25:02.983Z</time></trkpt><trkpt lat="40.2717217" lon="15.0414783"><ele>594.6666666666666</ele><time>2026-05-03T14:25:03.983Z</time></trkpt><trkpt lat="40.2717933" lon="15.0414717"><ele>594.0</ele><time>2026-05-03T14:25:04.982Z</time></trkpt><trkpt lat="40.2718567" lon="15.0414633"><ele>594.0</ele><time>2026-05-03T14:25:05.984Z</time></trkpt><trkpt lat="40.2719583" lon="15.0414417"><ele>594.0</ele><time>2026-05-03T14:25:07.982Z</time></trkpt><trkpt lat="40.2720117" lon="15.0413617"><ele>594.0</ele><time>2026-05-03T14:25:09.982Z</time></trkpt><trkpt lat="40.271975" lon="15.0412517"><ele>594.0</ele><time>2026-05-03T14:25:11.982Z</time></trkpt><trkpt lat="40.27192" lon="15.041195"><ele>594.0</ele><time>2026-05-03T14:25:12.983Z</time></trkpt><trkpt lat="40.271855" lon="15.0411267"><ele>594.0</ele><time>2026-05-03T14:25:13.983Z</time></trkpt><trkpt lat="40.2717833" lon="15.04105"><ele>594.0</ele><time>2026-05-03T14:25:14.983Z</time></trkpt><trkpt lat="40.27171" lon="15.0409767"><ele>594.0</ele><time>2026-05-03T14:25:15.983Z</time></trkpt><trkpt lat="40.271635" lon="15.0409017"><ele>594.0</ele><time>2026-05-03T14:25:16.983Z</time></trkpt><trkpt lat="40.2715667" lon="15.0408167"><ele>594.0</ele><time>2026-05-03T14:25:17.984Z</time></trkpt><trkpt lat="40.2714983" lon="15.0407417"><ele>594.0</ele><time>2026-05-03T14:25:18.983Z</time></trkpt><trkpt lat="40.2714233" lon="15.0406733"><ele>590.6</ele><time>2026-05-03T14:25:19.983Z</time></trkpt><trkpt lat="40.27134" lon="15.04062"><ele>587.2</ele><time>2026-05-03T14:25:20.984Z</time></trkpt><trkpt lat="40.2712517" lon="15.04058"><ele>583.8000000000001</ele><time>2026-05-03T14:25:21.983Z</time></trkpt><trkpt lat="40.27116" lon="15.040545"><ele>580.4</ele><time>2026-05-03T14:25:22.983Z</time></trkpt><trkpt lat="40.2710683" lon="15.0405283"><ele>577.0</ele><time>2026-05-03T14:25:23.983Z</time></trkpt><trkpt lat="40.2709733" lon="15.0405233"><ele>577.0</ele><time>2026-05-03T14:25:24.983Z</time></trkpt><trkpt lat="40.2708833" lon="15.0405217"><ele>577.0</ele><time>2026-05-03T14:25:25.984Z</time></trkpt><trkpt lat="40.2707983" lon="15.0405183"><ele>577.0</ele><time>2026-05-03T14:25:26.983Z</time></trkpt><trkpt lat="40.2707133" lon="15.0405033"><ele>577.0</ele><time>2026-05-03T14:25:27.984Z</time></trkpt><trkpt lat="40.2706267" lon="15.040485"><ele>577.0</ele><time>2026-05-03T14:25:28.982Z</time></trkpt><trkpt lat="40.27054" lon="15.04046"><ele>577.0</ele><time>2026-05-03T14:25:29.983Z</time></trkpt><trkpt lat="40.2704517" lon="15.0404267"><ele>576.8000000000001</ele><time>2026-05-03T14:25:30.984Z</time></trkpt><trkpt lat="40.27036" lon="15.0404"><ele>576.6</ele><time>2026-05-03T14:25:31.984Z</time></trkpt><trkpt lat="40.2702617" lon="15.04038"><ele>576.4000000000001</ele><time>2026-05-03T14:25:32.984Z</time></trkpt><trkpt lat="40.27016" lon="15.0403717"><ele>576.2</ele><time>2026-05-03T14:25:33.984Z</time></trkpt><trkpt lat="40.2700583" lon="15.0403667"><ele>576.0</ele><time>2026-05-03T14:25:34.983Z</time></trkpt><trkpt lat="40.269955" lon="15.0403717"><ele>576.0</ele><time>2026-05-03T14:25:35.983Z</time></trkpt><trkpt lat="40.2698583" lon="15.04039"><ele>576.0</ele><time>2026-05-03T14:25:36.984Z</time></trkpt><trkpt lat="40.2697617" lon="15.0404033"><ele>576.0</ele><time>2026-05-03T14:25:37.983Z</time></trkpt><trkpt lat="40.2696683" lon="15.0404133"><ele>576.0</ele><time>2026-05-03T14:25:38.983Z</time></trkpt><trkpt lat="40.269575" lon="15.04041"><ele>576.0</ele><time>2026-05-03T14:25:39.983Z</time></trkpt><trkpt lat="40.2694883" lon="15.040405"><ele>575.6666666666666</ele><time>2026-05-03T14:25:40.983Z</time></trkpt><trkpt lat="40.2694017" lon="15.0404"><ele>575.3333333333334</ele><time>2026-05-03T14:25:41.983Z</time></trkpt><trkpt lat="40.2693233" lon="15.0404017"><ele>575.0</ele><time>2026-05-03T14:25:42.983Z</time></trkpt><trkpt lat="40.2692383" lon="15.0404083"><ele>574.6666666666667</ele><time>2026-05-03T14:25:43.983Z</time></trkpt><trkpt lat="40.269155" lon="15.0404283"><ele>574.3333333333334</ele><time>2026-05-03T14:25:44.983Z</time></trkpt><trkpt lat="40.2690733" lon="15.0404533"><ele>574.0</ele><time>2026-05-03T14:25:45.983Z</time></trkpt><trkpt lat="40.2689917" lon="15.0404683"><ele>573.8333333333334</ele><time>2026-05-03T14:25:46.983Z</time></trkpt><trkpt lat="40.2689083" lon="15.04047"><ele>573.6666666666667</ele><time>2026-05-03T14:25:47.983Z</time></trkpt><trkpt lat="40.268835" lon="15.04044"><ele>573.5</ele><time>2026-05-03T14:25:48.983Z</time></trkpt><trkpt lat="40.26876" lon="15.0403917"><ele>573.3333333333334</ele><time>2026-05-03T14:25:49.983Z</time></trkpt><trkpt lat="40.2686867" lon="15.04033"><ele>573.1666666666666</ele><time>2026-05-03T14:25:50.985Z</time></trkpt><trkpt lat="40.2686117" lon="15.0402583"><ele>573.0</ele><time>2026-05-03T14:25:51.982Z</time></trkpt><trkpt lat="40.268535" lon="15.0401817"><ele>573.0</ele><time>2026-05-03T14:25:52.983Z</time></trkpt><trkpt lat="40.26846" lon="15.040095"><ele>573.0</ele><time>2026-05-03T14:25:53.983Z</time></trkpt><trkpt lat="40.2683833" lon="15.0400133"><ele>573.0</ele><time>2026-05-03T14:25:54.984Z</time></trkpt><trkpt lat="40.2683017" lon="15.0399467"><ele>573.0</ele><time>2026-05-03T14:25:55.983Z</time></trkpt><trkpt lat="40.268215" lon="15.0399117"><ele>573.0</ele><time>2026-05-03T14:25:56.983Z</time></trkpt><trkpt lat="40.2681267" lon="15.039905"><ele>573.1999999999999</ele><time>2026-05-03T14:25:57.982Z</time></trkpt><trkpt lat="40.2680333" lon="15.03993"><ele>573.4</ele><time>2026-05-03T14:25:58.983Z</time></trkpt><trkpt lat="40.2679467" lon="15.03999"><ele>573.5999999999999</ele><time>2026-05-03T14:25:59.982Z</time></trkpt><trkpt lat="40.2678617" lon="15.04006"><ele>573.8</ele><time>2026-05-03T14:26:00.982Z</time></trkpt><trkpt lat="40.26778" lon="15.0401333"><ele>574.0</ele><time>2026-05-03T14:26:01.982Z</time></trkpt><trkpt lat="40.2676983" lon="15.0401967"><ele>573.6666666666667</ele><time>2026-05-03T14:26:02.982Z</time></trkpt><trkpt lat="40.2676117" lon="15.0402383"><ele>573.3333333333334</ele><time>2026-05-03T14:26:03.982Z</time></trkpt><trkpt lat="40.2675283" lon="15.0402533"><ele>573.0</ele><time>2026-05-03T14:26:04.983Z</time></trkpt><trkpt lat="40.26744" lon="15.0402533"><ele>572.6666666666666</ele><time>2026-05-03T14:26:05.982Z</time></trkpt><trkpt lat="40.267355" lon="15.0402333"><ele>572.3333333333333</ele><time>2026-05-03T14:26:06.982Z</time></trkpt><trkpt lat="40.2672767" lon="15.0401933"><ele>572.0</ele><time>2026-05-03T14:26:07.982Z</time></trkpt><trkpt lat="40.267215" lon="15.040135"><ele>572.3333333333333</ele><time>2026-05-03T14:26:08.982Z</time></trkpt><trkpt lat="40.2672" lon="15.04003"><ele>572.6666666666666</ele><time>2026-05-03T14:26:09.982Z</time></trkpt><trkpt lat="40.26722" lon="15.0399283"><ele>573.0</ele><time>2026-05-03T14:26:10.982Z</time></trkpt><trkpt lat="40.2672717" lon="15.0398367"><ele>573.3333333333334</ele><time>2026-05-03T14:26:11.983Z</time></trkpt><trkpt lat="40.2673417" lon="15.0397533"><ele>573.6666666666667</ele><time>2026-05-03T14:26:12.983Z</time></trkpt><trkpt lat="40.26741" lon="15.0396617"><ele>574.0</ele><time>2026-05-03T14:26:13.982Z</time></trkpt><trkpt lat="40.26748" lon="15.03955"><ele>574.0</ele><time>2026-05-03T14:26:14.982Z</time></trkpt><trkpt lat="40.2675483" lon="15.0394067"><ele>574.0</ele><time>2026-05-03T14:26:15.982Z</time></trkpt><trkpt lat="40.2676217" lon="15.0392467"><ele>574.0</ele><time>2026-05-03T14:26:16.982Z</time></trkpt><trkpt lat="40.2677083" lon="15.0390683"><ele>574.0</ele><time>2026-05-03T14:26:17.983Z</time></trkpt><trkpt lat="40.267795" lon="15.0388783"><ele>575.6666666666667</ele><time>2026-05-03T14:26:18.982Z</time></trkpt><trkpt lat="40.2679" lon="15.0386883"><ele>577.3333333333334</ele><time>2026-05-03T14:26:19.983Z</time></trkpt><trkpt lat="40.26801" lon="15.0385017"><ele>579.0</ele><time>2026-05-03T14:26:20.984Z</time></trkpt><trkpt lat="40.2681233" lon="15.0383233"><ele>573.3333333333334</ele><time>2026-05-03T14:26:21.982Z</time></trkpt><trkpt lat="40.2682433" lon="15.0381417"><ele>567.6666666666667</ele><time>2026-05-03T14:26:22.983Z</time></trkpt><trkpt lat="40.26837" lon="15.0379733"><ele>562.0</ele><time>2026-05-03T14:26:23.983Z</time></trkpt><trkpt lat="40.268505" lon="15.0378183"><ele>562.0</ele><time>2026-05-03T14:26:24.982Z</time></trkpt><trkpt lat="40.2686433" lon="15.0376767"><ele>562.0</ele><time>2026-05-03T14:26:25.983Z</time></trkpt><trkpt lat="40.268775" lon="15.0375483"><ele>562.0</ele><time>2026-05-03T14:26:26.983Z</time></trkpt><trkpt lat="40.2689" lon="15.0374217"><ele>558.75</ele><time>2026-05-03T14:26:27.983Z</time></trkpt><trkpt lat="40.26901" lon="15.0372917"><ele>555.5</ele><time>2026-05-03T14:26:28.982Z</time></trkpt><trkpt lat="40.2691083" lon="15.0371533"><ele>552.25</ele><time>2026-05-03T14:26:29.983Z</time></trkpt><trkpt lat="40.2691967" lon="15.0370083"><ele>549.0</ele><time>2026-05-03T14:26:30.983Z</time></trkpt><trkpt lat="40.2692733" lon="15.0368517"><ele>549.0</ele><time>2026-05-03T14:26:31.983Z</time></trkpt><trkpt lat="40.269335" lon="15.036695"><ele>549.0</ele><time>2026-05-03T14:26:32.982Z</time></trkpt><trkpt lat="40.26938" lon="15.0365467"><ele>549.0</ele><time>2026-05-03T14:26:33.982Z</time></trkpt><trkpt lat="40.2694117" lon="15.0364183"><ele>549.0</ele><time>2026-05-03T14:26:34.983Z</time></trkpt><trkpt lat="40.26943" lon="15.0362883"><ele>548.8</ele><time>2026-05-03T14:26:35.982Z</time></trkpt><trkpt lat="40.2694267" lon="15.0361617"><ele>548.5999999999999</ele><time>2026-05-03T14:26:36.982Z</time></trkpt><trkpt lat="40.2693967" lon="15.036045"><ele>548.4</ele><time>2026-05-03T14:26:37.982Z</time></trkpt><trkpt lat="40.2693367" lon="15.0359367"><ele>548.1999999999999</ele><time>2026-05-03T14:26:38.983Z</time></trkpt><trkpt lat="40.2692533" lon="15.0358467"><ele>548.0</ele><time>2026-05-03T14:26:39.981Z</time></trkpt><trkpt lat="40.2691467" lon="15.035765"><ele>545.5</ele><time>2026-05-03T14:26:40.982Z</time></trkpt><trkpt lat="40.26903" lon="15.035675"><ele>543.0</ele><time>2026-05-03T14:26:41.982Z</time></trkpt><trkpt lat="40.2689117" lon="15.0355917"><ele>540.5</ele><time>2026-05-03T14:26:42.981Z</time></trkpt><trkpt lat="40.2687917" lon="15.0355233"><ele>538.0</ele><time>2026-05-03T14:26:43.983Z</time></trkpt><trkpt lat="40.268675" lon="15.035465"><ele>537.8</ele><time>2026-05-03T14:26:44.982Z</time></trkpt><trkpt lat="40.2685617" lon="15.03542"><ele>537.5999999999999</ele><time>2026-05-03T14:26:45.983Z</time></trkpt><trkpt lat="40.2684583" lon="15.035395"><ele>537.4000000000001</ele><time>2026-05-03T14:26:46.981Z</time></trkpt><trkpt lat="40.2683567" lon="15.0353967"><ele>537.2</ele><time>2026-05-03T14:26:47.982Z</time></trkpt><trkpt lat="40.2682483" lon="15.0354267"><ele>537.0</ele><time>2026-05-03T14:26:48.983Z</time></trkpt><trkpt lat="40.2681383" lon="15.0354817"><ele>538.75</ele><time>2026-05-03T14:26:49.982Z</time></trkpt><trkpt lat="40.268025" lon="15.0355467"><ele>540.5</ele><time>2026-05-03T14:26:50.983Z</time></trkpt><trkpt lat="40.2679167" lon="15.0356283"><ele>542.25</ele><time>2026-05-03T14:26:51.982Z</time></trkpt><trkpt lat="40.2678117" lon="15.0357017"><ele>544.0</ele><time>2026-05-03T14:26:52.982Z</time></trkpt><trkpt lat="40.2677133" lon="15.0357467"><ele>544.0</ele><time>2026-05-03T14:26:53.983Z</time></trkpt><trkpt lat="40.2676217" lon="15.035745"><ele>544.0</ele><time>2026-05-03T14:26:54.982Z</time></trkpt><trkpt lat="40.267545" lon="15.035715"><ele>544.0</ele><time>2026-05-03T14:26:55.982Z</time></trkpt><trkpt lat="40.2674817" lon="15.0356433"><ele>544.0</ele><time>2026-05-03T14:26:56.982Z</time></trkpt><trkpt lat="40.2674617" lon="15.0354967"><ele>544.0</ele><time>2026-05-03T14:26:57.982Z</time></trkpt><trkpt lat="40.2674683" lon="15.03534"><ele>544.0</ele><time>2026-05-03T14:26:58.982Z</time></trkpt><trkpt lat="40.267505" lon="15.035175"><ele>544.0</ele><time>2026-05-03T14:26:59.983Z</time></trkpt><trkpt lat="40.2675617" lon="15.035005"><ele>544.0</ele><time>2026-05-03T14:27:00.982Z</time></trkpt><trkpt lat="40.2676333" lon="15.0348433"><ele>544.0</ele><time>2026-05-03T14:27:01.982Z</time></trkpt><trkpt lat="40.2677033" lon="15.034675"><ele>543.75</ele><time>2026-05-03T14:27:02.983Z</time></trkpt><trkpt lat="40.2677633" lon="15.0344967"><ele>543.5</ele><time>2026-05-03T14:27:03.982Z</time></trkpt><trkpt lat="40.2678133" lon="15.0343133"><ele>543.25</ele><time>2026-05-03T14:27:04.982Z</time></trkpt><trkpt lat="40.26786" lon="15.0341433"><ele>543.0</ele><time>2026-05-03T14:27:05.982Z</time></trkpt><trkpt lat="40.2678983" lon="15.033985"><ele>541.4</ele><time>2026-05-03T14:27:06.982Z</time></trkpt><trkpt lat="40.2679317" lon="15.0338417"><ele>539.8</ele><time>2026-05-03T14:27:07.983Z</time></trkpt><trkpt lat="40.2679533" lon="15.03371"><ele>538.2</ele><time>2026-05-03T14:27:08.982Z</time></trkpt><trkpt lat="40.2679433" lon="15.0336033"><ele>536.6</ele><time>2026-05-03T14:27:09.982Z</time></trkpt><trkpt lat="40.2679133" lon="15.0335033"><ele>535.0</ele><time>2026-05-03T14:27:10.983Z</time></trkpt><trkpt lat="40.2678283" lon="15.0334367"><ele>535.0</ele><time>2026-05-03T14:27:11.982Z</time></trkpt><trkpt lat="40.267715" lon="15.0334"><ele>535.0</ele><time>2026-05-03T14:27:12.983Z</time></trkpt><trkpt lat="40.2675883" lon="15.0333933"><ele>535.0</ele><time>2026-05-03T14:27:13.983Z</time></trkpt><trkpt lat="40.2674833" lon="15.0333883"><ele>535.0</ele><time>2026-05-03T14:27:14.983Z</time></trkpt><trkpt lat="40.267395" lon="15.0333683"><ele>535.0</ele><time>2026-05-03T14:27:15.983Z</time></trkpt><trkpt lat="40.2673433" lon="15.0333133"><ele>534.4</ele><time>2026-05-03T14:27:16.983Z</time></trkpt><trkpt lat="40.2673233" lon="15.0332317"><ele>533.8</ele><time>2026-05-03T14:27:17.983Z</time></trkpt><trkpt lat="40.2673383" lon="15.0331267"><ele>533.2</ele><time>2026-05-03T14:27:18.982Z</time></trkpt><trkpt lat="40.2673883" lon="15.032995"><ele>532.6</ele><time>2026-05-03T14:27:19.982Z</time></trkpt><trkpt lat="40.26745" lon="15.0328267"><ele>532.0</ele><time>2026-05-03T14:27:20.982Z</time></trkpt><trkpt lat="40.267505" lon="15.032655"><ele>532.0</ele><time>2026-05-03T14:27:21.982Z</time></trkpt><trkpt lat="40.267555" lon="15.0324917"><ele>532.0</ele><time>2026-05-03T14:27:22.983Z</time></trkpt><trkpt lat="40.267595" lon="15.03234"><ele>532.0</ele><time>2026-05-03T14:27:23.982Z</time></trkpt><trkpt lat="40.2676217" lon="15.0321967"><ele>532.0</ele><time>2026-05-03T14:27:24.982Z</time></trkpt><trkpt lat="40.2676217" lon="15.0320667"><ele>532.0</ele><time>2026-05-03T14:27:25.983Z</time></trkpt><trkpt lat="40.2675967" lon="15.03195"><ele>532.0</ele><time>2026-05-03T14:27:26.983Z</time></trkpt><trkpt lat="40.2675483" lon="15.0318333"><ele>532.0</ele><time>2026-05-03T14:27:27.982Z</time></trkpt><trkpt lat="40.2674983" lon="15.0317"><ele>532.0</ele><time>2026-05-03T14:27:28.981Z</time></trkpt><trkpt lat="40.2674767" lon="15.0315633"><ele>532.0</ele><time>2026-05-03T14:27:29.987Z</time></trkpt><trkpt lat="40.2675" lon="15.0314317"><ele>532.0</ele><time>2026-05-03T14:27:30.983Z</time></trkpt><trkpt lat="40.2675567" lon="15.0313167"><ele>532.0</ele><time>2026-05-03T14:27:31.983Z</time></trkpt><trkpt lat="40.2676483" lon="15.0312117"><ele>532.0</ele><time>2026-05-03T14:27:32.982Z</time></trkpt><trkpt lat="40.267755" lon="15.0311117"><ele>532.0</ele><time>2026-05-03T14:27:33.982Z</time></trkpt><trkpt lat="40.26786" lon="15.0310083"><ele>532.0</ele><time>2026-05-03T14:27:34.981Z</time></trkpt><trkpt lat="40.2679533" lon="15.030905"><ele>532.0</ele><time>2026-05-03T14:27:35.982Z</time></trkpt><trkpt lat="40.2680283" lon="15.0307917"><ele>532.0</ele><time>2026-05-03T14:27:36.983Z</time></trkpt><trkpt lat="40.2680867" lon="15.0306633"><ele>532.0</ele><time>2026-05-03T14:27:37.982Z</time></trkpt><trkpt lat="40.26813" lon="15.0305067"><ele>526.6666666666667</ele><time>2026-05-03T14:27:38.983Z</time></trkpt><trkpt lat="40.26816" lon="15.03032"><ele>521.3333333333334</ele><time>2026-05-03T14:27:39.983Z</time></trkpt><trkpt lat="40.2681833" lon="15.0301133"><ele>516.0</ele><time>2026-05-03T14:27:40.983Z</time></trkpt><trkpt lat="40.268195" lon="15.0299083"><ele>514.5</ele><time>2026-05-03T14:27:41.983Z</time></trkpt><trkpt lat="40.2682" lon="15.029715"><ele>513.0</ele><time>2026-05-03T14:27:42.981Z</time></trkpt><trkpt lat="40.2681917" lon="15.029535"><ele>511.5</ele><time>2026-05-03T14:27:43.983Z</time></trkpt><trkpt lat="40.2681617" lon="15.0293783"><ele>510.0</ele><time>2026-05-03T14:27:44.982Z</time></trkpt><trkpt lat="40.2681017" lon="15.0292417"><ele>512.75</ele><time>2026-05-03T14:27:45.982Z</time></trkpt><trkpt lat="40.2680167" lon="15.0291167"><ele>515.5</ele><time>2026-05-03T14:27:46.982Z</time></trkpt><trkpt lat="40.2679333" lon="15.02898"><ele>518.25</ele><time>2026-05-03T14:27:47.982Z</time></trkpt><trkpt lat="40.2678733" lon="15.0288183"><ele>521.0</ele><time>2026-05-03T14:27:48.983Z</time></trkpt><trkpt lat="40.26785" lon="15.0286267"><ele>521.0</ele><time>2026-05-03T14:27:49.982Z</time></trkpt><trkpt lat="40.267855" lon="15.0284183"><ele>521.0</ele><time>2026-05-03T14:27:50.982Z</time></trkpt><trkpt lat="40.26788" lon="15.0282233"><ele>521.0</ele><time>2026-05-03T14:27:51.982Z</time></trkpt><trkpt lat="40.267915" lon="15.0280333"><ele>520.0</ele><time>2026-05-03T14:27:52.982Z</time></trkpt><trkpt lat="40.26793" lon="15.0278683"><ele>519.0</ele><time>2026-05-03T14:27:53.983Z</time></trkpt><trkpt lat="40.26791" lon="15.027695"><ele>518.0</ele><time>2026-05-03T14:27:54.982Z</time></trkpt><trkpt lat="40.2678633" lon="15.02751"><ele>517.0</ele><time>2026-05-03T14:27:55.983Z</time></trkpt><trkpt lat="40.26781" lon="15.027325"><ele>513.25</ele><time>2026-05-03T14:27:56.983Z</time></trkpt><trkpt lat="40.2677717" lon="15.027145"><ele>509.5</ele><time>2026-05-03T14:27:57.982Z</time></trkpt><trkpt lat="40.2677433" lon="15.0269733"><ele>505.75</ele><time>2026-05-03T14:27:58.983Z</time></trkpt><trkpt lat="40.26772" lon="15.0268233"><ele>502.0</ele><time>2026-05-03T14:27:59.982Z</time></trkpt><trkpt lat="40.2676883" lon="15.0267117"><ele>495.8</ele><time>2026-05-03T14:28:00.982Z</time></trkpt><trkpt lat="40.2676383" lon="15.0266217"><ele>489.6</ele><time>2026-05-03T14:28:01.982Z</time></trkpt><trkpt lat="40.2675783" lon="15.026545"><ele>483.40000000000003</ele><time>2026-05-03T14:28:02.982Z</time></trkpt><trkpt lat="40.2674583" lon="15.0265633"><ele>477.20000000000005</ele><time>2026-05-03T14:28:03.981Z</time></trkpt><trkpt lat="40.2673133" lon="15.0265883"><ele>471.0</ele><time>2026-05-03T14:28:04.982Z</time></trkpt><trkpt lat="40.2671583" lon="15.0266283"><ele>480.33333333333337</ele><time>2026-05-03T14:28:05.983Z</time></trkpt><trkpt lat="40.2670033" lon="15.0266717"><ele>489.6666666666667</ele><time>2026-05-03T14:28:06.982Z</time></trkpt><trkpt lat="40.2668533" lon="15.026715"><ele>499.0</ele><time>2026-05-03T14:28:07.982Z</time></trkpt><trkpt lat="40.2667133" lon="15.0267633"><ele>499.0</ele><time>2026-05-03T14:28:08.984Z</time></trkpt><trkpt lat="40.2665817" lon="15.0268167"><ele>499.0</ele><time>2026-05-03T14:28:09.982Z</time></trkpt><trkpt lat="40.26646" lon="15.0268633"><ele>499.0</ele><time>2026-05-03T14:28:10.983Z</time></trkpt><trkpt lat="40.2663417" lon="15.0268983"><ele>499.0</ele><time>2026-05-03T14:28:11.982Z</time></trkpt><trkpt lat="40.266225" lon="15.0269"><ele>498.75</ele><time>2026-05-03T14:28:12.982Z</time></trkpt><trkpt lat="40.2661183" lon="15.026875"><ele>498.5</ele><time>2026-05-03T14:28:13.982Z</time></trkpt><trkpt lat="40.2659967" lon="15.0267983"><ele>498.25</ele><time>2026-05-03T14:28:14.983Z</time></trkpt><trkpt lat="40.2658733" lon="15.0267083"><ele>498.0</ele><time>2026-05-03T14:28:15.981Z</time></trkpt><trkpt lat="40.2657533" lon="15.0266317"><ele>491.0</ele><time>2026-05-03T14:28:16.983Z</time></trkpt><trkpt lat="40.265635" lon="15.02658"><ele>484.0</ele><time>2026-05-03T14:28:17.982Z</time></trkpt><trkpt lat="40.2655217" lon="15.0265517"><ele>477.0</ele><time>2026-05-03T14:28:18.982Z</time></trkpt><trkpt lat="40.2654083" lon="15.0265583"><ele>470.0</ele><time>2026-05-03T14:28:19.982Z</time></trkpt><trkpt lat="40.2652817" lon="15.0265933"><ele>469.5</ele><time>2026-05-03T14:28:20.983Z</time></trkpt><trkpt lat="40.2651433" lon="15.0266233"><ele>469.0</ele><time>2026-05-03T14:28:21.981Z</time></trkpt><trkpt lat="40.2650067" lon="15.026635"><ele>468.5</ele><time>2026-05-03T14:28:22.982Z</time></trkpt><trkpt lat="40.264885" lon="15.0266317"><ele>468.0</ele><time>2026-05-03T14:28:23.982Z</time></trkpt><trkpt lat="40.26478" lon="15.0266383"><ele>473.0</ele><time>2026-05-03T14:28:24.982Z</time></trkpt><trkpt lat="40.26469" lon="15.0266667"><ele>477.99999999999994</ele><time>2026-05-03T14:28:25.982Z</time></trkpt><trkpt lat="40.2646067" lon="15.0267233"><ele>482.99999999999994</ele><time>2026-05-03T14:28:26.982Z</time></trkpt><trkpt lat="40.26453" lon="15.0267983"><ele>488.0</ele><time>2026-05-03T14:28:27.982Z</time></trkpt><trkpt lat="40.26445" lon="15.0268467"><ele>493.0</ele><time>2026-05-03T14:28:28.983Z</time></trkpt><trkpt lat="40.2643717" lon="15.0268717"><ele>493.0</ele><time>2026-05-03T14:28:29.982Z</time></trkpt><trkpt lat="40.2642917" lon="15.026815"><ele>493.0</ele><time>2026-05-03T14:28:30.982Z</time></trkpt><trkpt lat="40.264225" lon="15.026725"><ele>493.0</ele><time>2026-05-03T14:28:31.982Z</time></trkpt><trkpt lat="40.264165" lon="15.0265767"><ele>493.0</ele><time>2026-05-03T14:28:32.982Z</time></trkpt><trkpt lat="40.2641217" lon="15.0264017"><ele>491.5</ele><time>2026-05-03T14:28:33.981Z</time></trkpt><trkpt lat="40.2641083" lon="15.0262033"><ele>490.0</ele><time>2026-05-03T14:28:34.981Z</time></trkpt><trkpt lat="40.26411" lon="15.0260167"><ele>488.5</ele><time>2026-05-03T14:28:35.982Z</time></trkpt><trkpt lat="40.26413" lon="15.0258383"><ele>487.0</ele><time>2026-05-03T14:28:36.983Z</time></trkpt><trkpt lat="40.2641633" lon="15.0256783"><ele>487.0</ele><time>2026-05-03T14:28:37.983Z</time></trkpt><trkpt lat="40.26421" lon="15.0255"><ele>487.0</ele><time>2026-05-03T14:28:38.982Z</time></trkpt><trkpt lat="40.2642683" lon="15.0253233"><ele>487.0</ele><time>2026-05-03T14:28:39.984Z</time></trkpt><trkpt lat="40.264325" lon="15.0251517"><ele>487.0</ele><time>2026-05-03T14:28:40.983Z</time></trkpt><trkpt lat="40.26437" lon="15.02499"><ele>487.33333333333337</ele><time>2026-05-03T14:28:41.982Z</time></trkpt><trkpt lat="40.26441" lon="15.0248517"><ele>487.6666666666667</ele><time>2026-05-03T14:28:42.982Z</time></trkpt><trkpt lat="40.2644667" lon="15.0247517"><ele>488.0</ele><time>2026-05-03T14:28:43.983Z</time></trkpt><trkpt lat="40.264525" lon="15.0246917"><ele>488.33333333333337</ele><time>2026-05-03T14:28:44.982Z</time></trkpt><trkpt lat="40.2645917" lon="15.0246733"><ele>488.6666666666667</ele><time>2026-05-03T14:28:45.983Z</time></trkpt><trkpt lat="40.2646717" lon="15.024665"><ele>489.0</ele><time>2026-05-03T14:28:46.982Z</time></trkpt><trkpt lat="40.26476" lon="15.02466"><ele>485.4</ele><time>2026-05-03T14:28:47.982Z</time></trkpt><trkpt lat="40.2648483" lon="15.024625"><ele>481.79999999999995</ele><time>2026-05-03T14:28:48.982Z</time></trkpt><trkpt lat="40.2649317" lon="15.0245583"><ele>478.20000000000005</ele><time>2026-05-03T14:28:49.982Z</time></trkpt><trkpt lat="40.265" lon="15.0244717"><ele>474.6</ele><time>2026-05-03T14:28:50.982Z</time></trkpt><trkpt lat="40.265045" lon="15.024375"><ele>471.0</ele><time>2026-05-03T14:28:51.983Z</time></trkpt><trkpt lat="40.2650667" lon="15.0242583"><ele>470.25</ele><time>2026-05-03T14:28:52.983Z</time></trkpt><trkpt lat="40.2650533" lon="15.0241067"><ele>469.5</ele><time>2026-05-03T14:28:53.982Z</time></trkpt><trkpt lat="40.26502" lon="15.023925"><ele>468.75</ele><time>2026-05-03T14:28:54.982Z</time></trkpt><trkpt lat="40.2649883" lon="15.02371"><ele>468.0</ele><time>2026-05-03T14:28:55.983Z</time></trkpt><trkpt lat="40.2649633" lon="15.02349"><ele>466.66666666666663</ele><time>2026-05-03T14:28:56.982Z</time></trkpt><trkpt lat="40.2649433" lon="15.02328"><ele>465.3333333333333</ele><time>2026-05-03T14:28:57.982Z</time></trkpt><trkpt lat="40.26492" lon="15.0230833"><ele>464.0</ele><time>2026-05-03T14:28:58.983Z</time></trkpt><trkpt lat="40.2649" lon="15.022895"><ele>464.0</ele><time>2026-05-03T14:28:59.981Z</time></trkpt><trkpt lat="40.2648967" lon="15.0227033"><ele>464.0</ele><time>2026-05-03T14:29:00.981Z</time></trkpt><trkpt lat="40.2649017" lon="15.0225033"><ele>464.0</ele><time>2026-05-03T14:29:01.982Z</time></trkpt><trkpt lat="40.2649083" lon="15.022305"><ele>464.25</ele><time>2026-05-03T14:29:02.984Z</time></trkpt><trkpt lat="40.264915" lon="15.0221117"><ele>464.5</ele><time>2026-05-03T14:29:03.983Z</time></trkpt><trkpt lat="40.2649233" lon="15.02192"><ele>464.75</ele><time>2026-05-03T14:29:04.984Z</time></trkpt><trkpt lat="40.2649533" lon="15.0217367"><ele>465.0</ele><time>2026-05-03T14:29:05.984Z</time></trkpt><trkpt lat="40.2649983" lon="15.0215417"><ele>466.0</ele><time>2026-05-03T14:29:06.984Z</time></trkpt><trkpt lat="40.265045" lon="15.02133"><ele>467.0</ele><time>2026-05-03T14:29:07.982Z</time></trkpt><trkpt lat="40.2650933" lon="15.0211217"><ele>468.0</ele><time>2026-05-03T14:29:08.983Z</time></trkpt><trkpt lat="40.2651433" lon="15.02092"><ele>469.25</ele><time>2026-05-03T14:29:09.983Z</time></trkpt><trkpt lat="40.26519" lon="15.0207233"><ele>470.5</ele><time>2026-05-03T14:29:10.984Z</time></trkpt><trkpt lat="40.2652317" lon="15.0205367"><ele>471.75</ele><time>2026-05-03T14:29:11.982Z</time></trkpt><trkpt lat="40.265275" lon="15.0203583"><ele>473.0</ele><time>2026-05-03T14:29:12.984Z</time></trkpt><trkpt lat="40.2653133" lon="15.020195"><ele>472.99999999999994</ele><time>2026-05-03T14:29:13.983Z</time></trkpt><trkpt lat="40.265345" lon="15.0200567"><ele>473.0</ele><time>2026-05-03T14:29:14.983Z</time></trkpt><trkpt lat="40.2653617" lon="15.0199467"><ele>473.0</ele><time>2026-05-03T14:29:15.985Z</time></trkpt><trkpt lat="40.2653667" lon="15.0198567"><ele>473.0</ele><time>2026-05-03T14:29:16.985Z</time></trkpt><trkpt lat="40.26541" lon="15.0197533"><ele>472.99999999999994</ele><time>2026-05-03T14:29:18.983Z</time></trkpt><trkpt lat="40.2654817" lon="15.0198183"><ele>473.0</ele><time>2026-05-03T14:29:20.983Z</time></trkpt><trkpt lat="40.26551" lon="15.0199983"><ele>473.0</ele><time>2026-05-03T14:29:22.983Z</time></trkpt><trkpt lat="40.2655017" lon="15.020135"><ele>472.99999999999994</ele><time>2026-05-03T14:29:23.982Z</time></trkpt><trkpt lat="40.2654983" lon="15.02027"><ele>472.99999999999994</ele><time>2026-05-03T14:29:24.983Z</time></trkpt><trkpt lat="40.2654967" lon="15.0203983"><ele>473.0</ele><time>2026-05-03T14:29:25.982Z</time></trkpt><trkpt lat="40.2654883" lon="15.020525"><ele>473.0</ele><time>2026-05-03T14:29:26.983Z</time></trkpt><trkpt lat="40.2654867" lon="15.0206483"><ele>473.0</ele><time>2026-05-03T14:29:27.981Z</time></trkpt><trkpt lat="40.2654917" lon="15.02077"><ele>472.99999999999994</ele><time>2026-05-03T14:29:28.983Z</time></trkpt><trkpt lat="40.2655117" lon="15.0208867"><ele>472.99999999999994</ele><time>2026-05-03T14:29:29.983Z</time></trkpt><trkpt lat="40.2655567" lon="15.021005"><ele>473.0</ele><time>2026-05-03T14:29:30.982Z</time></trkpt><trkpt lat="40.2656183" lon="15.021125"><ele>473.0</ele><time>2026-05-03T14:29:31.983Z</time></trkpt><trkpt lat="40.2656783" lon="15.02124"><ele>467.2</ele><time>2026-05-03T14:29:32.982Z</time></trkpt><trkpt lat="40.2657417" lon="15.021345"><ele>461.4</ele><time>2026-05-03T14:29:33.982Z</time></trkpt><trkpt lat="40.2658" lon="15.0214417"><ele>455.59999999999997</ele><time>2026-05-03T14:29:34.983Z</time></trkpt><trkpt lat="40.2658633" lon="15.0215333"><ele>449.79999999999995</ele><time>2026-05-03T14:29:35.983Z</time></trkpt><trkpt lat="40.26593" lon="15.0216033"><ele>444.0</ele><time>2026-05-03T14:29:36.982Z</time></trkpt><trkpt lat="40.266" lon="15.02165"><ele>444.0</ele><time>2026-05-03T14:29:37.982Z</time></trkpt><trkpt lat="40.2660667" lon="15.0216367"><ele>444.0</ele><time>2026-05-03T14:29:38.982Z</time></trkpt><trkpt lat="40.2661333" lon="15.0216067"><ele>444.0</ele><time>2026-05-03T14:29:39.981Z</time></trkpt><trkpt lat="40.2661867" lon="15.0215483"><ele>444.0</ele><time>2026-05-03T14:29:40.982Z</time></trkpt><trkpt lat="40.2661983" lon="15.0214433"><ele>444.0</ele><time>2026-05-03T14:29:41.982Z</time></trkpt><trkpt lat="40.2662067" lon="15.0213417"><ele>444.0</ele><time>2026-05-03T14:29:42.982Z</time></trkpt><trkpt lat="40.2662017" lon="15.0212183"><ele>444.0</ele><time>2026-05-03T14:29:43.982Z</time></trkpt><trkpt lat="40.2661817" lon="15.0210917"><ele>444.0</ele><time>2026-05-03T14:29:44.982Z</time></trkpt><trkpt lat="40.2661617" lon="15.0209633"><ele>444.0</ele><time>2026-05-03T14:29:45.982Z</time></trkpt><trkpt lat="40.2661433" lon="15.0208317"><ele>444.0</ele><time>2026-05-03T14:29:46.982Z</time></trkpt><trkpt lat="40.26612" lon="15.0207033"><ele>444.0</ele><time>2026-05-03T14:29:47.983Z</time></trkpt><trkpt lat="40.2660967" lon="15.02057"><ele>444.0</ele><time>2026-05-03T14:29:48.982Z</time></trkpt><trkpt lat="40.2660817" lon="15.020435"><ele>444.0</ele><time>2026-05-03T14:29:49.982Z</time></trkpt><trkpt lat="40.266075" lon="15.0202967"><ele>444.0</ele><time>2026-05-03T14:29:50.983Z</time></trkpt><trkpt lat="40.26608" lon="15.02016"><ele>444.0</ele><time>2026-05-03T14:29:51.988Z</time></trkpt><trkpt lat="40.2660967" lon="15.020035"><ele>444.0</ele><time>2026-05-03T14:29:52.983Z</time></trkpt><trkpt lat="40.26612" lon="15.0199"><ele>444.6</ele><time>2026-05-03T14:29:53.982Z</time></trkpt><trkpt lat="40.2661433" lon="15.0197633"><ele>445.2</ele><time>2026-05-03T14:29:54.983Z</time></trkpt><trkpt lat="40.2661717" lon="15.0196267"><ele>445.80000000000007</ele><time>2026-05-03T14:29:55.983Z</time></trkpt><trkpt lat="40.266205" lon="15.0194883"><ele>446.40000000000003</ele><time>2026-05-03T14:29:56.982Z</time></trkpt><trkpt lat="40.2662433" lon="15.0193517"><ele>447.0</ele><time>2026-05-03T14:29:57.982Z</time></trkpt><trkpt lat="40.2662817" lon="15.0192167"><ele>446.0</ele><time>2026-05-03T14:29:58.982Z</time></trkpt><trkpt lat="40.2663267" lon="15.0190933"><ele>445.00000000000006</ele><time>2026-05-03T14:29:59.982Z</time></trkpt><trkpt lat="40.2663683" lon="15.0189783"><ele>444.00000000000006</ele><time>2026-05-03T14:30:00.984Z</time></trkpt><trkpt lat="40.266405" lon="15.0188617"><ele>443.0</ele><time>2026-05-03T14:30:01.983Z</time></trkpt><trkpt lat="40.2664417" lon="15.018755"><ele>442.0</ele><time>2026-05-03T14:30:02.983Z</time></trkpt><trkpt lat="40.2664633" lon="15.0186617"><ele>442.00000000000006</ele><time>2026-05-03T14:30:03.983Z</time></trkpt><trkpt lat="40.2664717" lon="15.0185733"><ele>442.0</ele><time>2026-05-03T14:30:04.983Z</time></trkpt><trkpt lat="40.26646" lon="15.0184917"><ele>442.0</ele><time>2026-05-03T14:30:05.983Z</time></trkpt><trkpt lat="40.2664333" lon="15.0184133"><ele>442.0</ele><time>2026-05-03T14:30:06.983Z</time></trkpt><trkpt lat="40.2663667" lon="15.0183667"><ele>442.0</ele><time>2026-05-03T14:30:07.984Z</time></trkpt><trkpt lat="40.2663" lon="15.0183217"><ele>442.00000000000006</ele><time>2026-05-03T14:30:08.983Z</time></trkpt><trkpt lat="40.2662317" lon="15.01828"><ele>442.0</ele><time>2026-05-03T14:30:09.983Z</time></trkpt><trkpt lat="40.2661683" lon="15.01822"><ele>443.0</ele><time>2026-05-03T14:30:10.983Z</time></trkpt><trkpt lat="40.2661217" lon="15.0181633"><ele>444.00000000000006</ele><time>2026-05-03T14:30:11.983Z</time></trkpt><trkpt lat="40.266095" lon="15.01804"><ele>445.00000000000006</ele><time>2026-05-03T14:30:13.983Z</time></trkpt><trkpt lat="40.26613" lon="15.01792"><ele>446.0</ele><time>2026-05-03T14:30:15.984Z</time></trkpt><trkpt lat="40.2662067" lon="15.017805"><ele>447.0</ele><time>2026-05-03T14:30:17.983Z</time></trkpt><trkpt lat="40.266265" lon="15.0176883"><ele>447.0</ele><time>2026-05-03T14:30:19.984Z</time></trkpt><trkpt lat="40.2662983" lon="15.0176117"><ele>447.0</ele><time>2026-05-03T14:30:20.987Z</time></trkpt><trkpt lat="40.2663517" lon="15.0174717"><ele>447.0</ele><time>2026-05-03T14:30:22.983Z</time></trkpt><trkpt lat="40.26638" lon="15.017315"><ele>447.0</ele><time>2026-05-03T14:30:24.983Z</time></trkpt><trkpt lat="40.2663883" lon="15.0172317"><ele>447.0</ele><time>2026-05-03T14:30:25.982Z</time></trkpt><trkpt lat="40.266395" lon="15.0171433"><ele>447.0</ele><time>2026-05-03T14:30:26.984Z</time></trkpt><trkpt lat="40.266395" lon="15.0170533"><ele>446.6666666666667</ele><time>2026-05-03T14:30:27.982Z</time></trkpt><trkpt lat="40.2663917" lon="15.0169667"><ele>446.33333333333337</ele><time>2026-05-03T14:30:28.982Z</time></trkpt><trkpt lat="40.2663883" lon="15.0168767"><ele>446.0</ele><time>2026-05-03T14:30:29.984Z</time></trkpt><trkpt lat="40.2663767" lon="15.0167317"><ele>445.6666666666667</ele><time>2026-05-03T14:30:31.984Z</time></trkpt><trkpt lat="40.2663583" lon="15.0166117"><ele>445.33333333333337</ele><time>2026-05-03T14:30:33.984Z</time></trkpt><trkpt lat="40.26628" lon="15.0165117"><ele>445.0</ele><time>2026-05-03T14:30:35.983Z</time></trkpt><trkpt lat="40.2661833" lon="15.0164183"><ele>444.42857142857144</ele><time>2026-05-03T14:30:37.982Z</time></trkpt><trkpt lat="40.266135" lon="15.0163583"><ele>443.85714285714283</ele><time>2026-05-03T14:30:38.982Z</time></trkpt><trkpt lat="40.2660883" lon="15.0162933"><ele>443.2857142857143</ele><time>2026-05-03T14:30:39.981Z</time></trkpt><trkpt lat="40.266035" lon="15.0162483"><ele>442.7142857142857</ele><time>2026-05-03T14:30:40.982Z</time></trkpt><trkpt lat="40.26599" lon="15.0161867"><ele>442.1428571428571</ele><time>2026-05-03T14:30:41.983Z</time></trkpt><trkpt lat="40.265945" lon="15.016125"><ele>441.57142857142856</ele><time>2026-05-03T14:30:42.982Z</time></trkpt><trkpt lat="40.2658983" lon="15.0160683"><ele>441.0</ele><time>2026-05-03T14:30:43.983Z</time></trkpt><trkpt lat="40.265825" lon="15.0159383"><ele>441.0</ele><time>2026-05-03T14:30:45.982Z</time></trkpt><trkpt lat="40.2657767" lon="15.015835"><ele>441.0</ele><time>2026-05-03T14:30:47.982Z</time></trkpt><trkpt lat="40.2657533" lon="15.0157183"><ele>441.0</ele><time>2026-05-03T14:30:49.982Z</time></trkpt><trkpt lat="40.2657833" lon="15.0156383"><ele>441.0</ele><time>2026-05-03T14:30:50.982Z</time></trkpt><trkpt lat="40.2658233" lon="15.0155717"><ele>441.0</ele><time>2026-05-03T14:30:51.981Z</time></trkpt><trkpt lat="40.2658683" lon="15.0155117"><ele>441.0</ele><time>2026-05-03T14:30:52.983Z</time></trkpt><trkpt lat="40.2659217" lon="15.0154467"><ele>440.8</ele><time>2026-05-03T14:30:53.982Z</time></trkpt><trkpt lat="40.265975" lon="15.0154"><ele>440.6</ele><time>2026-05-03T14:30:54.983Z</time></trkpt><trkpt lat="40.2660767" lon="15.0153083"><ele>440.4</ele><time>2026-05-03T14:30:56.982Z</time></trkpt><trkpt lat="40.266135" lon="15.0152133"><ele>440.2</ele><time>2026-05-03T14:30:58.983Z</time></trkpt><trkpt lat="40.2661633" lon="15.0150883"><ele>440.0</ele><time>2026-05-03T14:31:00.983Z</time></trkpt><trkpt lat="40.26618" lon="15.0149467"><ele>439.6</ele><time>2026-05-03T14:31:02.982Z</time></trkpt><trkpt lat="40.266175" lon="15.0147983"><ele>439.2</ele><time>2026-05-03T14:31:04.982Z</time></trkpt><trkpt lat="40.2661617" lon="15.014655"><ele>438.79999999999995</ele><time>2026-05-03T14:31:06.982Z</time></trkpt><trkpt lat="40.2661417" lon="15.0144917"><ele>438.4</ele><time>2026-05-03T14:31:08.982Z</time></trkpt><trkpt lat="40.2661233" lon="15.0143883"><ele>438.0</ele><time>2026-05-03T14:31:09.982Z</time></trkpt><trkpt lat="40.26611" lon="15.0142883"><ele>438.0</ele><time>2026-05-03T14:31:10.982Z</time></trkpt><trkpt lat="40.2661067" lon="15.0141883"><ele>438.0</ele><time>2026-05-03T14:31:11.983Z</time></trkpt><trkpt lat="40.2661067" lon="15.014085"><ele>438.0</ele><time>2026-05-03T14:31:12.982Z</time></trkpt><trkpt lat="40.266125" lon="15.0139833"><ele>438.0</ele><time>2026-05-03T14:31:13.983Z</time></trkpt><trkpt lat="40.2661667" lon="15.0138867"><ele>438.0</ele><time>2026-05-03T14:31:14.982Z</time></trkpt><trkpt lat="40.266225" lon="15.0138017"><ele>438.0</ele><time>2026-05-03T14:31:15.982Z</time></trkpt><trkpt lat="40.2662867" lon="15.0137217"><ele>438.79999999999995</ele><time>2026-05-03T14:31:16.982Z</time></trkpt><trkpt lat="40.2663417" lon="15.0136317"><ele>439.59999999999997</ele><time>2026-05-03T14:31:17.982Z</time></trkpt><trkpt lat="40.2663883" lon="15.0135267"><ele>440.40000000000003</ele><time>2026-05-03T14:31:18.982Z</time></trkpt><trkpt lat="40.2664233" lon="15.0134"><ele>441.20000000000005</ele><time>2026-05-03T14:31:19.982Z</time></trkpt><trkpt lat="40.26647" lon="15.0132733"><ele>442.0</ele><time>2026-05-03T14:31:20.982Z</time></trkpt><trkpt lat="40.2665233" lon="15.0131433"><ele>442.0</ele><time>2026-05-03T14:31:21.982Z</time></trkpt><trkpt lat="40.2665867" lon="15.0130183"><ele>442.00000000000006</ele><time>2026-05-03T14:31:22.983Z</time></trkpt><trkpt lat="40.26666" lon="15.0129067"><ele>442.00000000000006</ele><time>2026-05-03T14:31:23.984Z</time></trkpt><trkpt lat="40.2667433" lon="15.0128133"><ele>442.0</ele><time>2026-05-03T14:31:24.983Z</time></trkpt><trkpt lat="40.2668433" lon="15.012755"><ele>442.0</ele><time>2026-05-03T14:31:25.984Z</time></trkpt><trkpt lat="40.26695" lon="15.0127217"><ele>442.0</ele><time>2026-05-03T14:31:26.983Z</time></trkpt><trkpt lat="40.2670617" lon="15.0127133"><ele>442.00000000000006</ele><time>2026-05-03T14:31:27.982Z</time></trkpt><trkpt lat="40.2671733" lon="15.0127167"><ele>442.00000000000006</ele><time>2026-05-03T14:31:28.983Z</time></trkpt><trkpt lat="40.2672833" lon="15.0127267"><ele>442.0</ele><time>2026-05-03T14:31:29.981Z</time></trkpt><trkpt lat="40.2673883" lon="15.0127267"><ele>442.0</ele><time>2026-05-03T14:31:30.983Z</time></trkpt><trkpt lat="40.2674917" lon="15.0127133"><ele>441.0</ele><time>2026-05-03T14:31:31.981Z</time></trkpt><trkpt lat="40.2675883" lon="15.0126817"><ele>440.00000000000006</ele><time>2026-05-03T14:31:32.984Z</time></trkpt><trkpt lat="40.2676767" lon="15.0126183"><ele>439.00000000000006</ele><time>2026-05-03T14:31:33.982Z</time></trkpt><trkpt lat="40.267765" lon="15.01253"><ele>438.0</ele><time>2026-05-03T14:31:34.983Z</time></trkpt><trkpt lat="40.2678433" lon="15.0124133"><ele>437.0</ele><time>2026-05-03T14:31:35.984Z</time></trkpt><trkpt lat="40.2679233" lon="15.012285"><ele>437.0</ele><time>2026-05-03T14:31:36.984Z</time></trkpt><trkpt lat="40.2680017" lon="15.0121433"><ele>437.0</ele><time>2026-05-03T14:31:37.984Z</time></trkpt><trkpt lat="40.2680817" lon="15.0120117"><ele>437.0</ele><time>2026-05-03T14:31:38.983Z</time></trkpt><trkpt lat="40.2681567" lon="15.0118783"><ele>437.0</ele><time>2026-05-03T14:31:39.982Z</time></trkpt><trkpt lat="40.268225" lon="15.0117533"><ele>434.40000000000003</ele><time>2026-05-03T14:31:40.983Z</time></trkpt><trkpt lat="40.2682933" lon="15.0116483"><ele>431.80000000000007</ele><time>2026-05-03T14:31:41.981Z</time></trkpt><trkpt lat="40.2683667" lon="15.0115583"><ele>429.2</ele><time>2026-05-03T14:31:42.982Z</time></trkpt><trkpt lat="40.2684383" lon="15.0114883"><ele>426.6</ele><time>2026-05-03T14:31:43.982Z</time></trkpt><trkpt lat="40.2685" lon="15.0114367"><ele>424.0</ele><time>2026-05-03T14:31:44.982Z</time></trkpt><trkpt lat="40.268595" lon="15.0113617"><ele>424.00000000000006</ele><time>2026-05-03T14:31:46.982Z</time></trkpt><trkpt lat="40.2686983" lon="15.0112967"><ele>424.0</ele><time>2026-05-03T14:31:48.983Z</time></trkpt><trkpt lat="40.26876" lon="15.0112683"><ele>424.0</ele><time>2026-05-03T14:31:49.983Z</time></trkpt><trkpt lat="40.2688267" lon="15.0112417"><ele>424.0</ele><time>2026-05-03T14:31:50.982Z</time></trkpt><trkpt lat="40.2688967" lon="15.011215"><ele>424.00000000000006</ele><time>2026-05-03T14:31:51.981Z</time></trkpt><trkpt lat="40.2689683" lon="15.0111833"><ele>424.0</ele><time>2026-05-03T14:31:52.982Z</time></trkpt><trkpt lat="40.269035" lon="15.0111383"><ele>421.00000000000006</ele><time>2026-05-03T14:31:53.982Z</time></trkpt><trkpt lat="40.269095" lon="15.0110767"><ele>418.0</ele><time>2026-05-03T14:31:54.983Z</time></trkpt><trkpt lat="40.269145" lon="15.0109967"><ele>415.0</ele><time>2026-05-03T14:31:55.983Z</time></trkpt><trkpt lat="40.26919" lon="15.0109067"><ele>412.0</ele><time>2026-05-03T14:31:56.984Z</time></trkpt><trkpt lat="40.2692367" lon="15.0108033"><ele>409.00000000000006</ele><time>2026-05-03T14:31:57.982Z</time></trkpt><trkpt lat="40.26929" lon="15.0106883"><ele>406.0</ele><time>2026-05-03T14:31:58.983Z</time></trkpt><trkpt lat="40.26935" lon="15.01057"><ele>404.8</ele><time>2026-05-03T14:31:59.983Z</time></trkpt><trkpt lat="40.2694017" lon="15.0104467"><ele>403.6</ele><time>2026-05-03T14:32:00.982Z</time></trkpt><trkpt lat="40.2694617" lon="15.0103167"><ele>402.4</ele><time>2026-05-03T14:32:01.983Z</time></trkpt><trkpt lat="40.2695183" lon="15.0101933"><ele>401.2</ele><time>2026-05-03T14:32:02.983Z</time></trkpt><trkpt lat="40.2695717" lon="15.0100833"><ele>400.0</ele><time>2026-05-03T14:32:03.981Z</time></trkpt><trkpt lat="40.26962" lon="15.0099733"><ele>396.6</ele><time>2026-05-03T14:32:04.982Z</time></trkpt><trkpt lat="40.2696567" lon="15.0098583"><ele>393.2</ele><time>2026-05-03T14:32:05.982Z</time></trkpt><trkpt lat="40.2696833" lon="15.009745"><ele>389.79999999999995</ele><time>2026-05-03T14:32:06.983Z</time></trkpt><trkpt lat="40.269715" lon="15.0096267"><ele>386.4</ele><time>2026-05-03T14:32:07.982Z</time></trkpt><trkpt lat="40.2697583" lon="15.009515"><ele>383.0</ele><time>2026-05-03T14:32:08.983Z</time></trkpt><trkpt lat="40.26981" lon="15.0094117"><ele>382.1666666666667</ele><time>2026-05-03T14:32:09.982Z</time></trkpt><trkpt lat="40.2698633" lon="15.0093217"><ele>381.33333333333337</ele><time>2026-05-03T14:32:10.984Z</time></trkpt><trkpt lat="40.2699217" lon="15.0092483"><ele>380.5</ele><time>2026-05-03T14:32:11.984Z</time></trkpt><trkpt lat="40.26998" lon="15.00919"><ele>379.6666666666667</ele><time>2026-05-03T14:32:12.983Z</time></trkpt><trkpt lat="40.270045" lon="15.0091517"><ele>378.8333333333333</ele><time>2026-05-03T14:32:13.982Z</time></trkpt><trkpt lat="40.2701133" lon="15.0091133"><ele>378.0</ele><time>2026-05-03T14:32:14.982Z</time></trkpt><trkpt lat="40.2701767" lon="15.009065"><ele>376.6666666666667</ele><time>2026-05-03T14:32:15.982Z</time></trkpt><trkpt lat="40.2702383" lon="15.0090183"><ele>375.3333333333333</ele><time>2026-05-03T14:32:16.983Z</time></trkpt><trkpt lat="40.2702933" lon="15.0089717"><ele>374.0</ele><time>2026-05-03T14:32:17.982Z</time></trkpt><trkpt lat="40.2703617" lon="15.0089167"><ele>372.66666666666663</ele><time>2026-05-03T14:32:19.982Z</time></trkpt><trkpt lat="40.2704167" lon="15.008845"><ele>371.3333333333333</ele><time>2026-05-03T14:32:23.984Z</time></trkpt><trkpt lat="40.2704967" lon="15.0087517"><ele>370.0</ele><time>2026-05-03T14:32:25.983Z</time></trkpt><trkpt lat="40.2705533" lon="15.00868"><ele>369.0</ele><time>2026-05-03T14:32:26.982Z</time></trkpt><trkpt lat="40.2706183" lon="15.0085933"><ele>368.0</ele><time>2026-05-03T14:32:27.982Z</time></trkpt><trkpt lat="40.2706883" lon="15.0085"><ele>367.0</ele><time>2026-05-03T14:32:28.982Z</time></trkpt><trkpt lat="40.2707567" lon="15.0084017"><ele>366.0</ele><time>2026-05-03T14:32:29.982Z</time></trkpt><trkpt lat="40.2708217" lon="15.008305"><ele>365.0</ele><time>2026-05-03T14:32:30.983Z</time></trkpt><trkpt lat="40.2708883" lon="15.0082083"><ele>364.33333333333337</ele><time>2026-05-03T14:32:31.982Z</time></trkpt><trkpt lat="40.270945" lon="15.0081183"><ele>363.6666666666667</ele><time>2026-05-03T14:32:32.982Z</time></trkpt><trkpt lat="40.271" lon="15.008035"><ele>363.0</ele><time>2026-05-03T14:32:33.983Z</time></trkpt><trkpt lat="40.271055" lon="15.0079567"><ele>362.3333333333333</ele><time>2026-05-03T14:32:34.983Z</time></trkpt><trkpt lat="40.271105" lon="15.0078917"><ele>361.66666666666663</ele><time>2026-05-03T14:32:35.982Z</time></trkpt><trkpt lat="40.27116" lon="15.0077817"><ele>361.0</ele><time>2026-05-03T14:32:37.983Z</time></trkpt><trkpt lat="40.2711817" lon="15.007655"><ele>361.0</ele><time>2026-05-03T14:33:17.984Z</time></trkpt><trkpt lat="40.2710917" lon="15.0075617"><ele>361.0</ele><time>2026-05-03T14:33:19.982Z</time></trkpt><trkpt lat="40.271005" lon="15.0075167"><ele>361.0</ele><time>2026-05-03T14:33:20.983Z</time></trkpt><trkpt lat="40.27092" lon="15.00747"><ele>361.0</ele><time>2026-05-03T14:33:21.983Z</time></trkpt><trkpt lat="40.2708383" lon="15.0074317"><ele>361.0</ele><time>2026-05-03T14:33:22.983Z</time></trkpt><trkpt lat="40.27076" lon="15.0074"><ele>360.0</ele><time>2026-05-03T14:33:23.984Z</time></trkpt><trkpt lat="40.270685" lon="15.00738"><ele>359.0</ele><time>2026-05-03T14:33:24.983Z</time></trkpt><trkpt lat="40.2706117" lon="15.00737"><ele>358.0</ele><time>2026-05-03T14:33:25.985Z</time></trkpt><trkpt lat="40.2705317" lon="15.0073733"><ele>357.0</ele><time>2026-05-03T14:33:26.983Z</time></trkpt><trkpt lat="40.27045" lon="15.0074067"><ele>356.0</ele><time>2026-05-03T14:33:27.982Z</time></trkpt><trkpt lat="40.2703683" lon="15.0074667"><ele>355.0</ele><time>2026-05-03T14:33:28.982Z</time></trkpt><trkpt lat="40.27029" lon="15.00754"><ele>355.0</ele><time>2026-05-03T14:33:29.982Z</time></trkpt><trkpt lat="40.2702133" lon="15.0076117"><ele>355.0</ele><time>2026-05-03T14:33:30.982Z</time></trkpt><trkpt lat="40.2701383" lon="15.0076867"><ele>355.0</ele><time>2026-05-03T14:33:31.982Z</time></trkpt><trkpt lat="40.27007" lon="15.0077633"><ele>355.0</ele><time>2026-05-03T14:33:32.982Z</time></trkpt><trkpt lat="40.270005" lon="15.0078367"><ele>355.0</ele><time>2026-05-03T14:33:33.982Z</time></trkpt><trkpt lat="40.269945" lon="15.0078983"><ele>355.0</ele><time>2026-05-03T14:33:34.982Z</time></trkpt><trkpt lat="40.26989" lon="15.0079483"><ele>355.0</ele><time>2026-05-03T14:33:35.982Z</time></trkpt><trkpt lat="40.2697883" lon="15.007935"><ele>355.0</ele><time>2026-05-03T14:33:37.982Z</time></trkpt><trkpt lat="40.2697967" lon="15.0078067"><ele>355.0</ele><time>2026-05-03T14:33:39.984Z</time></trkpt><trkpt lat="40.2698583" lon="15.007755"><ele>355.0</ele><time>2026-05-03T14:33:40.981Z</time></trkpt><trkpt lat="40.2699317" lon="15.0077033"><ele>355.0</ele><time>2026-05-03T14:33:41.982Z</time></trkpt><trkpt lat="40.270025" lon="15.00762"><ele>355.0</ele><time>2026-05-03T14:33:42.983Z</time></trkpt><trkpt lat="40.2701017" lon="15.0075333"><ele>355.0</ele><time>2026-05-03T14:33:43.982Z</time></trkpt><trkpt lat="40.27017" lon="15.00744"><ele>355.0</ele><time>2026-05-03T14:33:44.982Z</time></trkpt><trkpt lat="40.2702383" lon="15.007355"><ele>355.0</ele><time>2026-05-03T14:33:45.982Z</time></trkpt><trkpt lat="40.270305" lon="15.00727"><ele>355.0</ele><time>2026-05-03T14:33:46.982Z</time></trkpt><trkpt lat="40.2703783" lon="15.0071933"><ele>350.2</ele><time>2026-05-03T14:33:47.983Z</time></trkpt><trkpt lat="40.2704633" lon="15.0071367"><ele>345.4</ele><time>2026-05-03T14:33:48.982Z</time></trkpt><trkpt lat="40.2705633" lon="15.0071117"><ele>340.6</ele><time>2026-05-03T14:33:49.983Z</time></trkpt><trkpt lat="40.27067" lon="15.0071133"><ele>335.8</ele><time>2026-05-03T14:33:50.982Z</time></trkpt><trkpt lat="40.270775" lon="15.007135"><ele>331.0</ele><time>2026-05-03T14:33:51.983Z</time></trkpt><trkpt lat="40.27088" lon="15.0071583"><ele>331.0</ele><time>2026-05-03T14:33:52.982Z</time></trkpt><trkpt lat="40.2709817" lon="15.00717"><ele>331.0</ele><time>2026-05-03T14:33:53.981Z</time></trkpt><trkpt lat="40.27108" lon="15.0071683"><ele>331.0</ele><time>2026-05-03T14:33:54.982Z</time></trkpt><trkpt lat="40.2711683" lon="15.00714"><ele>331.0</ele><time>2026-05-03T14:33:55.981Z</time></trkpt><trkpt lat="40.2712533" lon="15.0070883"><ele>331.0</ele><time>2026-05-03T14:33:56.983Z</time></trkpt><trkpt lat="40.2713267" lon="15.0070167"><ele>331.0</ele><time>2026-05-03T14:33:57.982Z</time></trkpt><trkpt lat="40.27139" lon="15.0069233"><ele>331.0</ele><time>2026-05-03T14:33:58.983Z</time></trkpt><trkpt lat="40.2714567" lon="15.0068367"><ele>331.0</ele><time>2026-05-03T14:33:59.982Z</time></trkpt><trkpt lat="40.2715317" lon="15.0067817"><ele>331.0</ele><time>2026-05-03T14:34:00.983Z</time></trkpt><trkpt lat="40.2716117" lon="15.0067617"><ele>331.0</ele><time>2026-05-03T14:34:01.982Z</time></trkpt><trkpt lat="40.2716967" lon="15.0067517"><ele>331.0</ele><time>2026-05-03T14:34:02.982Z</time></trkpt><trkpt lat="40.2717983" lon="15.0067533"><ele>332.4</ele><time>2026-05-03T14:34:03.982Z</time></trkpt><trkpt lat="40.271905" lon="15.0067383"><ele>333.8</ele><time>2026-05-03T14:34:04.982Z</time></trkpt><trkpt lat="40.2720083" lon="15.0067033"><ele>335.2</ele><time>2026-05-03T14:34:05.982Z</time></trkpt><trkpt lat="40.2721067" lon="15.0066483"><ele>336.59999999999997</ele><time>2026-05-03T14:34:06.983Z</time></trkpt><trkpt lat="40.2721917" lon="15.006575"><ele>338.0</ele><time>2026-05-03T14:34:07.982Z</time></trkpt><trkpt lat="40.27227" lon="15.0064967"><ele>334.83333333333337</ele><time>2026-05-03T14:34:08.982Z</time></trkpt><trkpt lat="40.272345" lon="15.0064217"><ele>331.6666666666667</ele><time>2026-05-03T14:34:09.983Z</time></trkpt><trkpt lat="40.272415" lon="15.00635"><ele>328.5</ele><time>2026-05-03T14:34:10.981Z</time></trkpt><trkpt lat="40.2724783" lon="15.0062783"><ele>325.3333333333333</ele><time>2026-05-03T14:34:11.983Z</time></trkpt><trkpt lat="40.272535" lon="15.00621"><ele>322.16666666666663</ele><time>2026-05-03T14:34:12.983Z</time></trkpt><trkpt lat="40.2726267" lon="15.0061567"><ele>319.0</ele><time>2026-05-03T14:34:14.983Z</time></trkpt><trkpt lat="40.27267" lon="15.00624"><ele>319.0</ele><time>2026-05-03T14:34:16.982Z</time></trkpt><trkpt lat="40.2726333" lon="15.0063883"><ele>319.0</ele><time>2026-05-03T14:34:18.983Z</time></trkpt><trkpt lat="40.272595" lon="15.0065"><ele>319.0</ele><time>2026-05-03T14:34:19.983Z</time></trkpt><trkpt lat="40.2725617" lon="15.00661"><ele>319.0</ele><time>2026-05-03T14:34:20.982Z</time></trkpt><trkpt lat="40.272535" lon="15.006725"><ele>319.0</ele><time>2026-05-03T14:34:21.983Z</time></trkpt><trkpt lat="40.27253" lon="15.0068333"><ele>321.0</ele><time>2026-05-03T14:34:22.982Z</time></trkpt><trkpt lat="40.2725433" lon="15.006935"><ele>323.0</ele><time>2026-05-03T14:34:23.983Z</time></trkpt><trkpt lat="40.2725533" lon="15.0070317"><ele>325.0</ele><time>2026-05-03T14:34:24.982Z</time></trkpt><trkpt lat="40.2725767" lon="15.0071633"><ele>327.0</ele><time>2026-05-03T14:34:26.982Z</time></trkpt><trkpt lat="40.2726167" lon="15.007245"><ele>329.0</ele><time>2026-05-03T14:34:28.982Z</time></trkpt><trkpt lat="40.2726917" lon="15.0073"><ele>331.0</ele><time>2026-05-03T14:34:31.982Z</time></trkpt><trkpt lat="40.2727367" lon="15.0073933"><ele>331.0</ele><time>2026-05-03T14:34:34.981Z</time></trkpt><trkpt lat="40.2726933" lon="15.0073317"><ele>331.0</ele><time>2026-05-03T14:34:54.984Z</time></trkpt><trkpt lat="40.2726433" lon="15.00722"><ele>331.0</ele><time>2026-05-03T14:34:56.982Z</time></trkpt><trkpt lat="40.2725917" lon="15.0070917"><ele>331.0</ele><time>2026-05-03T14:34:57.983Z</time></trkpt><trkpt lat="40.272555" lon="15.0069617"><ele>331.0</ele><time>2026-05-03T14:34:58.983Z</time></trkpt><trkpt lat="40.2725417" lon="15.0068217"><ele>331.0</ele><time>2026-05-03T14:34:59.984Z</time></trkpt><trkpt lat="40.2725533" lon="15.0066817"><ele>331.0</ele><time>2026-05-03T14:35:00.984Z</time></trkpt><trkpt lat="40.2725817" lon="15.0065567"><ele>331.0</ele><time>2026-05-03T14:35:01.983Z</time></trkpt><trkpt lat="40.2726133" lon="15.0064433"><ele>331.0</ele><time>2026-05-03T14:35:02.984Z</time></trkpt><trkpt lat="40.272645" lon="15.006345"><ele>331.0</ele><time>2026-05-03T14:35:03.984Z</time></trkpt><trkpt lat="40.2726783" lon="15.006265"><ele>328.6</ele><time>2026-05-03T14:35:04.983Z</time></trkpt><trkpt lat="40.27272" lon="15.0061517"><ele>326.20000000000005</ele><time>2026-05-03T14:35:06.982Z</time></trkpt><trkpt lat="40.2726417" lon="15.0061067"><ele>323.79999999999995</ele><time>2026-05-03T14:35:09.982Z</time></trkpt><trkpt lat="40.2725417" lon="15.0061817"><ele>321.4</ele><time>2026-05-03T14:35:11.982Z</time></trkpt><trkpt lat="40.2724867" lon="15.0062567"><ele>319.0</ele><time>2026-05-03T14:35:12.983Z</time></trkpt><trkpt lat="40.272425" lon="15.0063317"><ele>319.0</ele><time>2026-05-03T14:35:13.982Z</time></trkpt><trkpt lat="40.2723617" lon="15.006395"><ele>319.0</ele><time>2026-05-03T14:35:14.982Z</time></trkpt><trkpt lat="40.2723083" lon="15.0064467"><ele>319.0</ele><time>2026-05-03T14:35:15.983Z</time></trkpt><trkpt lat="40.272245" lon="15.00652"><ele>319.0</ele><time>2026-05-03T14:35:17.982Z</time></trkpt><trkpt lat="40.27232" lon="15.006475"><ele>319.0</ele><time>2026-05-03T14:35:26.983Z</time></trkpt><trkpt lat="40.2723667" lon="15.0064167"><ele>319.0</ele><time>2026-05-03T14:35:27.985Z</time></trkpt><trkpt lat="40.272415" lon="15.0063583"><ele>319.0</ele><time>2026-05-03T14:35:28.984Z</time></trkpt><trkpt lat="40.2724667" lon="15.006305"><ele>319.0</ele><time>2026-05-03T14:35:29.983Z</time></trkpt><trkpt lat="40.2725167" lon="15.0062533"><ele>319.0</ele><time>2026-05-03T14:35:30.982Z</time></trkpt><trkpt lat="40.2726117" lon="15.0061767"><ele>319.0</ele><time>2026-05-03T14:35:32.983Z</time></trkpt><trkpt lat="40.2726983" lon="15.0061367"><ele>319.0</ele><time>2026-05-03T14:35:34.982Z</time></trkpt><trkpt lat="40.272775" lon="15.0060533"><ele>319.0</ele><time>2026-05-03T14:35:36.984Z</time></trkpt><trkpt lat="40.2727783" lon="15.0059367"><ele>319.0</ele><time>2026-05-03T14:35:38.983Z</time></trkpt><trkpt lat="40.2727133" lon="15.00587"><ele>319.0</ele><time>2026-05-03T14:35:40.982Z</time></trkpt><trkpt lat="40.2726067" lon="15.005875"><ele>319.0</ele><time>2026-05-03T14:35:42.982Z</time></trkpt><trkpt lat="40.2725283" lon="15.0059183"><ele>319.0</ele><time>2026-05-03T14:35:43.983Z</time></trkpt><trkpt lat="40.2724367" lon="15.0059717"><ele>319.0</ele><time>2026-05-03T14:35:44.982Z</time></trkpt><trkpt lat="40.2723417" lon="15.0060233"><ele>318.4</ele><time>2026-05-03T14:35:45.982Z</time></trkpt><trkpt lat="40.27225" lon="15.006065"><ele>317.79999999999995</ele><time>2026-05-03T14:35:46.982Z</time></trkpt><trkpt lat="40.27215" lon="15.006095"><ele>317.20000000000005</ele><time>2026-05-03T14:35:47.982Z</time></trkpt><trkpt lat="40.2720467" lon="15.0061117"><ele>316.6</ele><time>2026-05-03T14:35:48.982Z</time></trkpt><trkpt lat="40.2719433" lon="15.0061117"><ele>316.0</ele><time>2026-05-03T14:35:49.985Z</time></trkpt><trkpt lat="40.271845" lon="15.0061017"><ele>316.0</ele><time>2026-05-03T14:35:50.983Z</time></trkpt><trkpt lat="40.2717433" lon="15.006085"><ele>316.0</ele><time>2026-05-03T14:35:51.983Z</time></trkpt><trkpt lat="40.2716433" lon="15.006065"><ele>316.0</ele><time>2026-05-03T14:35:52.982Z</time></trkpt><trkpt lat="40.27154" lon="15.00605"><ele>316.0</ele><time>2026-05-03T14:35:53.982Z</time></trkpt><trkpt lat="40.2714367" lon="15.0060383"><ele>316.0</ele><time>2026-05-03T14:35:54.985Z</time></trkpt><trkpt lat="40.2713333" lon="15.00604"><ele>314.2</ele><time>2026-05-03T14:35:55.984Z</time></trkpt><trkpt lat="40.27123" lon="15.0060467"><ele>312.40000000000003</ele><time>2026-05-03T14:35:56.983Z</time></trkpt><trkpt lat="40.271125" lon="15.0060517"><ele>310.6</ele><time>2026-05-03T14:35:57.983Z</time></trkpt><trkpt lat="40.2710183" lon="15.0060583"><ele>308.8</ele><time>2026-05-03T14:35:58.982Z</time></trkpt><trkpt lat="40.2709183" lon="15.0060667"><ele>307.0</ele><time>2026-05-03T14:35:59.983Z</time></trkpt><trkpt lat="40.2708183" lon="15.0060733"><ele>307.0</ele><time>2026-05-03T14:36:00.983Z</time></trkpt><trkpt lat="40.270725" lon="15.0060683"><ele>307.0</ele><time>2026-05-03T14:36:01.983Z</time></trkpt><trkpt lat="40.27063" lon="15.0060467"><ele>307.0</ele><time>2026-05-03T14:36:02.982Z</time></trkpt><trkpt lat="40.2705367" lon="15.00602"><ele>307.0</ele><time>2026-05-03T14:36:03.983Z</time></trkpt><trkpt lat="40.270445" lon="15.0059867"><ele>307.0</ele><time>2026-05-03T14:36:04.982Z</time></trkpt><trkpt lat="40.27036" lon="15.0059433"><ele>306.5</ele><time>2026-05-03T14:36:05.982Z</time></trkpt><trkpt lat="40.2702767" lon="15.0059017"><ele>306.0</ele><time>2026-05-03T14:36:06.983Z</time></trkpt><trkpt lat="40.270195" lon="15.0058617"><ele>305.5</ele><time>2026-05-03T14:36:07.983Z</time></trkpt><trkpt lat="40.2701167" lon="15.0058217"><ele>305.0</ele><time>2026-05-03T14:36:08.983Z</time></trkpt><trkpt lat="40.2700367" lon="15.00578"><ele>304.5</ele><time>2026-05-03T14:36:09.981Z</time></trkpt><trkpt lat="40.2699583" lon="15.005735"><ele>304.0</ele><time>2026-05-03T14:36:10.981Z</time></trkpt><trkpt lat="40.2698767" lon="15.00569"><ele>300.4</ele><time>2026-05-03T14:36:11.982Z</time></trkpt><trkpt lat="40.2697933" lon="15.00565"><ele>296.79999999999995</ele><time>2026-05-03T14:36:12.982Z</time></trkpt><trkpt lat="40.2697083" lon="15.005605"><ele>293.20000000000005</ele><time>2026-05-03T14:36:13.982Z</time></trkpt><trkpt lat="40.2696233" lon="15.005555"><ele>289.6</ele><time>2026-05-03T14:36:14.983Z</time></trkpt><trkpt lat="40.2695433" lon="15.0055033"><ele>286.0</ele><time>2026-05-03T14:36:15.982Z</time></trkpt><trkpt lat="40.2694633" lon="15.005455"><ele>285.99999999999994</ele><time>2026-05-03T14:36:16.983Z</time></trkpt><trkpt lat="40.26939" lon="15.005415"><ele>286.0</ele><time>2026-05-03T14:36:17.983Z</time></trkpt><trkpt lat="40.26932" lon="15.005385"><ele>286.0</ele><time>2026-05-03T14:36:18.984Z</time></trkpt><trkpt lat="40.26925" lon="15.0053717"><ele>286.0</ele><time>2026-05-03T14:36:19.982Z</time></trkpt><trkpt lat="40.2691817" lon="15.0053767"><ele>286.0</ele><time>2026-05-03T14:36:20.983Z</time></trkpt><trkpt lat="40.2691083" lon="15.0053967"><ele>285.99999999999994</ele><time>2026-05-03T14:36:21.982Z</time></trkpt><trkpt lat="40.26903" lon="15.0054233"><ele>286.0</ele><time>2026-05-03T14:36:22.982Z</time></trkpt><trkpt lat="40.268955" lon="15.0054567"><ele>285.0</ele><time>2026-05-03T14:36:23.982Z</time></trkpt><trkpt lat="40.2688783" lon="15.00549"><ele>284.0</ele><time>2026-05-03T14:36:24.982Z</time></trkpt><trkpt lat="40.2687933" lon="15.0055183"><ele>283.0</ele><time>2026-05-03T14:36:25.982Z</time></trkpt><trkpt lat="40.2686917" lon="15.005525"><ele>282.0</ele><time>2026-05-03T14:36:26.984Z</time></trkpt><trkpt lat="40.26858" lon="15.0055083"><ele>281.0</ele><time>2026-05-03T14:36:27.982Z</time></trkpt><trkpt lat="40.2684517" lon="15.0054733"><ele>281.0</ele><time>2026-05-03T14:36:28.982Z</time></trkpt><trkpt lat="40.2683233" lon="15.0054267"><ele>281.0</ele><time>2026-05-03T14:36:29.982Z</time></trkpt><trkpt lat="40.268195" lon="15.00538"><ele>281.0</ele><time>2026-05-03T14:36:30.982Z</time></trkpt><trkpt lat="40.2680667" lon="15.0053367"><ele>281.0</ele><time>2026-05-03T14:36:31.982Z</time></trkpt><trkpt lat="40.2679383" lon="15.0052933"><ele>280.6</ele><time>2026-05-03T14:36:32.985Z</time></trkpt><trkpt lat="40.26782" lon="15.0052533"><ele>280.20000000000005</ele><time>2026-05-03T14:36:33.982Z</time></trkpt><trkpt lat="40.26771" lon="15.005205"><ele>279.79999999999995</ele><time>2026-05-03T14:36:34.984Z</time></trkpt><trkpt lat="40.267615" lon="15.0051467"><ele>279.4</ele><time>2026-05-03T14:36:35.982Z</time></trkpt><trkpt lat="40.2675283" lon="15.0050767"><ele>279.0</ele><time>2026-05-03T14:36:36.983Z</time></trkpt><trkpt lat="40.267455" lon="15.0049867"><ele>279.0</ele><time>2026-05-03T14:36:37.982Z</time></trkpt><trkpt lat="40.2673967" lon="15.0048617"><ele>279.0</ele><time>2026-05-03T14:36:38.984Z</time></trkpt><trkpt lat="40.2673517" lon="15.0047117"><ele>279.0</ele><time>2026-05-03T14:36:39.981Z</time></trkpt><trkpt lat="40.2673233" lon="15.0045167"><ele>279.0</ele><time>2026-05-03T14:36:40.982Z</time></trkpt><trkpt lat="40.2673" lon="15.0042883"><ele>276.3333333333333</ele><time>2026-05-03T14:36:41.983Z</time></trkpt><trkpt lat="40.2672817" lon="15.0040567"><ele>273.66666666666663</ele><time>2026-05-03T14:36:42.981Z</time></trkpt><trkpt lat="40.267265" lon="15.00384"><ele>271.0</ele><time>2026-05-03T14:36:43.982Z</time></trkpt><trkpt lat="40.2672533" lon="15.00363"><ele>281.0</ele><time>2026-05-03T14:36:44.982Z</time></trkpt><trkpt lat="40.26724" lon="15.00342"><ele>291.0</ele><time>2026-05-03T14:36:45.983Z</time></trkpt><trkpt lat="40.2672333" lon="15.003205"><ele>301.0</ele><time>2026-05-03T14:36:46.982Z</time></trkpt><trkpt lat="40.267225" lon="15.002995"><ele>301.0</ele><time>2026-05-03T14:36:47.981Z</time></trkpt><trkpt lat="40.2672267" lon="15.002785"><ele>301.0</ele><time>2026-05-03T14:36:48.982Z</time></trkpt><trkpt lat="40.2672317" lon="15.0025783"><ele>301.0</ele><time>2026-05-03T14:36:49.984Z</time></trkpt><trkpt lat="40.2672333" lon="15.0023767"><ele>297.66666666666663</ele><time>2026-05-03T14:36:50.983Z</time></trkpt><trkpt lat="40.2672317" lon="15.0021767"><ele>294.3333333333333</ele><time>2026-05-03T14:36:51.982Z</time></trkpt><trkpt lat="40.2672183" lon="15.00198"><ele>291.0</ele><time>2026-05-03T14:36:52.983Z</time></trkpt><trkpt lat="40.2672" lon="15.0017817"><ele>286.3333333333333</ele><time>2026-05-03T14:36:53.985Z</time></trkpt><trkpt lat="40.26717" lon="15.0015833"><ele>281.66666666666663</ele><time>2026-05-03T14:36:54.983Z</time></trkpt><trkpt lat="40.267115" lon="15.00137"><ele>277.0</ele><time>2026-05-03T14:36:55.983Z</time></trkpt><trkpt lat="40.267035" lon="15.0011517"><ele>277.0</ele><time>2026-05-03T14:36:56.984Z</time></trkpt><trkpt lat="40.26695" lon="15.0009433"><ele>277.0</ele><time>2026-05-03T14:36:57.983Z</time></trkpt><trkpt lat="40.2668667" lon="15.000745"><ele>277.0</ele><time>2026-05-03T14:36:58.986Z</time></trkpt><trkpt lat="40.2667917" lon="15.00056"><ele>275.25</ele><time>2026-05-03T14:36:59.984Z</time></trkpt><trkpt lat="40.26673" lon="15.0003933"><ele>273.5</ele><time>2026-05-03T14:37:00.983Z</time></trkpt><trkpt lat="40.2666867" lon="15.0002383"><ele>271.75</ele><time>2026-05-03T14:37:01.984Z</time></trkpt><trkpt lat="40.2666783" lon="15.000085"><ele>270.0</ele><time>2026-05-03T14:37:02.984Z</time></trkpt><trkpt lat="40.26671" lon="14.99992"><ele>270.0</ele><time>2026-05-03T14:37:03.983Z</time></trkpt><trkpt lat="40.2667633" lon="14.99975"><ele>270.0</ele><time>2026-05-03T14:37:04.983Z</time></trkpt><trkpt lat="40.26681" lon="14.999575"><ele>270.0</ele><time>2026-05-03T14:37:05.982Z</time></trkpt><trkpt lat="40.26684" lon="14.999405"><ele>270.0</ele><time>2026-05-03T14:37:06.983Z</time></trkpt><trkpt lat="40.26685" lon="14.9992467"><ele>270.75</ele><time>2026-05-03T14:37:07.984Z</time></trkpt><trkpt lat="40.266855" lon="14.9990883"><ele>271.5</ele><time>2026-05-03T14:37:08.984Z</time></trkpt><trkpt lat="40.2668633" lon="14.9989333"><ele>272.25</ele><time>2026-05-03T14:37:09.984Z</time></trkpt><trkpt lat="40.2668983" lon="14.9987867"><ele>273.0</ele><time>2026-05-03T14:37:10.983Z</time></trkpt><trkpt lat="40.26696" lon="14.9986633"><ele>273.0</ele><time>2026-05-03T14:37:11.984Z</time></trkpt><trkpt lat="40.2670517" lon="14.9985583"><ele>273.0</ele><time>2026-05-03T14:37:12.984Z</time></trkpt><trkpt lat="40.267165" lon="14.9984617"><ele>273.0</ele><time>2026-05-03T14:37:13.983Z</time></trkpt><trkpt lat="40.2672883" lon="14.99836"><ele>273.0</ele><time>2026-05-03T14:37:14.983Z</time></trkpt><trkpt lat="40.2674033" lon="14.9982533"><ele>268.75</ele><time>2026-05-03T14:37:15.984Z</time></trkpt><trkpt lat="40.26751" lon="14.9981433"><ele>264.5</ele><time>2026-05-03T14:37:16.983Z</time></trkpt><trkpt lat="40.2676083" lon="14.998035"><ele>260.25</ele><time>2026-05-03T14:37:17.983Z</time></trkpt><trkpt lat="40.2677017" lon="14.997925"><ele>256.0</ele><time>2026-05-03T14:37:18.983Z</time></trkpt><trkpt lat="40.26777" lon="14.99781"><ele>256.0</ele><time>2026-05-03T14:37:19.983Z</time></trkpt><trkpt lat="40.26782" lon="14.99767"><ele>256.0</ele><time>2026-05-03T14:37:20.983Z</time></trkpt><trkpt lat="40.267865" lon="14.997485"><ele>256.0</ele><time>2026-05-03T14:37:21.983Z</time></trkpt><trkpt lat="40.2679283" lon="14.997285"><ele>256.0</ele><time>2026-05-03T14:37:22.984Z</time></trkpt><trkpt lat="40.2680117" lon="14.9970867"><ele>251.66666666666666</ele><time>2026-05-03T14:37:23.983Z</time></trkpt><trkpt lat="40.2681117" lon="14.9969067"><ele>247.33333333333331</ele><time>2026-05-03T14:37:24.985Z</time></trkpt><trkpt lat="40.2682217" lon="14.996745"><ele>243.0</ele><time>2026-05-03T14:37:25.983Z</time></trkpt><trkpt lat="40.2683333" lon="14.9966067"><ele>243.0</ele><time>2026-05-03T14:37:26.983Z</time></trkpt><trkpt lat="40.2684483" lon="14.9964817"><ele>243.0</ele><time>2026-05-03T14:37:27.982Z</time></trkpt><trkpt lat="40.268565" lon="14.9963717"><ele>243.0</ele><time>2026-05-03T14:37:28.985Z</time></trkpt><trkpt lat="40.268675" lon="14.9962683"><ele>243.0</ele><time>2026-05-03T14:37:29.982Z</time></trkpt><trkpt lat="40.2687883" lon="14.9961833"><ele>243.0</ele><time>2026-05-03T14:37:30.983Z</time></trkpt><trkpt lat="40.2689117" lon="14.9961367"><ele>243.0</ele><time>2026-05-03T14:37:31.982Z</time></trkpt><trkpt lat="40.2690333" lon="14.99614"><ele>243.0</ele><time>2026-05-03T14:37:32.987Z</time></trkpt><trkpt lat="40.2691483" lon="14.9961967"><ele>243.0</ele><time>2026-05-03T14:37:33.985Z</time></trkpt><trkpt lat="40.2692483" lon="14.9962767"><ele>239.2</ele><time>2026-05-03T14:37:34.982Z</time></trkpt><trkpt lat="40.2693367" lon="14.9963483"><ele>235.4</ele><time>2026-05-03T14:37:35.982Z</time></trkpt><trkpt lat="40.2694267" lon="14.99638"><ele>231.59999999999997</ele><time>2026-05-03T14:37:36.982Z</time></trkpt><trkpt lat="40.2695167" lon="14.996375"><ele>227.79999999999998</ele><time>2026-05-03T14:37:37.984Z</time></trkpt><trkpt lat="40.269605" lon="14.99632"><ele>224.0</ele><time>2026-05-03T14:37:38.984Z</time></trkpt><trkpt lat="40.2696833" lon="14.9962183"><ele>224.0</ele><time>2026-05-03T14:37:39.984Z</time></trkpt><trkpt lat="40.2697517" lon="14.996065"><ele>224.0</ele><time>2026-05-03T14:37:40.984Z</time></trkpt><trkpt lat="40.2698167" lon="14.995875"><ele>224.0</ele><time>2026-05-03T14:37:41.984Z</time></trkpt><trkpt lat="40.2698967" lon="14.9956717"><ele>219.0</ele><time>2026-05-03T14:37:42.982Z</time></trkpt><trkpt lat="40.2699917" lon="14.9954683"><ele>214.0</ele><time>2026-05-03T14:37:43.983Z</time></trkpt><trkpt lat="40.270095" lon="14.9952733"><ele>209.0</ele><time>2026-05-03T14:37:44.983Z</time></trkpt><trkpt lat="40.270205" lon="14.9950783"><ele>212.0</ele><time>2026-05-03T14:37:45.983Z</time></trkpt><trkpt lat="40.2703133" lon="14.9949083"><ele>215.0</ele><time>2026-05-03T14:37:46.983Z</time></trkpt><trkpt lat="40.2704217" lon="14.994755"><ele>218.0</ele><time>2026-05-03T14:37:47.982Z</time></trkpt><trkpt lat="40.2705283" lon="14.9946417"><ele>212.4</ele><time>2026-05-03T14:37:48.983Z</time></trkpt><trkpt lat="40.2706333" lon="14.9945633"><ele>206.8</ele><time>2026-05-03T14:37:49.988Z</time></trkpt><trkpt lat="40.2707283" lon="14.9944967"><ele>201.2</ele><time>2026-05-03T14:37:50.982Z</time></trkpt><trkpt lat="40.270805" lon="14.9944333"><ele>195.6</ele><time>2026-05-03T14:37:51.982Z</time></trkpt><trkpt lat="40.2708533" lon="14.994345"><ele>190.0</ele><time>2026-05-03T14:37:52.982Z</time></trkpt><trkpt lat="40.27087" lon="14.9942467"><ele>190.8</ele><time>2026-05-03T14:37:53.982Z</time></trkpt><trkpt lat="40.2708533" lon="14.9941567"><ele>191.6</ele><time>2026-05-03T14:37:54.982Z</time></trkpt><trkpt lat="40.2708033" lon="14.9940667"><ele>192.39999999999998</ele><time>2026-05-03T14:37:55.983Z</time></trkpt><trkpt lat="40.2707267" lon="14.9939983"><ele>193.2</ele><time>2026-05-03T14:37:56.984Z</time></trkpt><trkpt lat="40.270605" lon="14.99396"><ele>194.0</ele><time>2026-05-03T14:37:57.985Z</time></trkpt><trkpt lat="40.2704683" lon="14.9939433"><ele>197.0</ele><time>2026-05-03T14:37:58.984Z</time></trkpt><trkpt lat="40.2703317" lon="14.9939433"><ele>200.0</ele><time>2026-05-03T14:37:59.984Z</time></trkpt><trkpt lat="40.2701967" lon="14.9939217"><ele>203.0</ele><time>2026-05-03T14:38:00.984Z</time></trkpt><trkpt lat="40.2700683" lon="14.9938833"><ele>206.0</ele><time>2026-05-03T14:38:01.984Z</time></trkpt><trkpt lat="40.26996" lon="14.9938283"><ele>206.0</ele><time>2026-05-03T14:38:02.983Z</time></trkpt><trkpt lat="40.26987" lon="14.9937483"><ele>206.0</ele><time>2026-05-03T14:38:03.983Z</time></trkpt><trkpt lat="40.2697967" lon="14.9936467"><ele>206.0</ele><time>2026-05-03T14:38:04.983Z</time></trkpt><trkpt lat="40.2697433" lon="14.99349"><ele>206.0</ele><time>2026-05-03T14:38:05.984Z</time></trkpt><trkpt lat="40.269695" lon="14.9933167"><ele>205.25</ele><time>2026-05-03T14:38:06.983Z</time></trkpt><trkpt lat="40.26967" lon="14.9931483"><ele>204.5</ele><time>2026-05-03T14:38:07.983Z</time></trkpt><trkpt lat="40.269675" lon="14.9929783"><ele>203.75</ele><time>2026-05-03T14:38:08.984Z</time></trkpt><trkpt lat="40.269715" lon="14.9928017"><ele>203.0</ele><time>2026-05-03T14:38:09.983Z</time></trkpt><trkpt lat="40.2697883" lon="14.9926383"><ele>196.66666666666669</ele><time>2026-05-03T14:38:10.984Z</time></trkpt><trkpt lat="40.2698817" lon="14.9924733"><ele>190.33333333333334</ele><time>2026-05-03T14:38:11.983Z</time></trkpt><trkpt lat="40.269985" lon="14.99231"><ele>184.0</ele><time>2026-05-03T14:38:12.982Z</time></trkpt><trkpt lat="40.2700717" lon="14.992155"><ele>184.0</ele><time>2026-05-03T14:38:13.984Z</time></trkpt><trkpt lat="40.27015" lon="14.991995"><ele>184.0</ele><time>2026-05-03T14:38:14.986Z</time></trkpt><trkpt lat="40.2702117" lon="14.99181"><ele>184.0</ele><time>2026-05-03T14:38:15.983Z</time></trkpt><trkpt lat="40.2702517" lon="14.9916"><ele>183.0</ele><time>2026-05-03T14:38:16.982Z</time></trkpt><trkpt lat="40.2702767" lon="14.9913817"><ele>182.0</ele><time>2026-05-03T14:38:17.983Z</time></trkpt><trkpt lat="40.2703017" lon="14.991165"><ele>181.0</ele><time>2026-05-03T14:38:18.983Z</time></trkpt><trkpt lat="40.270325" lon="14.9909517"><ele>180.0</ele><time>2026-05-03T14:38:19.983Z</time></trkpt><trkpt lat="40.27034" lon="14.990755"><ele>179.0</ele><time>2026-05-03T14:38:20.983Z</time></trkpt><trkpt lat="40.27035" lon="14.99058"><ele>178.0</ele><time>2026-05-03T14:38:21.984Z</time></trkpt><trkpt lat="40.2703433" lon="14.9904233"><ele>177.0</ele><time>2026-05-03T14:38:22.982Z</time></trkpt><trkpt lat="40.2703217" lon="14.9902883"><ele>177.0</ele><time>2026-05-03T14:38:23.983Z</time></trkpt><trkpt lat="40.27027" lon="14.99018"><ele>177.0</ele><time>2026-05-03T14:38:24.982Z</time></trkpt><trkpt lat="40.2701833" lon="14.9900917"><ele>177.0</ele><time>2026-05-03T14:38:25.982Z</time></trkpt><trkpt lat="40.270065" lon="14.99004"><ele>177.0</ele><time>2026-05-03T14:38:26.986Z</time></trkpt><trkpt lat="40.2699367" lon="14.9899967"><ele>175.75</ele><time>2026-05-03T14:38:27.984Z</time></trkpt><trkpt lat="40.2698017" lon="14.989955"><ele>174.5</ele><time>2026-05-03T14:38:28.984Z</time></trkpt><trkpt lat="40.2696683" lon="14.9898867"><ele>173.25</ele><time>2026-05-03T14:38:29.983Z</time></trkpt><trkpt lat="40.2695417" lon="14.98979"><ele>172.0</ele><time>2026-05-03T14:38:30.982Z</time></trkpt><trkpt lat="40.26944" lon="14.9896567"><ele>172.0</ele><time>2026-05-03T14:38:31.983Z</time></trkpt><trkpt lat="40.269365" lon="14.9895217"><ele>172.0</ele><time>2026-05-03T14:38:32.983Z</time></trkpt><trkpt lat="40.2693367" lon="14.98937"><ele>172.0</ele><time>2026-05-03T14:38:33.984Z</time></trkpt><trkpt lat="40.269375" lon="14.989205"><ele>172.0</ele><time>2026-05-03T14:38:34.983Z</time></trkpt><trkpt lat="40.269435" lon="14.98905"><ele>167.75</ele><time>2026-05-03T14:38:35.983Z</time></trkpt><trkpt lat="40.2695183" lon="14.988905"><ele>163.5</ele><time>2026-05-03T14:38:36.983Z</time></trkpt><trkpt lat="40.2695883" lon="14.9887683"><ele>159.25</ele><time>2026-05-03T14:38:37.983Z</time></trkpt><trkpt lat="40.2696333" lon="14.988635"><ele>155.0</ele><time>2026-05-03T14:38:38.984Z</time></trkpt><trkpt lat="40.2696583" lon="14.988515"><ele>155.0</ele><time>2026-05-03T14:38:39.984Z</time></trkpt><trkpt lat="40.26965" lon="14.9884133"><ele>155.0</ele><time>2026-05-03T14:38:40.983Z</time></trkpt><trkpt lat="40.269625" lon="14.9883183"><ele>155.0</ele><time>2026-05-03T14:38:41.983Z</time></trkpt><trkpt lat="40.2695567" lon="14.9882583"><ele>155.0</ele><time>2026-05-03T14:38:42.983Z</time></trkpt><trkpt lat="40.26946" lon="14.9882333"><ele>155.0</ele><time>2026-05-03T14:38:43.983Z</time></trkpt><trkpt lat="40.2693317" lon="14.9882567"><ele>157.66666666666666</ele><time>2026-05-03T14:38:44.984Z</time></trkpt><trkpt lat="40.2691917" lon="14.988295"><ele>160.33333333333334</ele><time>2026-05-03T14:38:45.984Z</time></trkpt><trkpt lat="40.2690367" lon="14.98834"><ele>163.0</ele><time>2026-05-03T14:38:46.984Z</time></trkpt><trkpt lat="40.2688717" lon="14.9883783"><ele>163.0</ele><time>2026-05-03T14:38:47.984Z</time></trkpt><trkpt lat="40.268705" lon="14.9884167"><ele>163.0</ele><time>2026-05-03T14:38:48.983Z</time></trkpt><trkpt lat="40.2685467" lon="14.9884467"><ele>163.0</ele><time>2026-05-03T14:38:49.982Z</time></trkpt><trkpt lat="40.268395" lon="14.98847"><ele>163.0</ele><time>2026-05-03T14:38:50.982Z</time></trkpt><trkpt lat="40.2682483" lon="14.9884783"><ele>163.0</ele><time>2026-05-03T14:38:51.982Z</time></trkpt><trkpt lat="40.2681083" lon="14.9884633"><ele>163.0</ele><time>2026-05-03T14:38:52.985Z</time></trkpt><trkpt lat="40.26798" lon="14.9884167"><ele>163.0</ele><time>2026-05-03T14:38:53.983Z</time></trkpt><trkpt lat="40.26787" lon="14.988345"><ele>159.0</ele><time>2026-05-03T14:38:54.983Z</time></trkpt><trkpt lat="40.2677817" lon="14.9882367"><ele>155.0</ele><time>2026-05-03T14:38:55.982Z</time></trkpt><trkpt lat="40.26773" lon="14.9880867"><ele>151.0</ele><time>2026-05-03T14:38:56.983Z</time></trkpt><trkpt lat="40.26771" lon="14.9878967"><ele>147.0</ele><time>2026-05-03T14:38:57.982Z</time></trkpt><trkpt lat="40.2677017" lon="14.9877017"><ele>147.0</ele><time>2026-05-03T14:38:58.984Z</time></trkpt><trkpt lat="40.2676983" lon="14.9875133"><ele>147.0</ele><time>2026-05-03T14:38:59.983Z</time></trkpt><trkpt lat="40.267695" lon="14.9873367"><ele>147.0</ele><time>2026-05-03T14:39:00.983Z</time></trkpt><trkpt lat="40.267675" lon="14.9871733"><ele>147.0</ele><time>2026-05-03T14:39:01.983Z</time></trkpt><trkpt lat="40.2676267" lon="14.9870167"><ele>141.0</ele><time>2026-05-03T14:39:02.983Z</time></trkpt><trkpt lat="40.267545" lon="14.9868617"><ele>135.0</ele><time>2026-05-03T14:39:03.984Z</time></trkpt><trkpt lat="40.267435" lon="14.98672"><ele>129.0</ele><time>2026-05-03T14:39:04.982Z</time></trkpt><trkpt lat="40.2673133" lon="14.986585"><ele>127.0</ele><time>2026-05-03T14:39:05.982Z</time></trkpt><trkpt lat="40.2671833" lon="14.9864633"><ele>125.0</ele><time>2026-05-03T14:39:06.983Z</time></trkpt><trkpt lat="40.2670333" lon="14.986355"><ele>123.0</ele><time>2026-05-03T14:39:07.983Z</time></trkpt><trkpt lat="40.266865" lon="14.9862517"><ele>123.0</ele><time>2026-05-03T14:39:08.983Z</time></trkpt><trkpt lat="40.2666883" lon="14.9861433"><ele>123.0</ele><time>2026-05-03T14:39:09.983Z</time></trkpt><trkpt lat="40.26651" lon="14.986035"><ele>123.0</ele><time>2026-05-03T14:39:10.983Z</time></trkpt><trkpt lat="40.2663367" lon="14.9859267"><ele>116.66666666666666</ele><time>2026-05-03T14:39:11.984Z</time></trkpt><trkpt lat="40.2661667" lon="14.9858217"><ele>110.33333333333333</ele><time>2026-05-03T14:39:12.983Z</time></trkpt><trkpt lat="40.2660083" lon="14.9857233"><ele>104.0</ele><time>2026-05-03T14:39:13.984Z</time></trkpt><trkpt lat="40.2658667" lon="14.98563"><ele>104.0</ele><time>2026-05-03T14:39:14.984Z</time></trkpt><trkpt lat="40.2657367" lon="14.9855283"><ele>104.0</ele><time>2026-05-03T14:39:15.983Z</time></trkpt><trkpt lat="40.2656133" lon="14.9854217"><ele>104.0</ele><time>2026-05-03T14:39:16.982Z</time></trkpt><trkpt lat="40.2654933" lon="14.985315"><ele>104.0</ele><time>2026-05-03T14:39:17.982Z</time></trkpt><trkpt lat="40.2653767" lon="14.985205"><ele>105.75</ele><time>2026-05-03T14:39:18.983Z</time></trkpt><trkpt lat="40.2652583" lon="14.9850967"><ele>107.5</ele><time>2026-05-03T14:39:19.982Z</time></trkpt><trkpt lat="40.2651467" lon="14.9849967"><ele>109.25</ele><time>2026-05-03T14:39:20.983Z</time></trkpt><trkpt lat="40.265035" lon="14.9848783"><ele>111.0</ele><time>2026-05-03T14:39:21.983Z</time></trkpt><trkpt lat="40.264935" lon="14.9847267"><ele>104.66666666666667</ele><time>2026-05-03T14:39:22.982Z</time></trkpt><trkpt lat="40.2648583" lon="14.9845433"><ele>98.33333333333334</ele><time>2026-05-03T14:39:23.983Z</time></trkpt><trkpt lat="40.264815" lon="14.9843333"><ele>92.0</ele><time>2026-05-03T14:39:24.985Z</time></trkpt><trkpt lat="40.2647833" lon="14.98413"><ele>95.25</ele><time>2026-05-03T14:39:25.982Z</time></trkpt><trkpt lat="40.2647433" lon="14.98394"><ele>98.5</ele><time>2026-05-03T14:39:26.983Z</time></trkpt><trkpt lat="40.2647033" lon="14.98376"><ele>101.75</ele><time>2026-05-03T14:39:27.983Z</time></trkpt><trkpt lat="40.264655" lon="14.9835867"><ele>105.0</ele><time>2026-05-03T14:39:28.982Z</time></trkpt><trkpt lat="40.2646" lon="14.9834167"><ele>100.5</ele><time>2026-05-03T14:39:29.982Z</time></trkpt><trkpt lat="40.2645467" lon="14.9832667"><ele>96.0</ele><time>2026-05-03T14:39:30.983Z</time></trkpt><trkpt lat="40.264485" lon="14.9831267"><ele>91.5</ele><time>2026-05-03T14:39:31.983Z</time></trkpt><trkpt lat="40.2644167" lon="14.9829917"><ele>87.0</ele><time>2026-05-03T14:39:32.983Z</time></trkpt><trkpt lat="40.26433" lon="14.98288"><ele>87.0</ele><time>2026-05-03T14:39:33.982Z</time></trkpt><trkpt lat="40.2642267" lon="14.982785"><ele>87.0</ele><time>2026-05-03T14:39:34.983Z</time></trkpt><trkpt lat="40.2641183" lon="14.982695"><ele>87.0</ele><time>2026-05-03T14:39:35.982Z</time></trkpt><trkpt lat="40.2640067" lon="14.9826133"><ele>87.0</ele><time>2026-05-03T14:39:36.982Z</time></trkpt><trkpt lat="40.2638967" lon="14.9825267"><ele>83.5</ele><time>2026-05-03T14:39:37.983Z</time></trkpt><trkpt lat="40.263795" lon="14.9824433"><ele>80.0</ele><time>2026-05-03T14:39:38.983Z</time></trkpt><trkpt lat="40.2636917" lon="14.9823733"><ele>76.5</ele><time>2026-05-03T14:39:39.982Z</time></trkpt><trkpt lat="40.2635867" lon="14.9823217"><ele>73.0</ele><time>2026-05-03T14:39:40.982Z</time></trkpt><trkpt lat="40.263475" lon="14.9822967"><ele>73.0</ele><time>2026-05-03T14:39:41.982Z</time></trkpt><trkpt lat="40.2633567" lon="14.982305"><ele>73.0</ele><time>2026-05-03T14:39:42.982Z</time></trkpt><trkpt lat="40.2632317" lon="14.98237"><ele>73.0</ele><time>2026-05-03T14:39:43.985Z</time></trkpt><trkpt lat="40.263105" lon="14.9824533"><ele>73.0</ele><time>2026-05-03T14:39:44.984Z</time></trkpt><trkpt lat="40.2629767" lon="14.98254"><ele>73.5</ele><time>2026-05-03T14:39:45.984Z</time></trkpt><trkpt lat="40.2628467" lon="14.9825983"><ele>74.0</ele><time>2026-05-03T14:39:46.983Z</time></trkpt><trkpt lat="40.262715" lon="14.9826167"><ele>74.5</ele><time>2026-05-03T14:39:47.984Z</time></trkpt><trkpt lat="40.2625983" lon="14.9826167"><ele>75.0</ele><time>2026-05-03T14:39:48.984Z</time></trkpt><trkpt lat="40.2624583" lon="14.982525"><ele>71.0</ele><time>2026-05-03T14:39:49.984Z</time></trkpt><trkpt lat="40.2623233" lon="14.9823917"><ele>67.0</ele><time>2026-05-03T14:39:50.984Z</time></trkpt><trkpt lat="40.2621917" lon="14.9822417"><ele>63.0</ele><time>2026-05-03T14:39:51.983Z</time></trkpt><trkpt lat="40.26206" lon="14.9821"><ele>61.0</ele><time>2026-05-03T14:39:52.982Z</time></trkpt><trkpt lat="40.2619333" lon="14.9819733"><ele>59.0</ele><time>2026-05-03T14:39:53.983Z</time></trkpt><trkpt lat="40.2618117" lon="14.9818517"><ele>57.0</ele><time>2026-05-03T14:39:54.983Z</time></trkpt><trkpt lat="40.26169" lon="14.9817333"><ele>57.0</ele><time>2026-05-03T14:39:55.983Z</time></trkpt><trkpt lat="40.2615717" lon="14.9816167"><ele>57.0</ele><time>2026-05-03T14:39:56.984Z</time></trkpt><trkpt lat="40.2614533" lon="14.9815"><ele>57.0</ele><time>2026-05-03T14:39:57.985Z</time></trkpt><trkpt lat="40.2613383" lon="14.9813833"><ele>57.0</ele><time>2026-05-03T14:39:58.984Z</time></trkpt><trkpt lat="40.261225" lon="14.9812667"><ele>57.0</ele><time>2026-05-03T14:39:59.983Z</time></trkpt><trkpt lat="40.26111" lon="14.9811583"><ele>57.0</ele><time>2026-05-03T14:40:00.984Z</time></trkpt><trkpt lat="40.2609967" lon="14.9810433"><ele>57.0</ele><time>2026-05-03T14:40:01.985Z</time></trkpt><trkpt lat="40.260885" lon="14.9809283"><ele>57.0</ele><time>2026-05-03T14:40:02.984Z</time></trkpt><trkpt lat="40.2607767" lon="14.98081"><ele>55.75</ele><time>2026-05-03T14:40:03.982Z</time></trkpt><trkpt lat="40.2606683" lon="14.9806733"><ele>54.5</ele><time>2026-05-03T14:40:04.983Z</time></trkpt><trkpt lat="40.2605733" lon="14.9805233"><ele>53.25</ele><time>2026-05-03T14:40:05.983Z</time></trkpt><trkpt lat="40.2604883" lon="14.98038"><ele>52.0</ele><time>2026-05-03T14:40:06.983Z</time></trkpt><trkpt lat="40.260415" lon="14.9802433"><ele>52.25</ele><time>2026-05-03T14:40:07.982Z</time></trkpt><trkpt lat="40.2603483" lon="14.98011"><ele>52.5</ele><time>2026-05-03T14:40:08.985Z</time></trkpt><trkpt lat="40.2602917" lon="14.9799817"><ele>52.75</ele><time>2026-05-03T14:40:09.982Z</time></trkpt><trkpt lat="40.260235" lon="14.9798633"><ele>53.0</ele><time>2026-05-03T14:40:10.983Z</time></trkpt><trkpt lat="40.2601667" lon="14.97975"><ele>53.0</ele><time>2026-05-03T14:40:11.982Z</time></trkpt><trkpt lat="40.2600767" lon="14.9796383"><ele>53.0</ele><time>2026-05-03T14:40:12.982Z</time></trkpt><trkpt lat="40.2599583" lon="14.97953"><ele>53.0</ele><time>2026-05-03T14:40:13.982Z</time></trkpt><trkpt lat="40.2598233" lon="14.9794267"><ele>53.0</ele><time>2026-05-03T14:40:14.983Z</time></trkpt><trkpt lat="40.2596883" lon="14.97933"><ele>53.25</ele><time>2026-05-03T14:40:15.982Z</time></trkpt><trkpt lat="40.25956" lon="14.9792433"><ele>53.5</ele><time>2026-05-03T14:40:16.983Z</time></trkpt><trkpt lat="40.259435" lon="14.9791633"><ele>53.75</ele><time>2026-05-03T14:40:17.982Z</time></trkpt><trkpt lat="40.2593117" lon="14.979095"><ele>54.0</ele><time>2026-05-03T14:40:18.984Z</time></trkpt><trkpt lat="40.2591867" lon="14.9790483"><ele>52.0</ele><time>2026-05-03T14:40:19.984Z</time></trkpt><trkpt lat="40.2590533" lon="14.979025"><ele>50.0</ele><time>2026-05-03T14:40:20.983Z</time></trkpt><trkpt lat="40.258905" lon="14.97902"><ele>48.0</ele><time>2026-05-03T14:40:21.982Z</time></trkpt><trkpt lat="40.2587483" lon="14.9790233"><ele>46.0</ele><time>2026-05-03T14:40:22.983Z</time></trkpt><trkpt lat="40.2585833" lon="14.9790317"><ele>45.0</ele><time>2026-05-03T14:40:23.984Z</time></trkpt><trkpt lat="40.2584217" lon="14.9790383"><ele>44.0</ele><time>2026-05-03T14:40:24.983Z</time></trkpt><trkpt lat="40.2582667" lon="14.97904"><ele>43.0</ele><time>2026-05-03T14:40:25.983Z</time></trkpt><trkpt lat="40.2581183" lon="14.9790417"><ele>43.25</ele><time>2026-05-03T14:40:26.984Z</time></trkpt><trkpt lat="40.2579783" lon="14.979045"><ele>43.5</ele><time>2026-05-03T14:40:27.983Z</time></trkpt><trkpt lat="40.2578417" lon="14.9790483"><ele>43.75</ele><time>2026-05-03T14:40:28.982Z</time></trkpt><trkpt lat="40.257705" lon="14.9790667"><ele>44.0</ele><time>2026-05-03T14:40:29.982Z</time></trkpt><trkpt lat="40.2575717" lon="14.9790783"><ele>44.0</ele><time>2026-05-03T14:40:30.982Z</time></trkpt><trkpt lat="40.2574367" lon="14.9790817"><ele>44.0</ele><time>2026-05-03T14:40:31.983Z</time></trkpt><trkpt lat="40.257295" lon="14.9790767"><ele>44.0</ele><time>2026-05-03T14:40:32.983Z</time></trkpt><trkpt lat="40.25715" lon="14.9790667"><ele>44.0</ele><time>2026-05-03T14:40:33.982Z</time></trkpt><trkpt lat="40.257" lon="14.979055"><ele>43.33333333333333</ele><time>2026-05-03T14:40:34.985Z</time></trkpt><trkpt lat="40.2568467" lon="14.9790283"><ele>42.666666666666664</ele><time>2026-05-03T14:40:35.984Z</time></trkpt><trkpt lat="40.2566833" lon="14.9789833"><ele>42.0</ele><time>2026-05-03T14:40:36.983Z</time></trkpt><trkpt lat="40.2565283" lon="14.97892"><ele>42.25</ele><time>2026-05-03T14:40:37.983Z</time></trkpt><trkpt lat="40.25639" lon="14.9788467"><ele>42.5</ele><time>2026-05-03T14:40:38.983Z</time></trkpt><trkpt lat="40.256265" lon="14.9787783"><ele>42.75</ele><time>2026-05-03T14:40:39.983Z</time></trkpt><trkpt lat="40.2561517" lon="14.97871"><ele>43.0</ele><time>2026-05-03T14:40:40.983Z</time></trkpt><trkpt lat="40.256045" lon="14.978645"><ele>43.0</ele><time>2026-05-03T14:40:41.982Z</time></trkpt><trkpt lat="40.2559433" lon="14.97859"><ele>43.0</ele><time>2026-05-03T14:40:42.982Z</time></trkpt><trkpt lat="40.2558417" lon="14.97855"><ele>43.0</ele><time>2026-05-03T14:40:43.983Z</time></trkpt><trkpt lat="40.2557333" lon="14.9785317"><ele>43.0</ele><time>2026-05-03T14:40:44.983Z</time></trkpt><trkpt lat="40.25562" lon="14.9785267"><ele>43.0</ele><time>2026-05-03T14:40:45.983Z</time></trkpt><trkpt lat="40.255505" lon="14.9785283"><ele>44.0</ele><time>2026-05-03T14:40:46.983Z</time></trkpt><trkpt lat="40.2553883" lon="14.9785433"><ele>45.0</ele><time>2026-05-03T14:40:47.982Z</time></trkpt><trkpt lat="40.2552767" lon="14.9785567"><ele>46.0</ele><time>2026-05-03T14:40:48.982Z</time></trkpt><trkpt lat="40.255165" lon="14.978565"><ele>47.0</ele><time>2026-05-03T14:40:49.983Z</time></trkpt><trkpt lat="40.2550517" lon="14.9785667"><ele>47.0</ele><time>2026-05-03T14:40:50.984Z</time></trkpt><trkpt lat="40.2549367" lon="14.9785667"><ele>47.0</ele><time>2026-05-03T14:40:51.983Z</time></trkpt><trkpt lat="40.2548183" lon="14.97857"><ele>47.0</ele><time>2026-05-03T14:40:52.984Z</time></trkpt><trkpt lat="40.2546967" lon="14.978575"><ele>47.0</ele><time>2026-05-03T14:40:53.983Z</time></trkpt><trkpt lat="40.2545733" lon="14.9785883"><ele>47.0</ele><time>2026-05-03T14:40:54.983Z</time></trkpt><trkpt lat="40.25445" lon="14.9786017"><ele>47.0</ele><time>2026-05-03T14:40:55.984Z</time></trkpt><trkpt lat="40.2543283" lon="14.9786117"><ele>47.0</ele><time>2026-05-03T14:40:56.984Z</time></trkpt><trkpt lat="40.25421" lon="14.9786217"><ele>47.0</ele><time>2026-05-03T14:40:57.983Z</time></trkpt><trkpt lat="40.25409" lon="14.9786267"><ele>47.0</ele><time>2026-05-03T14:40:58.983Z</time></trkpt><trkpt lat="40.25397" lon="14.9786183"><ele>47.0</ele><time>2026-05-03T14:40:59.984Z</time></trkpt><trkpt lat="40.253845" lon="14.9785933"><ele>47.0</ele><time>2026-05-03T14:41:00.984Z</time></trkpt><trkpt lat="40.253715" lon="14.9785467"><ele>47.0</ele><time>2026-05-03T14:41:01.984Z</time></trkpt><trkpt lat="40.25359" lon="14.978485"><ele>46.25</ele><time>2026-05-03T14:41:02.985Z</time></trkpt><trkpt lat="40.2534683" lon="14.9784283"><ele>45.5</ele><time>2026-05-03T14:41:03.983Z</time></trkpt><trkpt lat="40.25335" lon="14.9783783"><ele>44.75</ele><time>2026-05-03T14:41:04.983Z</time></trkpt><trkpt lat="40.2532333" lon="14.9783267"><ele>44.0</ele><time>2026-05-03T14:41:05.983Z</time></trkpt><trkpt lat="40.2531183" lon="14.97829"><ele>42.75</ele><time>2026-05-03T14:41:06.984Z</time></trkpt><trkpt lat="40.2530017" lon="14.9782833"><ele>41.5</ele><time>2026-05-03T14:41:07.983Z</time></trkpt><trkpt lat="40.2528833" lon="14.9783067"><ele>40.25</ele><time>2026-05-03T14:41:08.983Z</time></trkpt><trkpt lat="40.252765" lon="14.9783483"><ele>39.0</ele><time>2026-05-03T14:41:09.983Z</time></trkpt><trkpt lat="40.25265" lon="14.9783967"><ele>39.0</ele><time>2026-05-03T14:41:10.983Z</time></trkpt><trkpt lat="40.2525433" lon="14.9784433"><ele>39.0</ele><time>2026-05-03T14:41:11.982Z</time></trkpt><trkpt lat="40.25244" lon="14.9784717"><ele>39.0</ele><time>2026-05-03T14:41:12.983Z</time></trkpt><trkpt lat="40.252335" lon="14.9784667"><ele>39.0</ele><time>2026-05-03T14:41:13.982Z</time></trkpt><trkpt lat="40.252225" lon="14.97843"><ele>39.0</ele><time>2026-05-03T14:41:14.985Z</time></trkpt><trkpt lat="40.2521033" lon="14.9783733"><ele>37.333333333333336</ele><time>2026-05-03T14:41:15.983Z</time></trkpt><trkpt lat="40.2519667" lon="14.978295"><ele>35.66666666666667</ele><time>2026-05-03T14:41:16.982Z</time></trkpt><trkpt lat="40.251825" lon="14.9782183"><ele>34.0</ele><time>2026-05-03T14:41:17.986Z</time></trkpt><trkpt lat="40.2516883" lon="14.9781467"><ele>34.0</ele><time>2026-05-03T14:41:18.983Z</time></trkpt><trkpt lat="40.2515583" lon="14.97808"><ele>34.0</ele><time>2026-05-03T14:41:19.982Z</time></trkpt><trkpt lat="40.25144" lon="14.97801"><ele>34.0</ele><time>2026-05-03T14:41:20.985Z</time></trkpt><trkpt lat="40.2513367" lon="14.9779233"><ele>34.0</ele><time>2026-05-03T14:41:21.982Z</time></trkpt><trkpt lat="40.2512483" lon="14.9778117"><ele>34.0</ele><time>2026-05-03T14:41:22.982Z</time></trkpt><trkpt lat="40.25117" lon="14.9776767"><ele>34.0</ele><time>2026-05-03T14:41:23.982Z</time></trkpt><trkpt lat="40.2510967" lon="14.9775167"><ele>34.0</ele><time>2026-05-03T14:41:24.983Z</time></trkpt><trkpt lat="40.2510283" lon="14.9773367"><ele>34.0</ele><time>2026-05-03T14:41:25.983Z</time></trkpt><trkpt lat="40.250965" lon="14.977145"><ele>33.75</ele><time>2026-05-03T14:41:26.983Z</time></trkpt><trkpt lat="40.25091" lon="14.9769633"><ele>33.5</ele><time>2026-05-03T14:41:27.983Z</time></trkpt><trkpt lat="40.25086" lon="14.9768033"><ele>33.25</ele><time>2026-05-03T14:41:28.982Z</time></trkpt><trkpt lat="40.2508133" lon="14.97665"><ele>33.0</ele><time>2026-05-03T14:41:29.983Z</time></trkpt><trkpt lat="40.2507633" lon="14.9765083"><ele>32.0</ele><time>2026-05-03T14:41:30.982Z</time></trkpt><trkpt lat="40.2506983" lon="14.9763717"><ele>31.0</ele><time>2026-05-03T14:41:31.983Z</time></trkpt><trkpt lat="40.2506117" lon="14.9762433"><ele>30.0</ele><time>2026-05-03T14:41:32.982Z</time></trkpt><trkpt lat="40.2505" lon="14.9761283"><ele>29.0</ele><time>2026-05-03T14:41:33.982Z</time></trkpt><trkpt lat="40.25037" lon="14.9760133"><ele>30.0</ele><time>2026-05-03T14:41:34.982Z</time></trkpt><trkpt lat="40.25023" lon="14.9758933"><ele>31.0</ele><time>2026-05-03T14:41:35.983Z</time></trkpt><trkpt lat="40.2500733" lon="14.9757833"><ele>32.0</ele><time>2026-05-03T14:41:36.982Z</time></trkpt><trkpt lat="40.2498967" lon="14.9757033"><ele>34.666666666666664</ele><time>2026-05-03T14:41:37.982Z</time></trkpt><trkpt lat="40.2497167" lon="14.9756317"><ele>37.333333333333336</ele><time>2026-05-03T14:41:38.983Z</time></trkpt><trkpt lat="40.249545" lon="14.975565"><ele>40.0</ele><time>2026-05-03T14:41:39.983Z</time></trkpt><trkpt lat="40.2493883" lon="14.9754983"><ele>40.0</ele><time>2026-05-03T14:41:40.983Z</time></trkpt><trkpt lat="40.249235" lon="14.9754283"><ele>40.0</ele><time>2026-05-03T14:41:41.982Z</time></trkpt><trkpt lat="40.2490867" lon="14.97536"><ele>40.0</ele><time>2026-05-03T14:41:42.982Z</time></trkpt><trkpt lat="40.24894" lon="14.97529"><ele>41.66666666666667</ele><time>2026-05-03T14:41:43.982Z</time></trkpt><trkpt lat="40.2487867" lon="14.9752233"><ele>43.333333333333336</ele><time>2026-05-03T14:41:44.984Z</time></trkpt><trkpt lat="40.2486367" lon="14.97516"><ele>45.0</ele><time>2026-05-03T14:41:45.983Z</time></trkpt><trkpt lat="40.2484933" lon="14.9750833"><ele>40.75</ele><time>2026-05-03T14:41:46.983Z</time></trkpt><trkpt lat="40.24836" lon="14.9749967"><ele>36.5</ele><time>2026-05-03T14:41:47.984Z</time></trkpt><trkpt lat="40.2482383" lon="14.9749017"><ele>32.25</ele><time>2026-05-03T14:41:48.982Z</time></trkpt><trkpt lat="40.24813" lon="14.974805"><ele>28.0</ele><time>2026-05-03T14:41:49.982Z</time></trkpt><trkpt lat="40.2480217" lon="14.9747133"><ele>27.75</ele><time>2026-05-03T14:41:50.984Z</time></trkpt><trkpt lat="40.2479167" lon="14.974625"><ele>27.5</ele><time>2026-05-03T14:41:51.984Z</time></trkpt><trkpt lat="40.2478067" lon="14.974545"><ele>27.25</ele><time>2026-05-03T14:41:52.984Z</time></trkpt><trkpt lat="40.2476933" lon="14.9744733"><ele>27.0</ele><time>2026-05-03T14:41:53.983Z</time></trkpt><trkpt lat="40.24758" lon="14.9744083"><ele>27.0</ele><time>2026-05-03T14:41:54.983Z</time></trkpt><trkpt lat="40.2474783" lon="14.9743433"><ele>27.000000000000004</ele><time>2026-05-03T14:41:55.982Z</time></trkpt><trkpt lat="40.24738" lon="14.9742767"><ele>27.000000000000004</ele><time>2026-05-03T14:41:56.982Z</time></trkpt><trkpt lat="40.247285" lon="14.9742033"><ele>27.0</ele><time>2026-05-03T14:41:57.982Z</time></trkpt><trkpt lat="40.2471933" lon="14.9741233"><ele>27.0</ele><time>2026-05-03T14:41:58.983Z</time></trkpt><trkpt lat="40.2470983" lon="14.97403"><ele>30.333333333333336</ele><time>2026-05-03T14:41:59.983Z</time></trkpt><trkpt lat="40.2469933" lon="14.973915"><ele>33.66666666666667</ele><time>2026-05-03T14:42:00.984Z</time></trkpt><trkpt lat="40.246885" lon="14.9737767"><ele>37.0</ele><time>2026-05-03T14:42:01.983Z</time></trkpt><trkpt lat="40.2467683" lon="14.97362"><ele>37.0</ele><time>2026-05-03T14:42:02.983Z</time></trkpt><trkpt lat="40.2466583" lon="14.9734517"><ele>37.0</ele><time>2026-05-03T14:42:03.983Z</time></trkpt><trkpt lat="40.2465533" lon="14.9732917"><ele>37.0</ele><time>2026-05-03T14:42:04.982Z</time></trkpt><trkpt lat="40.2464467" lon="14.9731467"><ele>39.25</ele><time>2026-05-03T14:42:05.983Z</time></trkpt><trkpt lat="40.246345" lon="14.97302"><ele>41.5</ele><time>2026-05-03T14:42:06.983Z</time></trkpt><trkpt lat="40.2462517" lon="14.9729"><ele>43.75</ele><time>2026-05-03T14:42:07.982Z</time></trkpt><trkpt lat="40.2461433" lon="14.972815"><ele>46.0</ele><time>2026-05-03T14:42:08.982Z</time></trkpt><trkpt lat="40.246005" lon="14.9727633"><ele>46.0</ele><time>2026-05-03T14:42:09.982Z</time></trkpt><trkpt lat="40.2458433" lon="14.9727117"><ele>46.0</ele><time>2026-05-03T14:42:10.982Z</time></trkpt><trkpt lat="40.2456667" lon="14.9726533"><ele>46.0</ele><time>2026-05-03T14:42:11.983Z</time></trkpt><trkpt lat="40.24549" lon="14.9725933"><ele>43.0</ele><time>2026-05-03T14:42:12.988Z</time></trkpt><trkpt lat="40.2453183" lon="14.9725317"><ele>40.0</ele><time>2026-05-03T14:42:13.983Z</time></trkpt><trkpt lat="40.2451533" lon="14.9724717"><ele>37.0</ele><time>2026-05-03T14:42:14.983Z</time></trkpt><trkpt lat="40.2449983" lon="14.97242"><ele>37.0</ele><time>2026-05-03T14:42:15.982Z</time></trkpt><trkpt lat="40.2448567" lon="14.9723617"><ele>37.0</ele><time>2026-05-03T14:42:16.982Z</time></trkpt><trkpt lat="40.2447233" lon="14.9723067"><ele>37.0</ele><time>2026-05-03T14:42:17.982Z</time></trkpt><trkpt lat="40.2446033" lon="14.972235"><ele>37.0</ele><time>2026-05-03T14:42:18.983Z</time></trkpt><trkpt lat="40.2444883" lon="14.9721383"><ele>40.0</ele><time>2026-05-03T14:42:19.983Z</time></trkpt><trkpt lat="40.2443567" lon="14.97202"><ele>43.0</ele><time>2026-05-03T14:42:20.982Z</time></trkpt><trkpt lat="40.2442117" lon="14.971885"><ele>46.0</ele><time>2026-05-03T14:42:21.982Z</time></trkpt><trkpt lat="40.2440633" lon="14.9717517"><ele>48.66666666666667</ele><time>2026-05-03T14:42:22.983Z</time></trkpt><trkpt lat="40.2439117" lon="14.9716267"><ele>51.333333333333336</ele><time>2026-05-03T14:42:23.985Z</time></trkpt><trkpt lat="40.2437667" lon="14.9715133"><ele>54.0</ele><time>2026-05-03T14:42:24.983Z</time></trkpt><trkpt lat="40.2436367" lon="14.9713983"><ele>54.0</ele><time>2026-05-03T14:42:25.986Z</time></trkpt><trkpt lat="40.2435133" lon="14.97129"><ele>54.0</ele><time>2026-05-03T14:42:26.983Z</time></trkpt><trkpt lat="40.2434" lon="14.971185"><ele>54.0</ele><time>2026-05-03T14:42:27.983Z</time></trkpt><trkpt lat="40.2432967" lon="14.9710867"><ele>54.0</ele><time>2026-05-03T14:42:28.982Z</time></trkpt><trkpt lat="40.243205" lon="14.970975"><ele>54.0</ele><time>2026-05-03T14:42:29.982Z</time></trkpt><trkpt lat="40.243135" lon="14.9708583"><ele>54.00000000000001</ele><time>2026-05-03T14:42:30.983Z</time></trkpt><trkpt lat="40.2430817" lon="14.9707367"><ele>54.00000000000001</ele><time>2026-05-03T14:42:31.984Z</time></trkpt><trkpt lat="40.2430517" lon="14.9706"><ele>54.0</ele><time>2026-05-03T14:42:32.983Z</time></trkpt><trkpt lat="40.2430333" lon="14.9704583"><ele>54.0</ele><time>2026-05-03T14:42:33.982Z</time></trkpt><trkpt lat="40.2430033" lon="14.9703167"><ele>51.666666666666664</ele><time>2026-05-03T14:42:34.982Z</time></trkpt><trkpt lat="40.242945" lon="14.97016"><ele>49.33333333333333</ele><time>2026-05-03T14:42:35.984Z</time></trkpt><trkpt lat="40.2428583" lon="14.9699883"><ele>47.0</ele><time>2026-05-03T14:42:36.983Z</time></trkpt><trkpt lat="40.24276" lon="14.9698067"><ele>43.75</ele><time>2026-05-03T14:42:37.983Z</time></trkpt><trkpt lat="40.2426633" lon="14.9696383"><ele>40.5</ele><time>2026-05-03T14:42:38.985Z</time></trkpt><trkpt lat="40.24257" lon="14.9694867"><ele>37.25</ele><time>2026-05-03T14:42:39.982Z</time></trkpt><trkpt lat="40.242485" lon="14.9693467"><ele>34.0</ele><time>2026-05-03T14:42:40.982Z</time></trkpt><trkpt lat="40.242415" lon="14.969215"><ele>32.25</ele><time>2026-05-03T14:42:41.982Z</time></trkpt><trkpt lat="40.2423667" lon="14.969075"><ele>30.5</ele><time>2026-05-03T14:42:42.983Z</time></trkpt><trkpt lat="40.2423317" lon="14.9689083"><ele>28.75</ele><time>2026-05-03T14:42:43.982Z</time></trkpt><trkpt lat="40.2423" lon="14.9687183"><ele>27.0</ele><time>2026-05-03T14:42:44.984Z</time></trkpt><trkpt lat="40.2422717" lon="14.96851"><ele>33.666666666666664</ele><time>2026-05-03T14:42:45.981Z</time></trkpt><trkpt lat="40.2422467" lon="14.968295"><ele>40.33333333333333</ele><time>2026-05-03T14:42:46.982Z</time></trkpt><trkpt lat="40.24222" lon="14.96809"><ele>47.0</ele><time>2026-05-03T14:42:47.982Z</time></trkpt><trkpt lat="40.2422" lon="14.967905"><ele>47.0</ele><time>2026-05-03T14:42:48.982Z</time></trkpt><trkpt lat="40.242185" lon="14.9677267"><ele>47.0</ele><time>2026-05-03T14:42:49.982Z</time></trkpt><trkpt lat="40.2421733" lon="14.9675433"><ele>47.0</ele><time>2026-05-03T14:42:50.984Z</time></trkpt><trkpt lat="40.242165" lon="14.9673733"><ele>47.0</ele><time>2026-05-03T14:42:51.982Z</time></trkpt><trkpt lat="40.2421617" lon="14.96722"><ele>47.0</ele><time>2026-05-03T14:42:52.983Z</time></trkpt><trkpt lat="40.2421533" lon="14.967075"><ele>47.0</ele><time>2026-05-03T14:42:53.983Z</time></trkpt><trkpt lat="40.2421383" lon="14.9669467"><ele>47.0</ele><time>2026-05-03T14:42:54.984Z</time></trkpt><trkpt lat="40.2421017" lon="14.9668333"><ele>47.0</ele><time>2026-05-03T14:42:55.982Z</time></trkpt><trkpt lat="40.2420383" lon="14.966715"><ele>47.0</ele><time>2026-05-03T14:42:56.983Z</time></trkpt><trkpt lat="40.2419633" lon="14.9665883"><ele>44.75</ele><time>2026-05-03T14:42:57.984Z</time></trkpt><trkpt lat="40.2418833" lon="14.9664583"><ele>42.5</ele><time>2026-05-03T14:42:58.982Z</time></trkpt><trkpt lat="40.2418" lon="14.9663233"><ele>40.25</ele><time>2026-05-03T14:42:59.982Z</time></trkpt><trkpt lat="40.241695" lon="14.9661983"><ele>38.0</ele><time>2026-05-03T14:43:00.983Z</time></trkpt><trkpt lat="40.24158" lon="14.9660817"><ele>38.0</ele><time>2026-05-03T14:43:01.984Z</time></trkpt><trkpt lat="40.241475" lon="14.965975"><ele>38.0</ele><time>2026-05-03T14:43:02.983Z</time></trkpt><trkpt lat="40.2413733" lon="14.9658833"><ele>38.0</ele><time>2026-05-03T14:43:03.982Z</time></trkpt><trkpt lat="40.2412783" lon="14.965795"><ele>38.0</ele><time>2026-05-03T14:43:04.982Z</time></trkpt><trkpt lat="40.2411833" lon="14.96571"><ele>36.199999999999996</ele><time>2026-05-03T14:43:05.982Z</time></trkpt><trkpt lat="40.2410883" lon="14.9656267"><ele>34.4</ele><time>2026-05-03T14:43:06.982Z</time></trkpt><trkpt lat="40.240995" lon="14.9655417"><ele>32.599999999999994</ele><time>2026-05-03T14:43:07.984Z</time></trkpt><trkpt lat="40.2409083" lon="14.9654633"><ele>30.799999999999997</ele><time>2026-05-03T14:43:08.984Z</time></trkpt><trkpt lat="40.2408283" lon="14.9653833"><ele>29.0</ele><time>2026-05-03T14:43:09.981Z</time></trkpt><trkpt lat="40.2407533" lon="14.9652967"><ele>29.0</ele><time>2026-05-03T14:43:10.983Z</time></trkpt><trkpt lat="40.24068" lon="14.96521"><ele>29.0</ele><time>2026-05-03T14:43:11.982Z</time></trkpt><trkpt lat="40.24061" lon="14.965125"><ele>29.0</ele><time>2026-05-03T14:43:12.982Z</time></trkpt><trkpt lat="40.2405417" lon="14.9650417"><ele>29.0</ele><time>2026-05-03T14:43:13.982Z</time></trkpt><trkpt lat="40.2404783" lon="14.9649633"><ele>29.0</ele><time>2026-05-03T14:43:14.983Z</time></trkpt><trkpt lat="40.2404283" lon="14.9648883"><ele>28.499999999999996</ele><time>2026-05-03T14:43:15.981Z</time></trkpt><trkpt lat="40.2403833" lon="14.9648033"><ele>28.0</ele><time>2026-05-03T14:43:16.981Z</time></trkpt><trkpt lat="40.2403583" lon="14.964715"><ele>27.5</ele><time>2026-05-03T14:43:17.982Z</time></trkpt><trkpt lat="40.240355" lon="14.9646267"><ele>27.0</ele><time>2026-05-03T14:43:18.983Z</time></trkpt><trkpt lat="40.2403717" lon="14.9645433"><ele>26.499999999999996</ele><time>2026-05-03T14:43:19.982Z</time></trkpt><trkpt lat="40.2404067" lon="14.964415"><ele>26.0</ele><time>2026-05-03T14:43:21.983Z</time></trkpt><trkpt lat="40.2404667" lon="14.96428"><ele>26.0</ele><time>2026-05-03T14:43:23.983Z</time></trkpt><trkpt lat="40.240515" lon="14.9641983"><ele>26.0</ele><time>2026-05-03T14:43:24.982Z</time></trkpt><trkpt lat="40.2405983" lon="14.9640983"><ele>26.0</ele><time>2026-05-03T14:43:25.986Z</time></trkpt><trkpt lat="40.240695" lon="14.963985"><ele>26.0</ele><time>2026-05-03T14:43:26.984Z</time></trkpt><trkpt lat="40.240795" lon="14.9638767"><ele>22.75</ele><time>2026-05-03T14:43:27.982Z</time></trkpt><trkpt lat="40.2408967" lon="14.963775"><ele>19.5</ele><time>2026-05-03T14:43:28.982Z</time></trkpt><trkpt lat="40.2409967" lon="14.9636617"><ele>16.25</ele><time>2026-05-03T14:43:29.982Z</time></trkpt><trkpt lat="40.2410883" lon="14.963555"><ele>13.0</ele><time>2026-05-03T14:43:30.982Z</time></trkpt><trkpt lat="40.241175" lon="14.9634433"><ele>13.0</ele><time>2026-05-03T14:43:31.982Z</time></trkpt><trkpt lat="40.241265" lon="14.9633367"><ele>13.0</ele><time>2026-05-03T14:43:32.984Z</time></trkpt><trkpt lat="40.24136" lon="14.9632267"><ele>13.0</ele><time>2026-05-03T14:43:33.982Z</time></trkpt><trkpt lat="40.2414583" lon="14.963115"><ele>13.0</ele><time>2026-05-03T14:43:34.982Z</time></trkpt><trkpt lat="40.24156" lon="14.963"><ele>13.0</ele><time>2026-05-03T14:43:35.983Z</time></trkpt><trkpt lat="40.2416633" lon="14.96289"><ele>13.0</ele><time>2026-05-03T14:43:36.982Z</time></trkpt><trkpt lat="40.2417683" lon="14.9627783"><ele>13.0</ele><time>2026-05-03T14:43:37.983Z</time></trkpt><trkpt lat="40.2418733" lon="14.96266"><ele>13.0</ele><time>2026-05-03T14:43:38.984Z</time></trkpt><trkpt lat="40.2419783" lon="14.9625467"><ele>12.5</ele><time>2026-05-03T14:43:39.983Z</time></trkpt><trkpt lat="40.2420767" lon="14.962435"><ele>12.0</ele><time>2026-05-03T14:43:40.983Z</time></trkpt><trkpt lat="40.2421733" lon="14.9623233"><ele>11.5</ele><time>2026-05-03T14:43:41.982Z</time></trkpt><trkpt lat="40.2422733" lon="14.9622117"><ele>11.0</ele><time>2026-05-03T14:43:42.982Z</time></trkpt><trkpt lat="40.242375" lon="14.9621017"><ele>11.0</ele><time>2026-05-03T14:43:43.984Z</time></trkpt><trkpt lat="40.2424783" lon="14.9619867"><ele>11.0</ele><time>2026-05-03T14:43:44.982Z</time></trkpt><trkpt lat="40.24258" lon="14.9618717"><ele>11.0</ele><time>2026-05-03T14:43:45.982Z</time></trkpt><trkpt lat="40.2426833" lon="14.9617617"><ele>11.0</ele><time>2026-05-03T14:43:46.984Z</time></trkpt><trkpt lat="40.2427817" lon="14.9616533"><ele>11.600000000000001</ele><time>2026-05-03T14:43:47.983Z</time></trkpt><trkpt lat="40.24287" lon="14.9615533"><ele>12.2</ele><time>2026-05-03T14:43:48.982Z</time></trkpt><trkpt lat="40.2429567" lon="14.9614633"><ele>12.799999999999999</ele><time>2026-05-03T14:43:49.982Z</time></trkpt><trkpt lat="40.24303" lon="14.961385"><ele>13.399999999999999</ele><time>2026-05-03T14:43:50.984Z</time></trkpt><trkpt lat="40.2430867" lon="14.9613167"><ele>14.0</ele><time>2026-05-03T14:43:51.982Z</time></trkpt><trkpt lat="40.2431333" lon="14.9612533"><ele>14.0</ele><time>2026-05-03T14:43:52.985Z</time></trkpt><trkpt lat="40.2431183" lon="14.961135"><ele>14.0</ele><time>2026-05-03T14:43:54.982Z</time></trkpt><trkpt lat="40.2430067" lon="14.9610233"><ele>14.0</ele><time>2026-05-03T14:43:56.983Z</time></trkpt><trkpt lat="40.2429117" lon="14.9609733"><ele>14.0</ele><time>2026-05-03T14:43:57.983Z</time></trkpt><trkpt lat="40.2427783" lon="14.96094"><ele>14.0</ele><time>2026-05-03T14:43:58.983Z</time></trkpt><trkpt lat="40.24263" lon="14.9609333"><ele>14.0</ele><time>2026-05-03T14:43:59.988Z</time></trkpt><trkpt lat="40.242485" lon="14.9609283"><ele>14.0</ele><time>2026-05-03T14:44:00.983Z</time></trkpt><trkpt lat="40.2423367" lon="14.9609283"><ele>14.0</ele><time>2026-05-03T14:44:01.983Z</time></trkpt><trkpt lat="40.2421917" lon="14.9609267"><ele>13.5</ele><time>2026-05-03T14:44:02.983Z</time></trkpt><trkpt lat="40.242055" lon="14.960925"><ele>13.0</ele><time>2026-05-03T14:44:03.982Z</time></trkpt><trkpt lat="40.2419267" lon="14.9609233"><ele>12.5</ele><time>2026-05-03T14:44:04.989Z</time></trkpt><trkpt lat="40.2418033" lon="14.9609183"><ele>12.0</ele><time>2026-05-03T14:44:05.982Z</time></trkpt><trkpt lat="40.2416883" lon="14.960905"><ele>11.5</ele><time>2026-05-03T14:44:06.982Z</time></trkpt><trkpt lat="40.2415833" lon="14.96086"><ele>11.0</ele><time>2026-05-03T14:44:07.983Z</time></trkpt><trkpt lat="40.2414817" lon="14.9607883"><ele>10.5</ele><time>2026-05-03T14:44:08.983Z</time></trkpt><trkpt lat="40.2413817" lon="14.9606933"><ele>10.0</ele><time>2026-05-03T14:44:09.982Z</time></trkpt><trkpt lat="40.2412833" lon="14.9605867"><ele>10.0</ele><time>2026-05-03T14:44:10.983Z</time></trkpt><trkpt lat="40.2411833" lon="14.96048"><ele>10.0</ele><time>2026-05-03T14:44:11.982Z</time></trkpt><trkpt lat="40.2410817" lon="14.9603733"><ele>10.0</ele><time>2026-05-03T14:44:12.983Z</time></trkpt><trkpt lat="40.2409767" lon="14.9602667"><ele>10.0</ele><time>2026-05-03T14:44:13.982Z</time></trkpt><trkpt lat="40.240875" lon="14.9601583"><ele>10.0</ele><time>2026-05-03T14:44:14.983Z</time></trkpt><trkpt lat="40.24078" lon="14.960055"><ele>10.0</ele><time>2026-05-03T14:44:15.983Z</time></trkpt><trkpt lat="40.2406917" lon="14.9599583"><ele>10.0</ele><time>2026-05-03T14:44:16.983Z</time></trkpt><trkpt lat="40.2406117" lon="14.9598633"><ele>10.0</ele><time>2026-05-03T14:44:17.982Z</time></trkpt><trkpt lat="40.240535" lon="14.95977"><ele>9.8</ele><time>2026-05-03T14:44:18.984Z</time></trkpt><trkpt lat="40.2404583" lon="14.9596717"><ele>9.6</ele><time>2026-05-03T14:44:19.982Z</time></trkpt><trkpt lat="40.240385" lon="14.959575"><ele>9.4</ele><time>2026-05-03T14:44:20.982Z</time></trkpt><trkpt lat="40.2403117" lon="14.9594767"><ele>9.2</ele><time>2026-05-03T14:44:21.982Z</time></trkpt><trkpt lat="40.2402383" lon="14.9593783"><ele>9.0</ele><time>2026-05-03T14:44:22.982Z</time></trkpt><trkpt lat="40.2401683" lon="14.9592717"><ele>10.0</ele><time>2026-05-03T14:44:23.985Z</time></trkpt><trkpt lat="40.2401" lon="14.9591583"><ele>11.0</ele><time>2026-05-03T14:44:24.983Z</time></trkpt><trkpt lat="40.24003" lon="14.959035"><ele>12.0</ele><time>2026-05-03T14:44:25.984Z</time></trkpt><trkpt lat="40.2399617" lon="14.958905"><ele>13.0</ele><time>2026-05-03T14:44:26.984Z</time></trkpt><trkpt lat="40.2398967" lon="14.95878"><ele>13.0</ele><time>2026-05-03T14:44:27.983Z</time></trkpt><trkpt lat="40.2398317" lon="14.95865"><ele>13.0</ele><time>2026-05-03T14:44:28.983Z</time></trkpt><trkpt lat="40.2397667" lon="14.958525"><ele>13.0</ele><time>2026-05-03T14:44:29.983Z</time></trkpt><trkpt lat="40.2397033" lon="14.9584067"><ele>13.0</ele><time>2026-05-03T14:44:30.982Z</time></trkpt><trkpt lat="40.2396433" lon="14.95829"><ele>12.4</ele><time>2026-05-03T14:44:31.982Z</time></trkpt><trkpt lat="40.23958" lon="14.9581783"><ele>11.8</ele><time>2026-05-03T14:44:32.983Z</time></trkpt><trkpt lat="40.23952" lon="14.9580683"><ele>11.2</ele><time>2026-05-03T14:44:33.983Z</time></trkpt><trkpt lat="40.2394617" lon="14.957955"><ele>10.6</ele><time>2026-05-03T14:44:34.983Z</time></trkpt><trkpt lat="40.2394" lon="14.9578417"><ele>10.0</ele><time>2026-05-03T14:44:35.984Z</time></trkpt><trkpt lat="40.2393367" lon="14.9577233"><ele>10.0</ele><time>2026-05-03T14:44:36.983Z</time></trkpt><trkpt lat="40.2392667" lon="14.9576083"><ele>10.0</ele><time>2026-05-03T14:44:37.983Z</time></trkpt><trkpt lat="40.2392017" lon="14.957505"><ele>10.0</ele><time>2026-05-03T14:44:38.985Z</time></trkpt><trkpt lat="40.2391333" lon="14.9574167"><ele>10.0</ele><time>2026-05-03T14:44:39.983Z</time></trkpt><trkpt lat="40.2390617" lon="14.9573467"><ele>10.0</ele><time>2026-05-03T14:44:40.984Z</time></trkpt><trkpt lat="40.238985" lon="14.95728"><ele>9.8</ele><time>2026-05-03T14:44:41.983Z</time></trkpt><trkpt lat="40.2389083" lon="14.9572017"><ele>9.6</ele><time>2026-05-03T14:44:42.983Z</time></trkpt><trkpt lat="40.2388367" lon="14.9571183"><ele>9.4</ele><time>2026-05-03T14:44:43.984Z</time></trkpt><trkpt lat="40.2387717" lon="14.9570317"><ele>9.2</ele><time>2026-05-03T14:44:44.983Z</time></trkpt><trkpt lat="40.2387067" lon="14.9569467"><ele>9.0</ele><time>2026-05-03T14:44:45.983Z</time></trkpt><trkpt lat="40.23864" lon="14.9568833"><ele>9.0</ele><time>2026-05-03T14:44:46.983Z</time></trkpt><trkpt lat="40.2385667" lon="14.9568267"><ele>9.0</ele><time>2026-05-03T14:44:47.984Z</time></trkpt><trkpt lat="40.2384867" lon="14.9567833"><ele>9.0</ele><time>2026-05-03T14:44:48.984Z</time></trkpt><trkpt lat="40.2384017" lon="14.9567483"><ele>9.0</ele><time>2026-05-03T14:44:49.982Z</time></trkpt><trkpt lat="40.2383167" lon="14.9567317"><ele>9.0</ele><time>2026-05-03T14:44:50.983Z</time></trkpt><trkpt lat="40.2382317" lon="14.9567267"><ele>9.0</ele><time>2026-05-03T14:44:51.982Z</time></trkpt><trkpt lat="40.2381483" lon="14.956725"><ele>9.000000000000002</ele><time>2026-05-03T14:44:52.982Z</time></trkpt><trkpt lat="40.2380667" lon="14.9567317"><ele>9.0</ele><time>2026-05-03T14:44:53.982Z</time></trkpt><trkpt lat="40.2379867" lon="14.9567333"><ele>9.0</ele><time>2026-05-03T14:44:54.983Z</time></trkpt><trkpt lat="40.2379117" lon="14.9567283"><ele>9.0</ele><time>2026-05-03T14:44:55.982Z</time></trkpt><trkpt lat="40.2378483" lon="14.9567167"><ele>9.0</ele><time>2026-05-03T14:44:56.983Z</time></trkpt><trkpt lat="40.2377867" lon="14.9566917"><ele>9.000000000000002</ele><time>2026-05-03T14:44:57.982Z</time></trkpt><trkpt lat="40.2377333" lon="14.956645"><ele>9.0</ele><time>2026-05-03T14:44:58.982Z</time></trkpt><trkpt lat="40.2376883" lon="14.95658"><ele>9.0</ele><time>2026-05-03T14:44:59.982Z</time></trkpt><trkpt lat="40.2376517" lon="14.9564983"><ele>9.0</ele><time>2026-05-03T14:45:00.983Z</time></trkpt><trkpt lat="40.23762" lon="14.9563983"><ele>9.0</ele><time>2026-05-03T14:45:01.983Z</time></trkpt><trkpt lat="40.2375833" lon="14.9562883"><ele>9.0</ele><time>2026-05-03T14:45:02.983Z</time></trkpt><trkpt lat="40.2375433" lon="14.956175"><ele>9.0</ele><time>2026-05-03T14:45:03.982Z</time></trkpt><trkpt lat="40.2374883" lon="14.9560583"><ele>9.0</ele><time>2026-05-03T14:45:04.983Z</time></trkpt><trkpt lat="40.237425" lon="14.9559483"><ele>8.6</ele><time>2026-05-03T14:45:05.983Z</time></trkpt><trkpt lat="40.2373583" lon="14.95584"><ele>8.2</ele><time>2026-05-03T14:45:06.983Z</time></trkpt><trkpt lat="40.237295" lon="14.9557467"><ele>7.799999999999999</ele><time>2026-05-03T14:45:07.983Z</time></trkpt><trkpt lat="40.23723" lon="14.955655"><ele>7.3999999999999995</ele><time>2026-05-03T14:45:08.983Z</time></trkpt><trkpt lat="40.2371617" lon="14.9555783"><ele>7.0</ele><time>2026-05-03T14:45:09.983Z</time></trkpt><trkpt lat="40.2370833" lon="14.9555167"><ele>7.0</ele><time>2026-05-03T14:45:10.983Z</time></trkpt><trkpt lat="40.2369933" lon="14.9554633"><ele>6.999999999999999</ele><time>2026-05-03T14:45:11.983Z</time></trkpt><trkpt lat="40.2368917" lon="14.9554317"><ele>6.999999999999999</ele><time>2026-05-03T14:45:12.984Z</time></trkpt><trkpt lat="40.2367883" lon="14.9554067"><ele>7.0</ele><time>2026-05-03T14:45:13.984Z</time></trkpt><trkpt lat="40.2366883" lon="14.9553867"><ele>7.0</ele><time>2026-05-03T14:45:14.983Z</time></trkpt><trkpt lat="40.2365917" lon="14.9553617"><ele>7.0</ele><time>2026-05-03T14:45:15.983Z</time></trkpt><trkpt lat="40.236505" lon="14.95534"><ele>6.999999999999999</ele><time>2026-05-03T14:45:16.982Z</time></trkpt><trkpt lat="40.2364183" lon="14.9553217"><ele>6.999999999999999</ele><time>2026-05-03T14:45:17.984Z</time></trkpt><trkpt lat="40.2363283" lon="14.955295"><ele>7.0</ele><time>2026-05-03T14:45:18.983Z</time></trkpt><trkpt lat="40.2362383" lon="14.955265"><ele>7.0</ele><time>2026-05-03T14:45:19.982Z</time></trkpt><trkpt lat="40.236145" lon="14.955225"><ele>6.8</ele><time>2026-05-03T14:45:20.983Z</time></trkpt><trkpt lat="40.2360533" lon="14.9551833"><ele>6.6</ele><time>2026-05-03T14:45:21.983Z</time></trkpt><trkpt lat="40.2359583" lon="14.9551433"><ele>6.3999999999999995</ele><time>2026-05-03T14:45:22.982Z</time></trkpt><trkpt lat="40.235865" lon="14.9551"><ele>6.199999999999999</ele><time>2026-05-03T14:45:23.985Z</time></trkpt><trkpt lat="40.2357767" lon="14.955055"><ele>6.0</ele><time>2026-05-03T14:45:24.983Z</time></trkpt><trkpt lat="40.2356967" lon="14.9549967"><ele>6.0</ele><time>2026-05-03T14:45:25.982Z</time></trkpt><trkpt lat="40.23562" lon="14.954915"><ele>6.0</ele><time>2026-05-03T14:45:26.984Z</time></trkpt><trkpt lat="40.235545" lon="14.954825"><ele>6.0</ele><time>2026-05-03T14:45:27.982Z</time></trkpt><trkpt lat="40.23547" lon="14.954725"><ele>6.0</ele><time>2026-05-03T14:45:28.982Z</time></trkpt><trkpt lat="40.2353917" lon="14.9546233"><ele>6.0</ele><time>2026-05-03T14:45:29.982Z</time></trkpt><trkpt lat="40.2353083" lon="14.9545317"><ele>6.0</ele><time>2026-05-03T14:45:30.982Z</time></trkpt><trkpt lat="40.2352167" lon="14.9544583"><ele>6.0</ele><time>2026-05-03T14:45:31.982Z</time></trkpt><trkpt lat="40.2351217" lon="14.9543883"><ele>6.0</ele><time>2026-05-03T14:45:32.983Z</time></trkpt><trkpt lat="40.2350217" lon="14.95433"><ele>6.0</ele><time>2026-05-03T14:45:33.983Z</time></trkpt><trkpt lat="40.2349217" lon="14.954275"><ele>6.0</ele><time>2026-05-03T14:45:34.982Z</time></trkpt><trkpt lat="40.2348217" lon="14.9542233"><ele>5.6</ele><time>2026-05-03T14:45:35.984Z</time></trkpt><trkpt lat="40.234725" lon="14.954175"><ele>5.199999999999999</ele><time>2026-05-03T14:45:36.983Z</time></trkpt><trkpt lat="40.234635" lon="14.9541283"><ele>4.800000000000001</ele><time>2026-05-03T14:45:37.982Z</time></trkpt><trkpt lat="40.2345483" lon="14.9540867"><ele>4.4</ele><time>2026-05-03T14:45:38.983Z</time></trkpt><trkpt lat="40.2344633" lon="14.954045"><ele>4.0</ele><time>2026-05-03T14:45:39.983Z</time></trkpt><trkpt lat="40.2343817" lon="14.954005"><ele>3.9999999999999996</ele><time>2026-05-03T14:45:40.982Z</time></trkpt><trkpt lat="40.2343017" lon="14.953965"><ele>4.0</ele><time>2026-05-03T14:45:41.982Z</time></trkpt><trkpt lat="40.2342233" lon="14.9539283"><ele>4.0</ele><time>2026-05-03T14:45:42.983Z</time></trkpt><trkpt lat="40.2341433" lon="14.95389"><ele>4.0</ele><time>2026-05-03T14:45:43.982Z</time></trkpt><trkpt lat="40.2340683" lon="14.9538517"><ele>3.9999999999999996</ele><time>2026-05-03T14:45:44.983Z</time></trkpt><trkpt lat="40.2339933" lon="14.95381"><ele>4.0</ele><time>2026-05-03T14:45:45.982Z</time></trkpt><trkpt lat="40.2339217" lon="14.95376"><ele>4.0</ele><time>2026-05-03T14:45:46.983Z</time></trkpt><trkpt lat="40.2338467" lon="14.9536917"><ele>4.0</ele><time>2026-05-03T14:45:47.984Z</time></trkpt><trkpt lat="40.2337667" lon="14.9535967"><ele>4.0</ele><time>2026-05-03T14:45:48.984Z</time></trkpt><trkpt lat="40.2336983" lon="14.9534917"><ele>4.0</ele><time>2026-05-03T14:45:49.983Z</time></trkpt><trkpt lat="40.23364" lon="14.953385"><ele>4.0</ele><time>2026-05-03T14:45:50.984Z</time></trkpt><trkpt lat="40.2335967" lon="14.95328"><ele>3.9999999999999996</ele><time>2026-05-03T14:45:51.983Z</time></trkpt><trkpt lat="40.2335633" lon="14.95318"><ele>4.0</ele><time>2026-05-03T14:45:52.983Z</time></trkpt><trkpt lat="40.2335417" lon="14.9530733"><ele>4.0</ele><time>2026-05-03T14:45:53.983Z</time></trkpt><trkpt lat="40.2335267" lon="14.9529667"><ele>4.0</ele><time>2026-05-03T14:45:54.983Z</time></trkpt><trkpt lat="40.2335183" lon="14.9528517"><ele>3.9999999999999996</ele><time>2026-05-03T14:45:55.982Z</time></trkpt><trkpt lat="40.2335183" lon="14.95273"><ele>4.0</ele><time>2026-05-03T14:45:56.982Z</time></trkpt><trkpt lat="40.23352" lon="14.9526083"><ele>4.0</ele><time>2026-05-03T14:45:57.982Z</time></trkpt><trkpt lat="40.2335217" lon="14.952485"><ele>4.0</ele><time>2026-05-03T14:45:58.983Z</time></trkpt><trkpt lat="40.2335283" lon="14.9523567"><ele>4.0</ele><time>2026-05-03T14:45:59.982Z</time></trkpt><trkpt lat="40.2335333" lon="14.9522283"><ele>4.0</ele><time>2026-05-03T14:46:00.982Z</time></trkpt><trkpt lat="40.2335383" lon="14.9520967"><ele>4.0</ele><time>2026-05-03T14:46:01.982Z</time></trkpt><trkpt lat="40.2335417" lon="14.9519633"><ele>4.0</ele><time>2026-05-03T14:46:02.984Z</time></trkpt><trkpt lat="40.2335433" lon="14.9518283"><ele>4.0</ele><time>2026-05-03T14:46:03.983Z</time></trkpt><trkpt lat="40.2335417" lon="14.951695"><ele>4.0</ele><time>2026-05-03T14:46:04.984Z</time></trkpt><trkpt lat="40.2335417" lon="14.95156"><ele>4.0</ele><time>2026-05-03T14:46:05.983Z</time></trkpt><trkpt lat="40.2335417" lon="14.9514233"><ele>4.0</ele><time>2026-05-03T14:46:06.983Z</time></trkpt><trkpt lat="40.2335417" lon="14.95129"><ele>4.2</ele><time>2026-05-03T14:46:07.984Z</time></trkpt><trkpt lat="40.2335383" lon="14.9511617"><ele>4.4</ele><time>2026-05-03T14:46:08.983Z</time></trkpt><trkpt lat="40.2335367" lon="14.9510267"><ele>4.6</ele><time>2026-05-03T14:46:09.983Z</time></trkpt><trkpt lat="40.2335433" lon="14.9508883"><ele>4.8</ele><time>2026-05-03T14:46:10.983Z</time></trkpt><trkpt lat="40.2335567" lon="14.9507533"><ele>5.0</ele><time>2026-05-03T14:46:11.982Z</time></trkpt><trkpt lat="40.2335717" lon="14.9506233"><ele>5.0</ele><time>2026-05-03T14:46:12.982Z</time></trkpt><trkpt lat="40.2335933" lon="14.9504917"><ele>5.0</ele><time>2026-05-03T14:46:13.982Z</time></trkpt><trkpt lat="40.2336217" lon="14.9503467"><ele>5.0</ele><time>2026-05-03T14:46:14.984Z</time></trkpt><trkpt lat="40.2336583" lon="14.9501883"><ele>5.0</ele><time>2026-05-03T14:46:15.982Z</time></trkpt><trkpt lat="40.2337" lon="14.9500133"><ele>5.666666666666667</ele><time>2026-05-03T14:46:16.983Z</time></trkpt><trkpt lat="40.2337467" lon="14.94983"><ele>6.333333333333334</ele><time>2026-05-03T14:46:17.983Z</time></trkpt><trkpt lat="40.2337933" lon="14.9496317"><ele>7.0</ele><time>2026-05-03T14:46:18.983Z</time></trkpt><trkpt lat="40.2338317" lon="14.94945"><ele>7.0</ele><time>2026-05-03T14:46:19.984Z</time></trkpt><trkpt lat="40.2338717" lon="14.9492733"><ele>7.0</ele><time>2026-05-03T14:46:20.982Z</time></trkpt><trkpt lat="40.233905" lon="14.9491033"><ele>7.0</ele><time>2026-05-03T14:46:21.983Z</time></trkpt><trkpt lat="40.2339267" lon="14.94894"><ele>7.0</ele><time>2026-05-03T14:46:22.983Z</time></trkpt><trkpt lat="40.2339383" lon="14.9487883"><ele>6.0</ele><time>2026-05-03T14:46:23.982Z</time></trkpt><trkpt lat="40.233945" lon="14.9486433"><ele>6.0</ele><time>2026-05-03T14:46:24.983Z</time></trkpt><trkpt lat="40.2339433" lon="14.94851"><ele>6.0</ele><time>2026-05-03T14:46:25.982Z</time></trkpt></trkseg></trk></gpx>